<?xml version="1.0" encoding="UTF-8" standalone="no" ?>
<gpx xmlns="http://www.topografix.com/GPX/1/1" xmlns:xsi="http://www.w3.org/2001/XMLSchema-instance" xsi:schemaLocation="http://www.topografix.com/GPX/1/1 http://www.topografix.com/GPX/1/1/gpx.xsd" version="1.1" creator="VisuGPX - https://www.visugpx.com">
  <metadata>
    <name>Couchoise 2010</name>
    <desc><![CDATA[Parcours 44 km]]></desc>
  </metadata>
  <trk>
    <name><![CDATA[71 D La Couchoise 2010]]></name>
    <trkseg>
      <trkpt lat="46.86514" lon="4.57953">
        <ele>301.03</ele>
        <time>2010-04-25T06:39:06Z</time>
      </trkpt>
      <trkpt lat="46.86514" lon="4.57954">
        <ele>301.03</ele>
        <time>2010-04-25T06:39:07Z</time>
      </trkpt>
      <trkpt lat="46.86512" lon="4.57955">
        <ele>295.74</ele>
        <time>2010-04-25T06:39:10Z</time>
      </trkpt>
      <trkpt lat="46.86508" lon="4.57954">
        <ele>298.63</ele>
        <time>2010-04-25T06:39:16Z</time>
      </trkpt>
      <trkpt lat="46.86507" lon="4.57952">
        <ele>298.63</ele>
        <time>2010-04-25T06:39:18Z</time>
      </trkpt>
      <trkpt lat="46.86505" lon="4.57952">
        <ele>298.63</ele>
        <time>2010-04-25T06:39:19Z</time>
      </trkpt>
      <trkpt lat="46.86493" lon="4.57964">
        <ele>302.47</ele>
        <time>2010-04-25T06:39:27Z</time>
      </trkpt>
      <trkpt lat="46.86491" lon="4.57965">
        <ele>302.47</ele>
        <time>2010-04-25T06:39:28Z</time>
      </trkpt>
      <trkpt lat="46.86489" lon="4.57967">
        <ele>299.59</ele>
        <time>2010-04-25T06:39:29Z</time>
      </trkpt>
      <trkpt lat="46.86478" lon="4.57991">
        <ele>300.55</ele>
        <time>2010-04-25T06:39:37Z</time>
      </trkpt>
      <trkpt lat="46.86464" lon="4.58009">
        <ele>301.51</ele>
        <time>2010-04-25T06:39:44Z</time>
      </trkpt>
      <trkpt lat="46.86419" lon="4.58178">
        <ele>301.99</ele>
        <time>2010-04-25T06:39:53Z</time>
      </trkpt>
      <trkpt lat="46.86408" lon="4.58204">
        <ele>305.36</ele>
        <time>2010-04-25T06:39:58Z</time>
      </trkpt>
      <trkpt lat="46.86402" lon="4.58214">
        <ele>306.8</ele>
        <time>2010-04-25T06:40:01Z</time>
      </trkpt>
      <trkpt lat="46.86394" lon="4.58227">
        <ele>309.2</ele>
        <time>2010-04-25T06:40:05Z</time>
      </trkpt>
      <trkpt lat="46.86389" lon="4.58236">
        <ele>312.09</ele>
        <time>2010-04-25T06:40:08Z</time>
      </trkpt>
      <trkpt lat="46.86376" lon="4.58264">
        <ele>314.49</ele>
        <time>2010-04-25T06:40:15Z</time>
      </trkpt>
      <trkpt lat="46.86359" lon="4.58306">
        <ele>317.37</ele>
        <time>2010-04-25T06:40:24Z</time>
      </trkpt>
      <trkpt lat="46.86358" lon="4.58311">
        <ele>316.89</ele>
        <time>2010-04-25T06:40:25Z</time>
      </trkpt>
      <trkpt lat="46.86364" lon="4.58332">
        <ele>315.93</ele>
        <time>2010-04-25T06:40:28Z</time>
      </trkpt>
      <trkpt lat="46.86371" lon="4.58348">
        <ele>314.49</ele>
        <time>2010-04-25T06:40:32Z</time>
      </trkpt>
      <trkpt lat="46.8636" lon="4.58367">
        <ele>314.97</ele>
        <time>2010-04-25T06:40:39Z</time>
      </trkpt>
      <trkpt lat="46.86338" lon="4.58388">
        <ele>315.93</ele>
        <time>2010-04-25T06:40:48Z</time>
      </trkpt>
      <trkpt lat="46.86327" lon="4.58394">
        <ele>317.37</ele>
        <time>2010-04-25T06:40:52Z</time>
      </trkpt>
      <trkpt lat="46.86299" lon="4.58405">
        <ele>317.85</ele>
        <time>2010-04-25T06:41:00Z</time>
      </trkpt>
      <trkpt lat="46.86276" lon="4.5841">
        <ele>316.41</ele>
        <time>2010-04-25T06:41:06Z</time>
      </trkpt>
      <trkpt lat="46.86263" lon="4.58407">
        <ele>314.01</ele>
        <time>2010-04-25T06:41:09Z</time>
      </trkpt>
      <trkpt lat="46.86255" lon="4.58415">
        <ele>314.01</ele>
        <time>2010-04-25T06:41:12Z</time>
      </trkpt>
      <trkpt lat="46.86244" lon="4.58441">
        <ele>311.12</ele>
        <time>2010-04-25T06:41:16Z</time>
      </trkpt>
      <trkpt lat="46.86237" lon="4.58456">
        <ele>309.2</ele>
        <time>2010-04-25T06:41:18Z</time>
      </trkpt>
      <trkpt lat="46.86234" lon="4.58462">
        <ele>307.76</ele>
        <time>2010-04-25T06:41:19Z</time>
      </trkpt>
      <trkpt lat="46.86231" lon="4.58466">
        <ele>306.32</ele>
        <time>2010-04-25T06:41:20Z</time>
      </trkpt>
      <trkpt lat="46.86228" lon="4.58468">
        <ele>304.88</ele>
        <time>2010-04-25T06:41:21Z</time>
      </trkpt>
      <trkpt lat="46.86228" lon="4.58471">
        <ele>304.39</ele>
        <time>2010-04-25T06:41:22Z</time>
      </trkpt>
      <trkpt lat="46.86228" lon="4.58473">
        <ele>303.91</ele>
        <time>2010-04-25T06:41:23Z</time>
      </trkpt>
      <trkpt lat="46.86228" lon="4.58476">
        <ele>303.91</ele>
        <time>2010-04-25T06:41:24Z</time>
      </trkpt>
      <trkpt lat="46.86227" lon="4.58479">
        <ele>303.43</ele>
        <time>2010-04-25T06:41:25Z</time>
      </trkpt>
      <trkpt lat="46.86225" lon="4.58481">
        <ele>303.43</ele>
        <time>2010-04-25T06:41:26Z</time>
      </trkpt>
      <trkpt lat="46.86221" lon="4.5848">
        <ele>303.43</ele>
        <time>2010-04-25T06:41:27Z</time>
      </trkpt>
      <trkpt lat="46.86217" lon="4.58479">
        <ele>303.43</ele>
        <time>2010-04-25T06:41:28Z</time>
      </trkpt>
      <trkpt lat="46.86207" lon="4.58475">
        <ele>301.99</ele>
        <time>2010-04-25T06:41:30Z</time>
      </trkpt>
      <trkpt lat="46.86203" lon="4.58471">
        <ele>301.99</ele>
        <time>2010-04-25T06:41:31Z</time>
      </trkpt>
      <trkpt lat="46.86198" lon="4.58468">
        <ele>301.51</ele>
        <time>2010-04-25T06:41:32Z</time>
      </trkpt>
      <trkpt lat="46.86194" lon="4.58468">
        <ele>300.55</ele>
        <time>2010-04-25T06:41:33Z</time>
      </trkpt>
      <trkpt lat="46.86189" lon="4.5847">
        <ele>300.55</ele>
        <time>2010-04-25T06:41:34Z</time>
      </trkpt>
      <trkpt lat="46.86186" lon="4.58474">
        <ele>300.55</ele>
        <time>2010-04-25T06:41:35Z</time>
      </trkpt>
      <trkpt lat="46.86186" lon="4.58481">
        <ele>299.59</ele>
        <time>2010-04-25T06:41:36Z</time>
      </trkpt>
      <trkpt lat="46.86188" lon="4.58489">
        <ele>299.59</ele>
        <time>2010-04-25T06:41:37Z</time>
      </trkpt>
      <trkpt lat="46.8619" lon="4.58497">
        <ele>299.11</ele>
        <time>2010-04-25T06:41:38Z</time>
      </trkpt>
      <trkpt lat="46.86193" lon="4.58504">
        <ele>299.11</ele>
        <time>2010-04-25T06:41:39Z</time>
      </trkpt>
      <trkpt lat="46.86197" lon="4.58519">
        <ele>300.07</ele>
        <time>2010-04-25T06:41:41Z</time>
      </trkpt>
      <trkpt lat="46.86197" lon="4.58528">
        <ele>299.59</ele>
        <time>2010-04-25T06:41:42Z</time>
      </trkpt>
      <trkpt lat="46.86199" lon="4.58534">
        <ele>299.59</ele>
        <time>2010-04-25T06:41:43Z</time>
      </trkpt>
      <trkpt lat="46.86201" lon="4.58539">
        <ele>299.59</ele>
        <time>2010-04-25T06:41:44Z</time>
      </trkpt>
      <trkpt lat="46.86202" lon="4.58546">
        <ele>300.07</ele>
        <time>2010-04-25T06:41:45Z</time>
      </trkpt>
      <trkpt lat="46.86205" lon="4.58559">
        <ele>299.59</ele>
        <time>2010-04-25T06:41:47Z</time>
      </trkpt>
      <trkpt lat="46.86206" lon="4.58566">
        <ele>299.59</ele>
        <time>2010-04-25T06:41:48Z</time>
      </trkpt>
      <trkpt lat="46.86208" lon="4.58572">
        <ele>300.07</ele>
        <time>2010-04-25T06:41:49Z</time>
      </trkpt>
      <trkpt lat="46.8621" lon="4.58578">
        <ele>300.07</ele>
        <time>2010-04-25T06:41:50Z</time>
      </trkpt>
      <trkpt lat="46.86212" lon="4.58584">
        <ele>299.59</ele>
        <time>2010-04-25T06:41:51Z</time>
      </trkpt>
      <trkpt lat="46.86213" lon="4.58591">
        <ele>299.59</ele>
        <time>2010-04-25T06:41:52Z</time>
      </trkpt>
      <trkpt lat="46.86214" lon="4.58598">
        <ele>299.59</ele>
        <time>2010-04-25T06:41:53Z</time>
      </trkpt>
      <trkpt lat="46.86213" lon="4.58604">
        <ele>299.59</ele>
        <time>2010-04-25T06:41:54Z</time>
      </trkpt>
      <trkpt lat="46.86212" lon="4.58608">
        <ele>299.59</ele>
        <time>2010-04-25T06:41:55Z</time>
      </trkpt>
      <trkpt lat="46.86211" lon="4.58609">
        <ele>300.55</ele>
        <time>2010-04-25T06:41:56Z</time>
      </trkpt>
      <trkpt lat="46.86208" lon="4.58611">
        <ele>300.55</ele>
        <time>2010-04-25T06:41:57Z</time>
      </trkpt>
      <trkpt lat="46.86206" lon="4.58611">
        <ele>300.07</ele>
        <time>2010-04-25T06:41:58Z</time>
      </trkpt>
      <trkpt lat="46.86205" lon="4.58609">
        <ele>300.55</ele>
        <time>2010-04-25T06:41:59Z</time>
      </trkpt>
      <trkpt lat="46.86204" lon="4.58606">
        <ele>301.03</ele>
        <time>2010-04-25T06:42:00Z</time>
      </trkpt>
      <trkpt lat="46.86203" lon="4.58603">
        <ele>300.55</ele>
        <time>2010-04-25T06:42:01Z</time>
      </trkpt>
      <trkpt lat="46.86202" lon="4.586">
        <ele>301.03</ele>
        <time>2010-04-25T06:42:02Z</time>
      </trkpt>
      <trkpt lat="46.86192" lon="4.58577">
        <ele>303.43</ele>
        <time>2010-04-25T06:42:10Z</time>
      </trkpt>
      <trkpt lat="46.86183" lon="4.58562">
        <ele>305.36</ele>
        <time>2010-04-25T06:42:17Z</time>
      </trkpt>
      <trkpt lat="46.86181" lon="4.58561">
        <ele>305.36</ele>
        <time>2010-04-25T06:42:18Z</time>
      </trkpt>
      <trkpt lat="46.8618" lon="4.58562">
        <ele>306.32</ele>
        <time>2010-04-25T06:42:19Z</time>
      </trkpt>
      <trkpt lat="46.86178" lon="4.58562">
        <ele>306.32</ele>
        <time>2010-04-25T06:42:20Z</time>
      </trkpt>
      <trkpt lat="46.86174" lon="4.58568">
        <ele>306.8</ele>
        <time>2010-04-25T06:42:25Z</time>
      </trkpt>
      <trkpt lat="46.86164" lon="4.58588">
        <ele>308.72</ele>
        <time>2010-04-25T06:42:32Z</time>
      </trkpt>
      <trkpt lat="46.86153" lon="4.58615">
        <ele>310.16</ele>
        <time>2010-04-25T06:42:41Z</time>
      </trkpt>
      <trkpt lat="46.86138" lon="4.58642">
        <ele>311.12</ele>
        <time>2010-04-25T06:42:50Z</time>
      </trkpt>
      <trkpt lat="46.8612" lon="4.58677">
        <ele>313.05</ele>
        <time>2010-04-25T06:43:01Z</time>
      </trkpt>
      <trkpt lat="46.86108" lon="4.58698">
        <ele>314.97</ele>
        <time>2010-04-25T06:43:10Z</time>
      </trkpt>
      <trkpt lat="46.86101" lon="4.58716">
        <ele>316.89</ele>
        <time>2010-04-25T06:43:17Z</time>
      </trkpt>
      <trkpt lat="46.8609" lon="4.58734">
        <ele>318.81</ele>
        <time>2010-04-25T06:43:26Z</time>
      </trkpt>
      <trkpt lat="46.86079" lon="4.58753">
        <ele>320.74</ele>
        <time>2010-04-25T06:43:35Z</time>
      </trkpt>
      <trkpt lat="46.8607" lon="4.58771">
        <ele>322.66</ele>
        <time>2010-04-25T06:43:44Z</time>
      </trkpt>
      <trkpt lat="46.86061" lon="4.58786">
        <ele>324.58</ele>
        <time>2010-04-25T06:43:52Z</time>
      </trkpt>
      <trkpt lat="46.8606" lon="4.58787">
        <ele>324.58</ele>
        <time>2010-04-25T06:43:53Z</time>
      </trkpt>
      <trkpt lat="46.86058" lon="4.58787">
        <ele>324.58</ele>
        <time>2010-04-25T06:43:54Z</time>
      </trkpt>
      <trkpt lat="46.86056" lon="4.58786">
        <ele>325.06</ele>
        <time>2010-04-25T06:43:55Z</time>
      </trkpt>
      <trkpt lat="46.86055" lon="4.58784">
        <ele>325.06</ele>
        <time>2010-04-25T06:43:56Z</time>
      </trkpt>
      <trkpt lat="46.86054" lon="4.58781">
        <ele>325.54</ele>
        <time>2010-04-25T06:43:57Z</time>
      </trkpt>
      <trkpt lat="46.86047" lon="4.58767">
        <ele>325.54</ele>
        <time>2010-04-25T06:44:03Z</time>
      </trkpt>
      <trkpt lat="46.86036" lon="4.58745">
        <ele>326.99</ele>
        <time>2010-04-25T06:44:12Z</time>
      </trkpt>
      <trkpt lat="46.86026" lon="4.58729">
        <ele>327.95</ele>
        <time>2010-04-25T06:44:19Z</time>
      </trkpt>
      <trkpt lat="46.86019" lon="4.58713">
        <ele>328.91</ele>
        <time>2010-04-25T06:44:26Z</time>
      </trkpt>
      <trkpt lat="46.86008" lon="4.58693">
        <ele>329.87</ele>
        <time>2010-04-25T06:44:34Z</time>
      </trkpt>
      <trkpt lat="46.86001" lon="4.58677">
        <ele>331.31</ele>
        <time>2010-04-25T06:44:40Z</time>
      </trkpt>
      <trkpt lat="46.85988" lon="4.58653">
        <ele>332.27</ele>
        <time>2010-04-25T06:44:49Z</time>
      </trkpt>
      <trkpt lat="46.85976" lon="4.5863">
        <ele>333.23</ele>
        <time>2010-04-25T06:44:57Z</time>
      </trkpt>
      <trkpt lat="46.85964" lon="4.58603">
        <ele>334.68</ele>
        <time>2010-04-25T06:45:06Z</time>
      </trkpt>
      <trkpt lat="46.8595" lon="4.58575">
        <ele>335.64</ele>
        <time>2010-04-25T06:45:15Z</time>
      </trkpt>
      <trkpt lat="46.8594" lon="4.58547">
        <ele>336.6</ele>
        <time>2010-04-25T06:45:23Z</time>
      </trkpt>
      <trkpt lat="46.8593" lon="4.58517">
        <ele>337.56</ele>
        <time>2010-04-25T06:45:32Z</time>
      </trkpt>
      <trkpt lat="46.85923" lon="4.58491">
        <ele>338.04</ele>
        <time>2010-04-25T06:45:40Z</time>
      </trkpt>
      <trkpt lat="46.85915" lon="4.58463">
        <ele>339.96</ele>
        <time>2010-04-25T06:45:49Z</time>
      </trkpt>
      <trkpt lat="46.85908" lon="4.58441">
        <ele>341.89</ele>
        <time>2010-04-25T06:45:57Z</time>
      </trkpt>
      <trkpt lat="46.859" lon="4.58422">
        <ele>344.29</ele>
        <time>2010-04-25T06:46:06Z</time>
      </trkpt>
      <trkpt lat="46.85894" lon="4.5841">
        <ele>349.1</ele>
        <time>2010-04-25T06:46:13Z</time>
      </trkpt>
      <trkpt lat="46.85893" lon="4.58407">
        <ele>345.25</ele>
        <time>2010-04-25T06:46:14Z</time>
      </trkpt>
      <trkpt lat="46.85892" lon="4.58406">
        <ele>344.77</ele>
        <time>2010-04-25T06:46:15Z</time>
      </trkpt>
      <trkpt lat="46.85889" lon="4.584">
        <ele>343.81</ele>
        <time>2010-04-25T06:46:18Z</time>
      </trkpt>
      <trkpt lat="46.85887" lon="4.58396">
        <ele>345.73</ele>
        <time>2010-04-25T06:46:20Z</time>
      </trkpt>
      <trkpt lat="46.85883" lon="4.58378">
        <ele>346.69</ele>
        <time>2010-04-25T06:46:27Z</time>
      </trkpt>
      <trkpt lat="46.85881" lon="4.58347">
        <ele>347.17</ele>
        <time>2010-04-25T06:46:35Z</time>
      </trkpt>
      <trkpt lat="46.85873" lon="4.58323">
        <ele>349.1</ele>
        <time>2010-04-25T06:46:42Z</time>
      </trkpt>
      <trkpt lat="46.85869" lon="4.58302">
        <ele>350.54</ele>
        <time>2010-04-25T06:46:49Z</time>
      </trkpt>
      <trkpt lat="46.85864" lon="4.58271">
        <ele>351.98</ele>
        <time>2010-04-25T06:46:57Z</time>
      </trkpt>
      <trkpt lat="46.85863" lon="4.58235">
        <ele>352.94</ele>
        <time>2010-04-25T06:47:05Z</time>
      </trkpt>
      <trkpt lat="46.8586" lon="4.58209">
        <ele>353.9</ele>
        <time>2010-04-25T06:47:11Z</time>
      </trkpt>
      <trkpt lat="46.85856" lon="4.58189">
        <ele>354.38</ele>
        <time>2010-04-25T06:47:16Z</time>
      </trkpt>
      <trkpt lat="46.85865" lon="4.58169">
        <ele>353.9</ele>
        <time>2010-04-25T06:47:20Z</time>
      </trkpt>
      <trkpt lat="46.85877" lon="4.58152">
        <ele>352.46</ele>
        <time>2010-04-25T06:47:23Z</time>
      </trkpt>
      <trkpt lat="46.8588" lon="4.58146">
        <ele>352.46</ele>
        <time>2010-04-25T06:47:24Z</time>
      </trkpt>
      <trkpt lat="46.8588" lon="4.58139">
        <ele>351.98</ele>
        <time>2010-04-25T06:47:25Z</time>
      </trkpt>
      <trkpt lat="46.8588" lon="4.58133">
        <ele>351.98</ele>
        <time>2010-04-25T06:47:26Z</time>
      </trkpt>
      <trkpt lat="46.85879" lon="4.58128">
        <ele>352.46</ele>
        <time>2010-04-25T06:47:27Z</time>
      </trkpt>
      <trkpt lat="46.85877" lon="4.58124">
        <ele>352.94</ele>
        <time>2010-04-25T06:47:28Z</time>
      </trkpt>
      <trkpt lat="46.85867" lon="4.58094">
        <ele>354.86</ele>
        <time>2010-04-25T06:47:36Z</time>
      </trkpt>
      <trkpt lat="46.85859" lon="4.58065">
        <ele>357.27</ele>
        <time>2010-04-25T06:47:46Z</time>
      </trkpt>
      <trkpt lat="46.85853" lon="4.5804">
        <ele>358.71</ele>
        <time>2010-04-25T06:47:55Z</time>
      </trkpt>
      <trkpt lat="46.85847" lon="4.58019">
        <ele>359.67</ele>
        <time>2010-04-25T06:48:04Z</time>
      </trkpt>
      <trkpt lat="46.85844" lon="4.58001">
        <ele>362.07</ele>
        <time>2010-04-25T06:48:12Z</time>
      </trkpt>
      <trkpt lat="46.85839" lon="4.57985">
        <ele>363.52</ele>
        <time>2010-04-25T06:48:20Z</time>
      </trkpt>
      <trkpt lat="46.85836" lon="4.57977">
        <ele>364</ele>
        <time>2010-04-25T06:48:24Z</time>
      </trkpt>
      <trkpt lat="46.85835" lon="4.57975">
        <ele>364.48</ele>
        <time>2010-04-25T06:48:25Z</time>
      </trkpt>
      <trkpt lat="46.85834" lon="4.57973">
        <ele>364.48</ele>
        <time>2010-04-25T06:48:26Z</time>
      </trkpt>
      <trkpt lat="46.85833" lon="4.57971">
        <ele>364.96</ele>
        <time>2010-04-25T06:48:27Z</time>
      </trkpt>
      <trkpt lat="46.85832" lon="4.57969">
        <ele>364.96</ele>
        <time>2010-04-25T06:48:28Z</time>
      </trkpt>
      <trkpt lat="46.85831" lon="4.57966">
        <ele>364.48</ele>
        <time>2010-04-25T06:48:29Z</time>
      </trkpt>
      <trkpt lat="46.85824" lon="4.57946">
        <ele>365.92</ele>
        <time>2010-04-25T06:48:38Z</time>
      </trkpt>
      <trkpt lat="46.85818" lon="4.5793">
        <ele>367.84</ele>
        <time>2010-04-25T06:48:46Z</time>
      </trkpt>
      <trkpt lat="46.85809" lon="4.57908">
        <ele>369.76</ele>
        <time>2010-04-25T06:48:55Z</time>
      </trkpt>
      <trkpt lat="46.858" lon="4.57884">
        <ele>370.24</ele>
        <time>2010-04-25T06:49:04Z</time>
      </trkpt>
      <trkpt lat="46.85789" lon="4.57874">
        <ele>370.73</ele>
        <time>2010-04-25T06:49:10Z</time>
      </trkpt>
      <trkpt lat="46.85766" lon="4.57865">
        <ele>371.69</ele>
        <time>2010-04-25T06:49:18Z</time>
      </trkpt>
      <trkpt lat="46.85742" lon="4.57855">
        <ele>373.13</ele>
        <time>2010-04-25T06:49:27Z</time>
      </trkpt>
      <trkpt lat="46.85717" lon="4.57842">
        <ele>374.57</ele>
        <time>2010-04-25T06:49:38Z</time>
      </trkpt>
      <trkpt lat="46.85702" lon="4.57821">
        <ele>374.09</ele>
        <time>2010-04-25T06:49:45Z</time>
      </trkpt>
      <trkpt lat="46.85695" lon="4.57796">
        <ele>375.05</ele>
        <time>2010-04-25T06:49:52Z</time>
      </trkpt>
      <trkpt lat="46.857" lon="4.5778">
        <ele>376.49</ele>
        <time>2010-04-25T06:49:58Z</time>
      </trkpt>
      <trkpt lat="46.857" lon="4.57778">
        <ele>376.49</ele>
        <time>2010-04-25T06:49:59Z</time>
      </trkpt>
      <trkpt lat="46.85701" lon="4.57776">
        <ele>376.49</ele>
        <time>2010-04-25T06:50:00Z</time>
      </trkpt>
      <trkpt lat="46.85701" lon="4.57773">
        <ele>376.49</ele>
        <time>2010-04-25T06:50:01Z</time>
      </trkpt>
      <trkpt lat="46.85701" lon="4.57771">
        <ele>376.97</ele>
        <time>2010-04-25T06:50:02Z</time>
      </trkpt>
      <trkpt lat="46.85702" lon="4.57769">
        <ele>377.45</ele>
        <time>2010-04-25T06:50:03Z</time>
      </trkpt>
      <trkpt lat="46.85701" lon="4.57767">
        <ele>377.45</ele>
        <time>2010-04-25T06:50:04Z</time>
      </trkpt>
      <trkpt lat="46.85698" lon="4.57745">
        <ele>378.9</ele>
        <time>2010-04-25T06:50:13Z</time>
      </trkpt>
      <trkpt lat="46.85696" lon="4.57743">
        <ele>378.9</ele>
        <time>2010-04-25T06:50:14Z</time>
      </trkpt>
      <trkpt lat="46.85694" lon="4.5774">
        <ele>378.9</ele>
        <time>2010-04-25T06:50:15Z</time>
      </trkpt>
      <trkpt lat="46.85679" lon="4.57716">
        <ele>379.38</ele>
        <time>2010-04-25T06:50:23Z</time>
      </trkpt>
      <trkpt lat="46.85666" lon="4.57698">
        <ele>381.3</ele>
        <time>2010-04-25T06:50:31Z</time>
      </trkpt>
      <trkpt lat="46.85651" lon="4.57681">
        <ele>382.74</ele>
        <time>2010-04-25T06:50:40Z</time>
      </trkpt>
      <trkpt lat="46.85639" lon="4.57665">
        <ele>383.22</ele>
        <time>2010-04-25T06:50:47Z</time>
      </trkpt>
      <trkpt lat="46.85626" lon="4.5765">
        <ele>383.7</ele>
        <time>2010-04-25T06:50:54Z</time>
      </trkpt>
      <trkpt lat="46.85605" lon="4.57637">
        <ele>384.66</ele>
        <time>2010-04-25T06:51:02Z</time>
      </trkpt>
      <trkpt lat="46.85584" lon="4.5763">
        <ele>385.63</ele>
        <time>2010-04-25T06:51:10Z</time>
      </trkpt>
      <trkpt lat="46.85566" lon="4.57637">
        <ele>384.66</ele>
        <time>2010-04-25T06:51:15Z</time>
      </trkpt>
      <trkpt lat="46.85562" lon="4.57637">
        <ele>384.66</ele>
        <time>2010-04-25T06:51:16Z</time>
      </trkpt>
      <trkpt lat="46.8554" lon="4.57631">
        <ele>384.66</ele>
        <time>2010-04-25T06:51:21Z</time>
      </trkpt>
      <trkpt lat="46.85535" lon="4.57632">
        <ele>384.18</ele>
        <time>2010-04-25T06:51:22Z</time>
      </trkpt>
      <trkpt lat="46.85532" lon="4.57636">
        <ele>384.18</ele>
        <time>2010-04-25T06:51:23Z</time>
      </trkpt>
      <trkpt lat="46.85529" lon="4.57643">
        <ele>384.18</ele>
        <time>2010-04-25T06:51:24Z</time>
      </trkpt>
      <trkpt lat="46.85527" lon="4.57651">
        <ele>383.7</ele>
        <time>2010-04-25T06:51:25Z</time>
      </trkpt>
      <trkpt lat="46.85521" lon="4.57669">
        <ele>382.26</ele>
        <time>2010-04-25T06:51:27Z</time>
      </trkpt>
      <trkpt lat="46.8551" lon="4.57714">
        <ele>379.86</ele>
        <time>2010-04-25T06:51:32Z</time>
      </trkpt>
      <trkpt lat="46.85508" lon="4.57722">
        <ele>379.38</ele>
        <time>2010-04-25T06:51:33Z</time>
      </trkpt>
      <trkpt lat="46.85506" lon="4.57736">
        <ele>378.9</ele>
        <time>2010-04-25T06:51:35Z</time>
      </trkpt>
      <trkpt lat="46.85505" lon="4.57744">
        <ele>378.9</ele>
        <time>2010-04-25T06:51:36Z</time>
      </trkpt>
      <trkpt lat="46.8549" lon="4.57811">
        <ele>377.45</ele>
        <time>2010-04-25T06:51:45Z</time>
      </trkpt>
      <trkpt lat="46.85473" lon="4.57841">
        <ele>377.45</ele>
        <time>2010-04-25T06:51:52Z</time>
      </trkpt>
      <trkpt lat="46.85455" lon="4.57866">
        <ele>377.45</ele>
        <time>2010-04-25T06:51:59Z</time>
      </trkpt>
      <trkpt lat="46.85426" lon="4.57907">
        <ele>378.42</ele>
        <time>2010-04-25T06:52:08Z</time>
      </trkpt>
      <trkpt lat="46.85404" lon="4.57947">
        <ele>379.38</ele>
        <time>2010-04-25T06:52:16Z</time>
      </trkpt>
      <trkpt lat="46.85386" lon="4.5799">
        <ele>381.3</ele>
        <time>2010-04-25T06:52:25Z</time>
      </trkpt>
      <trkpt lat="46.85377" lon="4.58018">
        <ele>382.74</ele>
        <time>2010-04-25T06:52:31Z</time>
      </trkpt>
      <trkpt lat="46.85371" lon="4.58054">
        <ele>385.15</ele>
        <time>2010-04-25T06:52:39Z</time>
      </trkpt>
      <trkpt lat="46.85368" lon="4.58066">
        <ele>385.15</ele>
        <time>2010-04-25T06:52:42Z</time>
      </trkpt>
      <trkpt lat="46.85366" lon="4.58068">
        <ele>385.63</ele>
        <time>2010-04-25T06:52:43Z</time>
      </trkpt>
      <trkpt lat="46.85363" lon="4.58069">
        <ele>385.15</ele>
        <time>2010-04-25T06:52:44Z</time>
      </trkpt>
      <trkpt lat="46.8536" lon="4.58069">
        <ele>385.63</ele>
        <time>2010-04-25T06:52:45Z</time>
      </trkpt>
      <trkpt lat="46.85356" lon="4.58069">
        <ele>385.63</ele>
        <time>2010-04-25T06:52:46Z</time>
      </trkpt>
      <trkpt lat="46.85327" lon="4.58066">
        <ele>385.63</ele>
        <time>2010-04-25T06:52:53Z</time>
      </trkpt>
      <trkpt lat="46.85318" lon="4.58063">
        <ele>386.11</ele>
        <time>2010-04-25T06:52:55Z</time>
      </trkpt>
      <trkpt lat="46.85315" lon="4.58062">
        <ele>385.63</ele>
        <time>2010-04-25T06:52:56Z</time>
      </trkpt>
      <trkpt lat="46.85311" lon="4.58061">
        <ele>385.15</ele>
        <time>2010-04-25T06:52:57Z</time>
      </trkpt>
      <trkpt lat="46.85303" lon="4.58059">
        <ele>385.15</ele>
        <time>2010-04-25T06:52:59Z</time>
      </trkpt>
      <trkpt lat="46.85299" lon="4.58057">
        <ele>384.66</ele>
        <time>2010-04-25T06:53:00Z</time>
      </trkpt>
      <trkpt lat="46.85295" lon="4.58054">
        <ele>384.66</ele>
        <time>2010-04-25T06:53:01Z</time>
      </trkpt>
      <trkpt lat="46.85284" lon="4.58044">
        <ele>384.18</ele>
        <time>2010-04-25T06:53:04Z</time>
      </trkpt>
      <trkpt lat="46.8528" lon="4.5804">
        <ele>383.7</ele>
        <time>2010-04-25T06:53:05Z</time>
      </trkpt>
      <trkpt lat="46.85271" lon="4.58028">
        <ele>383.7</ele>
        <time>2010-04-25T06:53:08Z</time>
      </trkpt>
      <trkpt lat="46.85267" lon="4.58026">
        <ele>383.22</ele>
        <time>2010-04-25T06:53:09Z</time>
      </trkpt>
      <trkpt lat="46.85263" lon="4.58025">
        <ele>383.7</ele>
        <time>2010-04-25T06:53:10Z</time>
      </trkpt>
      <trkpt lat="46.85259" lon="4.58022">
        <ele>382.74</ele>
        <time>2010-04-25T06:53:11Z</time>
      </trkpt>
      <trkpt lat="46.85254" lon="4.58019">
        <ele>382.74</ele>
        <time>2010-04-25T06:53:12Z</time>
      </trkpt>
      <trkpt lat="46.8525" lon="4.58016">
        <ele>383.22</ele>
        <time>2010-04-25T06:53:13Z</time>
      </trkpt>
      <trkpt lat="46.85244" lon="4.58014">
        <ele>382.74</ele>
        <time>2010-04-25T06:53:14Z</time>
      </trkpt>
      <trkpt lat="46.85239" lon="4.58012">
        <ele>382.74</ele>
        <time>2010-04-25T06:53:15Z</time>
      </trkpt>
      <trkpt lat="46.85201" lon="4.57999">
        <ele>382.26</ele>
        <time>2010-04-25T06:53:22Z</time>
      </trkpt>
      <trkpt lat="46.85187" lon="4.57991">
        <ele>381.78</ele>
        <time>2010-04-25T06:53:25Z</time>
      </trkpt>
      <trkpt lat="46.85183" lon="4.57986">
        <ele>381.3</ele>
        <time>2010-04-25T06:53:26Z</time>
      </trkpt>
      <trkpt lat="46.85179" lon="4.5798">
        <ele>381.78</ele>
        <time>2010-04-25T06:53:27Z</time>
      </trkpt>
      <trkpt lat="46.85172" lon="4.57967">
        <ele>381.3</ele>
        <time>2010-04-25T06:53:29Z</time>
      </trkpt>
      <trkpt lat="46.85139" lon="4.57919">
        <ele>381.3</ele>
        <time>2010-04-25T06:53:37Z</time>
      </trkpt>
      <trkpt lat="46.85111" lon="4.57875">
        <ele>381.3</ele>
        <time>2010-04-25T06:53:45Z</time>
      </trkpt>
      <trkpt lat="46.85101" lon="4.57862">
        <ele>381.3</ele>
        <time>2010-04-25T06:53:48Z</time>
      </trkpt>
      <trkpt lat="46.85098" lon="4.57857">
        <ele>380.82</ele>
        <time>2010-04-25T06:53:49Z</time>
      </trkpt>
      <trkpt lat="46.85084" lon="4.57837">
        <ele>379.86</ele>
        <time>2010-04-25T06:53:53Z</time>
      </trkpt>
      <trkpt lat="46.85079" lon="4.57834">
        <ele>379.86</ele>
        <time>2010-04-25T06:53:54Z</time>
      </trkpt>
      <trkpt lat="46.85074" lon="4.57832">
        <ele>379.86</ele>
        <time>2010-04-25T06:53:55Z</time>
      </trkpt>
      <trkpt lat="46.85068" lon="4.57833">
        <ele>378.42</ele>
        <time>2010-04-25T06:53:56Z</time>
      </trkpt>
      <trkpt lat="46.85063" lon="4.57838">
        <ele>377.45</ele>
        <time>2010-04-25T06:53:57Z</time>
      </trkpt>
      <trkpt lat="46.85057" lon="4.57845">
        <ele>376.49</ele>
        <time>2010-04-25T06:53:58Z</time>
      </trkpt>
      <trkpt lat="46.85052" lon="4.57853">
        <ele>374.57</ele>
        <time>2010-04-25T06:53:59Z</time>
      </trkpt>
      <trkpt lat="46.85046" lon="4.57862">
        <ele>373.61</ele>
        <time>2010-04-25T06:54:00Z</time>
      </trkpt>
      <trkpt lat="46.85039" lon="4.57868">
        <ele>371.69</ele>
        <time>2010-04-25T06:54:01Z</time>
      </trkpt>
      <trkpt lat="46.85032" lon="4.57872">
        <ele>370.24</ele>
        <time>2010-04-25T06:54:02Z</time>
      </trkpt>
      <trkpt lat="46.85023" lon="4.57876">
        <ele>368.8</ele>
        <time>2010-04-25T06:54:03Z</time>
      </trkpt>
      <trkpt lat="46.84999" lon="4.57887">
        <ele>364.96</ele>
        <time>2010-04-25T06:54:06Z</time>
      </trkpt>
      <trkpt lat="46.8498" lon="4.57896">
        <ele>360.63</ele>
        <time>2010-04-25T06:54:09Z</time>
      </trkpt>
      <trkpt lat="46.84959" lon="4.57899">
        <ele>358.71</ele>
        <time>2010-04-25T06:54:12Z</time>
      </trkpt>
      <trkpt lat="46.84946" lon="4.57901">
        <ele>355.83</ele>
        <time>2010-04-25T06:54:14Z</time>
      </trkpt>
      <trkpt lat="46.84935" lon="4.57906">
        <ele>352.94</ele>
        <time>2010-04-25T06:54:18Z</time>
      </trkpt>
      <trkpt lat="46.84932" lon="4.57908">
        <ele>351.98</ele>
        <time>2010-04-25T06:54:23Z</time>
      </trkpt>
      <trkpt lat="46.84933" lon="4.57908">
        <ele>352.46</ele>
        <time>2010-04-25T06:54:30Z</time>
      </trkpt>
      <trkpt lat="46.84933" lon="4.57908">
        <ele>351.98</ele>
        <time>2010-04-25T06:55:04Z</time>
      </trkpt>
      <trkpt lat="46.84933" lon="4.57908">
        <ele>351.98</ele>
        <time>2010-04-25T06:55:25Z</time>
      </trkpt>
      <trkpt lat="46.84932" lon="4.57908">
        <ele>351.98</ele>
        <time>2010-04-25T06:55:38Z</time>
      </trkpt>
      <trkpt lat="46.84924" lon="4.57914">
        <ele>351.02</ele>
        <time>2010-04-25T06:55:43Z</time>
      </trkpt>
      <trkpt lat="46.84921" lon="4.57915">
        <ele>349.58</ele>
        <time>2010-04-25T06:55:45Z</time>
      </trkpt>
      <trkpt lat="46.84919" lon="4.57915">
        <ele>349.58</ele>
        <time>2010-04-25T06:55:46Z</time>
      </trkpt>
      <trkpt lat="46.84915" lon="4.57919">
        <ele>348.62</ele>
        <time>2010-04-25T06:55:51Z</time>
      </trkpt>
      <trkpt lat="46.84915" lon="4.57917">
        <ele>348.62</ele>
        <time>2010-04-25T06:56:13Z</time>
      </trkpt>
      <trkpt lat="46.84915" lon="4.57915">
        <ele>348.62</ele>
        <time>2010-04-25T06:56:18Z</time>
      </trkpt>
      <trkpt lat="46.84915" lon="4.57916">
        <ele>348.62</ele>
        <time>2010-04-25T06:56:28Z</time>
      </trkpt>
      <trkpt lat="46.84915" lon="4.57915">
        <ele>348.13</ele>
        <time>2010-04-25T06:56:38Z</time>
      </trkpt>
      <trkpt lat="46.84915" lon="4.57915">
        <ele>348.13</ele>
        <time>2010-04-25T06:56:55Z</time>
      </trkpt>
      <trkpt lat="46.84915" lon="4.57915">
        <ele>348.13</ele>
        <time>2010-04-25T06:57:15Z</time>
      </trkpt>
      <trkpt lat="46.84915" lon="4.57915">
        <ele>348.13</ele>
        <time>2010-04-25T06:57:31Z</time>
      </trkpt>
      <trkpt lat="46.84915" lon="4.57915">
        <ele>348.13</ele>
        <time>2010-04-25T06:57:47Z</time>
      </trkpt>
      <trkpt lat="46.84915" lon="4.57915">
        <ele>348.13</ele>
        <time>2010-04-25T06:58:07Z</time>
      </trkpt>
      <trkpt lat="46.84915" lon="4.57915">
        <ele>348.62</ele>
        <time>2010-04-25T06:58:26Z</time>
      </trkpt>
      <trkpt lat="46.84915" lon="4.57915">
        <ele>348.62</ele>
        <time>2010-04-25T06:58:43Z</time>
      </trkpt>
      <trkpt lat="46.84915" lon="4.57915">
        <ele>348.13</ele>
        <time>2010-04-25T06:59:00Z</time>
      </trkpt>
      <trkpt lat="46.84914" lon="4.57915">
        <ele>348.62</ele>
        <time>2010-04-25T06:59:20Z</time>
      </trkpt>
      <trkpt lat="46.84914" lon="4.57915">
        <ele>348.62</ele>
        <time>2010-04-25T06:59:35Z</time>
      </trkpt>
      <trkpt lat="46.84914" lon="4.57914">
        <ele>348.62</ele>
        <time>2010-04-25T06:59:56Z</time>
      </trkpt>
      <trkpt lat="46.84914" lon="4.57914">
        <ele>349.1</ele>
        <time>2010-04-25T07:00:17Z</time>
      </trkpt>
      <trkpt lat="46.84914" lon="4.57914">
        <ele>348.62</ele>
        <time>2010-04-25T07:00:34Z</time>
      </trkpt>
      <trkpt lat="46.84914" lon="4.57914">
        <ele>348.62</ele>
        <time>2010-04-25T07:00:53Z</time>
      </trkpt>
      <trkpt lat="46.84914" lon="4.57915">
        <ele>348.62</ele>
        <time>2010-04-25T07:01:14Z</time>
      </trkpt>
      <trkpt lat="46.84914" lon="4.57915">
        <ele>349.1</ele>
        <time>2010-04-25T07:01:48Z</time>
      </trkpt>
      <trkpt lat="46.84914" lon="4.57914">
        <ele>349.1</ele>
        <time>2010-04-25T07:02:06Z</time>
      </trkpt>
      <trkpt lat="46.84914" lon="4.57914">
        <ele>349.1</ele>
        <time>2010-04-25T07:02:25Z</time>
      </trkpt>
      <trkpt lat="46.84914" lon="4.57914">
        <ele>349.1</ele>
        <time>2010-04-25T07:02:45Z</time>
      </trkpt>
      <trkpt lat="46.84914" lon="4.57914">
        <ele>349.1</ele>
        <time>2010-04-25T07:03:08Z</time>
      </trkpt>
      <trkpt lat="46.84914" lon="4.57915">
        <ele>349.58</ele>
        <time>2010-04-25T07:03:27Z</time>
      </trkpt>
      <trkpt lat="46.84914" lon="4.57915">
        <ele>349.58</ele>
        <time>2010-04-25T07:03:53Z</time>
      </trkpt>
      <trkpt lat="46.84914" lon="4.57915">
        <ele>349.58</ele>
        <time>2010-04-25T07:04:15Z</time>
      </trkpt>
      <trkpt lat="46.84914" lon="4.57914">
        <ele>349.58</ele>
        <time>2010-04-25T07:04:35Z</time>
      </trkpt>
      <trkpt lat="46.84914" lon="4.57914">
        <ele>349.58</ele>
        <time>2010-04-25T07:05:00Z</time>
      </trkpt>
      <trkpt lat="46.84914" lon="4.57914">
        <ele>349.58</ele>
        <time>2010-04-25T07:05:22Z</time>
      </trkpt>
      <trkpt lat="46.84914" lon="4.57914">
        <ele>349.58</ele>
        <time>2010-04-25T07:05:41Z</time>
      </trkpt>
      <trkpt lat="46.84914" lon="4.57914">
        <ele>349.58</ele>
        <time>2010-04-25T07:06:06Z</time>
      </trkpt>
      <trkpt lat="46.84914" lon="4.57916">
        <ele>350.54</ele>
        <time>2010-04-25T07:06:31Z</time>
      </trkpt>
      <trkpt lat="46.84914" lon="4.57918">
        <ele>350.54</ele>
        <time>2010-04-25T07:06:37Z</time>
      </trkpt>
      <trkpt lat="46.84912" lon="4.5792">
        <ele>350.06</ele>
        <time>2010-04-25T07:06:38Z</time>
      </trkpt>
      <trkpt lat="46.84909" lon="4.57923">
        <ele>349.58</ele>
        <time>2010-04-25T07:06:39Z</time>
      </trkpt>
      <trkpt lat="46.84905" lon="4.57925">
        <ele>348.62</ele>
        <time>2010-04-25T07:06:40Z</time>
      </trkpt>
      <trkpt lat="46.84901" lon="4.57928">
        <ele>348.13</ele>
        <time>2010-04-25T07:06:41Z</time>
      </trkpt>
      <trkpt lat="46.84891" lon="4.57934">
        <ele>345.73</ele>
        <time>2010-04-25T07:06:43Z</time>
      </trkpt>
      <trkpt lat="46.84875" lon="4.57948">
        <ele>342.85</ele>
        <time>2010-04-25T07:06:46Z</time>
      </trkpt>
      <trkpt lat="46.84864" lon="4.57957">
        <ele>339.48</ele>
        <time>2010-04-25T07:06:48Z</time>
      </trkpt>
      <trkpt lat="46.84853" lon="4.57967">
        <ele>335.64</ele>
        <time>2010-04-25T07:06:50Z</time>
      </trkpt>
      <trkpt lat="46.84835" lon="4.57983">
        <ele>331.79</ele>
        <time>2010-04-25T07:06:53Z</time>
      </trkpt>
      <trkpt lat="46.84818" lon="4.57998">
        <ele>328.91</ele>
        <time>2010-04-25T07:06:55Z</time>
      </trkpt>
      <trkpt lat="46.84794" lon="4.5802">
        <ele>325.06</ele>
        <time>2010-04-25T07:06:58Z</time>
      </trkpt>
      <trkpt lat="46.84788" lon="4.58028">
        <ele>323.62</ele>
        <time>2010-04-25T07:06:59Z</time>
      </trkpt>
      <trkpt lat="46.84784" lon="4.58037">
        <ele>323.14</ele>
        <time>2010-04-25T07:07:00Z</time>
      </trkpt>
      <trkpt lat="46.84758" lon="4.58098">
        <ele>320.26</ele>
        <time>2010-04-25T07:07:06Z</time>
      </trkpt>
      <trkpt lat="46.84755" lon="4.58106">
        <ele>319.78</ele>
        <time>2010-04-25T07:07:07Z</time>
      </trkpt>
      <trkpt lat="46.84752" lon="4.58118">
        <ele>318.33</ele>
        <time>2010-04-25T07:07:09Z</time>
      </trkpt>
      <trkpt lat="46.84749" lon="4.58123">
        <ele>317.37</ele>
        <time>2010-04-25T07:07:10Z</time>
      </trkpt>
      <trkpt lat="46.84746" lon="4.5813">
        <ele>317.37</ele>
        <time>2010-04-25T07:07:11Z</time>
      </trkpt>
      <trkpt lat="46.84743" lon="4.58138">
        <ele>316.41</ele>
        <time>2010-04-25T07:07:12Z</time>
      </trkpt>
      <trkpt lat="46.84739" lon="4.58146">
        <ele>315.45</ele>
        <time>2010-04-25T07:07:13Z</time>
      </trkpt>
      <trkpt lat="46.84733" lon="4.58153">
        <ele>314.49</ele>
        <time>2010-04-25T07:07:14Z</time>
      </trkpt>
      <trkpt lat="46.84727" lon="4.58159">
        <ele>314.49</ele>
        <time>2010-04-25T07:07:15Z</time>
      </trkpt>
      <trkpt lat="46.84719" lon="4.58165">
        <ele>314.01</ele>
        <time>2010-04-25T07:07:16Z</time>
      </trkpt>
      <trkpt lat="46.84711" lon="4.58169">
        <ele>312.57</ele>
        <time>2010-04-25T07:07:17Z</time>
      </trkpt>
      <trkpt lat="46.84695" lon="4.5818">
        <ele>311.12</ele>
        <time>2010-04-25T07:07:19Z</time>
      </trkpt>
      <trkpt lat="46.84668" lon="4.58202">
        <ele>306.32</ele>
        <time>2010-04-25T07:07:22Z</time>
      </trkpt>
      <trkpt lat="46.84661" lon="4.58208">
        <ele>303.91</ele>
        <time>2010-04-25T07:07:23Z</time>
      </trkpt>
      <trkpt lat="46.84657" lon="4.58211">
        <ele>302.47</ele>
        <time>2010-04-25T07:07:24Z</time>
      </trkpt>
      <trkpt lat="46.84654" lon="4.58211">
        <ele>301.51</ele>
        <time>2010-04-25T07:07:25Z</time>
      </trkpt>
      <trkpt lat="46.84653" lon="4.58209">
        <ele>301.03</ele>
        <time>2010-04-25T07:07:26Z</time>
      </trkpt>
      <trkpt lat="46.84653" lon="4.58205">
        <ele>300.55</ele>
        <time>2010-04-25T07:07:27Z</time>
      </trkpt>
      <trkpt lat="46.84653" lon="4.58202">
        <ele>301.03</ele>
        <time>2010-04-25T07:07:28Z</time>
      </trkpt>
      <trkpt lat="46.84653" lon="4.58198">
        <ele>301.51</ele>
        <time>2010-04-25T07:07:29Z</time>
      </trkpt>
      <trkpt lat="46.84653" lon="4.58194">
        <ele>301.03</ele>
        <time>2010-04-25T07:07:30Z</time>
      </trkpt>
      <trkpt lat="46.84654" lon="4.5819">
        <ele>301.03</ele>
        <time>2010-04-25T07:07:31Z</time>
      </trkpt>
      <trkpt lat="46.84655" lon="4.58186">
        <ele>301.51</ele>
        <time>2010-04-25T07:07:32Z</time>
      </trkpt>
      <trkpt lat="46.84667" lon="4.5814">
        <ele>302.95</ele>
        <time>2010-04-25T07:07:42Z</time>
      </trkpt>
      <trkpt lat="46.84676" lon="4.58095">
        <ele>303.43</ele>
        <time>2010-04-25T07:07:49Z</time>
      </trkpt>
      <trkpt lat="46.84676" lon="4.58044">
        <ele>301.51</ele>
        <time>2010-04-25T07:07:54Z</time>
      </trkpt>
      <trkpt lat="46.8467" lon="4.5801">
        <ele>301.03</ele>
        <time>2010-04-25T07:07:57Z</time>
      </trkpt>
      <trkpt lat="46.84666" lon="4.58">
        <ele>300.55</ele>
        <time>2010-04-25T07:07:58Z</time>
      </trkpt>
      <trkpt lat="46.84662" lon="4.5799">
        <ele>300.55</ele>
        <time>2010-04-25T07:07:59Z</time>
      </trkpt>
      <trkpt lat="46.84635" lon="4.57918">
        <ele>301.51</ele>
        <time>2010-04-25T07:08:07Z</time>
      </trkpt>
      <trkpt lat="46.84617" lon="4.57865">
        <ele>301.99</ele>
        <time>2010-04-25T07:08:14Z</time>
      </trkpt>
      <trkpt lat="46.84605" lon="4.57809">
        <ele>302.47</ele>
        <time>2010-04-25T07:08:22Z</time>
      </trkpt>
      <trkpt lat="46.84604" lon="4.57801">
        <ele>302.95</ele>
        <time>2010-04-25T07:08:23Z</time>
      </trkpt>
      <trkpt lat="46.84604" lon="4.57793">
        <ele>302.95</ele>
        <time>2010-04-25T07:08:24Z</time>
      </trkpt>
      <trkpt lat="46.84606" lon="4.57785">
        <ele>302.47</ele>
        <time>2010-04-25T07:08:25Z</time>
      </trkpt>
      <trkpt lat="46.84615" lon="4.57715">
        <ele>301.99</ele>
        <time>2010-04-25T07:08:33Z</time>
      </trkpt>
      <trkpt lat="46.84631" lon="4.57627">
        <ele>300.07</ele>
        <time>2010-04-25T07:08:43Z</time>
      </trkpt>
      <trkpt lat="46.84631" lon="4.57619">
        <ele>300.55</ele>
        <time>2010-04-25T07:08:44Z</time>
      </trkpt>
      <trkpt lat="46.84631" lon="4.57611">
        <ele>300.55</ele>
        <time>2010-04-25T07:08:45Z</time>
      </trkpt>
      <trkpt lat="46.8463" lon="4.57603">
        <ele>300.55</ele>
        <time>2010-04-25T07:08:46Z</time>
      </trkpt>
      <trkpt lat="46.84629" lon="4.57595">
        <ele>300.55</ele>
        <time>2010-04-25T07:08:47Z</time>
      </trkpt>
      <trkpt lat="46.84625" lon="4.57571">
        <ele>300.55</ele>
        <time>2010-04-25T07:08:50Z</time>
      </trkpt>
      <trkpt lat="46.84624" lon="4.57562">
        <ele>300.07</ele>
        <time>2010-04-25T07:08:51Z</time>
      </trkpt>
      <trkpt lat="46.84621" lon="4.57541">
        <ele>298.15</ele>
        <time>2010-04-25T07:08:53Z</time>
      </trkpt>
      <trkpt lat="46.84612" lon="4.57503">
        <ele>294.78</ele>
        <time>2010-04-25T07:08:56Z</time>
      </trkpt>
      <trkpt lat="46.84607" lon="4.57453">
        <ele>293.34</ele>
        <time>2010-04-25T07:09:00Z</time>
      </trkpt>
      <trkpt lat="46.84605" lon="4.57442">
        <ele>293.34</ele>
        <time>2010-04-25T07:09:01Z</time>
      </trkpt>
      <trkpt lat="46.84602" lon="4.57432">
        <ele>292.86</ele>
        <time>2010-04-25T07:09:02Z</time>
      </trkpt>
      <trkpt lat="46.84597" lon="4.57424">
        <ele>292.86</ele>
        <time>2010-04-25T07:09:03Z</time>
      </trkpt>
      <trkpt lat="46.84593" lon="4.57416">
        <ele>292.86</ele>
        <time>2010-04-25T07:09:04Z</time>
      </trkpt>
      <trkpt lat="46.84588" lon="4.57408">
        <ele>293.34</ele>
        <time>2010-04-25T07:09:05Z</time>
      </trkpt>
      <trkpt lat="46.84574" lon="4.57384">
        <ele>293.34</ele>
        <time>2010-04-25T07:09:08Z</time>
      </trkpt>
      <trkpt lat="46.84571" lon="4.57376">
        <ele>293.82</ele>
        <time>2010-04-25T07:09:09Z</time>
      </trkpt>
      <trkpt lat="46.84565" lon="4.57353">
        <ele>294.3</ele>
        <time>2010-04-25T07:09:12Z</time>
      </trkpt>
      <trkpt lat="46.84565" lon="4.57346">
        <ele>293.82</ele>
        <time>2010-04-25T07:09:13Z</time>
      </trkpt>
      <trkpt lat="46.84567" lon="4.57341">
        <ele>294.3</ele>
        <time>2010-04-25T07:09:14Z</time>
      </trkpt>
      <trkpt lat="46.8457" lon="4.57337">
        <ele>294.3</ele>
        <time>2010-04-25T07:09:15Z</time>
      </trkpt>
      <trkpt lat="46.84574" lon="4.57335">
        <ele>294.3</ele>
        <time>2010-04-25T07:09:16Z</time>
      </trkpt>
      <trkpt lat="46.84578" lon="4.57333">
        <ele>294.3</ele>
        <time>2010-04-25T07:09:17Z</time>
      </trkpt>
      <trkpt lat="46.84591" lon="4.57328">
        <ele>294.78</ele>
        <time>2010-04-25T07:09:20Z</time>
      </trkpt>
      <trkpt lat="46.84603" lon="4.5732">
        <ele>295.26</ele>
        <time>2010-04-25T07:09:23Z</time>
      </trkpt>
      <trkpt lat="46.84606" lon="4.57317">
        <ele>295.74</ele>
        <time>2010-04-25T07:09:24Z</time>
      </trkpt>
      <trkpt lat="46.84618" lon="4.57294">
        <ele>297.18</ele>
        <time>2010-04-25T07:09:30Z</time>
      </trkpt>
      <trkpt lat="46.84617" lon="4.57271">
        <ele>298.63</ele>
        <time>2010-04-25T07:09:36Z</time>
      </trkpt>
      <trkpt lat="46.8461" lon="4.57254">
        <ele>300.55</ele>
        <time>2010-04-25T07:09:41Z</time>
      </trkpt>
      <trkpt lat="46.84598" lon="4.57221">
        <ele>300.07</ele>
        <time>2010-04-25T07:09:48Z</time>
      </trkpt>
      <trkpt lat="46.84585" lon="4.57175">
        <ele>297.18</ele>
        <time>2010-04-25T07:09:53Z</time>
      </trkpt>
      <trkpt lat="46.84566" lon="4.57119">
        <ele>294.78</ele>
        <time>2010-04-25T07:09:58Z</time>
      </trkpt>
      <trkpt lat="46.84558" lon="4.57096">
        <ele>293.34</ele>
        <time>2010-04-25T07:10:00Z</time>
      </trkpt>
      <trkpt lat="46.84556" lon="4.57084">
        <ele>293.34</ele>
        <time>2010-04-25T07:10:01Z</time>
      </trkpt>
      <trkpt lat="46.84555" lon="4.57071">
        <ele>292.86</ele>
        <time>2010-04-25T07:10:02Z</time>
      </trkpt>
      <trkpt lat="46.84556" lon="4.5706">
        <ele>292.38</ele>
        <time>2010-04-25T07:10:03Z</time>
      </trkpt>
      <trkpt lat="46.84558" lon="4.57049">
        <ele>292.86</ele>
        <time>2010-04-25T07:10:04Z</time>
      </trkpt>
      <trkpt lat="46.84561" lon="4.57039">
        <ele>292.38</ele>
        <time>2010-04-25T07:10:05Z</time>
      </trkpt>
      <trkpt lat="46.84563" lon="4.57029">
        <ele>292.86</ele>
        <time>2010-04-25T07:10:06Z</time>
      </trkpt>
      <trkpt lat="46.84569" lon="4.57006">
        <ele>293.34</ele>
        <time>2010-04-25T07:10:09Z</time>
      </trkpt>
      <trkpt lat="46.84569" lon="4.56998">
        <ele>292.86</ele>
        <time>2010-04-25T07:10:10Z</time>
      </trkpt>
      <trkpt lat="46.84567" lon="4.56991">
        <ele>292.86</ele>
        <time>2010-04-25T07:10:11Z</time>
      </trkpt>
      <trkpt lat="46.84563" lon="4.56984">
        <ele>292.38</ele>
        <time>2010-04-25T07:10:12Z</time>
      </trkpt>
      <trkpt lat="46.84558" lon="4.56978">
        <ele>291.9</ele>
        <time>2010-04-25T07:10:13Z</time>
      </trkpt>
      <trkpt lat="46.84551" lon="4.56973">
        <ele>291.42</ele>
        <time>2010-04-25T07:10:14Z</time>
      </trkpt>
      <trkpt lat="46.84519" lon="4.56949">
        <ele>287.57</ele>
        <time>2010-04-25T07:10:18Z</time>
      </trkpt>
      <trkpt lat="46.84495" lon="4.56926">
        <ele>284.21</ele>
        <time>2010-04-25T07:10:21Z</time>
      </trkpt>
      <trkpt lat="46.84488" lon="4.56916">
        <ele>283.25</ele>
        <time>2010-04-25T07:10:22Z</time>
      </trkpt>
      <trkpt lat="46.84464" lon="4.56882">
        <ele>278.92</ele>
        <time>2010-04-25T07:10:25Z</time>
      </trkpt>
      <trkpt lat="46.84437" lon="4.56848">
        <ele>275.56</ele>
        <time>2010-04-25T07:10:28Z</time>
      </trkpt>
      <trkpt lat="46.8442" lon="4.56825">
        <ele>274.59</ele>
        <time>2010-04-25T07:10:30Z</time>
      </trkpt>
      <trkpt lat="46.84412" lon="4.56814">
        <ele>274.11</ele>
        <time>2010-04-25T07:10:31Z</time>
      </trkpt>
      <trkpt lat="46.84407" lon="4.56804">
        <ele>272.67</ele>
        <time>2010-04-25T07:10:32Z</time>
      </trkpt>
      <trkpt lat="46.84402" lon="4.56799">
        <ele>271.71</ele>
        <time>2010-04-25T07:10:33Z</time>
      </trkpt>
      <trkpt lat="46.84397" lon="4.56797">
        <ele>271.71</ele>
        <time>2010-04-25T07:10:34Z</time>
      </trkpt>
      <trkpt lat="46.84391" lon="4.56798">
        <ele>271.23</ele>
        <time>2010-04-25T07:10:35Z</time>
      </trkpt>
      <trkpt lat="46.84386" lon="4.56801">
        <ele>270.75</ele>
        <time>2010-04-25T07:10:36Z</time>
      </trkpt>
      <trkpt lat="46.8438" lon="4.56805">
        <ele>270.75</ele>
        <time>2010-04-25T07:10:37Z</time>
      </trkpt>
      <trkpt lat="46.84351" lon="4.56828">
        <ele>269.79</ele>
        <time>2010-04-25T07:10:42Z</time>
      </trkpt>
      <trkpt lat="46.84344" lon="4.56832">
        <ele>269.79</ele>
        <time>2010-04-25T07:10:43Z</time>
      </trkpt>
      <trkpt lat="46.84338" lon="4.56834">
        <ele>269.31</ele>
        <time>2010-04-25T07:10:44Z</time>
      </trkpt>
      <trkpt lat="46.84289" lon="4.56848">
        <ele>268.35</ele>
        <time>2010-04-25T07:10:51Z</time>
      </trkpt>
      <trkpt lat="46.84224" lon="4.56873">
        <ele>266.9</ele>
        <time>2010-04-25T07:11:00Z</time>
      </trkpt>
      <trkpt lat="46.84152" lon="4.56895">
        <ele>264.98</ele>
        <time>2010-04-25T07:11:10Z</time>
      </trkpt>
      <trkpt lat="46.84145" lon="4.56894">
        <ele>264.98</ele>
        <time>2010-04-25T07:11:11Z</time>
      </trkpt>
      <trkpt lat="46.84138" lon="4.56894">
        <ele>264.98</ele>
        <time>2010-04-25T07:11:12Z</time>
      </trkpt>
      <trkpt lat="46.8408" lon="4.56889">
        <ele>264.02</ele>
        <time>2010-04-25T07:11:20Z</time>
      </trkpt>
      <trkpt lat="46.84045" lon="4.56886">
        <ele>263.06</ele>
        <time>2010-04-25T07:11:25Z</time>
      </trkpt>
      <trkpt lat="46.83997" lon="4.56897">
        <ele>262.1</ele>
        <time>2010-04-25T07:11:32Z</time>
      </trkpt>
      <trkpt lat="46.83964" lon="4.5691">
        <ele>262.58</ele>
        <time>2010-04-25T07:11:37Z</time>
      </trkpt>
      <trkpt lat="46.83957" lon="4.56909">
        <ele>262.58</ele>
        <time>2010-04-25T07:11:38Z</time>
      </trkpt>
      <trkpt lat="46.83951" lon="4.56906">
        <ele>262.1</ele>
        <time>2010-04-25T07:11:39Z</time>
      </trkpt>
      <trkpt lat="46.83944" lon="4.56902">
        <ele>262.1</ele>
        <time>2010-04-25T07:11:40Z</time>
      </trkpt>
      <trkpt lat="46.83939" lon="4.56896">
        <ele>261.62</ele>
        <time>2010-04-25T07:11:41Z</time>
      </trkpt>
      <trkpt lat="46.83934" lon="4.56888">
        <ele>261.14</ele>
        <time>2010-04-25T07:11:42Z</time>
      </trkpt>
      <trkpt lat="46.83929" lon="4.5688">
        <ele>261.14</ele>
        <time>2010-04-25T07:11:43Z</time>
      </trkpt>
      <trkpt lat="46.83924" lon="4.56871">
        <ele>261.14</ele>
        <time>2010-04-25T07:11:44Z</time>
      </trkpt>
      <trkpt lat="46.8392" lon="4.56862">
        <ele>260.17</ele>
        <time>2010-04-25T07:11:45Z</time>
      </trkpt>
      <trkpt lat="46.83917" lon="4.56853">
        <ele>260.17</ele>
        <time>2010-04-25T07:11:46Z</time>
      </trkpt>
      <trkpt lat="46.83916" lon="4.56842">
        <ele>260.17</ele>
        <time>2010-04-25T07:11:47Z</time>
      </trkpt>
      <trkpt lat="46.83915" lon="4.56832">
        <ele>260.17</ele>
        <time>2010-04-25T07:11:48Z</time>
      </trkpt>
      <trkpt lat="46.83915" lon="4.56822">
        <ele>260.17</ele>
        <time>2010-04-25T07:11:49Z</time>
      </trkpt>
      <trkpt lat="46.83916" lon="4.56813">
        <ele>259.69</ele>
        <time>2010-04-25T07:11:50Z</time>
      </trkpt>
      <trkpt lat="46.83922" lon="4.56759">
        <ele>260.65</ele>
        <time>2010-04-25T07:11:56Z</time>
      </trkpt>
      <trkpt lat="46.83924" lon="4.56751">
        <ele>261.14</ele>
        <time>2010-04-25T07:11:57Z</time>
      </trkpt>
      <trkpt lat="46.83927" lon="4.56744">
        <ele>261.14</ele>
        <time>2010-04-25T07:11:58Z</time>
      </trkpt>
      <trkpt lat="46.83929" lon="4.56737">
        <ele>260.65</ele>
        <time>2010-04-25T07:11:59Z</time>
      </trkpt>
      <trkpt lat="46.83931" lon="4.5673">
        <ele>261.14</ele>
        <time>2010-04-25T07:12:00Z</time>
      </trkpt>
      <trkpt lat="46.83934" lon="4.56723">
        <ele>261.14</ele>
        <time>2010-04-25T07:12:01Z</time>
      </trkpt>
      <trkpt lat="46.83947" lon="4.56686">
        <ele>260.17</ele>
        <time>2010-04-25T07:12:06Z</time>
      </trkpt>
      <trkpt lat="46.83947" lon="4.56678">
        <ele>259.69</ele>
        <time>2010-04-25T07:12:07Z</time>
      </trkpt>
      <trkpt lat="46.83946" lon="4.5667">
        <ele>260.17</ele>
        <time>2010-04-25T07:12:08Z</time>
      </trkpt>
      <trkpt lat="46.83943" lon="4.56662">
        <ele>259.69</ele>
        <time>2010-04-25T07:12:09Z</time>
      </trkpt>
      <trkpt lat="46.83939" lon="4.56655">
        <ele>259.21</ele>
        <time>2010-04-25T07:12:10Z</time>
      </trkpt>
      <trkpt lat="46.8391" lon="4.56597">
        <ele>258.25</ele>
        <time>2010-04-25T07:12:17Z</time>
      </trkpt>
      <trkpt lat="46.83877" lon="4.56529">
        <ele>257.77</ele>
        <time>2010-04-25T07:12:26Z</time>
      </trkpt>
      <trkpt lat="46.83874" lon="4.56523">
        <ele>258.25</ele>
        <time>2010-04-25T07:12:27Z</time>
      </trkpt>
      <trkpt lat="46.8387" lon="4.56518">
        <ele>257.77</ele>
        <time>2010-04-25T07:12:28Z</time>
      </trkpt>
      <trkpt lat="46.83848" lon="4.56487">
        <ele>258.25</ele>
        <time>2010-04-25T07:12:34Z</time>
      </trkpt>
      <trkpt lat="46.83842" lon="4.56477">
        <ele>258.25</ele>
        <time>2010-04-25T07:12:36Z</time>
      </trkpt>
      <trkpt lat="46.83838" lon="4.56473">
        <ele>258.73</ele>
        <time>2010-04-25T07:12:37Z</time>
      </trkpt>
      <trkpt lat="46.83835" lon="4.56472">
        <ele>258.25</ele>
        <time>2010-04-25T07:12:38Z</time>
      </trkpt>
      <trkpt lat="46.83831" lon="4.56473">
        <ele>258.73</ele>
        <time>2010-04-25T07:12:39Z</time>
      </trkpt>
      <trkpt lat="46.83827" lon="4.56475">
        <ele>258.73</ele>
        <time>2010-04-25T07:12:40Z</time>
      </trkpt>
      <trkpt lat="46.83824" lon="4.56479">
        <ele>258.73</ele>
        <time>2010-04-25T07:12:41Z</time>
      </trkpt>
      <trkpt lat="46.8382" lon="4.56482">
        <ele>259.21</ele>
        <time>2010-04-25T07:12:42Z</time>
      </trkpt>
      <trkpt lat="46.83817" lon="4.56486">
        <ele>258.73</ele>
        <time>2010-04-25T07:12:43Z</time>
      </trkpt>
      <trkpt lat="46.83809" lon="4.56491">
        <ele>259.69</ele>
        <time>2010-04-25T07:12:45Z</time>
      </trkpt>
      <trkpt lat="46.83805" lon="4.56495">
        <ele>259.69</ele>
        <time>2010-04-25T07:12:46Z</time>
      </trkpt>
      <trkpt lat="46.83785" lon="4.56519">
        <ele>260.65</ele>
        <time>2010-04-25T07:12:53Z</time>
      </trkpt>
      <trkpt lat="46.83771" lon="4.56538">
        <ele>261.14</ele>
        <time>2010-04-25T07:12:58Z</time>
      </trkpt>
      <trkpt lat="46.83742" lon="4.56574">
        <ele>262.58</ele>
        <time>2010-04-25T07:13:07Z</time>
      </trkpt>
      <trkpt lat="46.83726" lon="4.56593">
        <ele>262.58</ele>
        <time>2010-04-25T07:13:12Z</time>
      </trkpt>
      <trkpt lat="46.83723" lon="4.56598">
        <ele>263.06</ele>
        <time>2010-04-25T07:13:13Z</time>
      </trkpt>
      <trkpt lat="46.83713" lon="4.56611">
        <ele>262.58</ele>
        <time>2010-04-25T07:13:16Z</time>
      </trkpt>
      <trkpt lat="46.8371" lon="4.56615">
        <ele>262.1</ele>
        <time>2010-04-25T07:13:17Z</time>
      </trkpt>
      <trkpt lat="46.83693" lon="4.56653">
        <ele>263.06</ele>
        <time>2010-04-25T07:13:25Z</time>
      </trkpt>
      <trkpt lat="46.83688" lon="4.56664">
        <ele>263.06</ele>
        <time>2010-04-25T07:13:27Z</time>
      </trkpt>
      <trkpt lat="46.83669" lon="4.56696">
        <ele>261.62</ele>
        <time>2010-04-25T07:13:33Z</time>
      </trkpt>
      <trkpt lat="46.83666" lon="4.56701">
        <ele>261.62</ele>
        <time>2010-04-25T07:13:34Z</time>
      </trkpt>
      <trkpt lat="46.83658" lon="4.5671">
        <ele>261.14</ele>
        <time>2010-04-25T07:13:36Z</time>
      </trkpt>
      <trkpt lat="46.83654" lon="4.56715">
        <ele>261.62</ele>
        <time>2010-04-25T07:13:37Z</time>
      </trkpt>
      <trkpt lat="46.83631" lon="4.56741">
        <ele>261.62</ele>
        <time>2010-04-25T07:13:43Z</time>
      </trkpt>
      <trkpt lat="46.83617" lon="4.56758">
        <ele>262.1</ele>
        <time>2010-04-25T07:13:47Z</time>
      </trkpt>
      <trkpt lat="46.83613" lon="4.56762">
        <ele>262.1</ele>
        <time>2010-04-25T07:13:48Z</time>
      </trkpt>
      <trkpt lat="46.83602" lon="4.56774">
        <ele>261.62</ele>
        <time>2010-04-25T07:13:51Z</time>
      </trkpt>
      <trkpt lat="46.83584" lon="4.56803">
        <ele>260.17</ele>
        <time>2010-04-25T07:13:55Z</time>
      </trkpt>
      <trkpt lat="46.83566" lon="4.56841">
        <ele>258.25</ele>
        <time>2010-04-25T07:13:59Z</time>
      </trkpt>
      <trkpt lat="46.83535" lon="4.56918">
        <ele>256.81</ele>
        <time>2010-04-25T07:14:06Z</time>
      </trkpt>
      <trkpt lat="46.8353" lon="4.56927">
        <ele>256.81</ele>
        <time>2010-04-25T07:14:07Z</time>
      </trkpt>
      <trkpt lat="46.83493" lon="4.56979">
        <ele>256.33</ele>
        <time>2010-04-25T07:14:14Z</time>
      </trkpt>
      <trkpt lat="46.83449" lon="4.57033">
        <ele>255.37</ele>
        <time>2010-04-25T07:14:22Z</time>
      </trkpt>
      <trkpt lat="46.83403" lon="4.57071">
        <ele>255.85</ele>
        <time>2010-04-25T07:14:30Z</time>
      </trkpt>
      <trkpt lat="46.83356" lon="4.57113">
        <ele>255.37</ele>
        <time>2010-04-25T07:14:39Z</time>
      </trkpt>
      <trkpt lat="46.83351" lon="4.57118">
        <ele>255.37</ele>
        <time>2010-04-25T07:14:40Z</time>
      </trkpt>
      <trkpt lat="46.83346" lon="4.57123">
        <ele>255.85</ele>
        <time>2010-04-25T07:14:41Z</time>
      </trkpt>
      <trkpt lat="46.83336" lon="4.57135">
        <ele>255.85</ele>
        <time>2010-04-25T07:14:43Z</time>
      </trkpt>
      <trkpt lat="46.83332" lon="4.57142">
        <ele>255.37</ele>
        <time>2010-04-25T07:14:44Z</time>
      </trkpt>
      <trkpt lat="46.83327" lon="4.57148">
        <ele>255.37</ele>
        <time>2010-04-25T07:14:45Z</time>
      </trkpt>
      <trkpt lat="46.83298" lon="4.57185">
        <ele>255.37</ele>
        <time>2010-04-25T07:14:51Z</time>
      </trkpt>
      <trkpt lat="46.83293" lon="4.5719">
        <ele>255.37</ele>
        <time>2010-04-25T07:14:52Z</time>
      </trkpt>
      <trkpt lat="46.83288" lon="4.57195">
        <ele>255.85</ele>
        <time>2010-04-25T07:14:53Z</time>
      </trkpt>
      <trkpt lat="46.83255" lon="4.57217">
        <ele>256.81</ele>
        <time>2010-04-25T07:15:00Z</time>
      </trkpt>
      <trkpt lat="46.83221" lon="4.57224">
        <ele>257.29</ele>
        <time>2010-04-25T07:15:07Z</time>
      </trkpt>
      <trkpt lat="46.83216" lon="4.57223">
        <ele>257.29</ele>
        <time>2010-04-25T07:15:08Z</time>
      </trkpt>
      <trkpt lat="46.83212" lon="4.57222">
        <ele>257.77</ele>
        <time>2010-04-25T07:15:09Z</time>
      </trkpt>
      <trkpt lat="46.83188" lon="4.57219">
        <ele>258.25</ele>
        <time>2010-04-25T07:15:14Z</time>
      </trkpt>
      <trkpt lat="46.83184" lon="4.5722">
        <ele>257.77</ele>
        <time>2010-04-25T07:15:15Z</time>
      </trkpt>
      <trkpt lat="46.83179" lon="4.57223">
        <ele>257.77</ele>
        <time>2010-04-25T07:15:16Z</time>
      </trkpt>
      <trkpt lat="46.83175" lon="4.57226">
        <ele>257.77</ele>
        <time>2010-04-25T07:15:17Z</time>
      </trkpt>
      <trkpt lat="46.83171" lon="4.5723">
        <ele>257.77</ele>
        <time>2010-04-25T07:15:18Z</time>
      </trkpt>
      <trkpt lat="46.83153" lon="4.57248">
        <ele>257.77</ele>
        <time>2010-04-25T07:15:22Z</time>
      </trkpt>
      <trkpt lat="46.83149" lon="4.57252">
        <ele>257.77</ele>
        <time>2010-04-25T07:15:23Z</time>
      </trkpt>
      <trkpt lat="46.83145" lon="4.57256">
        <ele>257.77</ele>
        <time>2010-04-25T07:15:24Z</time>
      </trkpt>
      <trkpt lat="46.83141" lon="4.57261">
        <ele>257.77</ele>
        <time>2010-04-25T07:15:25Z</time>
      </trkpt>
      <trkpt lat="46.83137" lon="4.57264">
        <ele>257.77</ele>
        <time>2010-04-25T07:15:26Z</time>
      </trkpt>
      <trkpt lat="46.83115" lon="4.5728">
        <ele>258.73</ele>
        <time>2010-04-25T07:15:32Z</time>
      </trkpt>
      <trkpt lat="46.83112" lon="4.57278">
        <ele>258.73</ele>
        <time>2010-04-25T07:15:33Z</time>
      </trkpt>
      <trkpt lat="46.83091" lon="4.57246">
        <ele>260.17</ele>
        <time>2010-04-25T07:15:41Z</time>
      </trkpt>
      <trkpt lat="46.83069" lon="4.5722">
        <ele>261.14</ele>
        <time>2010-04-25T07:15:49Z</time>
      </trkpt>
      <trkpt lat="46.8305" lon="4.57209">
        <ele>263.06</ele>
        <time>2010-04-25T07:15:57Z</time>
      </trkpt>
      <trkpt lat="46.83037" lon="4.57203">
        <ele>264.98</ele>
        <time>2010-04-25T07:16:04Z</time>
      </trkpt>
      <trkpt lat="46.83025" lon="4.57192">
        <ele>265.94</ele>
        <time>2010-04-25T07:16:11Z</time>
      </trkpt>
      <trkpt lat="46.83011" lon="4.57177">
        <ele>267.38</ele>
        <time>2010-04-25T07:16:19Z</time>
      </trkpt>
      <trkpt lat="46.82995" lon="4.57157">
        <ele>269.31</ele>
        <time>2010-04-25T07:16:29Z</time>
      </trkpt>
      <trkpt lat="46.82986" lon="4.57145">
        <ele>270.75</ele>
        <time>2010-04-25T07:16:35Z</time>
      </trkpt>
      <trkpt lat="46.8297" lon="4.57127">
        <ele>271.71</ele>
        <time>2010-04-25T07:16:44Z</time>
      </trkpt>
      <trkpt lat="46.82948" lon="4.57113">
        <ele>272.19</ele>
        <time>2010-04-25T07:16:52Z</time>
      </trkpt>
      <trkpt lat="46.82917" lon="4.57091">
        <ele>273.15</ele>
        <time>2010-04-25T07:17:02Z</time>
      </trkpt>
      <trkpt lat="46.82891" lon="4.57062">
        <ele>273.63</ele>
        <time>2010-04-25T07:17:11Z</time>
      </trkpt>
      <trkpt lat="46.82872" lon="4.57038">
        <ele>274.59</ele>
        <time>2010-04-25T07:17:18Z</time>
      </trkpt>
      <trkpt lat="46.82854" lon="4.57005">
        <ele>275.07</ele>
        <time>2010-04-25T07:17:26Z</time>
      </trkpt>
      <trkpt lat="46.82841" lon="4.56983">
        <ele>275.56</ele>
        <time>2010-04-25T07:17:32Z</time>
      </trkpt>
      <trkpt lat="46.82824" lon="4.5696">
        <ele>276.52</ele>
        <time>2010-04-25T07:17:39Z</time>
      </trkpt>
      <trkpt lat="46.82814" lon="4.56942">
        <ele>277</ele>
        <time>2010-04-25T07:17:44Z</time>
      </trkpt>
      <trkpt lat="46.828" lon="4.56919">
        <ele>277.48</ele>
        <time>2010-04-25T07:17:50Z</time>
      </trkpt>
      <trkpt lat="46.82783" lon="4.56884">
        <ele>278.92</ele>
        <time>2010-04-25T07:17:58Z</time>
      </trkpt>
      <trkpt lat="46.82768" lon="4.56864">
        <ele>279.4</ele>
        <time>2010-04-25T07:18:04Z</time>
      </trkpt>
      <trkpt lat="46.82755" lon="4.56845">
        <ele>280.84</ele>
        <time>2010-04-25T07:18:11Z</time>
      </trkpt>
      <trkpt lat="46.8275" lon="4.56831">
        <ele>281.8</ele>
        <time>2010-04-25T07:18:16Z</time>
      </trkpt>
      <trkpt lat="46.82745" lon="4.56818">
        <ele>282.28</ele>
        <time>2010-04-25T07:18:21Z</time>
      </trkpt>
      <trkpt lat="46.82732" lon="4.56796">
        <ele>283.73</ele>
        <time>2010-04-25T07:18:29Z</time>
      </trkpt>
      <trkpt lat="46.82729" lon="4.56792">
        <ele>284.21</ele>
        <time>2010-04-25T07:18:31Z</time>
      </trkpt>
      <trkpt lat="46.82727" lon="4.5679">
        <ele>284.69</ele>
        <time>2010-04-25T07:18:32Z</time>
      </trkpt>
      <trkpt lat="46.82726" lon="4.56788">
        <ele>284.69</ele>
        <time>2010-04-25T07:18:33Z</time>
      </trkpt>
      <trkpt lat="46.82724" lon="4.56785">
        <ele>284.69</ele>
        <time>2010-04-25T07:18:34Z</time>
      </trkpt>
      <trkpt lat="46.82722" lon="4.56783">
        <ele>284.69</ele>
        <time>2010-04-25T07:18:35Z</time>
      </trkpt>
      <trkpt lat="46.8272" lon="4.5678">
        <ele>285.17</ele>
        <time>2010-04-25T07:18:36Z</time>
      </trkpt>
      <trkpt lat="46.82717" lon="4.56778">
        <ele>285.17</ele>
        <time>2010-04-25T07:18:37Z</time>
      </trkpt>
      <trkpt lat="46.82715" lon="4.56775">
        <ele>285.65</ele>
        <time>2010-04-25T07:18:38Z</time>
      </trkpt>
      <trkpt lat="46.82699" lon="4.56755">
        <ele>286.61</ele>
        <time>2010-04-25T07:18:46Z</time>
      </trkpt>
      <trkpt lat="46.82684" lon="4.56739">
        <ele>288.05</ele>
        <time>2010-04-25T07:18:54Z</time>
      </trkpt>
      <trkpt lat="46.82682" lon="4.56728">
        <ele>289.01</ele>
        <time>2010-04-25T07:19:00Z</time>
      </trkpt>
      <trkpt lat="46.82682" lon="4.56726">
        <ele>289.49</ele>
        <time>2010-04-25T07:19:01Z</time>
      </trkpt>
      <trkpt lat="46.82682" lon="4.56725">
        <ele>289.49</ele>
        <time>2010-04-25T07:19:02Z</time>
      </trkpt>
      <trkpt lat="46.82681" lon="4.56721">
        <ele>289.49</ele>
        <time>2010-04-25T07:19:05Z</time>
      </trkpt>
      <trkpt lat="46.82682" lon="4.5672">
        <ele>289.49</ele>
        <time>2010-04-25T07:19:06Z</time>
      </trkpt>
      <trkpt lat="46.82684" lon="4.56719">
        <ele>289.49</ele>
        <time>2010-04-25T07:19:07Z</time>
      </trkpt>
      <trkpt lat="46.82685" lon="4.5672">
        <ele>289.97</ele>
        <time>2010-04-25T07:19:08Z</time>
      </trkpt>
      <trkpt lat="46.82686" lon="4.56721">
        <ele>289.97</ele>
        <time>2010-04-25T07:19:09Z</time>
      </trkpt>
      <trkpt lat="46.82687" lon="4.56722">
        <ele>289.97</ele>
        <time>2010-04-25T07:19:10Z</time>
      </trkpt>
      <trkpt lat="46.82687" lon="4.56724">
        <ele>289.49</ele>
        <time>2010-04-25T07:19:11Z</time>
      </trkpt>
      <trkpt lat="46.82686" lon="4.56726">
        <ele>289.49</ele>
        <time>2010-04-25T07:19:12Z</time>
      </trkpt>
      <trkpt lat="46.82684" lon="4.56726">
        <ele>289.49</ele>
        <time>2010-04-25T07:19:13Z</time>
      </trkpt>
      <trkpt lat="46.82682" lon="4.56726">
        <ele>289.49</ele>
        <time>2010-04-25T07:19:14Z</time>
      </trkpt>
      <trkpt lat="46.82681" lon="4.56725">
        <ele>289.49</ele>
        <time>2010-04-25T07:19:15Z</time>
      </trkpt>
      <trkpt lat="46.82681" lon="4.56722">
        <ele>289.49</ele>
        <time>2010-04-25T07:19:16Z</time>
      </trkpt>
      <trkpt lat="46.82681" lon="4.5672">
        <ele>289.49</ele>
        <time>2010-04-25T07:19:17Z</time>
      </trkpt>
      <trkpt lat="46.82682" lon="4.56717">
        <ele>289.49</ele>
        <time>2010-04-25T07:19:18Z</time>
      </trkpt>
      <trkpt lat="46.82682" lon="4.56713">
        <ele>289.49</ele>
        <time>2010-04-25T07:19:19Z</time>
      </trkpt>
      <trkpt lat="46.82682" lon="4.5671">
        <ele>289.49</ele>
        <time>2010-04-25T07:19:20Z</time>
      </trkpt>
      <trkpt lat="46.82681" lon="4.56706">
        <ele>289.97</ele>
        <time>2010-04-25T07:19:21Z</time>
      </trkpt>
      <trkpt lat="46.8268" lon="4.56703">
        <ele>289.97</ele>
        <time>2010-04-25T07:19:22Z</time>
      </trkpt>
      <trkpt lat="46.82679" lon="4.567">
        <ele>290.46</ele>
        <time>2010-04-25T07:19:23Z</time>
      </trkpt>
      <trkpt lat="46.82678" lon="4.56696">
        <ele>289.97</ele>
        <time>2010-04-25T07:19:24Z</time>
      </trkpt>
      <trkpt lat="46.82676" lon="4.56692">
        <ele>290.46</ele>
        <time>2010-04-25T07:19:25Z</time>
      </trkpt>
      <trkpt lat="46.82675" lon="4.56688">
        <ele>289.97</ele>
        <time>2010-04-25T07:19:26Z</time>
      </trkpt>
      <trkpt lat="46.82666" lon="4.56667">
        <ele>289.49</ele>
        <time>2010-04-25T07:19:30Z</time>
      </trkpt>
      <trkpt lat="46.82664" lon="4.56661">
        <ele>289.01</ele>
        <time>2010-04-25T07:19:31Z</time>
      </trkpt>
      <trkpt lat="46.82657" lon="4.56643">
        <ele>289.01</ele>
        <time>2010-04-25T07:19:34Z</time>
      </trkpt>
      <trkpt lat="46.82636" lon="4.56583">
        <ele>288.05</ele>
        <time>2010-04-25T07:19:42Z</time>
      </trkpt>
      <trkpt lat="46.82631" lon="4.56568">
        <ele>288.05</ele>
        <time>2010-04-25T07:19:44Z</time>
      </trkpt>
      <trkpt lat="46.82627" lon="4.56561">
        <ele>287.57</ele>
        <time>2010-04-25T07:19:45Z</time>
      </trkpt>
      <trkpt lat="46.8261" lon="4.56532">
        <ele>287.57</ele>
        <time>2010-04-25T07:19:49Z</time>
      </trkpt>
      <trkpt lat="46.82608" lon="4.56524">
        <ele>287.09</ele>
        <time>2010-04-25T07:19:50Z</time>
      </trkpt>
      <trkpt lat="46.82594" lon="4.56459">
        <ele>285.17</ele>
        <time>2010-04-25T07:19:57Z</time>
      </trkpt>
      <trkpt lat="46.82579" lon="4.56377">
        <ele>283.73</ele>
        <time>2010-04-25T07:20:05Z</time>
      </trkpt>
      <trkpt lat="46.82579" lon="4.56347">
        <ele>283.73</ele>
        <time>2010-04-25T07:20:08Z</time>
      </trkpt>
      <trkpt lat="46.82582" lon="4.56328">
        <ele>283.25</ele>
        <time>2010-04-25T07:20:10Z</time>
      </trkpt>
      <trkpt lat="46.8259" lon="4.56297">
        <ele>280.84</ele>
        <time>2010-04-25T07:20:13Z</time>
      </trkpt>
      <trkpt lat="46.82594" lon="4.56285">
        <ele>279.88</ele>
        <time>2010-04-25T07:20:14Z</time>
      </trkpt>
      <trkpt lat="46.82599" lon="4.56273">
        <ele>278.44</ele>
        <time>2010-04-25T07:20:15Z</time>
      </trkpt>
      <trkpt lat="46.82615" lon="4.56238">
        <ele>275.07</ele>
        <time>2010-04-25T07:20:18Z</time>
      </trkpt>
      <trkpt lat="46.82623" lon="4.56212">
        <ele>273.15</ele>
        <time>2010-04-25T07:20:20Z</time>
      </trkpt>
      <trkpt lat="46.82625" lon="4.56198">
        <ele>272.67</ele>
        <time>2010-04-25T07:20:21Z</time>
      </trkpt>
      <trkpt lat="46.82627" lon="4.56185">
        <ele>271.71</ele>
        <time>2010-04-25T07:20:22Z</time>
      </trkpt>
      <trkpt lat="46.82629" lon="4.56172">
        <ele>271.23</ele>
        <time>2010-04-25T07:20:23Z</time>
      </trkpt>
      <trkpt lat="46.8263" lon="4.56157">
        <ele>270.75</ele>
        <time>2010-04-25T07:20:24Z</time>
      </trkpt>
      <trkpt lat="46.82631" lon="4.56143">
        <ele>269.79</ele>
        <time>2010-04-25T07:20:25Z</time>
      </trkpt>
      <trkpt lat="46.82631" lon="4.56129">
        <ele>269.79</ele>
        <time>2010-04-25T07:20:26Z</time>
      </trkpt>
      <trkpt lat="46.8263" lon="4.56116">
        <ele>269.31</ele>
        <time>2010-04-25T07:20:27Z</time>
      </trkpt>
      <trkpt lat="46.82627" lon="4.56103">
        <ele>268.83</ele>
        <time>2010-04-25T07:20:28Z</time>
      </trkpt>
      <trkpt lat="46.82624" lon="4.56092">
        <ele>268.35</ele>
        <time>2010-04-25T07:20:29Z</time>
      </trkpt>
      <trkpt lat="46.82619" lon="4.56081">
        <ele>267.86</ele>
        <time>2010-04-25T07:20:30Z</time>
      </trkpt>
      <trkpt lat="46.82615" lon="4.5607">
        <ele>267.86</ele>
        <time>2010-04-25T07:20:31Z</time>
      </trkpt>
      <trkpt lat="46.82596" lon="4.56024">
        <ele>265.94</ele>
        <time>2010-04-25T07:20:35Z</time>
      </trkpt>
      <trkpt lat="46.82578" lon="4.55983">
        <ele>264.02</ele>
        <time>2010-04-25T07:20:39Z</time>
      </trkpt>
      <trkpt lat="46.82571" lon="4.55964">
        <ele>263.54</ele>
        <time>2010-04-25T07:20:41Z</time>
      </trkpt>
      <trkpt lat="46.82568" lon="4.55954">
        <ele>263.06</ele>
        <time>2010-04-25T07:20:42Z</time>
      </trkpt>
      <trkpt lat="46.82566" lon="4.55944">
        <ele>262.58</ele>
        <time>2010-04-25T07:20:43Z</time>
      </trkpt>
      <trkpt lat="46.82565" lon="4.55933">
        <ele>262.58</ele>
        <time>2010-04-25T07:20:44Z</time>
      </trkpt>
      <trkpt lat="46.82562" lon="4.55923">
        <ele>262.58</ele>
        <time>2010-04-25T07:20:45Z</time>
      </trkpt>
      <trkpt lat="46.82559" lon="4.55914">
        <ele>262.58</ele>
        <time>2010-04-25T07:20:46Z</time>
      </trkpt>
      <trkpt lat="46.82557" lon="4.55905">
        <ele>263.06</ele>
        <time>2010-04-25T07:20:47Z</time>
      </trkpt>
      <trkpt lat="46.82556" lon="4.55896">
        <ele>262.58</ele>
        <time>2010-04-25T07:20:48Z</time>
      </trkpt>
      <trkpt lat="46.82554" lon="4.55888">
        <ele>263.06</ele>
        <time>2010-04-25T07:20:49Z</time>
      </trkpt>
      <trkpt lat="46.82544" lon="4.55834">
        <ele>263.54</ele>
        <time>2010-04-25T07:20:56Z</time>
      </trkpt>
      <trkpt lat="46.82542" lon="4.5582">
        <ele>264.02</ele>
        <time>2010-04-25T07:20:58Z</time>
      </trkpt>
      <trkpt lat="46.82535" lon="4.55788">
        <ele>265.94</ele>
        <time>2010-04-25T07:21:04Z</time>
      </trkpt>
      <trkpt lat="46.82522" lon="4.55755">
        <ele>266.9</ele>
        <time>2010-04-25T07:21:11Z</time>
      </trkpt>
      <trkpt lat="46.82512" lon="4.5573">
        <ele>267.86</ele>
        <time>2010-04-25T07:21:17Z</time>
      </trkpt>
      <trkpt lat="46.82507" lon="4.55714">
        <ele>267.86</ele>
        <time>2010-04-25T07:21:20Z</time>
      </trkpt>
      <trkpt lat="46.82505" lon="4.55709">
        <ele>267.86</ele>
        <time>2010-04-25T07:21:21Z</time>
      </trkpt>
      <trkpt lat="46.82503" lon="4.55704">
        <ele>268.35</ele>
        <time>2010-04-25T07:21:22Z</time>
      </trkpt>
      <trkpt lat="46.82492" lon="4.55667">
        <ele>267.38</ele>
        <time>2010-04-25T07:21:28Z</time>
      </trkpt>
      <trkpt lat="46.82492" lon="4.5566">
        <ele>267.38</ele>
        <time>2010-04-25T07:21:29Z</time>
      </trkpt>
      <trkpt lat="46.82493" lon="4.55654">
        <ele>267.38</ele>
        <time>2010-04-25T07:21:30Z</time>
      </trkpt>
      <trkpt lat="46.82496" lon="4.5565">
        <ele>267.38</ele>
        <time>2010-04-25T07:21:31Z</time>
      </trkpt>
      <trkpt lat="46.82499" lon="4.55647">
        <ele>267.86</ele>
        <time>2010-04-25T07:21:32Z</time>
      </trkpt>
      <trkpt lat="46.82502" lon="4.55645">
        <ele>267.86</ele>
        <time>2010-04-25T07:21:33Z</time>
      </trkpt>
      <trkpt lat="46.82523" lon="4.55631">
        <ele>269.79</ele>
        <time>2010-04-25T07:21:40Z</time>
      </trkpt>
      <trkpt lat="46.82546" lon="4.55618">
        <ele>271.71</ele>
        <time>2010-04-25T07:21:49Z</time>
      </trkpt>
      <trkpt lat="46.82563" lon="4.55609">
        <ele>273.15</ele>
        <time>2010-04-25T07:21:56Z</time>
      </trkpt>
      <trkpt lat="46.82587" lon="4.55598">
        <ele>274.59</ele>
        <time>2010-04-25T07:22:05Z</time>
      </trkpt>
      <trkpt lat="46.8261" lon="4.5559">
        <ele>275.07</ele>
        <time>2010-04-25T07:22:13Z</time>
      </trkpt>
      <trkpt lat="46.82631" lon="4.55578">
        <ele>276.04</ele>
        <time>2010-04-25T07:22:21Z</time>
      </trkpt>
      <trkpt lat="46.8265" lon="4.55564">
        <ele>277.96</ele>
        <time>2010-04-25T07:22:29Z</time>
      </trkpt>
      <trkpt lat="46.82675" lon="4.5554">
        <ele>279.4</ele>
        <time>2010-04-25T07:22:41Z</time>
      </trkpt>
      <trkpt lat="46.82686" lon="4.55527">
        <ele>281.32</ele>
        <time>2010-04-25T07:22:48Z</time>
      </trkpt>
      <trkpt lat="46.82697" lon="4.55514">
        <ele>282.28</ele>
        <time>2010-04-25T07:22:55Z</time>
      </trkpt>
      <trkpt lat="46.82709" lon="4.55499">
        <ele>283.73</ele>
        <time>2010-04-25T07:23:03Z</time>
      </trkpt>
      <trkpt lat="46.82724" lon="4.55483">
        <ele>285.65</ele>
        <time>2010-04-25T07:23:13Z</time>
      </trkpt>
      <trkpt lat="46.82738" lon="4.55473">
        <ele>287.09</ele>
        <time>2010-04-25T07:23:22Z</time>
      </trkpt>
      <trkpt lat="46.82756" lon="4.55465">
        <ele>288.53</ele>
        <time>2010-04-25T07:23:32Z</time>
      </trkpt>
      <trkpt lat="46.8277" lon="4.55459">
        <ele>290.46</ele>
        <time>2010-04-25T07:23:41Z</time>
      </trkpt>
      <trkpt lat="46.82781" lon="4.55452">
        <ele>291.9</ele>
        <time>2010-04-25T07:23:49Z</time>
      </trkpt>
      <trkpt lat="46.82789" lon="4.55439">
        <ele>293.34</ele>
        <time>2010-04-25T07:23:57Z</time>
      </trkpt>
      <trkpt lat="46.82796" lon="4.5542">
        <ele>295.74</ele>
        <time>2010-04-25T07:24:07Z</time>
      </trkpt>
      <trkpt lat="46.82804" lon="4.55403">
        <ele>296.7</ele>
        <time>2010-04-25T07:24:15Z</time>
      </trkpt>
      <trkpt lat="46.82817" lon="4.55387">
        <ele>297.67</ele>
        <time>2010-04-25T07:24:24Z</time>
      </trkpt>
      <trkpt lat="46.82829" lon="4.55378">
        <ele>298.15</ele>
        <time>2010-04-25T07:24:31Z</time>
      </trkpt>
      <trkpt lat="46.82847" lon="4.5537">
        <ele>299.59</ele>
        <time>2010-04-25T07:24:40Z</time>
      </trkpt>
      <trkpt lat="46.82865" lon="4.55365">
        <ele>300.07</ele>
        <time>2010-04-25T07:24:48Z</time>
      </trkpt>
      <trkpt lat="46.82883" lon="4.55359">
        <ele>301.51</ele>
        <time>2010-04-25T07:24:57Z</time>
      </trkpt>
      <trkpt lat="46.82904" lon="4.55348">
        <ele>302.47</ele>
        <time>2010-04-25T07:25:07Z</time>
      </trkpt>
      <trkpt lat="46.82918" lon="4.5533">
        <ele>303.91</ele>
        <time>2010-04-25T07:25:16Z</time>
      </trkpt>
      <trkpt lat="46.82933" lon="4.55307">
        <ele>305.36</ele>
        <time>2010-04-25T07:25:26Z</time>
      </trkpt>
      <trkpt lat="46.82948" lon="4.55282">
        <ele>306.8</ele>
        <time>2010-04-25T07:25:36Z</time>
      </trkpt>
      <trkpt lat="46.82965" lon="4.55261">
        <ele>307.76</ele>
        <time>2010-04-25T07:25:46Z</time>
      </trkpt>
      <trkpt lat="46.8298" lon="4.55246">
        <ele>308.24</ele>
        <time>2010-04-25T07:25:54Z</time>
      </trkpt>
      <trkpt lat="46.82997" lon="4.55232">
        <ele>309.2</ele>
        <time>2010-04-25T07:26:02Z</time>
      </trkpt>
      <trkpt lat="46.83017" lon="4.55225">
        <ele>310.16</ele>
        <time>2010-04-25T07:26:10Z</time>
      </trkpt>
      <trkpt lat="46.83034" lon="4.55225">
        <ele>311.6</ele>
        <time>2010-04-25T07:26:17Z</time>
      </trkpt>
      <trkpt lat="46.83036" lon="4.55226">
        <ele>312.09</ele>
        <time>2010-04-25T07:26:18Z</time>
      </trkpt>
      <trkpt lat="46.83057" lon="4.55233">
        <ele>313.05</ele>
        <time>2010-04-25T07:26:27Z</time>
      </trkpt>
      <trkpt lat="46.83079" lon="4.55241">
        <ele>314.97</ele>
        <time>2010-04-25T07:26:37Z</time>
      </trkpt>
      <trkpt lat="46.83101" lon="4.55244">
        <ele>316.41</ele>
        <time>2010-04-25T07:26:46Z</time>
      </trkpt>
      <trkpt lat="46.83124" lon="4.55245">
        <ele>316.89</ele>
        <time>2010-04-25T07:26:54Z</time>
      </trkpt>
      <trkpt lat="46.83157" lon="4.55244">
        <ele>317.85</ele>
        <time>2010-04-25T07:27:05Z</time>
      </trkpt>
      <trkpt lat="46.83189" lon="4.55242">
        <ele>317.85</ele>
        <time>2010-04-25T07:27:14Z</time>
      </trkpt>
      <trkpt lat="46.83211" lon="4.55239">
        <ele>318.33</ele>
        <time>2010-04-25T07:27:21Z</time>
      </trkpt>
      <trkpt lat="46.83238" lon="4.55236">
        <ele>318.81</ele>
        <time>2010-04-25T07:27:29Z</time>
      </trkpt>
      <trkpt lat="46.83255" lon="4.55232">
        <ele>319.78</ele>
        <time>2010-04-25T07:27:35Z</time>
      </trkpt>
      <trkpt lat="46.83279" lon="4.55221">
        <ele>321.22</ele>
        <time>2010-04-25T07:27:43Z</time>
      </trkpt>
      <trkpt lat="46.83284" lon="4.55214">
        <ele>321.7</ele>
        <time>2010-04-25T07:27:48Z</time>
      </trkpt>
      <trkpt lat="46.83287" lon="4.55212">
        <ele>321.22</ele>
        <time>2010-04-25T07:27:54Z</time>
      </trkpt>
      <trkpt lat="46.83295" lon="4.55207">
        <ele>321.7</ele>
        <time>2010-04-25T07:28:45Z</time>
      </trkpt>
      <trkpt lat="46.83316" lon="4.5519">
        <ele>322.66</ele>
        <time>2010-04-25T07:28:53Z</time>
      </trkpt>
      <trkpt lat="46.83336" lon="4.55171">
        <ele>322.66</ele>
        <time>2010-04-25T07:29:00Z</time>
      </trkpt>
      <trkpt lat="46.83339" lon="4.55166">
        <ele>322.66</ele>
        <time>2010-04-25T07:29:01Z</time>
      </trkpt>
      <trkpt lat="46.83365" lon="4.55135">
        <ele>322.66</ele>
        <time>2010-04-25T07:29:09Z</time>
      </trkpt>
      <trkpt lat="46.83393" lon="4.55098">
        <ele>323.62</ele>
        <time>2010-04-25T07:29:18Z</time>
      </trkpt>
      <trkpt lat="46.83398" lon="4.55073">
        <ele>325.06</ele>
        <time>2010-04-25T07:29:23Z</time>
      </trkpt>
      <trkpt lat="46.83394" lon="4.55058">
        <ele>326.5</ele>
        <time>2010-04-25T07:29:27Z</time>
      </trkpt>
      <trkpt lat="46.83382" lon="4.55028">
        <ele>327.95</ele>
        <time>2010-04-25T07:29:35Z</time>
      </trkpt>
      <trkpt lat="46.83372" lon="4.55001">
        <ele>327.95</ele>
        <time>2010-04-25T07:29:41Z</time>
      </trkpt>
      <trkpt lat="46.83362" lon="4.54976">
        <ele>328.43</ele>
        <time>2010-04-25T07:29:47Z</time>
      </trkpt>
      <trkpt lat="46.83349" lon="4.54945">
        <ele>329.87</ele>
        <time>2010-04-25T07:29:55Z</time>
      </trkpt>
      <trkpt lat="46.83342" lon="4.54924">
        <ele>329.39</ele>
        <time>2010-04-25T07:29:59Z</time>
      </trkpt>
      <trkpt lat="46.8334" lon="4.54916">
        <ele>328.43</ele>
        <time>2010-04-25T07:30:00Z</time>
      </trkpt>
      <trkpt lat="46.83337" lon="4.54903">
        <ele>327.47</ele>
        <time>2010-04-25T07:30:02Z</time>
      </trkpt>
      <trkpt lat="46.83333" lon="4.5489">
        <ele>326.02</ele>
        <time>2010-04-25T07:30:04Z</time>
      </trkpt>
      <trkpt lat="46.83331" lon="4.54884">
        <ele>325.54</ele>
        <time>2010-04-25T07:30:05Z</time>
      </trkpt>
      <trkpt lat="46.83327" lon="4.5488">
        <ele>325.06</ele>
        <time>2010-04-25T07:30:06Z</time>
      </trkpt>
      <trkpt lat="46.83318" lon="4.5487">
        <ele>324.1</ele>
        <time>2010-04-25T07:30:08Z</time>
      </trkpt>
      <trkpt lat="46.83314" lon="4.54864">
        <ele>324.1</ele>
        <time>2010-04-25T07:30:09Z</time>
      </trkpt>
      <trkpt lat="46.83309" lon="4.54857">
        <ele>323.62</ele>
        <time>2010-04-25T07:30:10Z</time>
      </trkpt>
      <trkpt lat="46.833" lon="4.54842">
        <ele>322.18</ele>
        <time>2010-04-25T07:30:12Z</time>
      </trkpt>
      <trkpt lat="46.83275" lon="4.54809">
        <ele>319.3</ele>
        <time>2010-04-25T07:30:16Z</time>
      </trkpt>
      <trkpt lat="46.83269" lon="4.548">
        <ele>319.3</ele>
        <time>2010-04-25T07:30:17Z</time>
      </trkpt>
      <trkpt lat="46.83259" lon="4.54785">
        <ele>316.89</ele>
        <time>2010-04-25T07:30:19Z</time>
      </trkpt>
      <trkpt lat="46.83255" lon="4.54776">
        <ele>315.93</ele>
        <time>2010-04-25T07:30:20Z</time>
      </trkpt>
      <trkpt lat="46.83252" lon="4.54767">
        <ele>314.97</ele>
        <time>2010-04-25T07:30:21Z</time>
      </trkpt>
      <trkpt lat="46.83244" lon="4.54741">
        <ele>312.57</ele>
        <time>2010-04-25T07:30:24Z</time>
      </trkpt>
      <trkpt lat="46.83235" lon="4.5472">
        <ele>310.16</ele>
        <time>2010-04-25T07:30:27Z</time>
      </trkpt>
      <trkpt lat="46.83229" lon="4.54708">
        <ele>309.2</ele>
        <time>2010-04-25T07:30:29Z</time>
      </trkpt>
      <trkpt lat="46.83221" lon="4.54693">
        <ele>307.28</ele>
        <time>2010-04-25T07:30:31Z</time>
      </trkpt>
      <trkpt lat="46.83217" lon="4.54684">
        <ele>306.8</ele>
        <time>2010-04-25T07:30:32Z</time>
      </trkpt>
      <trkpt lat="46.83212" lon="4.54676">
        <ele>305.36</ele>
        <time>2010-04-25T07:30:33Z</time>
      </trkpt>
      <trkpt lat="46.83208" lon="4.54669">
        <ele>304.88</ele>
        <time>2010-04-25T07:30:34Z</time>
      </trkpt>
      <trkpt lat="46.83203" lon="4.54662">
        <ele>303.43</ele>
        <time>2010-04-25T07:30:35Z</time>
      </trkpt>
      <trkpt lat="46.83198" lon="4.54654">
        <ele>302.95</ele>
        <time>2010-04-25T07:30:36Z</time>
      </trkpt>
      <trkpt lat="46.83181" lon="4.54631">
        <ele>299.59</ele>
        <time>2010-04-25T07:30:39Z</time>
      </trkpt>
      <trkpt lat="46.8317" lon="4.54616">
        <ele>298.15</ele>
        <time>2010-04-25T07:30:41Z</time>
      </trkpt>
      <trkpt lat="46.8316" lon="4.54602">
        <ele>295.74</ele>
        <time>2010-04-25T07:30:43Z</time>
      </trkpt>
      <trkpt lat="46.83155" lon="4.54596">
        <ele>294.78</ele>
        <time>2010-04-25T07:30:44Z</time>
      </trkpt>
      <trkpt lat="46.8315" lon="4.54589">
        <ele>294.3</ele>
        <time>2010-04-25T07:30:45Z</time>
      </trkpt>
      <trkpt lat="46.83147" lon="4.5458">
        <ele>293.82</ele>
        <time>2010-04-25T07:30:46Z</time>
      </trkpt>
      <trkpt lat="46.83145" lon="4.54571">
        <ele>292.86</ele>
        <time>2010-04-25T07:30:47Z</time>
      </trkpt>
      <trkpt lat="46.83144" lon="4.54562">
        <ele>290.94</ele>
        <time>2010-04-25T07:30:48Z</time>
      </trkpt>
      <trkpt lat="46.83145" lon="4.54556">
        <ele>290.94</ele>
        <time>2010-04-25T07:30:49Z</time>
      </trkpt>
      <trkpt lat="46.83148" lon="4.54551">
        <ele>289.97</ele>
        <time>2010-04-25T07:30:50Z</time>
      </trkpt>
      <trkpt lat="46.83152" lon="4.54548">
        <ele>289.97</ele>
        <time>2010-04-25T07:30:51Z</time>
      </trkpt>
      <trkpt lat="46.83155" lon="4.54548">
        <ele>288.53</ele>
        <time>2010-04-25T07:30:52Z</time>
      </trkpt>
      <trkpt lat="46.83158" lon="4.5455">
        <ele>288.53</ele>
        <time>2010-04-25T07:30:53Z</time>
      </trkpt>
      <trkpt lat="46.83161" lon="4.54553">
        <ele>288.05</ele>
        <time>2010-04-25T07:30:54Z</time>
      </trkpt>
      <trkpt lat="46.83165" lon="4.54558">
        <ele>288.05</ele>
        <time>2010-04-25T07:30:55Z</time>
      </trkpt>
      <trkpt lat="46.83168" lon="4.54562">
        <ele>287.57</ele>
        <time>2010-04-25T07:30:56Z</time>
      </trkpt>
      <trkpt lat="46.83172" lon="4.54564">
        <ele>287.57</ele>
        <time>2010-04-25T07:30:57Z</time>
      </trkpt>
      <trkpt lat="46.83174" lon="4.54561">
        <ele>286.61</ele>
        <time>2010-04-25T07:30:58Z</time>
      </trkpt>
      <trkpt lat="46.83175" lon="4.54557">
        <ele>286.13</ele>
        <time>2010-04-25T07:30:59Z</time>
      </trkpt>
      <trkpt lat="46.83172" lon="4.54548">
        <ele>285.65</ele>
        <time>2010-04-25T07:31:01Z</time>
      </trkpt>
      <trkpt lat="46.83169" lon="4.54543">
        <ele>285.17</ele>
        <time>2010-04-25T07:31:02Z</time>
      </trkpt>
      <trkpt lat="46.83166" lon="4.54536">
        <ele>284.69</ele>
        <time>2010-04-25T07:31:03Z</time>
      </trkpt>
      <trkpt lat="46.83149" lon="4.54498">
        <ele>281.8</ele>
        <time>2010-04-25T07:31:07Z</time>
      </trkpt>
      <trkpt lat="46.83144" lon="4.54488">
        <ele>281.32</ele>
        <time>2010-04-25T07:31:08Z</time>
      </trkpt>
      <trkpt lat="46.83137" lon="4.5448">
        <ele>280.36</ele>
        <time>2010-04-25T07:31:09Z</time>
      </trkpt>
      <trkpt lat="46.8313" lon="4.54475">
        <ele>279.88</ele>
        <time>2010-04-25T07:31:10Z</time>
      </trkpt>
      <trkpt lat="46.83123" lon="4.54474">
        <ele>278.92</ele>
        <time>2010-04-25T07:31:11Z</time>
      </trkpt>
      <trkpt lat="46.83117" lon="4.54475">
        <ele>278.44</ele>
        <time>2010-04-25T07:31:12Z</time>
      </trkpt>
      <trkpt lat="46.83112" lon="4.54479">
        <ele>277.96</ele>
        <time>2010-04-25T07:31:13Z</time>
      </trkpt>
      <trkpt lat="46.83108" lon="4.54485">
        <ele>277</ele>
        <time>2010-04-25T07:31:14Z</time>
      </trkpt>
      <trkpt lat="46.83104" lon="4.54492">
        <ele>277</ele>
        <time>2010-04-25T07:31:15Z</time>
      </trkpt>
      <trkpt lat="46.83101" lon="4.54501">
        <ele>277</ele>
        <time>2010-04-25T07:31:16Z</time>
      </trkpt>
      <trkpt lat="46.83098" lon="4.5451">
        <ele>276.52</ele>
        <time>2010-04-25T07:31:17Z</time>
      </trkpt>
      <trkpt lat="46.83095" lon="4.5452">
        <ele>276.52</ele>
        <time>2010-04-25T07:31:18Z</time>
      </trkpt>
      <trkpt lat="46.83082" lon="4.54555">
        <ele>276.52</ele>
        <time>2010-04-25T07:31:22Z</time>
      </trkpt>
      <trkpt lat="46.83068" lon="4.54582">
        <ele>275.56</ele>
        <time>2010-04-25T07:31:25Z</time>
      </trkpt>
      <trkpt lat="46.83045" lon="4.54615">
        <ele>275.07</ele>
        <time>2010-04-25T07:31:29Z</time>
      </trkpt>
      <trkpt lat="46.83022" lon="4.54646">
        <ele>273.63</ele>
        <time>2010-04-25T07:31:33Z</time>
      </trkpt>
      <trkpt lat="46.83017" lon="4.54653">
        <ele>273.15</ele>
        <time>2010-04-25T07:31:34Z</time>
      </trkpt>
      <trkpt lat="46.8301" lon="4.54659">
        <ele>273.15</ele>
        <time>2010-04-25T07:31:35Z</time>
      </trkpt>
      <trkpt lat="46.83004" lon="4.54661">
        <ele>272.19</ele>
        <time>2010-04-25T07:31:36Z</time>
      </trkpt>
      <trkpt lat="46.82999" lon="4.5466">
        <ele>272.19</ele>
        <time>2010-04-25T07:31:37Z</time>
      </trkpt>
      <trkpt lat="46.82995" lon="4.54655">
        <ele>272.19</ele>
        <time>2010-04-25T07:31:38Z</time>
      </trkpt>
      <trkpt lat="46.82992" lon="4.54648">
        <ele>271.71</ele>
        <time>2010-04-25T07:31:39Z</time>
      </trkpt>
      <trkpt lat="46.82989" lon="4.54641">
        <ele>271.71</ele>
        <time>2010-04-25T07:31:40Z</time>
      </trkpt>
      <trkpt lat="46.82981" lon="4.54616">
        <ele>271.23</ele>
        <time>2010-04-25T07:31:43Z</time>
      </trkpt>
      <trkpt lat="46.82975" lon="4.54599">
        <ele>271.23</ele>
        <time>2010-04-25T07:31:45Z</time>
      </trkpt>
      <trkpt lat="46.82972" lon="4.54591">
        <ele>270.75</ele>
        <time>2010-04-25T07:31:46Z</time>
      </trkpt>
      <trkpt lat="46.82967" lon="4.54584">
        <ele>270.27</ele>
        <time>2010-04-25T07:31:47Z</time>
      </trkpt>
      <trkpt lat="46.82962" lon="4.54577">
        <ele>270.27</ele>
        <time>2010-04-25T07:31:48Z</time>
      </trkpt>
      <trkpt lat="46.82956" lon="4.54571">
        <ele>270.75</ele>
        <time>2010-04-25T07:31:49Z</time>
      </trkpt>
      <trkpt lat="46.82949" lon="4.54565">
        <ele>270.75</ele>
        <time>2010-04-25T07:31:50Z</time>
      </trkpt>
      <trkpt lat="46.8291" lon="4.54531">
        <ele>271.23</ele>
        <time>2010-04-25T07:31:57Z</time>
      </trkpt>
      <trkpt lat="46.82885" lon="4.54511">
        <ele>273.15</ele>
        <time>2010-04-25T07:32:03Z</time>
      </trkpt>
      <trkpt lat="46.82865" lon="4.54498">
        <ele>276.04</ele>
        <time>2010-04-25T07:32:11Z</time>
      </trkpt>
      <trkpt lat="46.82848" lon="4.54482">
        <ele>277.96</ele>
        <time>2010-04-25T07:32:20Z</time>
      </trkpt>
      <trkpt lat="46.82831" lon="4.54467">
        <ele>278.92</ele>
        <time>2010-04-25T07:32:28Z</time>
      </trkpt>
      <trkpt lat="46.82815" lon="4.54449">
        <ele>280.36</ele>
        <time>2010-04-25T07:32:36Z</time>
      </trkpt>
      <trkpt lat="46.82795" lon="4.54424">
        <ele>282.28</ele>
        <time>2010-04-25T07:32:47Z</time>
      </trkpt>
      <trkpt lat="46.82784" lon="4.54408">
        <ele>283.25</ele>
        <time>2010-04-25T07:32:54Z</time>
      </trkpt>
      <trkpt lat="46.82774" lon="4.54398">
        <ele>284.69</ele>
        <time>2010-04-25T07:33:00Z</time>
      </trkpt>
      <trkpt lat="46.82757" lon="4.54385">
        <ele>286.13</ele>
        <time>2010-04-25T07:33:09Z</time>
      </trkpt>
      <trkpt lat="46.82746" lon="4.54376">
        <ele>287.09</ele>
        <time>2010-04-25T07:33:15Z</time>
      </trkpt>
      <trkpt lat="46.82732" lon="4.54366">
        <ele>288.53</ele>
        <time>2010-04-25T07:33:23Z</time>
      </trkpt>
      <trkpt lat="46.82715" lon="4.54353">
        <ele>290.94</ele>
        <time>2010-04-25T07:33:33Z</time>
      </trkpt>
      <trkpt lat="46.82699" lon="4.54335">
        <ele>292.86</ele>
        <time>2010-04-25T07:33:43Z</time>
      </trkpt>
      <trkpt lat="46.82683" lon="4.54312">
        <ele>293.34</ele>
        <time>2010-04-25T07:33:51Z</time>
      </trkpt>
      <trkpt lat="46.82658" lon="4.54269">
        <ele>294.3</ele>
        <time>2010-04-25T07:34:03Z</time>
      </trkpt>
      <trkpt lat="46.82636" lon="4.5423">
        <ele>294.3</ele>
        <time>2010-04-25T07:34:13Z</time>
      </trkpt>
      <trkpt lat="46.82621" lon="4.54197">
        <ele>295.26</ele>
        <time>2010-04-25T07:34:21Z</time>
      </trkpt>
      <trkpt lat="46.82605" lon="4.54163">
        <ele>296.7</ele>
        <time>2010-04-25T07:34:30Z</time>
      </trkpt>
      <trkpt lat="46.82596" lon="4.54136">
        <ele>298.15</ele>
        <time>2010-04-25T07:34:37Z</time>
      </trkpt>
      <trkpt lat="46.8259" lon="4.54114">
        <ele>299.59</ele>
        <time>2010-04-25T07:34:45Z</time>
      </trkpt>
      <trkpt lat="46.82588" lon="4.54107">
        <ele>300.07</ele>
        <time>2010-04-25T07:34:48Z</time>
      </trkpt>
      <trkpt lat="46.82588" lon="4.54104">
        <ele>300.55</ele>
        <time>2010-04-25T07:34:49Z</time>
      </trkpt>
      <trkpt lat="46.82588" lon="4.54102">
        <ele>300.55</ele>
        <time>2010-04-25T07:34:50Z</time>
      </trkpt>
      <trkpt lat="46.82588" lon="4.541">
        <ele>300.55</ele>
        <time>2010-04-25T07:34:51Z</time>
      </trkpt>
      <trkpt lat="46.82587" lon="4.54098">
        <ele>301.03</ele>
        <time>2010-04-25T07:34:52Z</time>
      </trkpt>
      <trkpt lat="46.82586" lon="4.54099">
        <ele>300.55</ele>
        <time>2010-04-25T07:34:58Z</time>
      </trkpt>
      <trkpt lat="46.82587" lon="4.54098">
        <ele>301.51</ele>
        <time>2010-04-25T07:41:22Z</time>
      </trkpt>
      <trkpt lat="46.82588" lon="4.54099">
        <ele>301.51</ele>
        <time>2010-04-25T07:41:28Z</time>
      </trkpt>
      <trkpt lat="46.82588" lon="4.54099">
        <ele>301.51</ele>
        <time>2010-04-25T07:41:39Z</time>
      </trkpt>
      <trkpt lat="46.82589" lon="4.541">
        <ele>301.03</ele>
        <time>2010-04-25T07:41:42Z</time>
      </trkpt>
      <trkpt lat="46.82589" lon="4.54103">
        <ele>301.03</ele>
        <time>2010-04-25T07:41:43Z</time>
      </trkpt>
      <trkpt lat="46.82589" lon="4.54107">
        <ele>301.03</ele>
        <time>2010-04-25T07:41:44Z</time>
      </trkpt>
      <trkpt lat="46.82588" lon="4.54111">
        <ele>300.55</ele>
        <time>2010-04-25T07:41:45Z</time>
      </trkpt>
      <trkpt lat="46.82588" lon="4.54116">
        <ele>301.03</ele>
        <time>2010-04-25T07:41:46Z</time>
      </trkpt>
      <trkpt lat="46.82587" lon="4.5412">
        <ele>300.07</ele>
        <time>2010-04-25T07:41:47Z</time>
      </trkpt>
      <trkpt lat="46.82586" lon="4.54125">
        <ele>300.07</ele>
        <time>2010-04-25T07:41:48Z</time>
      </trkpt>
      <trkpt lat="46.82585" lon="4.54131">
        <ele>299.59</ele>
        <time>2010-04-25T07:41:49Z</time>
      </trkpt>
      <trkpt lat="46.82584" lon="4.54137">
        <ele>299.59</ele>
        <time>2010-04-25T07:41:50Z</time>
      </trkpt>
      <trkpt lat="46.82579" lon="4.54169">
        <ele>298.63</ele>
        <time>2010-04-25T07:41:56Z</time>
      </trkpt>
      <trkpt lat="46.8257" lon="4.54211">
        <ele>297.67</ele>
        <time>2010-04-25T07:42:04Z</time>
      </trkpt>
      <trkpt lat="46.8256" lon="4.54253">
        <ele>297.67</ele>
        <time>2010-04-25T07:42:11Z</time>
      </trkpt>
      <trkpt lat="46.82542" lon="4.54306">
        <ele>297.18</ele>
        <time>2010-04-25T07:42:19Z</time>
      </trkpt>
      <trkpt lat="46.82521" lon="4.54362">
        <ele>296.7</ele>
        <time>2010-04-25T07:42:27Z</time>
      </trkpt>
      <trkpt lat="46.825" lon="4.54418">
        <ele>297.18</ele>
        <time>2010-04-25T07:42:35Z</time>
      </trkpt>
      <trkpt lat="46.82484" lon="4.54487">
        <ele>296.7</ele>
        <time>2010-04-25T07:42:44Z</time>
      </trkpt>
      <trkpt lat="46.82476" lon="4.54566">
        <ele>295.74</ele>
        <time>2010-04-25T07:42:53Z</time>
      </trkpt>
      <trkpt lat="46.82474" lon="4.54585">
        <ele>294.78</ele>
        <time>2010-04-25T07:42:55Z</time>
      </trkpt>
      <trkpt lat="46.82472" lon="4.54594">
        <ele>294.3</ele>
        <time>2010-04-25T07:42:56Z</time>
      </trkpt>
      <trkpt lat="46.82469" lon="4.54604">
        <ele>294.3</ele>
        <time>2010-04-25T07:42:57Z</time>
      </trkpt>
      <trkpt lat="46.82465" lon="4.54613">
        <ele>293.82</ele>
        <time>2010-04-25T07:42:58Z</time>
      </trkpt>
      <trkpt lat="46.8246" lon="4.54623">
        <ele>292.86</ele>
        <time>2010-04-25T07:42:59Z</time>
      </trkpt>
      <trkpt lat="46.8245" lon="4.54643">
        <ele>291.9</ele>
        <time>2010-04-25T07:43:01Z</time>
      </trkpt>
      <trkpt lat="46.82437" lon="4.54672">
        <ele>291.42</ele>
        <time>2010-04-25T07:43:04Z</time>
      </trkpt>
      <trkpt lat="46.82432" lon="4.5468">
        <ele>291.42</ele>
        <time>2010-04-25T07:43:05Z</time>
      </trkpt>
      <trkpt lat="46.824" lon="4.54722">
        <ele>291.42</ele>
        <time>2010-04-25T07:43:11Z</time>
      </trkpt>
      <trkpt lat="46.82394" lon="4.54728">
        <ele>291.42</ele>
        <time>2010-04-25T07:43:12Z</time>
      </trkpt>
      <trkpt lat="46.82388" lon="4.54732">
        <ele>291.9</ele>
        <time>2010-04-25T07:43:13Z</time>
      </trkpt>
      <trkpt lat="46.82382" lon="4.54735">
        <ele>291.9</ele>
        <time>2010-04-25T07:43:14Z</time>
      </trkpt>
      <trkpt lat="46.82377" lon="4.54737">
        <ele>291.9</ele>
        <time>2010-04-25T07:43:15Z</time>
      </trkpt>
      <trkpt lat="46.82371" lon="4.54737">
        <ele>292.38</ele>
        <time>2010-04-25T07:43:16Z</time>
      </trkpt>
      <trkpt lat="46.82365" lon="4.54736">
        <ele>292.38</ele>
        <time>2010-04-25T07:43:17Z</time>
      </trkpt>
      <trkpt lat="46.8236" lon="4.54734">
        <ele>292.86</ele>
        <time>2010-04-25T07:43:18Z</time>
      </trkpt>
      <trkpt lat="46.82356" lon="4.5473">
        <ele>292.86</ele>
        <time>2010-04-25T07:43:19Z</time>
      </trkpt>
      <trkpt lat="46.82352" lon="4.54725">
        <ele>292.86</ele>
        <time>2010-04-25T07:43:20Z</time>
      </trkpt>
      <trkpt lat="46.82348" lon="4.5472">
        <ele>293.34</ele>
        <time>2010-04-25T07:43:21Z</time>
      </trkpt>
      <trkpt lat="46.82346" lon="4.54715">
        <ele>293.34</ele>
        <time>2010-04-25T07:43:22Z</time>
      </trkpt>
      <trkpt lat="46.82343" lon="4.54711">
        <ele>293.82</ele>
        <time>2010-04-25T07:43:23Z</time>
      </trkpt>
      <trkpt lat="46.8234" lon="4.54707">
        <ele>294.3</ele>
        <time>2010-04-25T07:43:24Z</time>
      </trkpt>
      <trkpt lat="46.82322" lon="4.54691">
        <ele>296.22</ele>
        <time>2010-04-25T07:43:31Z</time>
      </trkpt>
      <trkpt lat="46.82295" lon="4.54688">
        <ele>298.15</ele>
        <time>2010-04-25T07:43:40Z</time>
      </trkpt>
      <trkpt lat="46.82271" lon="4.54703">
        <ele>298.63</ele>
        <time>2010-04-25T07:43:47Z</time>
      </trkpt>
      <trkpt lat="46.82244" lon="4.54722">
        <ele>298.15</ele>
        <time>2010-04-25T07:43:54Z</time>
      </trkpt>
      <trkpt lat="46.8224" lon="4.54726">
        <ele>297.67</ele>
        <time>2010-04-25T07:43:55Z</time>
      </trkpt>
      <trkpt lat="46.82237" lon="4.5473">
        <ele>297.67</ele>
        <time>2010-04-25T07:43:56Z</time>
      </trkpt>
      <trkpt lat="46.82235" lon="4.54736">
        <ele>297.67</ele>
        <time>2010-04-25T07:43:57Z</time>
      </trkpt>
      <trkpt lat="46.82233" lon="4.54742">
        <ele>297.18</ele>
        <time>2010-04-25T07:43:58Z</time>
      </trkpt>
      <trkpt lat="46.82232" lon="4.54749">
        <ele>296.7</ele>
        <time>2010-04-25T07:43:59Z</time>
      </trkpt>
      <trkpt lat="46.82232" lon="4.54756">
        <ele>296.22</ele>
        <time>2010-04-25T07:44:00Z</time>
      </trkpt>
      <trkpt lat="46.82231" lon="4.54764">
        <ele>296.22</ele>
        <time>2010-04-25T07:44:01Z</time>
      </trkpt>
      <trkpt lat="46.82231" lon="4.54772">
        <ele>295.74</ele>
        <time>2010-04-25T07:44:02Z</time>
      </trkpt>
      <trkpt lat="46.82231" lon="4.54782">
        <ele>296.22</ele>
        <time>2010-04-25T07:44:03Z</time>
      </trkpt>
      <trkpt lat="46.82238" lon="4.54851">
        <ele>294.78</ele>
        <time>2010-04-25T07:44:10Z</time>
      </trkpt>
      <trkpt lat="46.82239" lon="4.54861">
        <ele>294.3</ele>
        <time>2010-04-25T07:44:11Z</time>
      </trkpt>
      <trkpt lat="46.82239" lon="4.5487">
        <ele>294.78</ele>
        <time>2010-04-25T07:44:12Z</time>
      </trkpt>
      <trkpt lat="46.82238" lon="4.54879">
        <ele>294.78</ele>
        <time>2010-04-25T07:44:13Z</time>
      </trkpt>
      <trkpt lat="46.82235" lon="4.54887">
        <ele>294.3</ele>
        <time>2010-04-25T07:44:14Z</time>
      </trkpt>
      <trkpt lat="46.82231" lon="4.54894">
        <ele>294.3</ele>
        <time>2010-04-25T07:44:15Z</time>
      </trkpt>
      <trkpt lat="46.82227" lon="4.549">
        <ele>294.3</ele>
        <time>2010-04-25T07:44:16Z</time>
      </trkpt>
      <trkpt lat="46.82218" lon="4.54912">
        <ele>293.82</ele>
        <time>2010-04-25T07:44:18Z</time>
      </trkpt>
      <trkpt lat="46.82207" lon="4.54922">
        <ele>293.34</ele>
        <time>2010-04-25T07:44:20Z</time>
      </trkpt>
      <trkpt lat="46.82196" lon="4.54936">
        <ele>292.38</ele>
        <time>2010-04-25T07:44:22Z</time>
      </trkpt>
      <trkpt lat="46.82192" lon="4.54945">
        <ele>291.9</ele>
        <time>2010-04-25T07:44:23Z</time>
      </trkpt>
      <trkpt lat="46.82188" lon="4.54955">
        <ele>291.42</ele>
        <time>2010-04-25T07:44:24Z</time>
      </trkpt>
      <trkpt lat="46.82163" lon="4.55023">
        <ele>288.05</ele>
        <time>2010-04-25T07:44:30Z</time>
      </trkpt>
      <trkpt lat="46.82146" lon="4.5509">
        <ele>285.17</ele>
        <time>2010-04-25T07:44:35Z</time>
      </trkpt>
      <trkpt lat="46.82117" lon="4.5516">
        <ele>283.25</ele>
        <time>2010-04-25T07:44:41Z</time>
      </trkpt>
      <trkpt lat="46.82107" lon="4.55195">
        <ele>282.28</ele>
        <time>2010-04-25T07:44:44Z</time>
      </trkpt>
      <trkpt lat="46.82105" lon="4.55207">
        <ele>282.28</ele>
        <time>2010-04-25T07:44:45Z</time>
      </trkpt>
      <trkpt lat="46.82102" lon="4.55218">
        <ele>282.77</ele>
        <time>2010-04-25T07:44:46Z</time>
      </trkpt>
      <trkpt lat="46.82098" lon="4.55229">
        <ele>282.28</ele>
        <time>2010-04-25T07:44:47Z</time>
      </trkpt>
      <trkpt lat="46.82093" lon="4.5524">
        <ele>282.77</ele>
        <time>2010-04-25T07:44:48Z</time>
      </trkpt>
      <trkpt lat="46.82067" lon="4.55299">
        <ele>282.28</ele>
        <time>2010-04-25T07:44:54Z</time>
      </trkpt>
      <trkpt lat="46.82063" lon="4.55308">
        <ele>282.77</ele>
        <time>2010-04-25T07:44:55Z</time>
      </trkpt>
      <trkpt lat="46.82059" lon="4.55317">
        <ele>282.77</ele>
        <time>2010-04-25T07:44:56Z</time>
      </trkpt>
      <trkpt lat="46.82054" lon="4.55324">
        <ele>283.25</ele>
        <time>2010-04-25T07:44:57Z</time>
      </trkpt>
      <trkpt lat="46.82049" lon="4.55331">
        <ele>283.25</ele>
        <time>2010-04-25T07:44:58Z</time>
      </trkpt>
      <trkpt lat="46.82044" lon="4.55337">
        <ele>283.73</ele>
        <time>2010-04-25T07:44:59Z</time>
      </trkpt>
      <trkpt lat="46.82039" lon="4.55341">
        <ele>284.21</ele>
        <time>2010-04-25T07:45:00Z</time>
      </trkpt>
      <trkpt lat="46.82034" lon="4.55346">
        <ele>283.73</ele>
        <time>2010-04-25T07:45:01Z</time>
      </trkpt>
      <trkpt lat="46.8203" lon="4.55351">
        <ele>282.77</ele>
        <time>2010-04-25T07:45:02Z</time>
      </trkpt>
      <trkpt lat="46.82026" lon="4.55359">
        <ele>281.8</ele>
        <time>2010-04-25T07:45:03Z</time>
      </trkpt>
      <trkpt lat="46.82022" lon="4.55368">
        <ele>280.84</ele>
        <time>2010-04-25T07:45:04Z</time>
      </trkpt>
      <trkpt lat="46.82012" lon="4.55391">
        <ele>279.4</ele>
        <time>2010-04-25T07:45:06Z</time>
      </trkpt>
      <trkpt lat="46.81978" lon="4.55456">
        <ele>276.52</ele>
        <time>2010-04-25T07:45:11Z</time>
      </trkpt>
      <trkpt lat="46.81968" lon="4.55485">
        <ele>275.07</ele>
        <time>2010-04-25T07:45:13Z</time>
      </trkpt>
      <trkpt lat="46.81944" lon="4.55581">
        <ele>272.67</ele>
        <time>2010-04-25T07:45:20Z</time>
      </trkpt>
      <trkpt lat="46.81928" lon="4.55636">
        <ele>270.75</ele>
        <time>2010-04-25T07:45:24Z</time>
      </trkpt>
      <trkpt lat="46.81901" lon="4.55714">
        <ele>267.38</ele>
        <time>2010-04-25T07:45:30Z</time>
      </trkpt>
      <trkpt lat="46.81875" lon="4.55779">
        <ele>264.02</ele>
        <time>2010-04-25T07:45:35Z</time>
      </trkpt>
      <trkpt lat="46.81854" lon="4.55849">
        <ele>260.17</ele>
        <time>2010-04-25T07:45:40Z</time>
      </trkpt>
      <trkpt lat="46.81844" lon="4.55877">
        <ele>258.25</ele>
        <time>2010-04-25T07:45:42Z</time>
      </trkpt>
      <trkpt lat="46.81838" lon="4.55889">
        <ele>257.77</ele>
        <time>2010-04-25T07:45:43Z</time>
      </trkpt>
      <trkpt lat="46.81831" lon="4.559">
        <ele>257.29</ele>
        <time>2010-04-25T07:45:44Z</time>
      </trkpt>
      <trkpt lat="46.81802" lon="4.55942">
        <ele>256.33</ele>
        <time>2010-04-25T07:45:48Z</time>
      </trkpt>
      <trkpt lat="46.81796" lon="4.55953">
        <ele>256.33</ele>
        <time>2010-04-25T07:45:49Z</time>
      </trkpt>
      <trkpt lat="46.81791" lon="4.55965">
        <ele>256.33</ele>
        <time>2010-04-25T07:45:50Z</time>
      </trkpt>
      <trkpt lat="46.81787" lon="4.55977">
        <ele>255.85</ele>
        <time>2010-04-25T07:45:51Z</time>
      </trkpt>
      <trkpt lat="46.81784" lon="4.55989">
        <ele>256.33</ele>
        <time>2010-04-25T07:45:52Z</time>
      </trkpt>
      <trkpt lat="46.8178" lon="4.56">
        <ele>255.85</ele>
        <time>2010-04-25T07:45:53Z</time>
      </trkpt>
      <trkpt lat="46.81775" lon="4.56011">
        <ele>255.37</ele>
        <time>2010-04-25T07:45:54Z</time>
      </trkpt>
      <trkpt lat="46.81755" lon="4.56057">
        <ele>254.89</ele>
        <time>2010-04-25T07:45:59Z</time>
      </trkpt>
      <trkpt lat="46.81752" lon="4.56066">
        <ele>254.89</ele>
        <time>2010-04-25T07:46:00Z</time>
      </trkpt>
      <trkpt lat="46.8175" lon="4.56076">
        <ele>255.37</ele>
        <time>2010-04-25T07:46:01Z</time>
      </trkpt>
      <trkpt lat="46.81749" lon="4.56085">
        <ele>255.37</ele>
        <time>2010-04-25T07:46:02Z</time>
      </trkpt>
      <trkpt lat="46.81747" lon="4.56094">
        <ele>255.37</ele>
        <time>2010-04-25T07:46:03Z</time>
      </trkpt>
      <trkpt lat="46.81744" lon="4.56102">
        <ele>255.37</ele>
        <time>2010-04-25T07:46:04Z</time>
      </trkpt>
      <trkpt lat="46.81741" lon="4.56111">
        <ele>255.85</ele>
        <time>2010-04-25T07:46:05Z</time>
      </trkpt>
      <trkpt lat="46.81713" lon="4.56167">
        <ele>254.89</ele>
        <time>2010-04-25T07:46:11Z</time>
      </trkpt>
      <trkpt lat="46.81695" lon="4.56211">
        <ele>254.89</ele>
        <time>2010-04-25T07:46:16Z</time>
      </trkpt>
      <trkpt lat="46.81693" lon="4.5622">
        <ele>254.89</ele>
        <time>2010-04-25T07:46:17Z</time>
      </trkpt>
      <trkpt lat="46.81691" lon="4.56229">
        <ele>254.41</ele>
        <time>2010-04-25T07:46:18Z</time>
      </trkpt>
      <trkpt lat="46.81691" lon="4.56292">
        <ele>256.33</ele>
        <time>2010-04-25T07:46:25Z</time>
      </trkpt>
      <trkpt lat="46.81693" lon="4.56365">
        <ele>256.81</ele>
        <time>2010-04-25T07:46:34Z</time>
      </trkpt>
      <trkpt lat="46.81689" lon="4.5642">
        <ele>257.29</ele>
        <time>2010-04-25T07:46:41Z</time>
      </trkpt>
      <trkpt lat="46.81684" lon="4.5648">
        <ele>259.21</ele>
        <time>2010-04-25T07:46:49Z</time>
      </trkpt>
      <trkpt lat="46.81684" lon="4.56487">
        <ele>259.69</ele>
        <time>2010-04-25T07:46:50Z</time>
      </trkpt>
      <trkpt lat="46.81684" lon="4.56493">
        <ele>260.65</ele>
        <time>2010-04-25T07:46:51Z</time>
      </trkpt>
      <trkpt lat="46.81689" lon="4.56523">
        <ele>261.62</ele>
        <time>2010-04-25T07:46:56Z</time>
      </trkpt>
      <trkpt lat="46.81699" lon="4.56576">
        <ele>263.06</ele>
        <time>2010-04-25T07:47:05Z</time>
      </trkpt>
      <trkpt lat="46.81704" lon="4.56611">
        <ele>264.5</ele>
        <time>2010-04-25T07:47:11Z</time>
      </trkpt>
      <trkpt lat="46.81705" lon="4.56617">
        <ele>264.5</ele>
        <time>2010-04-25T07:47:12Z</time>
      </trkpt>
      <trkpt lat="46.81705" lon="4.56623">
        <ele>264.5</ele>
        <time>2010-04-25T07:47:13Z</time>
      </trkpt>
      <trkpt lat="46.81705" lon="4.56679">
        <ele>265.94</ele>
        <time>2010-04-25T07:47:22Z</time>
      </trkpt>
      <trkpt lat="46.81705" lon="4.56711">
        <ele>266.9</ele>
        <time>2010-04-25T07:47:27Z</time>
      </trkpt>
      <trkpt lat="46.81703" lon="4.56766">
        <ele>268.83</ele>
        <time>2010-04-25T07:47:36Z</time>
      </trkpt>
      <trkpt lat="46.81703" lon="4.56772">
        <ele>268.83</ele>
        <time>2010-04-25T07:47:37Z</time>
      </trkpt>
      <trkpt lat="46.81701" lon="4.56794">
        <ele>269.31</ele>
        <time>2010-04-25T07:47:41Z</time>
      </trkpt>
      <trkpt lat="46.81698" lon="4.56797">
        <ele>268.83</ele>
        <time>2010-04-25T07:47:42Z</time>
      </trkpt>
      <trkpt lat="46.81694" lon="4.56798">
        <ele>268.83</ele>
        <time>2010-04-25T07:47:43Z</time>
      </trkpt>
      <trkpt lat="46.81689" lon="4.56799">
        <ele>268.83</ele>
        <time>2010-04-25T07:47:44Z</time>
      </trkpt>
      <trkpt lat="46.81684" lon="4.56801">
        <ele>268.35</ele>
        <time>2010-04-25T07:47:45Z</time>
      </trkpt>
      <trkpt lat="46.81678" lon="4.56803">
        <ele>268.83</ele>
        <time>2010-04-25T07:47:46Z</time>
      </trkpt>
      <trkpt lat="46.81645" lon="4.56824">
        <ele>265.94</ele>
        <time>2010-04-25T07:47:51Z</time>
      </trkpt>
      <trkpt lat="46.81638" lon="4.56828">
        <ele>265.46</ele>
        <time>2010-04-25T07:47:52Z</time>
      </trkpt>
      <trkpt lat="46.81629" lon="4.56831">
        <ele>264.5</ele>
        <time>2010-04-25T07:47:53Z</time>
      </trkpt>
      <trkpt lat="46.8162" lon="4.56833">
        <ele>263.54</ele>
        <time>2010-04-25T07:47:54Z</time>
      </trkpt>
      <trkpt lat="46.8161" lon="4.56834">
        <ele>262.58</ele>
        <time>2010-04-25T07:47:55Z</time>
      </trkpt>
      <trkpt lat="46.816" lon="4.56832">
        <ele>262.58</ele>
        <time>2010-04-25T07:47:56Z</time>
      </trkpt>
      <trkpt lat="46.8159" lon="4.56829">
        <ele>262.1</ele>
        <time>2010-04-25T07:47:57Z</time>
      </trkpt>
      <trkpt lat="46.8158" lon="4.56826">
        <ele>261.14</ele>
        <time>2010-04-25T07:47:58Z</time>
      </trkpt>
      <trkpt lat="46.8156" lon="4.56821">
        <ele>259.21</ele>
        <time>2010-04-25T07:48:00Z</time>
      </trkpt>
      <trkpt lat="46.81539" lon="4.5682">
        <ele>258.25</ele>
        <time>2010-04-25T07:48:02Z</time>
      </trkpt>
      <trkpt lat="46.81496" lon="4.56827">
        <ele>254.89</ele>
        <time>2010-04-25T07:48:06Z</time>
      </trkpt>
      <trkpt lat="46.81465" lon="4.56837">
        <ele>252.48</ele>
        <time>2010-04-25T07:48:09Z</time>
      </trkpt>
      <trkpt lat="46.81456" lon="4.56843">
        <ele>252</ele>
        <time>2010-04-25T07:48:10Z</time>
      </trkpt>
      <trkpt lat="46.81449" lon="4.56852">
        <ele>252</ele>
        <time>2010-04-25T07:48:11Z</time>
      </trkpt>
      <trkpt lat="46.81443" lon="4.56863">
        <ele>252</ele>
        <time>2010-04-25T07:48:12Z</time>
      </trkpt>
      <trkpt lat="46.81437" lon="4.56874">
        <ele>252</ele>
        <time>2010-04-25T07:48:13Z</time>
      </trkpt>
      <trkpt lat="46.81427" lon="4.56898">
        <ele>252</ele>
        <time>2010-04-25T07:48:15Z</time>
      </trkpt>
      <trkpt lat="46.81424" lon="4.5691">
        <ele>252.48</ele>
        <time>2010-04-25T07:48:16Z</time>
      </trkpt>
      <trkpt lat="46.81397" lon="4.56987">
        <ele>252.48</ele>
        <time>2010-04-25T07:48:23Z</time>
      </trkpt>
      <trkpt lat="46.81372" lon="4.57046">
        <ele>253.44</ele>
        <time>2010-04-25T07:48:30Z</time>
      </trkpt>
      <trkpt lat="46.81345" lon="4.57104">
        <ele>252.48</ele>
        <time>2010-04-25T07:48:37Z</time>
      </trkpt>
      <trkpt lat="46.81339" lon="4.57119">
        <ele>251.52</ele>
        <time>2010-04-25T07:48:39Z</time>
      </trkpt>
      <trkpt lat="46.81339" lon="4.57125">
        <ele>251.52</ele>
        <time>2010-04-25T07:48:40Z</time>
      </trkpt>
      <trkpt lat="46.81341" lon="4.5713">
        <ele>252</ele>
        <time>2010-04-25T07:48:41Z</time>
      </trkpt>
      <trkpt lat="46.81345" lon="4.57134">
        <ele>251.52</ele>
        <time>2010-04-25T07:48:42Z</time>
      </trkpt>
      <trkpt lat="46.81348" lon="4.57136">
        <ele>252</ele>
        <time>2010-04-25T07:48:43Z</time>
      </trkpt>
      <trkpt lat="46.81374" lon="4.57149">
        <ele>253.44</ele>
        <time>2010-04-25T07:48:50Z</time>
      </trkpt>
      <trkpt lat="46.81387" lon="4.57155">
        <ele>254.41</ele>
        <time>2010-04-25T07:48:55Z</time>
      </trkpt>
      <trkpt lat="46.81398" lon="4.57163">
        <ele>255.85</ele>
        <time>2010-04-25T07:49:00Z</time>
      </trkpt>
      <trkpt lat="46.81409" lon="4.57172">
        <ele>256.81</ele>
        <time>2010-04-25T07:49:05Z</time>
      </trkpt>
      <trkpt lat="46.81429" lon="4.57176">
        <ele>259.21</ele>
        <time>2010-04-25T07:49:12Z</time>
      </trkpt>
      <trkpt lat="46.8145" lon="4.5718">
        <ele>260.17</ele>
        <time>2010-04-25T07:49:19Z</time>
      </trkpt>
      <trkpt lat="46.81475" lon="4.57185">
        <ele>261.62</ele>
        <time>2010-04-25T07:49:28Z</time>
      </trkpt>
      <trkpt lat="46.8149" lon="4.57192">
        <ele>261.62</ele>
        <time>2010-04-25T07:49:34Z</time>
      </trkpt>
      <trkpt lat="46.81503" lon="4.57195">
        <ele>262.58</ele>
        <time>2010-04-25T07:49:39Z</time>
      </trkpt>
      <trkpt lat="46.81534" lon="4.57206">
        <ele>264.02</ele>
        <time>2010-04-25T07:49:48Z</time>
      </trkpt>
      <trkpt lat="46.8156" lon="4.57218">
        <ele>264.5</ele>
        <time>2010-04-25T07:49:56Z</time>
      </trkpt>
      <trkpt lat="46.81579" lon="4.57232">
        <ele>264.5</ele>
        <time>2010-04-25T07:50:02Z</time>
      </trkpt>
      <trkpt lat="46.81605" lon="4.5725">
        <ele>264.98</ele>
        <time>2010-04-25T07:50:10Z</time>
      </trkpt>
      <trkpt lat="46.81617" lon="4.57259">
        <ele>266.42</ele>
        <time>2010-04-25T07:50:15Z</time>
      </trkpt>
      <trkpt lat="46.81655" lon="4.57283">
        <ele>266.9</ele>
        <time>2010-04-25T07:50:25Z</time>
      </trkpt>
      <trkpt lat="46.81685" lon="4.57311">
        <ele>267.38</ele>
        <time>2010-04-25T07:50:34Z</time>
      </trkpt>
      <trkpt lat="46.81715" lon="4.57331">
        <ele>268.83</ele>
        <time>2010-04-25T07:50:43Z</time>
      </trkpt>
      <trkpt lat="46.81742" lon="4.57356">
        <ele>269.79</ele>
        <time>2010-04-25T07:50:52Z</time>
      </trkpt>
      <trkpt lat="46.81772" lon="4.57382">
        <ele>271.23</ele>
        <time>2010-04-25T07:51:02Z</time>
      </trkpt>
      <trkpt lat="46.81796" lon="4.57408">
        <ele>271.71</ele>
        <time>2010-04-25T07:51:10Z</time>
      </trkpt>
      <trkpt lat="46.81822" lon="4.57434">
        <ele>271.71</ele>
        <time>2010-04-25T07:51:18Z</time>
      </trkpt>
      <trkpt lat="46.81845" lon="4.57451">
        <ele>272.67</ele>
        <time>2010-04-25T07:51:25Z</time>
      </trkpt>
      <trkpt lat="46.8186" lon="4.57463">
        <ele>273.15</ele>
        <time>2010-04-25T07:51:31Z</time>
      </trkpt>
      <trkpt lat="46.81881" lon="4.57473">
        <ele>274.59</ele>
        <time>2010-04-25T07:51:39Z</time>
      </trkpt>
      <trkpt lat="46.81897" lon="4.5748">
        <ele>275.07</ele>
        <time>2010-04-25T07:51:45Z</time>
      </trkpt>
      <trkpt lat="46.81915" lon="4.5749">
        <ele>276.52</ele>
        <time>2010-04-25T07:51:52Z</time>
      </trkpt>
      <trkpt lat="46.8194" lon="4.57496">
        <ele>277.96</ele>
        <time>2010-04-25T07:52:01Z</time>
      </trkpt>
      <trkpt lat="46.81961" lon="4.5749">
        <ele>277.96</ele>
        <time>2010-04-25T07:52:09Z</time>
      </trkpt>
      <trkpt lat="46.81972" lon="4.57501">
        <ele>278.44</ele>
        <time>2010-04-25T07:52:15Z</time>
      </trkpt>
      <trkpt lat="46.81983" lon="4.57519">
        <ele>278.44</ele>
        <time>2010-04-25T07:52:22Z</time>
      </trkpt>
      <trkpt lat="46.81986" lon="4.57548">
        <ele>279.4</ele>
        <time>2010-04-25T07:52:29Z</time>
      </trkpt>
      <trkpt lat="46.81982" lon="4.57582">
        <ele>277.96</ele>
        <time>2010-04-25T07:52:36Z</time>
      </trkpt>
      <trkpt lat="46.81981" lon="4.57587">
        <ele>278.44</ele>
        <time>2010-04-25T07:52:37Z</time>
      </trkpt>
      <trkpt lat="46.81967" lon="4.5764">
        <ele>277.96</ele>
        <time>2010-04-25T07:52:46Z</time>
      </trkpt>
      <trkpt lat="46.81962" lon="4.5766">
        <ele>278.92</ele>
        <time>2010-04-25T07:52:49Z</time>
      </trkpt>
      <trkpt lat="46.81941" lon="4.57739">
        <ele>278.44</ele>
        <time>2010-04-25T07:53:00Z</time>
      </trkpt>
      <trkpt lat="46.81919" lon="4.57817">
        <ele>278.44</ele>
        <time>2010-04-25T07:53:11Z</time>
      </trkpt>
      <trkpt lat="46.81902" lon="4.57855">
        <ele>279.4</ele>
        <time>2010-04-25T07:53:17Z</time>
      </trkpt>
      <trkpt lat="46.81883" lon="4.57884">
        <ele>277.96</ele>
        <time>2010-04-25T07:53:22Z</time>
      </trkpt>
      <trkpt lat="46.81878" lon="4.57889">
        <ele>277.48</ele>
        <time>2010-04-25T07:53:23Z</time>
      </trkpt>
      <trkpt lat="46.81873" lon="4.57893">
        <ele>277.48</ele>
        <time>2010-04-25T07:53:24Z</time>
      </trkpt>
      <trkpt lat="46.81869" lon="4.57899">
        <ele>277.48</ele>
        <time>2010-04-25T07:53:25Z</time>
      </trkpt>
      <trkpt lat="46.81866" lon="4.57905">
        <ele>276.52</ele>
        <time>2010-04-25T07:53:26Z</time>
      </trkpt>
      <trkpt lat="46.81863" lon="4.57911">
        <ele>277</ele>
        <time>2010-04-25T07:53:27Z</time>
      </trkpt>
      <trkpt lat="46.81857" lon="4.57926">
        <ele>274.59</ele>
        <time>2010-04-25T07:53:29Z</time>
      </trkpt>
      <trkpt lat="46.8185" lon="4.57952">
        <ele>274.59</ele>
        <time>2010-04-25T07:53:32Z</time>
      </trkpt>
      <trkpt lat="46.81847" lon="4.57972">
        <ele>273.15</ele>
        <time>2010-04-25T07:53:34Z</time>
      </trkpt>
      <trkpt lat="46.81844" lon="4.57982">
        <ele>273.63</ele>
        <time>2010-04-25T07:53:35Z</time>
      </trkpt>
      <trkpt lat="46.8184" lon="4.58003">
        <ele>273.15</ele>
        <time>2010-04-25T07:53:37Z</time>
      </trkpt>
      <trkpt lat="46.81838" lon="4.58014">
        <ele>271.71</ele>
        <time>2010-04-25T07:53:38Z</time>
      </trkpt>
      <trkpt lat="46.81835" lon="4.58025">
        <ele>271.23</ele>
        <time>2010-04-25T07:53:39Z</time>
      </trkpt>
      <trkpt lat="46.81831" lon="4.58034">
        <ele>269.79</ele>
        <time>2010-04-25T07:53:40Z</time>
      </trkpt>
      <trkpt lat="46.81826" lon="4.58042">
        <ele>269.79</ele>
        <time>2010-04-25T07:53:41Z</time>
      </trkpt>
      <trkpt lat="46.81821" lon="4.58049">
        <ele>270.27</ele>
        <time>2010-04-25T07:53:42Z</time>
      </trkpt>
      <trkpt lat="46.81814" lon="4.58056">
        <ele>269.31</ele>
        <time>2010-04-25T07:53:43Z</time>
      </trkpt>
      <trkpt lat="46.81808" lon="4.58062">
        <ele>269.79</ele>
        <time>2010-04-25T07:53:44Z</time>
      </trkpt>
      <trkpt lat="46.81802" lon="4.58069">
        <ele>268.83</ele>
        <time>2010-04-25T07:53:45Z</time>
      </trkpt>
      <trkpt lat="46.81791" lon="4.58084">
        <ele>269.31</ele>
        <time>2010-04-25T07:53:47Z</time>
      </trkpt>
      <trkpt lat="46.81782" lon="4.58099">
        <ele>267.86</ele>
        <time>2010-04-25T07:53:49Z</time>
      </trkpt>
      <trkpt lat="46.8178" lon="4.58104">
        <ele>267.38</ele>
        <time>2010-04-25T07:53:50Z</time>
      </trkpt>
      <trkpt lat="46.8178" lon="4.58109">
        <ele>266.9</ele>
        <time>2010-04-25T07:53:51Z</time>
      </trkpt>
      <trkpt lat="46.81781" lon="4.58113">
        <ele>266.9</ele>
        <time>2010-04-25T07:53:52Z</time>
      </trkpt>
      <trkpt lat="46.81785" lon="4.58119">
        <ele>265.94</ele>
        <time>2010-04-25T07:53:54Z</time>
      </trkpt>
      <trkpt lat="46.81785" lon="4.58123">
        <ele>265.94</ele>
        <time>2010-04-25T07:53:55Z</time>
      </trkpt>
      <trkpt lat="46.81785" lon="4.58128">
        <ele>265.46</ele>
        <time>2010-04-25T07:53:56Z</time>
      </trkpt>
      <trkpt lat="46.81786" lon="4.58132">
        <ele>266.42</ele>
        <time>2010-04-25T07:53:57Z</time>
      </trkpt>
      <trkpt lat="46.81787" lon="4.58137">
        <ele>265.46</ele>
        <time>2010-04-25T07:53:58Z</time>
      </trkpt>
      <trkpt lat="46.8179" lon="4.5819">
        <ele>264.5</ele>
        <time>2010-04-25T07:54:07Z</time>
      </trkpt>
      <trkpt lat="46.81791" lon="4.58203">
        <ele>264.98</ele>
        <time>2010-04-25T07:54:09Z</time>
      </trkpt>
      <trkpt lat="46.81791" lon="4.5821">
        <ele>264.02</ele>
        <time>2010-04-25T07:54:10Z</time>
      </trkpt>
      <trkpt lat="46.81793" lon="4.58217">
        <ele>264.02</ele>
        <time>2010-04-25T07:54:11Z</time>
      </trkpt>
      <trkpt lat="46.81795" lon="4.58223">
        <ele>264.5</ele>
        <time>2010-04-25T07:54:12Z</time>
      </trkpt>
      <trkpt lat="46.81797" lon="4.58228">
        <ele>264.02</ele>
        <time>2010-04-25T07:54:13Z</time>
      </trkpt>
      <trkpt lat="46.818" lon="4.58232">
        <ele>264.5</ele>
        <time>2010-04-25T07:54:14Z</time>
      </trkpt>
      <trkpt lat="46.81819" lon="4.58259">
        <ele>263.06</ele>
        <time>2010-04-25T07:54:20Z</time>
      </trkpt>
      <trkpt lat="46.81822" lon="4.58264">
        <ele>263.54</ele>
        <time>2010-04-25T07:54:21Z</time>
      </trkpt>
      <trkpt lat="46.81825" lon="4.5827">
        <ele>262.58</ele>
        <time>2010-04-25T07:54:22Z</time>
      </trkpt>
      <trkpt lat="46.81827" lon="4.58275">
        <ele>263.54</ele>
        <time>2010-04-25T07:54:23Z</time>
      </trkpt>
      <trkpt lat="46.8183" lon="4.58281">
        <ele>263.54</ele>
        <time>2010-04-25T07:54:24Z</time>
      </trkpt>
      <trkpt lat="46.81832" lon="4.58287">
        <ele>263.06</ele>
        <time>2010-04-25T07:54:25Z</time>
      </trkpt>
      <trkpt lat="46.81833" lon="4.58294">
        <ele>263.54</ele>
        <time>2010-04-25T07:54:26Z</time>
      </trkpt>
      <trkpt lat="46.81839" lon="4.58328">
        <ele>262.1</ele>
        <time>2010-04-25T07:54:32Z</time>
      </trkpt>
      <trkpt lat="46.8184" lon="4.58329">
        <ele>263.06</ele>
        <time>2010-04-25T07:54:36Z</time>
      </trkpt>
      <trkpt lat="46.8184" lon="4.58329">
        <ele>263.54</ele>
        <time>2010-04-25T07:54:54Z</time>
      </trkpt>
      <trkpt lat="46.8184" lon="4.58329">
        <ele>262.58</ele>
        <time>2010-04-25T07:55:01Z</time>
      </trkpt>
      <trkpt lat="46.8184" lon="4.58329">
        <ele>261.14</ele>
        <time>2010-04-25T07:55:11Z</time>
      </trkpt>
      <trkpt lat="46.8184" lon="4.58331">
        <ele>262.58</ele>
        <time>2010-04-25T07:55:34Z</time>
      </trkpt>
      <trkpt lat="46.81844" lon="4.58355">
        <ele>261.14</ele>
        <time>2010-04-25T07:55:40Z</time>
      </trkpt>
      <trkpt lat="46.8185" lon="4.58386">
        <ele>262.1</ele>
        <time>2010-04-25T07:55:45Z</time>
      </trkpt>
      <trkpt lat="46.81853" lon="4.58392">
        <ele>262.1</ele>
        <time>2010-04-25T07:55:46Z</time>
      </trkpt>
      <trkpt lat="46.81856" lon="4.58395">
        <ele>260.65</ele>
        <time>2010-04-25T07:55:47Z</time>
      </trkpt>
      <trkpt lat="46.81861" lon="4.58397">
        <ele>260.17</ele>
        <time>2010-04-25T07:55:48Z</time>
      </trkpt>
      <trkpt lat="46.81865" lon="4.58397">
        <ele>261.14</ele>
        <time>2010-04-25T07:55:49Z</time>
      </trkpt>
      <trkpt lat="46.81869" lon="4.58397">
        <ele>262.58</ele>
        <time>2010-04-25T07:55:50Z</time>
      </trkpt>
      <trkpt lat="46.81889" lon="4.584">
        <ele>262.58</ele>
        <time>2010-04-25T07:55:54Z</time>
      </trkpt>
      <trkpt lat="46.81915" lon="4.58412">
        <ele>262.58</ele>
        <time>2010-04-25T07:55:59Z</time>
      </trkpt>
      <trkpt lat="46.81949" lon="4.5844">
        <ele>262.58</ele>
        <time>2010-04-25T07:56:06Z</time>
      </trkpt>
      <trkpt lat="46.82001" lon="4.5848">
        <ele>263.54</ele>
        <time>2010-04-25T07:56:16Z</time>
      </trkpt>
      <trkpt lat="46.82058" lon="4.58492">
        <ele>262.1</ele>
        <time>2010-04-25T07:56:26Z</time>
      </trkpt>
      <trkpt lat="46.8208" lon="4.58492">
        <ele>263.54</ele>
        <time>2010-04-25T07:56:30Z</time>
      </trkpt>
      <trkpt lat="46.82086" lon="4.58491">
        <ele>263.54</ele>
        <time>2010-04-25T07:56:31Z</time>
      </trkpt>
      <trkpt lat="46.8213" lon="4.58474">
        <ele>263.06</ele>
        <time>2010-04-25T07:56:39Z</time>
      </trkpt>
      <trkpt lat="46.82173" lon="4.58456">
        <ele>264.02</ele>
        <time>2010-04-25T07:56:47Z</time>
      </trkpt>
      <trkpt lat="46.82178" lon="4.58453">
        <ele>264.5</ele>
        <time>2010-04-25T07:56:48Z</time>
      </trkpt>
      <trkpt lat="46.82189" lon="4.58449">
        <ele>263.06</ele>
        <time>2010-04-25T07:56:50Z</time>
      </trkpt>
      <trkpt lat="46.822" lon="4.58446">
        <ele>263.54</ele>
        <time>2010-04-25T07:56:52Z</time>
      </trkpt>
      <trkpt lat="46.82248" lon="4.5844">
        <ele>264.5</ele>
        <time>2010-04-25T07:57:01Z</time>
      </trkpt>
      <trkpt lat="46.82288" lon="4.58438">
        <ele>265.94</ele>
        <time>2010-04-25T07:57:09Z</time>
      </trkpt>
      <trkpt lat="46.82312" lon="4.58444">
        <ele>265.46</ele>
        <time>2010-04-25T07:57:14Z</time>
      </trkpt>
      <trkpt lat="46.82344" lon="4.5847">
        <ele>266.42</ele>
        <time>2010-04-25T07:57:22Z</time>
      </trkpt>
      <trkpt lat="46.82381" lon="4.58513">
        <ele>266.9</ele>
        <time>2010-04-25T07:57:32Z</time>
      </trkpt>
      <trkpt lat="46.82407" lon="4.58536">
        <ele>268.83</ele>
        <time>2010-04-25T07:57:39Z</time>
      </trkpt>
      <trkpt lat="46.82411" lon="4.58538">
        <ele>269.31</ele>
        <time>2010-04-25T07:57:40Z</time>
      </trkpt>
      <trkpt lat="46.82419" lon="4.5854">
        <ele>268.35</ele>
        <time>2010-04-25T07:57:42Z</time>
      </trkpt>
      <trkpt lat="46.82441" lon="4.58542">
        <ele>270.27</ele>
        <time>2010-04-25T07:57:47Z</time>
      </trkpt>
      <trkpt lat="46.82483" lon="4.58528">
        <ele>268.35</ele>
        <time>2010-04-25T07:57:56Z</time>
      </trkpt>
      <trkpt lat="46.82492" lon="4.58525">
        <ele>268.83</ele>
        <time>2010-04-25T07:57:58Z</time>
      </trkpt>
      <trkpt lat="46.82497" lon="4.58525">
        <ele>269.31</ele>
        <time>2010-04-25T07:57:59Z</time>
      </trkpt>
      <trkpt lat="46.82502" lon="4.58525">
        <ele>269.31</ele>
        <time>2010-04-25T07:58:00Z</time>
      </trkpt>
      <trkpt lat="46.82507" lon="4.58526">
        <ele>269.31</ele>
        <time>2010-04-25T07:58:01Z</time>
      </trkpt>
      <trkpt lat="46.82511" lon="4.58528">
        <ele>270.27</ele>
        <time>2010-04-25T07:58:02Z</time>
      </trkpt>
      <trkpt lat="46.82529" lon="4.58535">
        <ele>268.83</ele>
        <time>2010-04-25T07:58:06Z</time>
      </trkpt>
      <trkpt lat="46.82532" lon="4.5854">
        <ele>268.35</ele>
        <time>2010-04-25T07:58:07Z</time>
      </trkpt>
      <trkpt lat="46.82534" lon="4.58547">
        <ele>269.31</ele>
        <time>2010-04-25T07:58:08Z</time>
      </trkpt>
      <trkpt lat="46.82535" lon="4.58554">
        <ele>267.86</ele>
        <time>2010-04-25T07:58:09Z</time>
      </trkpt>
      <trkpt lat="46.82535" lon="4.58561">
        <ele>269.31</ele>
        <time>2010-04-25T07:58:10Z</time>
      </trkpt>
      <trkpt lat="46.82535" lon="4.58568">
        <ele>268.35</ele>
        <time>2010-04-25T07:58:11Z</time>
      </trkpt>
      <trkpt lat="46.82536" lon="4.58621">
        <ele>267.86</ele>
        <time>2010-04-25T07:58:17Z</time>
      </trkpt>
      <trkpt lat="46.82533" lon="4.58701">
        <ele>268.35</ele>
        <time>2010-04-25T07:58:25Z</time>
      </trkpt>
      <trkpt lat="46.82533" lon="4.58723">
        <ele>265.94</ele>
        <time>2010-04-25T07:58:27Z</time>
      </trkpt>
      <trkpt lat="46.82529" lon="4.5881">
        <ele>264.5</ele>
        <time>2010-04-25T07:58:34Z</time>
      </trkpt>
      <trkpt lat="46.82513" lon="4.58881">
        <ele>260.17</ele>
        <time>2010-04-25T07:58:39Z</time>
      </trkpt>
      <trkpt lat="46.82491" lon="4.58936">
        <ele>258.25</ele>
        <time>2010-04-25T07:58:43Z</time>
      </trkpt>
      <trkpt lat="46.82485" lon="4.58949">
        <ele>256.33</ele>
        <time>2010-04-25T07:58:44Z</time>
      </trkpt>
      <trkpt lat="46.82474" lon="4.58976">
        <ele>255.85</ele>
        <time>2010-04-25T07:58:46Z</time>
      </trkpt>
      <trkpt lat="46.82452" lon="4.59054">
        <ele>251.52</ele>
        <time>2010-04-25T07:58:51Z</time>
      </trkpt>
      <trkpt lat="46.82447" lon="4.59088">
        <ele>250.56</ele>
        <time>2010-04-25T07:58:53Z</time>
      </trkpt>
      <trkpt lat="46.82438" lon="4.59155">
        <ele>247.68</ele>
        <time>2010-04-25T07:58:57Z</time>
      </trkpt>
      <trkpt lat="46.82434" lon="4.59188">
        <ele>246.72</ele>
        <time>2010-04-25T07:58:59Z</time>
      </trkpt>
      <trkpt lat="46.82425" lon="4.5928">
        <ele>245.27</ele>
        <time>2010-04-25T07:59:05Z</time>
      </trkpt>
      <trkpt lat="46.82425" lon="4.59295">
        <ele>244.31</ele>
        <time>2010-04-25T07:59:06Z</time>
      </trkpt>
      <trkpt lat="46.82425" lon="4.59309">
        <ele>244.31</ele>
        <time>2010-04-25T07:59:07Z</time>
      </trkpt>
      <trkpt lat="46.82426" lon="4.59323">
        <ele>244.31</ele>
        <time>2010-04-25T07:59:08Z</time>
      </trkpt>
      <trkpt lat="46.82429" lon="4.59337">
        <ele>243.83</ele>
        <time>2010-04-25T07:59:09Z</time>
      </trkpt>
      <trkpt lat="46.82431" lon="4.5935">
        <ele>243.83</ele>
        <time>2010-04-25T07:59:10Z</time>
      </trkpt>
      <trkpt lat="46.82446" lon="4.59399">
        <ele>242.87</ele>
        <time>2010-04-25T07:59:14Z</time>
      </trkpt>
      <trkpt lat="46.82451" lon="4.5941">
        <ele>242.87</ele>
        <time>2010-04-25T07:59:15Z</time>
      </trkpt>
      <trkpt lat="46.82458" lon="4.59418">
        <ele>243.35</ele>
        <time>2010-04-25T07:59:16Z</time>
      </trkpt>
      <trkpt lat="46.82465" lon="4.59425">
        <ele>242.87</ele>
        <time>2010-04-25T07:59:17Z</time>
      </trkpt>
      <trkpt lat="46.82473" lon="4.59431">
        <ele>242.87</ele>
        <time>2010-04-25T07:59:18Z</time>
      </trkpt>
      <trkpt lat="46.82481" lon="4.59435">
        <ele>242.39</ele>
        <time>2010-04-25T07:59:19Z</time>
      </trkpt>
      <trkpt lat="46.82552" lon="4.59475">
        <ele>242.39</ele>
        <time>2010-04-25T07:59:28Z</time>
      </trkpt>
      <trkpt lat="46.82559" lon="4.59483">
        <ele>242.39</ele>
        <time>2010-04-25T07:59:29Z</time>
      </trkpt>
      <trkpt lat="46.82563" lon="4.59492">
        <ele>242.87</ele>
        <time>2010-04-25T07:59:30Z</time>
      </trkpt>
      <trkpt lat="46.82565" lon="4.59502">
        <ele>243.35</ele>
        <time>2010-04-25T07:59:31Z</time>
      </trkpt>
      <trkpt lat="46.82565" lon="4.59513">
        <ele>243.35</ele>
        <time>2010-04-25T07:59:32Z</time>
      </trkpt>
      <trkpt lat="46.82567" lon="4.59522">
        <ele>243.35</ele>
        <time>2010-04-25T07:59:33Z</time>
      </trkpt>
      <trkpt lat="46.8257" lon="4.59529">
        <ele>243.35</ele>
        <time>2010-04-25T07:59:34Z</time>
      </trkpt>
      <trkpt lat="46.82574" lon="4.59534">
        <ele>243.35</ele>
        <time>2010-04-25T07:59:35Z</time>
      </trkpt>
      <trkpt lat="46.82579" lon="4.59536">
        <ele>243.35</ele>
        <time>2010-04-25T07:59:36Z</time>
      </trkpt>
      <trkpt lat="46.82582" lon="4.59539">
        <ele>242.87</ele>
        <time>2010-04-25T07:59:37Z</time>
      </trkpt>
      <trkpt lat="46.82584" lon="4.59541">
        <ele>243.35</ele>
        <time>2010-04-25T07:59:38Z</time>
      </trkpt>
      <trkpt lat="46.82585" lon="4.59543">
        <ele>243.35</ele>
        <time>2010-04-25T07:59:39Z</time>
      </trkpt>
      <trkpt lat="46.82587" lon="4.59544">
        <ele>243.35</ele>
        <time>2010-04-25T07:59:40Z</time>
      </trkpt>
      <trkpt lat="46.82588" lon="4.59545">
        <ele>242.87</ele>
        <time>2010-04-25T07:59:41Z</time>
      </trkpt>
      <trkpt lat="46.8259" lon="4.59545">
        <ele>243.83</ele>
        <time>2010-04-25T07:59:42Z</time>
      </trkpt>
      <trkpt lat="46.82592" lon="4.59546">
        <ele>243.83</ele>
        <time>2010-04-25T07:59:43Z</time>
      </trkpt>
      <trkpt lat="46.82603" lon="4.59555">
        <ele>243.83</ele>
        <time>2010-04-25T07:59:49Z</time>
      </trkpt>
      <trkpt lat="46.82605" lon="4.59555">
        <ele>244.31</ele>
        <time>2010-04-25T07:59:50Z</time>
      </trkpt>
      <trkpt lat="46.82607" lon="4.59555">
        <ele>243.83</ele>
        <time>2010-04-25T07:59:51Z</time>
      </trkpt>
      <trkpt lat="46.82609" lon="4.59556">
        <ele>243.83</ele>
        <time>2010-04-25T07:59:52Z</time>
      </trkpt>
      <trkpt lat="46.82611" lon="4.59556">
        <ele>243.83</ele>
        <time>2010-04-25T07:59:53Z</time>
      </trkpt>
      <trkpt lat="46.82614" lon="4.59556">
        <ele>244.79</ele>
        <time>2010-04-25T07:59:54Z</time>
      </trkpt>
      <trkpt lat="46.82616" lon="4.59556">
        <ele>244.31</ele>
        <time>2010-04-25T07:59:55Z</time>
      </trkpt>
      <trkpt lat="46.82618" lon="4.59556">
        <ele>244.31</ele>
        <time>2010-04-25T07:59:56Z</time>
      </trkpt>
      <trkpt lat="46.8262" lon="4.59555">
        <ele>244.79</ele>
        <time>2010-04-25T07:59:57Z</time>
      </trkpt>
      <trkpt lat="46.82622" lon="4.59554">
        <ele>244.79</ele>
        <time>2010-04-25T07:59:58Z</time>
      </trkpt>
      <trkpt lat="46.82624" lon="4.59553">
        <ele>245.27</ele>
        <time>2010-04-25T07:59:59Z</time>
      </trkpt>
      <trkpt lat="46.82626" lon="4.59551">
        <ele>245.27</ele>
        <time>2010-04-25T08:00:00Z</time>
      </trkpt>
      <trkpt lat="46.82628" lon="4.59549">
        <ele>245.27</ele>
        <time>2010-04-25T08:00:01Z</time>
      </trkpt>
      <trkpt lat="46.8263" lon="4.59548">
        <ele>245.75</ele>
        <time>2010-04-25T08:00:02Z</time>
      </trkpt>
      <trkpt lat="46.82631" lon="4.59547">
        <ele>246.23</ele>
        <time>2010-04-25T08:00:03Z</time>
      </trkpt>
      <trkpt lat="46.82633" lon="4.59545">
        <ele>246.23</ele>
        <time>2010-04-25T08:00:04Z</time>
      </trkpt>
      <trkpt lat="46.82635" lon="4.59544">
        <ele>246.72</ele>
        <time>2010-04-25T08:00:05Z</time>
      </trkpt>
      <trkpt lat="46.82646" lon="4.59529">
        <ele>247.2</ele>
        <time>2010-04-25T08:00:12Z</time>
      </trkpt>
      <trkpt lat="46.82655" lon="4.59516">
        <ele>248.64</ele>
        <time>2010-04-25T08:00:18Z</time>
      </trkpt>
      <trkpt lat="46.82659" lon="4.59511">
        <ele>249.6</ele>
        <time>2010-04-25T08:00:21Z</time>
      </trkpt>
      <trkpt lat="46.82661" lon="4.59509">
        <ele>250.08</ele>
        <time>2010-04-25T08:00:22Z</time>
      </trkpt>
      <trkpt lat="46.82662" lon="4.59507">
        <ele>250.56</ele>
        <time>2010-04-25T08:00:23Z</time>
      </trkpt>
      <trkpt lat="46.82663" lon="4.59505">
        <ele>250.56</ele>
        <time>2010-04-25T08:00:24Z</time>
      </trkpt>
      <trkpt lat="46.82665" lon="4.59503">
        <ele>251.04</ele>
        <time>2010-04-25T08:00:25Z</time>
      </trkpt>
      <trkpt lat="46.82667" lon="4.59501">
        <ele>251.04</ele>
        <time>2010-04-25T08:00:26Z</time>
      </trkpt>
      <trkpt lat="46.82669" lon="4.595">
        <ele>251.04</ele>
        <time>2010-04-25T08:00:27Z</time>
      </trkpt>
      <trkpt lat="46.8267" lon="4.59498">
        <ele>251.04</ele>
        <time>2010-04-25T08:00:28Z</time>
      </trkpt>
      <trkpt lat="46.82683" lon="4.59489">
        <ele>252.48</ele>
        <time>2010-04-25T08:00:34Z</time>
      </trkpt>
      <trkpt lat="46.82695" lon="4.59481">
        <ele>253.93</ele>
        <time>2010-04-25T08:00:40Z</time>
      </trkpt>
      <trkpt lat="46.82708" lon="4.59474">
        <ele>254.41</ele>
        <time>2010-04-25T08:00:46Z</time>
      </trkpt>
      <trkpt lat="46.8272" lon="4.59467">
        <ele>255.85</ele>
        <time>2010-04-25T08:00:52Z</time>
      </trkpt>
      <trkpt lat="46.82731" lon="4.59461">
        <ele>257.29</ele>
        <time>2010-04-25T08:00:58Z</time>
      </trkpt>
      <trkpt lat="46.82744" lon="4.59453">
        <ele>258.73</ele>
        <time>2010-04-25T08:01:05Z</time>
      </trkpt>
      <trkpt lat="46.8276" lon="4.59442">
        <ele>260.17</ele>
        <time>2010-04-25T08:01:13Z</time>
      </trkpt>
      <trkpt lat="46.8278" lon="4.59437">
        <ele>261.14</ele>
        <time>2010-04-25T08:01:22Z</time>
      </trkpt>
      <trkpt lat="46.82798" lon="4.59432">
        <ele>262.1</ele>
        <time>2010-04-25T08:01:30Z</time>
      </trkpt>
      <trkpt lat="46.82819" lon="4.59428">
        <ele>263.54</ele>
        <time>2010-04-25T08:01:39Z</time>
      </trkpt>
      <trkpt lat="46.82831" lon="4.59429">
        <ele>264.5</ele>
        <time>2010-04-25T08:01:44Z</time>
      </trkpt>
      <trkpt lat="46.82832" lon="4.59432">
        <ele>264.5</ele>
        <time>2010-04-25T08:01:45Z</time>
      </trkpt>
      <trkpt lat="46.82834" lon="4.59436">
        <ele>264.02</ele>
        <time>2010-04-25T08:01:46Z</time>
      </trkpt>
      <trkpt lat="46.82836" lon="4.59439">
        <ele>264.5</ele>
        <time>2010-04-25T08:01:47Z</time>
      </trkpt>
      <trkpt lat="46.82838" lon="4.59441">
        <ele>264.98</ele>
        <time>2010-04-25T08:01:48Z</time>
      </trkpt>
      <trkpt lat="46.8284" lon="4.59444">
        <ele>264.98</ele>
        <time>2010-04-25T08:01:49Z</time>
      </trkpt>
      <trkpt lat="46.82841" lon="4.59446">
        <ele>265.46</ele>
        <time>2010-04-25T08:01:50Z</time>
      </trkpt>
      <trkpt lat="46.82859" lon="4.59467">
        <ele>265.94</ele>
        <time>2010-04-25T08:01:57Z</time>
      </trkpt>
      <trkpt lat="46.82883" lon="4.59497">
        <ele>266.9</ele>
        <time>2010-04-25T08:02:06Z</time>
      </trkpt>
      <trkpt lat="46.82908" lon="4.59531">
        <ele>267.38</ele>
        <time>2010-04-25T08:02:16Z</time>
      </trkpt>
      <trkpt lat="46.82932" lon="4.59559">
        <ele>267.38</ele>
        <time>2010-04-25T08:02:23Z</time>
      </trkpt>
      <trkpt lat="46.82966" lon="4.596">
        <ele>266.9</ele>
        <time>2010-04-25T08:02:31Z</time>
      </trkpt>
      <trkpt lat="46.82988" lon="4.59629">
        <ele>265.94</ele>
        <time>2010-04-25T08:02:36Z</time>
      </trkpt>
      <trkpt lat="46.82989" lon="4.59636">
        <ele>265.94</ele>
        <time>2010-04-25T08:02:37Z</time>
      </trkpt>
      <trkpt lat="46.82988" lon="4.59642">
        <ele>265.94</ele>
        <time>2010-04-25T08:02:38Z</time>
      </trkpt>
      <trkpt lat="46.82987" lon="4.59647">
        <ele>265.46</ele>
        <time>2010-04-25T08:02:39Z</time>
      </trkpt>
      <trkpt lat="46.82985" lon="4.59652">
        <ele>265.46</ele>
        <time>2010-04-25T08:02:40Z</time>
      </trkpt>
      <trkpt lat="46.82982" lon="4.59672">
        <ele>265.46</ele>
        <time>2010-04-25T08:02:44Z</time>
      </trkpt>
      <trkpt lat="46.82984" lon="4.59677">
        <ele>264.98</ele>
        <time>2010-04-25T08:02:45Z</time>
      </trkpt>
      <trkpt lat="46.82987" lon="4.59681">
        <ele>264.98</ele>
        <time>2010-04-25T08:02:46Z</time>
      </trkpt>
      <trkpt lat="46.82991" lon="4.59684">
        <ele>264.98</ele>
        <time>2010-04-25T08:02:47Z</time>
      </trkpt>
      <trkpt lat="46.82995" lon="4.59689">
        <ele>264.98</ele>
        <time>2010-04-25T08:02:48Z</time>
      </trkpt>
      <trkpt lat="46.83008" lon="4.59703">
        <ele>264.02</ele>
        <time>2010-04-25T08:02:51Z</time>
      </trkpt>
      <trkpt lat="46.83013" lon="4.59708">
        <ele>264.5</ele>
        <time>2010-04-25T08:02:52Z</time>
      </trkpt>
      <trkpt lat="46.83051" lon="4.59746">
        <ele>264.5</ele>
        <time>2010-04-25T08:03:00Z</time>
      </trkpt>
      <trkpt lat="46.83084" lon="4.59779">
        <ele>264.5</ele>
        <time>2010-04-25T08:03:07Z</time>
      </trkpt>
      <trkpt lat="46.8311" lon="4.59813">
        <ele>264.02</ele>
        <time>2010-04-25T08:03:14Z</time>
      </trkpt>
      <trkpt lat="46.83142" lon="4.59862">
        <ele>264.98</ele>
        <time>2010-04-25T08:03:24Z</time>
      </trkpt>
      <trkpt lat="46.83165" lon="4.59888">
        <ele>266.42</ele>
        <time>2010-04-25T08:03:32Z</time>
      </trkpt>
      <trkpt lat="46.83184" lon="4.59907">
        <ele>266.9</ele>
        <time>2010-04-25T08:03:39Z</time>
      </trkpt>
      <trkpt lat="46.83205" lon="4.59928">
        <ele>268.83</ele>
        <time>2010-04-25T08:03:48Z</time>
      </trkpt>
      <trkpt lat="46.8322" lon="4.59943">
        <ele>270.27</ele>
        <time>2010-04-25T08:03:55Z</time>
      </trkpt>
      <trkpt lat="46.83237" lon="4.59957">
        <ele>271.71</ele>
        <time>2010-04-25T08:04:03Z</time>
      </trkpt>
      <trkpt lat="46.83254" lon="4.5997">
        <ele>273.15</ele>
        <time>2010-04-25T08:04:11Z</time>
      </trkpt>
      <trkpt lat="46.83271" lon="4.59983">
        <ele>274.11</ele>
        <time>2010-04-25T08:04:19Z</time>
      </trkpt>
      <trkpt lat="46.83287" lon="4.59994">
        <ele>275.07</ele>
        <time>2010-04-25T08:04:26Z</time>
      </trkpt>
      <trkpt lat="46.83301" lon="4.60005">
        <ele>276.52</ele>
        <time>2010-04-25T08:04:33Z</time>
      </trkpt>
      <trkpt lat="46.83317" lon="4.60015">
        <ele>277.48</ele>
        <time>2010-04-25T08:04:41Z</time>
      </trkpt>
      <trkpt lat="46.83335" lon="4.60025">
        <ele>278.92</ele>
        <time>2010-04-25T08:04:50Z</time>
      </trkpt>
      <trkpt lat="46.83355" lon="4.60037">
        <ele>279.88</ele>
        <time>2010-04-25T08:04:59Z</time>
      </trkpt>
      <trkpt lat="46.83372" lon="4.60049">
        <ele>280.36</ele>
        <time>2010-04-25T08:05:07Z</time>
      </trkpt>
      <trkpt lat="46.83387" lon="4.60056">
        <ele>280.84</ele>
        <time>2010-04-25T08:05:14Z</time>
      </trkpt>
      <trkpt lat="46.83406" lon="4.60066">
        <ele>280.84</ele>
        <time>2010-04-25T08:05:20Z</time>
      </trkpt>
      <trkpt lat="46.83435" lon="4.60084">
        <ele>280.84</ele>
        <time>2010-04-25T08:05:29Z</time>
      </trkpt>
      <trkpt lat="46.83469" lon="4.60108">
        <ele>279.88</ele>
        <time>2010-04-25T08:05:38Z</time>
      </trkpt>
      <trkpt lat="46.83494" lon="4.60126">
        <ele>278.44</ele>
        <time>2010-04-25T08:05:44Z</time>
      </trkpt>
      <trkpt lat="46.83518" lon="4.60144">
        <ele>277.48</ele>
        <time>2010-04-25T08:05:51Z</time>
      </trkpt>
      <trkpt lat="46.83525" lon="4.6015">
        <ele>276.52</ele>
        <time>2010-04-25T08:05:53Z</time>
      </trkpt>
      <trkpt lat="46.83529" lon="4.60153">
        <ele>277</ele>
        <time>2010-04-25T08:05:54Z</time>
      </trkpt>
      <trkpt lat="46.83546" lon="4.60167">
        <ele>276.04</ele>
        <time>2010-04-25T08:05:58Z</time>
      </trkpt>
      <trkpt lat="46.83562" lon="4.60179">
        <ele>274.59</ele>
        <time>2010-04-25T08:06:01Z</time>
      </trkpt>
      <trkpt lat="46.83581" lon="4.60193">
        <ele>273.15</ele>
        <time>2010-04-25T08:06:04Z</time>
      </trkpt>
      <trkpt lat="46.83613" lon="4.60211">
        <ele>269.79</ele>
        <time>2010-04-25T08:06:08Z</time>
      </trkpt>
      <trkpt lat="46.83649" lon="4.60225">
        <ele>267.86</ele>
        <time>2010-04-25T08:06:12Z</time>
      </trkpt>
      <trkpt lat="46.83692" lon="4.60243">
        <ele>264.5</ele>
        <time>2010-04-25T08:06:17Z</time>
      </trkpt>
      <trkpt lat="46.837" lon="4.60248">
        <ele>264.02</ele>
        <time>2010-04-25T08:06:18Z</time>
      </trkpt>
      <trkpt lat="46.83707" lon="4.60251">
        <ele>263.06</ele>
        <time>2010-04-25T08:06:19Z</time>
      </trkpt>
      <trkpt lat="46.83714" lon="4.60254">
        <ele>263.06</ele>
        <time>2010-04-25T08:06:20Z</time>
      </trkpt>
      <trkpt lat="46.83719" lon="4.60258">
        <ele>262.1</ele>
        <time>2010-04-25T08:06:21Z</time>
      </trkpt>
      <trkpt lat="46.83724" lon="4.60263">
        <ele>261.62</ele>
        <time>2010-04-25T08:06:22Z</time>
      </trkpt>
      <trkpt lat="46.83728" lon="4.60268">
        <ele>261.62</ele>
        <time>2010-04-25T08:06:23Z</time>
      </trkpt>
      <trkpt lat="46.83734" lon="4.60272">
        <ele>261.14</ele>
        <time>2010-04-25T08:06:24Z</time>
      </trkpt>
      <trkpt lat="46.8374" lon="4.60275">
        <ele>260.17</ele>
        <time>2010-04-25T08:06:25Z</time>
      </trkpt>
      <trkpt lat="46.83791" lon="4.60307">
        <ele>257.77</ele>
        <time>2010-04-25T08:06:32Z</time>
      </trkpt>
      <trkpt lat="46.83825" lon="4.60327">
        <ele>254.41</ele>
        <time>2010-04-25T08:06:36Z</time>
      </trkpt>
      <trkpt lat="46.83834" lon="4.60333">
        <ele>254.41</ele>
        <time>2010-04-25T08:06:37Z</time>
      </trkpt>
      <trkpt lat="46.83875" lon="4.60358">
        <ele>252</ele>
        <time>2010-04-25T08:06:42Z</time>
      </trkpt>
      <trkpt lat="46.83883" lon="4.60361">
        <ele>251.52</ele>
        <time>2010-04-25T08:06:43Z</time>
      </trkpt>
      <trkpt lat="46.83905" lon="4.60369">
        <ele>251.52</ele>
        <time>2010-04-25T08:06:46Z</time>
      </trkpt>
      <trkpt lat="46.8392" lon="4.60371">
        <ele>251.04</ele>
        <time>2010-04-25T08:06:48Z</time>
      </trkpt>
      <trkpt lat="46.83935" lon="4.6037">
        <ele>250.56</ele>
        <time>2010-04-25T08:06:50Z</time>
      </trkpt>
      <trkpt lat="46.83977" lon="4.6036">
        <ele>251.52</ele>
        <time>2010-04-25T08:06:56Z</time>
      </trkpt>
      <trkpt lat="46.8399" lon="4.60357">
        <ele>251.52</ele>
        <time>2010-04-25T08:06:58Z</time>
      </trkpt>
      <trkpt lat="46.83996" lon="4.60355">
        <ele>252</ele>
        <time>2010-04-25T08:06:59Z</time>
      </trkpt>
      <trkpt lat="46.84037" lon="4.60343">
        <ele>253.44</ele>
        <time>2010-04-25T08:07:07Z</time>
      </trkpt>
      <trkpt lat="46.84055" lon="4.60339">
        <ele>254.41</ele>
        <time>2010-04-25T08:07:11Z</time>
      </trkpt>
      <trkpt lat="46.84063" lon="4.60336">
        <ele>254.89</ele>
        <time>2010-04-25T08:07:13Z</time>
      </trkpt>
      <trkpt lat="46.84067" lon="4.60336">
        <ele>255.37</ele>
        <time>2010-04-25T08:07:14Z</time>
      </trkpt>
      <trkpt lat="46.84099" lon="4.60326">
        <ele>256.33</ele>
        <time>2010-04-25T08:07:22Z</time>
      </trkpt>
      <trkpt lat="46.84103" lon="4.60327">
        <ele>256.33</ele>
        <time>2010-04-25T08:07:23Z</time>
      </trkpt>
      <trkpt lat="46.84106" lon="4.6033">
        <ele>256.81</ele>
        <time>2010-04-25T08:07:24Z</time>
      </trkpt>
      <trkpt lat="46.84107" lon="4.60335">
        <ele>257.29</ele>
        <time>2010-04-25T08:07:25Z</time>
      </trkpt>
      <trkpt lat="46.84108" lon="4.6034">
        <ele>257.29</ele>
        <time>2010-04-25T08:07:26Z</time>
      </trkpt>
      <trkpt lat="46.84109" lon="4.60366">
        <ele>258.25</ele>
        <time>2010-04-25T08:07:31Z</time>
      </trkpt>
      <trkpt lat="46.84105" lon="4.60416">
        <ele>256.81</ele>
        <time>2010-04-25T08:07:38Z</time>
      </trkpt>
      <trkpt lat="46.841" lon="4.60495">
        <ele>255.37</ele>
        <time>2010-04-25T08:07:47Z</time>
      </trkpt>
      <trkpt lat="46.84103" lon="4.60565">
        <ele>253.44</ele>
        <time>2010-04-25T08:07:54Z</time>
      </trkpt>
      <trkpt lat="46.84107" lon="4.60654">
        <ele>252.48</ele>
        <time>2010-04-25T08:08:03Z</time>
      </trkpt>
      <trkpt lat="46.84105" lon="4.60674">
        <ele>253.44</ele>
        <time>2010-04-25T08:08:05Z</time>
      </trkpt>
      <trkpt lat="46.84095" lon="4.60747">
        <ele>252.48</ele>
        <time>2010-04-25T08:08:12Z</time>
      </trkpt>
      <trkpt lat="46.84092" lon="4.60757">
        <ele>252.96</ele>
        <time>2010-04-25T08:08:13Z</time>
      </trkpt>
      <trkpt lat="46.84086" lon="4.60776">
        <ele>252</ele>
        <time>2010-04-25T08:08:15Z</time>
      </trkpt>
      <trkpt lat="46.84083" lon="4.60785">
        <ele>252</ele>
        <time>2010-04-25T08:08:16Z</time>
      </trkpt>
      <trkpt lat="46.84061" lon="4.60843">
        <ele>251.04</ele>
        <time>2010-04-25T08:08:22Z</time>
      </trkpt>
      <trkpt lat="46.84039" lon="4.60901">
        <ele>249.12</ele>
        <time>2010-04-25T08:08:28Z</time>
      </trkpt>
      <trkpt lat="46.84036" lon="4.60912">
        <ele>249.6</ele>
        <time>2010-04-25T08:08:29Z</time>
      </trkpt>
      <trkpt lat="46.8403" lon="4.60945">
        <ele>248.64</ele>
        <time>2010-04-25T08:08:32Z</time>
      </trkpt>
      <trkpt lat="46.84028" lon="4.60955">
        <ele>249.12</ele>
        <time>2010-04-25T08:08:33Z</time>
      </trkpt>
      <trkpt lat="46.84028" lon="4.60966">
        <ele>249.12</ele>
        <time>2010-04-25T08:08:34Z</time>
      </trkpt>
      <trkpt lat="46.84025" lon="4.60999">
        <ele>248.16</ele>
        <time>2010-04-25T08:08:37Z</time>
      </trkpt>
      <trkpt lat="46.84023" lon="4.61008">
        <ele>248.16</ele>
        <time>2010-04-25T08:08:38Z</time>
      </trkpt>
      <trkpt lat="46.84" lon="4.61075">
        <ele>247.2</ele>
        <time>2010-04-25T08:08:45Z</time>
      </trkpt>
      <trkpt lat="46.83994" lon="4.61095">
        <ele>246.23</ele>
        <time>2010-04-25T08:08:47Z</time>
      </trkpt>
      <trkpt lat="46.83983" lon="4.61153">
        <ele>245.27</ele>
        <time>2010-04-25T08:08:52Z</time>
      </trkpt>
      <trkpt lat="46.83968" lon="4.61236">
        <ele>243.35</ele>
        <time>2010-04-25T08:08:59Z</time>
      </trkpt>
      <trkpt lat="46.83967" lon="4.61245">
        <ele>242.87</ele>
        <time>2010-04-25T08:09:00Z</time>
      </trkpt>
      <trkpt lat="46.83968" lon="4.61252">
        <ele>242.87</ele>
        <time>2010-04-25T08:09:01Z</time>
      </trkpt>
      <trkpt lat="46.83969" lon="4.61258">
        <ele>242.87</ele>
        <time>2010-04-25T08:09:02Z</time>
      </trkpt>
      <trkpt lat="46.83972" lon="4.61261">
        <ele>242.87</ele>
        <time>2010-04-25T08:09:03Z</time>
      </trkpt>
      <trkpt lat="46.83976" lon="4.61263">
        <ele>242.87</ele>
        <time>2010-04-25T08:09:04Z</time>
      </trkpt>
      <trkpt lat="46.8398" lon="4.61264">
        <ele>242.87</ele>
        <time>2010-04-25T08:09:05Z</time>
      </trkpt>
      <trkpt lat="46.83984" lon="4.61263">
        <ele>243.35</ele>
        <time>2010-04-25T08:09:06Z</time>
      </trkpt>
      <trkpt lat="46.83988" lon="4.61262">
        <ele>243.83</ele>
        <time>2010-04-25T08:09:07Z</time>
      </trkpt>
      <trkpt lat="46.83991" lon="4.6126">
        <ele>243.83</ele>
        <time>2010-04-25T08:09:08Z</time>
      </trkpt>
      <trkpt lat="46.83994" lon="4.61258">
        <ele>244.31</ele>
        <time>2010-04-25T08:09:09Z</time>
      </trkpt>
      <trkpt lat="46.84016" lon="4.61234">
        <ele>245.75</ele>
        <time>2010-04-25T08:09:17Z</time>
      </trkpt>
      <trkpt lat="46.84018" lon="4.61232">
        <ele>245.75</ele>
        <time>2010-04-25T08:09:18Z</time>
      </trkpt>
      <trkpt lat="46.8402" lon="4.6123">
        <ele>245.75</ele>
        <time>2010-04-25T08:09:19Z</time>
      </trkpt>
      <trkpt lat="46.84021" lon="4.61229">
        <ele>245.75</ele>
        <time>2010-04-25T08:09:20Z</time>
      </trkpt>
      <trkpt lat="46.84019" lon="4.61222">
        <ele>246.23</ele>
        <time>2010-04-25T08:09:24Z</time>
      </trkpt>
      <trkpt lat="46.84018" lon="4.61229">
        <ele>245.75</ele>
        <time>2010-04-25T08:09:29Z</time>
      </trkpt>
      <trkpt lat="46.84032" lon="4.6123">
        <ele>246.23</ele>
        <time>2010-04-25T08:09:34Z</time>
      </trkpt>
      <trkpt lat="46.84035" lon="4.61231">
        <ele>246.72</ele>
        <time>2010-04-25T08:09:35Z</time>
      </trkpt>
      <trkpt lat="46.84065" lon="4.61244">
        <ele>247.68</ele>
        <time>2010-04-25T08:09:45Z</time>
      </trkpt>
      <trkpt lat="46.84089" lon="4.61253">
        <ele>249.12</ele>
        <time>2010-04-25T08:09:54Z</time>
      </trkpt>
      <trkpt lat="46.84103" lon="4.61257">
        <ele>249.6</ele>
        <time>2010-04-25T08:09:59Z</time>
      </trkpt>
      <trkpt lat="46.84118" lon="4.61262">
        <ele>251.04</ele>
        <time>2010-04-25T08:10:06Z</time>
      </trkpt>
      <trkpt lat="46.8413" lon="4.61264">
        <ele>252</ele>
        <time>2010-04-25T08:10:12Z</time>
      </trkpt>
      <trkpt lat="46.84133" lon="4.61264">
        <ele>252</ele>
        <time>2010-04-25T08:10:14Z</time>
      </trkpt>
      <trkpt lat="46.84145" lon="4.61259">
        <ele>253.93</ele>
        <time>2010-04-25T08:10:21Z</time>
      </trkpt>
      <trkpt lat="46.84156" lon="4.61248">
        <ele>255.37</ele>
        <time>2010-04-25T08:10:28Z</time>
      </trkpt>
      <trkpt lat="46.84167" lon="4.6123">
        <ele>256.33</ele>
        <time>2010-04-25T08:10:37Z</time>
      </trkpt>
      <trkpt lat="46.84177" lon="4.61211">
        <ele>256.81</ele>
        <time>2010-04-25T08:10:45Z</time>
      </trkpt>
      <trkpt lat="46.84184" lon="4.61201">
        <ele>258.25</ele>
        <time>2010-04-25T08:10:50Z</time>
      </trkpt>
      <trkpt lat="46.84194" lon="4.6121">
        <ele>258.73</ele>
        <time>2010-04-25T08:10:56Z</time>
      </trkpt>
      <trkpt lat="46.8421" lon="4.61227">
        <ele>258.73</ele>
        <time>2010-04-25T08:11:02Z</time>
      </trkpt>
      <trkpt lat="46.84239" lon="4.61245">
        <ele>258.73</ele>
        <time>2010-04-25T08:11:09Z</time>
      </trkpt>
      <trkpt lat="46.8426" lon="4.6126">
        <ele>257.77</ele>
        <time>2010-04-25T08:11:13Z</time>
      </trkpt>
      <trkpt lat="46.84264" lon="4.61266">
        <ele>257.77</ele>
        <time>2010-04-25T08:11:14Z</time>
      </trkpt>
      <trkpt lat="46.84267" lon="4.61274">
        <ele>257.29</ele>
        <time>2010-04-25T08:11:15Z</time>
      </trkpt>
      <trkpt lat="46.84268" lon="4.61283">
        <ele>257.29</ele>
        <time>2010-04-25T08:11:16Z</time>
      </trkpt>
      <trkpt lat="46.84268" lon="4.61293">
        <ele>256.33</ele>
        <time>2010-04-25T08:11:17Z</time>
      </trkpt>
      <trkpt lat="46.84266" lon="4.61302">
        <ele>256.81</ele>
        <time>2010-04-25T08:11:18Z</time>
      </trkpt>
      <trkpt lat="46.84252" lon="4.61366">
        <ele>254.89</ele>
        <time>2010-04-25T08:11:25Z</time>
      </trkpt>
      <trkpt lat="46.84228" lon="4.61418">
        <ele>251.52</ele>
        <time>2010-04-25T08:11:31Z</time>
      </trkpt>
      <trkpt lat="46.84207" lon="4.61472">
        <ele>247.68</ele>
        <time>2010-04-25T08:11:36Z</time>
      </trkpt>
      <trkpt lat="46.84205" lon="4.61484">
        <ele>246.23</ele>
        <time>2010-04-25T08:11:37Z</time>
      </trkpt>
      <trkpt lat="46.84205" lon="4.61496">
        <ele>245.27</ele>
        <time>2010-04-25T08:11:38Z</time>
      </trkpt>
      <trkpt lat="46.84205" lon="4.61508">
        <ele>244.79</ele>
        <time>2010-04-25T08:11:39Z</time>
      </trkpt>
      <trkpt lat="46.84205" lon="4.61521">
        <ele>243.83</ele>
        <time>2010-04-25T08:11:40Z</time>
      </trkpt>
      <trkpt lat="46.84207" lon="4.61533">
        <ele>243.35</ele>
        <time>2010-04-25T08:11:41Z</time>
      </trkpt>
      <trkpt lat="46.84209" lon="4.6156">
        <ele>242.39</ele>
        <time>2010-04-25T08:11:43Z</time>
      </trkpt>
      <trkpt lat="46.84212" lon="4.61573">
        <ele>241.43</ele>
        <time>2010-04-25T08:11:44Z</time>
      </trkpt>
      <trkpt lat="46.84216" lon="4.61585">
        <ele>240.95</ele>
        <time>2010-04-25T08:11:45Z</time>
      </trkpt>
      <trkpt lat="46.84222" lon="4.61596">
        <ele>239.99</ele>
        <time>2010-04-25T08:11:46Z</time>
      </trkpt>
      <trkpt lat="46.84227" lon="4.61605">
        <ele>239.51</ele>
        <time>2010-04-25T08:11:47Z</time>
      </trkpt>
      <trkpt lat="46.84233" lon="4.61614">
        <ele>239.51</ele>
        <time>2010-04-25T08:11:48Z</time>
      </trkpt>
      <trkpt lat="46.84266" lon="4.61656">
        <ele>238.54</ele>
        <time>2010-04-25T08:11:53Z</time>
      </trkpt>
      <trkpt lat="46.84273" lon="4.61662">
        <ele>238.54</ele>
        <time>2010-04-25T08:11:54Z</time>
      </trkpt>
      <trkpt lat="46.84334" lon="4.61716">
        <ele>237.58</ele>
        <time>2010-04-25T08:12:02Z</time>
      </trkpt>
      <trkpt lat="46.84384" lon="4.61757">
        <ele>236.62</ele>
        <time>2010-04-25T08:12:09Z</time>
      </trkpt>
      <trkpt lat="46.84392" lon="4.61761">
        <ele>236.62</ele>
        <time>2010-04-25T08:12:10Z</time>
      </trkpt>
      <trkpt lat="46.84399" lon="4.61767">
        <ele>236.62</ele>
        <time>2010-04-25T08:12:11Z</time>
      </trkpt>
      <trkpt lat="46.84404" lon="4.61773">
        <ele>236.14</ele>
        <time>2010-04-25T08:12:12Z</time>
      </trkpt>
      <trkpt lat="46.84406" lon="4.61781">
        <ele>236.62</ele>
        <time>2010-04-25T08:12:13Z</time>
      </trkpt>
      <trkpt lat="46.84406" lon="4.6179">
        <ele>236.14</ele>
        <time>2010-04-25T08:12:14Z</time>
      </trkpt>
      <trkpt lat="46.84405" lon="4.61798">
        <ele>236.62</ele>
        <time>2010-04-25T08:12:15Z</time>
      </trkpt>
      <trkpt lat="46.84403" lon="4.61806">
        <ele>236.62</ele>
        <time>2010-04-25T08:12:16Z</time>
      </trkpt>
      <trkpt lat="46.844" lon="4.61814">
        <ele>236.62</ele>
        <time>2010-04-25T08:12:17Z</time>
      </trkpt>
      <trkpt lat="46.84399" lon="4.61823">
        <ele>236.14</ele>
        <time>2010-04-25T08:12:18Z</time>
      </trkpt>
      <trkpt lat="46.844" lon="4.61831">
        <ele>236.14</ele>
        <time>2010-04-25T08:12:19Z</time>
      </trkpt>
      <trkpt lat="46.84404" lon="4.61838">
        <ele>236.62</ele>
        <time>2010-04-25T08:12:20Z</time>
      </trkpt>
      <trkpt lat="46.84408" lon="4.61843">
        <ele>236.62</ele>
        <time>2010-04-25T08:12:21Z</time>
      </trkpt>
      <trkpt lat="46.84413" lon="4.61847">
        <ele>236.62</ele>
        <time>2010-04-25T08:12:22Z</time>
      </trkpt>
      <trkpt lat="46.84418" lon="4.61851">
        <ele>236.62</ele>
        <time>2010-04-25T08:12:23Z</time>
      </trkpt>
      <trkpt lat="46.84461" lon="4.61883">
        <ele>238.06</ele>
        <time>2010-04-25T08:12:32Z</time>
      </trkpt>
      <trkpt lat="46.84495" lon="4.61909">
        <ele>239.51</ele>
        <time>2010-04-25T08:12:41Z</time>
      </trkpt>
      <trkpt lat="46.84524" lon="4.61926">
        <ele>241.43</ele>
        <time>2010-04-25T08:12:49Z</time>
      </trkpt>
      <trkpt lat="46.84553" lon="4.61949">
        <ele>243.83</ele>
        <time>2010-04-25T08:12:58Z</time>
      </trkpt>
      <trkpt lat="46.84575" lon="4.61968">
        <ele>246.23</ele>
        <time>2010-04-25T08:13:06Z</time>
      </trkpt>
      <trkpt lat="46.84605" lon="4.61986">
        <ele>247.2</ele>
        <time>2010-04-25T08:13:16Z</time>
      </trkpt>
      <trkpt lat="46.84618" lon="4.61993">
        <ele>247.68</ele>
        <time>2010-04-25T08:13:21Z</time>
      </trkpt>
      <trkpt lat="46.84621" lon="4.61993">
        <ele>247.68</ele>
        <time>2010-04-25T08:13:22Z</time>
      </trkpt>
      <trkpt lat="46.84623" lon="4.61991">
        <ele>248.16</ele>
        <time>2010-04-25T08:13:23Z</time>
      </trkpt>
      <trkpt lat="46.84625" lon="4.61988">
        <ele>248.16</ele>
        <time>2010-04-25T08:13:24Z</time>
      </trkpt>
      <trkpt lat="46.84626" lon="4.61984">
        <ele>248.16</ele>
        <time>2010-04-25T08:13:25Z</time>
      </trkpt>
      <trkpt lat="46.84628" lon="4.6198">
        <ele>248.64</ele>
        <time>2010-04-25T08:13:26Z</time>
      </trkpt>
      <trkpt lat="46.84629" lon="4.61976">
        <ele>248.64</ele>
        <time>2010-04-25T08:13:27Z</time>
      </trkpt>
      <trkpt lat="46.84631" lon="4.61971">
        <ele>248.16</ele>
        <time>2010-04-25T08:13:28Z</time>
      </trkpt>
      <trkpt lat="46.84639" lon="4.61931">
        <ele>249.6</ele>
        <time>2010-04-25T08:13:36Z</time>
      </trkpt>
      <trkpt lat="46.84648" lon="4.61875">
        <ele>250.08</ele>
        <time>2010-04-25T08:13:46Z</time>
      </trkpt>
      <trkpt lat="46.84656" lon="4.6182">
        <ele>250.08</ele>
        <time>2010-04-25T08:13:56Z</time>
      </trkpt>
      <trkpt lat="46.84663" lon="4.6177">
        <ele>250.56</ele>
        <time>2010-04-25T08:14:05Z</time>
      </trkpt>
      <trkpt lat="46.84669" lon="4.61733">
        <ele>251.04</ele>
        <time>2010-04-25T08:14:12Z</time>
      </trkpt>
      <trkpt lat="46.84678" lon="4.61678">
        <ele>252.48</ele>
        <time>2010-04-25T08:14:22Z</time>
      </trkpt>
      <trkpt lat="46.84685" lon="4.61644">
        <ele>252.48</ele>
        <time>2010-04-25T08:14:28Z</time>
      </trkpt>
      <trkpt lat="46.84695" lon="4.61613">
        <ele>253.44</ele>
        <time>2010-04-25T08:14:34Z</time>
      </trkpt>
      <trkpt lat="46.84713" lon="4.61576">
        <ele>253.93</ele>
        <time>2010-04-25T08:14:42Z</time>
      </trkpt>
      <trkpt lat="46.84731" lon="4.61537">
        <ele>254.41</ele>
        <time>2010-04-25T08:14:50Z</time>
      </trkpt>
      <trkpt lat="46.84743" lon="4.61514">
        <ele>254.89</ele>
        <time>2010-04-25T08:14:55Z</time>
      </trkpt>
      <trkpt lat="46.84766" lon="4.61465">
        <ele>255.85</ele>
        <time>2010-04-25T08:15:05Z</time>
      </trkpt>
      <trkpt lat="46.8478" lon="4.61418">
        <ele>257.29</ele>
        <time>2010-04-25T08:15:14Z</time>
      </trkpt>
      <trkpt lat="46.84791" lon="4.61368">
        <ele>258.25</ele>
        <time>2010-04-25T08:15:23Z</time>
      </trkpt>
      <trkpt lat="46.848" lon="4.61328">
        <ele>259.21</ele>
        <time>2010-04-25T08:15:31Z</time>
      </trkpt>
      <trkpt lat="46.84806" lon="4.61286">
        <ele>260.17</ele>
        <time>2010-04-25T08:15:40Z</time>
      </trkpt>
      <trkpt lat="46.84808" lon="4.61254">
        <ele>261.14</ele>
        <time>2010-04-25T08:15:47Z</time>
      </trkpt>
      <trkpt lat="46.84813" lon="4.61212">
        <ele>262.58</ele>
        <time>2010-04-25T08:15:56Z</time>
      </trkpt>
      <trkpt lat="46.84818" lon="4.61173">
        <ele>264.02</ele>
        <time>2010-04-25T08:16:05Z</time>
      </trkpt>
      <trkpt lat="46.84823" lon="4.61135">
        <ele>264.98</ele>
        <time>2010-04-25T08:16:14Z</time>
      </trkpt>
      <trkpt lat="46.84833" lon="4.61099">
        <ele>266.9</ele>
        <time>2010-04-25T08:16:23Z</time>
      </trkpt>
      <trkpt lat="46.84846" lon="4.61058">
        <ele>268.83</ele>
        <time>2010-04-25T08:16:33Z</time>
      </trkpt>
      <trkpt lat="46.84866" lon="4.61016">
        <ele>269.79</ele>
        <time>2010-04-25T08:16:43Z</time>
      </trkpt>
      <trkpt lat="46.84868" lon="4.61012">
        <ele>269.31</ele>
        <time>2010-04-25T08:16:44Z</time>
      </trkpt>
      <trkpt lat="46.84882" lon="4.60987">
        <ele>269.79</ele>
        <time>2010-04-25T08:16:50Z</time>
      </trkpt>
      <trkpt lat="46.84905" lon="4.60947">
        <ele>269.31</ele>
        <time>2010-04-25T08:17:00Z</time>
      </trkpt>
      <trkpt lat="46.84924" lon="4.60902">
        <ele>271.71</ele>
        <time>2010-04-25T08:17:10Z</time>
      </trkpt>
      <trkpt lat="46.84941" lon="4.60861">
        <ele>271.71</ele>
        <time>2010-04-25T08:17:19Z</time>
      </trkpt>
      <trkpt lat="46.84959" lon="4.60812">
        <ele>273.15</ele>
        <time>2010-04-25T08:17:31Z</time>
      </trkpt>
      <trkpt lat="46.84963" lon="4.608">
        <ele>274.59</ele>
        <time>2010-04-25T08:17:34Z</time>
      </trkpt>
      <trkpt lat="46.84977" lon="4.60762">
        <ele>275.56</ele>
        <time>2010-04-25T08:17:43Z</time>
      </trkpt>
      <trkpt lat="46.84991" lon="4.6072">
        <ele>276.04</ele>
        <time>2010-04-25T08:17:52Z</time>
      </trkpt>
      <trkpt lat="46.84998" lon="4.60695">
        <ele>277</ele>
        <time>2010-04-25T08:17:57Z</time>
      </trkpt>
      <trkpt lat="46.85011" lon="4.60642">
        <ele>277.96</ele>
        <time>2010-04-25T08:18:08Z</time>
      </trkpt>
      <trkpt lat="46.8502" lon="4.60611">
        <ele>278.44</ele>
        <time>2010-04-25T08:18:14Z</time>
      </trkpt>
      <trkpt lat="46.85025" lon="4.60575">
        <ele>278.92</ele>
        <time>2010-04-25T08:18:21Z</time>
      </trkpt>
      <trkpt lat="46.85028" lon="4.60519">
        <ele>279.88</ele>
        <time>2010-04-25T08:18:31Z</time>
      </trkpt>
      <trkpt lat="46.85031" lon="4.6047">
        <ele>281.32</ele>
        <time>2010-04-25T08:18:40Z</time>
      </trkpt>
      <trkpt lat="46.85038" lon="4.60431">
        <ele>281.8</ele>
        <time>2010-04-25T08:18:48Z</time>
      </trkpt>
      <trkpt lat="46.85046" lon="4.60393">
        <ele>284.21</ele>
        <time>2010-04-25T08:18:57Z</time>
      </trkpt>
      <trkpt lat="46.85051" lon="4.60356">
        <ele>286.13</ele>
        <time>2010-04-25T08:19:06Z</time>
      </trkpt>
      <trkpt lat="46.85053" lon="4.60319">
        <ele>287.57</ele>
        <time>2010-04-25T08:19:15Z</time>
      </trkpt>
      <trkpt lat="46.85054" lon="4.60287">
        <ele>288.53</ele>
        <time>2010-04-25T08:19:23Z</time>
      </trkpt>
      <trkpt lat="46.85056" lon="4.60253">
        <ele>289.49</ele>
        <time>2010-04-25T08:19:31Z</time>
      </trkpt>
      <trkpt lat="46.8506" lon="4.60209">
        <ele>290.46</ele>
        <time>2010-04-25T08:19:39Z</time>
      </trkpt>
      <trkpt lat="46.85067" lon="4.60164">
        <ele>289.97</ele>
        <time>2010-04-25T08:19:47Z</time>
      </trkpt>
      <trkpt lat="46.85073" lon="4.60127">
        <ele>290.46</ele>
        <time>2010-04-25T08:19:54Z</time>
      </trkpt>
      <trkpt lat="46.85074" lon="4.60122">
        <ele>290.94</ele>
        <time>2010-04-25T08:19:55Z</time>
      </trkpt>
      <trkpt lat="46.85076" lon="4.60117">
        <ele>289.97</ele>
        <time>2010-04-25T08:19:56Z</time>
      </trkpt>
      <trkpt lat="46.85097" lon="4.60077">
        <ele>291.42</ele>
        <time>2010-04-25T08:20:04Z</time>
      </trkpt>
      <trkpt lat="46.85118" lon="4.60026">
        <ele>292.86</ele>
        <time>2010-04-25T08:20:15Z</time>
      </trkpt>
      <trkpt lat="46.8514" lon="4.59985">
        <ele>295.26</ele>
        <time>2010-04-25T08:20:25Z</time>
      </trkpt>
      <trkpt lat="46.8515" lon="4.59964">
        <ele>294.78</ele>
        <time>2010-04-25T08:20:30Z</time>
      </trkpt>
      <trkpt lat="46.85156" lon="4.59953">
        <ele>295.74</ele>
        <time>2010-04-25T08:20:33Z</time>
      </trkpt>
      <trkpt lat="46.85171" lon="4.59928">
        <ele>297.18</ele>
        <time>2010-04-25T08:20:41Z</time>
      </trkpt>
      <trkpt lat="46.85191" lon="4.599">
        <ele>299.11</ele>
        <time>2010-04-25T08:20:50Z</time>
      </trkpt>
      <trkpt lat="46.852" lon="4.59876">
        <ele>300.07</ele>
        <time>2010-04-25T08:20:57Z</time>
      </trkpt>
      <trkpt lat="46.85208" lon="4.59846">
        <ele>301.99</ele>
        <time>2010-04-25T08:21:06Z</time>
      </trkpt>
      <trkpt lat="46.85211" lon="4.59814">
        <ele>304.39</ele>
        <time>2010-04-25T08:21:17Z</time>
      </trkpt>
      <trkpt lat="46.85215" lon="4.5978">
        <ele>306.32</ele>
        <time>2010-04-25T08:21:28Z</time>
      </trkpt>
      <trkpt lat="46.85219" lon="4.59752">
        <ele>308.24</ele>
        <time>2010-04-25T08:21:38Z</time>
      </trkpt>
      <trkpt lat="46.85225" lon="4.59727">
        <ele>308.72</ele>
        <time>2010-04-25T08:21:46Z</time>
      </trkpt>
      <trkpt lat="46.85237" lon="4.59685">
        <ele>309.2</ele>
        <time>2010-04-25T08:21:58Z</time>
      </trkpt>
      <trkpt lat="46.85246" lon="4.59653">
        <ele>310.64</ele>
        <time>2010-04-25T08:22:08Z</time>
      </trkpt>
      <trkpt lat="46.85254" lon="4.59635">
        <ele>311.12</ele>
        <time>2010-04-25T08:22:16Z</time>
      </trkpt>
      <trkpt lat="46.85255" lon="4.59634">
        <ele>311.6</ele>
        <time>2010-04-25T08:22:21Z</time>
      </trkpt>
      <trkpt lat="46.85255" lon="4.59635">
        <ele>311.6</ele>
        <time>2010-04-25T08:22:32Z</time>
      </trkpt>
      <trkpt lat="46.85255" lon="4.59635">
        <ele>311.12</ele>
        <time>2010-04-25T08:23:18Z</time>
      </trkpt>
      <trkpt lat="46.85255" lon="4.59635">
        <ele>311.6</ele>
        <time>2010-04-25T08:23:32Z</time>
      </trkpt>
      <trkpt lat="46.85256" lon="4.59635">
        <ele>311.12</ele>
        <time>2010-04-25T08:25:05Z</time>
      </trkpt>
      <trkpt lat="46.85255" lon="4.59635">
        <ele>312.09</ele>
        <time>2010-04-25T08:26:56Z</time>
      </trkpt>
      <trkpt lat="46.85255" lon="4.59635">
        <ele>310.64</ele>
        <time>2010-04-25T08:26:59Z</time>
      </trkpt>
      <trkpt lat="46.85254" lon="4.59635">
        <ele>310.64</ele>
        <time>2010-04-25T08:28:51Z</time>
      </trkpt>
      <trkpt lat="46.85254" lon="4.59635">
        <ele>307.28</ele>
        <time>2010-04-25T08:28:52Z</time>
      </trkpt>
      <trkpt lat="46.85254" lon="4.59635">
        <ele>312.57</ele>
        <time>2010-04-25T08:28:53Z</time>
      </trkpt>
      <trkpt lat="46.85254" lon="4.59633">
        <ele>309.68</ele>
        <time>2010-04-25T08:29:18Z</time>
      </trkpt>
      <trkpt lat="46.85254" lon="4.59631">
        <ele>310.64</ele>
        <time>2010-04-25T08:29:19Z</time>
      </trkpt>
      <trkpt lat="46.85261" lon="4.59608">
        <ele>312.09</ele>
        <time>2010-04-25T08:29:27Z</time>
      </trkpt>
      <trkpt lat="46.85266" lon="4.59589">
        <ele>313.05</ele>
        <time>2010-04-25T08:29:34Z</time>
      </trkpt>
      <trkpt lat="46.85271" lon="4.5957">
        <ele>313.05</ele>
        <time>2010-04-25T08:29:42Z</time>
      </trkpt>
      <trkpt lat="46.85277" lon="4.59555">
        <ele>314.49</ele>
        <time>2010-04-25T08:29:49Z</time>
      </trkpt>
      <trkpt lat="46.85281" lon="4.59542">
        <ele>314.97</ele>
        <time>2010-04-25T08:29:55Z</time>
      </trkpt>
      <trkpt lat="46.85287" lon="4.59522">
        <ele>316.41</ele>
        <time>2010-04-25T08:30:03Z</time>
      </trkpt>
      <trkpt lat="46.85296" lon="4.59496">
        <ele>318.81</ele>
        <time>2010-04-25T08:30:14Z</time>
      </trkpt>
      <trkpt lat="46.85304" lon="4.59476">
        <ele>320.74</ele>
        <time>2010-04-25T08:30:23Z</time>
      </trkpt>
      <trkpt lat="46.85311" lon="4.59458">
        <ele>322.18</ele>
        <time>2010-04-25T08:30:31Z</time>
      </trkpt>
      <trkpt lat="46.85322" lon="4.59438">
        <ele>324.58</ele>
        <time>2010-04-25T08:30:41Z</time>
      </trkpt>
      <trkpt lat="46.85334" lon="4.59416">
        <ele>326.02</ele>
        <time>2010-04-25T08:30:51Z</time>
      </trkpt>
      <trkpt lat="46.85347" lon="4.59391">
        <ele>326.99</ele>
        <time>2010-04-25T08:31:02Z</time>
      </trkpt>
      <trkpt lat="46.8536" lon="4.59368">
        <ele>329.39</ele>
        <time>2010-04-25T08:31:13Z</time>
      </trkpt>
      <trkpt lat="46.85369" lon="4.5935">
        <ele>331.31</ele>
        <time>2010-04-25T08:31:23Z</time>
      </trkpt>
      <trkpt lat="46.85377" lon="4.59336">
        <ele>332.75</ele>
        <time>2010-04-25T08:31:31Z</time>
      </trkpt>
      <trkpt lat="46.85383" lon="4.59321">
        <ele>334.68</ele>
        <time>2010-04-25T08:31:40Z</time>
      </trkpt>
      <trkpt lat="46.85389" lon="4.59309">
        <ele>336.12</ele>
        <time>2010-04-25T08:31:47Z</time>
      </trkpt>
      <trkpt lat="46.8539" lon="4.59307">
        <ele>336.6</ele>
        <time>2010-04-25T08:31:48Z</time>
      </trkpt>
      <trkpt lat="46.85394" lon="4.59304">
        <ele>337.56</ele>
        <time>2010-04-25T08:31:51Z</time>
      </trkpt>
      <trkpt lat="46.85395" lon="4.59305">
        <ele>337.56</ele>
        <time>2010-04-25T08:31:52Z</time>
      </trkpt>
      <trkpt lat="46.85397" lon="4.59306">
        <ele>338.04</ele>
        <time>2010-04-25T08:31:53Z</time>
      </trkpt>
      <trkpt lat="46.85397" lon="4.59307">
        <ele>338.52</ele>
        <time>2010-04-25T08:31:54Z</time>
      </trkpt>
      <trkpt lat="46.85398" lon="4.59309">
        <ele>338.52</ele>
        <time>2010-04-25T08:31:55Z</time>
      </trkpt>
      <trkpt lat="46.85399" lon="4.59311">
        <ele>338.52</ele>
        <time>2010-04-25T08:31:56Z</time>
      </trkpt>
      <trkpt lat="46.85411" lon="4.59326">
        <ele>338.04</ele>
        <time>2010-04-25T08:32:03Z</time>
      </trkpt>
      <trkpt lat="46.85423" lon="4.59343">
        <ele>338.04</ele>
        <time>2010-04-25T08:32:09Z</time>
      </trkpt>
      <trkpt lat="46.85423" lon="4.59345">
        <ele>337.56</ele>
        <time>2010-04-25T08:32:10Z</time>
      </trkpt>
      <trkpt lat="46.85429" lon="4.59362">
        <ele>337.56</ele>
        <time>2010-04-25T08:32:17Z</time>
      </trkpt>
      <trkpt lat="46.85435" lon="4.59408">
        <ele>335.64</ele>
        <time>2010-04-25T08:32:23Z</time>
      </trkpt>
      <trkpt lat="46.85438" lon="4.59425">
        <ele>334.68</ele>
        <time>2010-04-25T08:32:25Z</time>
      </trkpt>
      <trkpt lat="46.85441" lon="4.59434">
        <ele>334.2</ele>
        <time>2010-04-25T08:32:26Z</time>
      </trkpt>
      <trkpt lat="46.85445" lon="4.59443">
        <ele>333.71</ele>
        <time>2010-04-25T08:32:27Z</time>
      </trkpt>
      <trkpt lat="46.85449" lon="4.59451">
        <ele>333.23</ele>
        <time>2010-04-25T08:32:28Z</time>
      </trkpt>
      <trkpt lat="46.85455" lon="4.5946">
        <ele>332.75</ele>
        <time>2010-04-25T08:32:29Z</time>
      </trkpt>
      <trkpt lat="46.85461" lon="4.59468">
        <ele>331.79</ele>
        <time>2010-04-25T08:32:30Z</time>
      </trkpt>
      <trkpt lat="46.85466" lon="4.59475">
        <ele>330.83</ele>
        <time>2010-04-25T08:32:31Z</time>
      </trkpt>
      <trkpt lat="46.85489" lon="4.59509">
        <ele>327.47</ele>
        <time>2010-04-25T08:32:35Z</time>
      </trkpt>
      <trkpt lat="46.85497" lon="4.59522">
        <ele>326.5</ele>
        <time>2010-04-25T08:32:37Z</time>
      </trkpt>
      <trkpt lat="46.855" lon="4.59527">
        <ele>325.54</ele>
        <time>2010-04-25T08:32:38Z</time>
      </trkpt>
      <trkpt lat="46.85501" lon="4.59533">
        <ele>325.06</ele>
        <time>2010-04-25T08:32:39Z</time>
      </trkpt>
      <trkpt lat="46.85501" lon="4.5954">
        <ele>324.58</ele>
        <time>2010-04-25T08:32:40Z</time>
      </trkpt>
      <trkpt lat="46.85502" lon="4.59547">
        <ele>324.1</ele>
        <time>2010-04-25T08:32:41Z</time>
      </trkpt>
      <trkpt lat="46.85503" lon="4.59553">
        <ele>324.58</ele>
        <time>2010-04-25T08:32:42Z</time>
      </trkpt>
      <trkpt lat="46.85506" lon="4.5956">
        <ele>324.1</ele>
        <time>2010-04-25T08:32:43Z</time>
      </trkpt>
      <trkpt lat="46.85509" lon="4.59567">
        <ele>323.62</ele>
        <time>2010-04-25T08:32:44Z</time>
      </trkpt>
      <trkpt lat="46.85511" lon="4.59575">
        <ele>323.14</ele>
        <time>2010-04-25T08:32:45Z</time>
      </trkpt>
      <trkpt lat="46.85514" lon="4.59582">
        <ele>322.18</ele>
        <time>2010-04-25T08:32:46Z</time>
      </trkpt>
      <trkpt lat="46.8553" lon="4.59617">
        <ele>318.33</ele>
        <time>2010-04-25T08:32:50Z</time>
      </trkpt>
      <trkpt lat="46.85537" lon="4.59639">
        <ele>316.89</ele>
        <time>2010-04-25T08:32:52Z</time>
      </trkpt>
      <trkpt lat="46.8554" lon="4.59648">
        <ele>314.97</ele>
        <time>2010-04-25T08:32:53Z</time>
      </trkpt>
      <trkpt lat="46.85543" lon="4.59655">
        <ele>313.53</ele>
        <time>2010-04-25T08:32:54Z</time>
      </trkpt>
      <trkpt lat="46.85547" lon="4.59663">
        <ele>314.01</ele>
        <time>2010-04-25T08:32:55Z</time>
      </trkpt>
      <trkpt lat="46.8555" lon="4.59672">
        <ele>313.05</ele>
        <time>2010-04-25T08:32:56Z</time>
      </trkpt>
      <trkpt lat="46.85553" lon="4.59681">
        <ele>313.05</ele>
        <time>2010-04-25T08:32:57Z</time>
      </trkpt>
      <trkpt lat="46.85555" lon="4.5969">
        <ele>311.6</ele>
        <time>2010-04-25T08:32:58Z</time>
      </trkpt>
      <trkpt lat="46.85555" lon="4.59699">
        <ele>311.12</ele>
        <time>2010-04-25T08:32:59Z</time>
      </trkpt>
      <trkpt lat="46.85555" lon="4.59707">
        <ele>310.64</ele>
        <time>2010-04-25T08:33:00Z</time>
      </trkpt>
      <trkpt lat="46.85555" lon="4.59721">
        <ele>310.64</ele>
        <time>2010-04-25T08:33:03Z</time>
      </trkpt>
      <trkpt lat="46.85556" lon="4.59724">
        <ele>309.2</ele>
        <time>2010-04-25T08:33:04Z</time>
      </trkpt>
      <trkpt lat="46.85556" lon="4.59727">
        <ele>310.16</ele>
        <time>2010-04-25T08:33:05Z</time>
      </trkpt>
      <trkpt lat="46.85555" lon="4.5973">
        <ele>309.68</ele>
        <time>2010-04-25T08:33:06Z</time>
      </trkpt>
      <trkpt lat="46.85556" lon="4.59732">
        <ele>308.72</ele>
        <time>2010-04-25T08:33:07Z</time>
      </trkpt>
      <trkpt lat="46.85555" lon="4.59755">
        <ele>309.2</ele>
        <time>2010-04-25T08:33:12Z</time>
      </trkpt>
      <trkpt lat="46.85554" lon="4.59762">
        <ele>309.68</ele>
        <time>2010-04-25T08:33:13Z</time>
      </trkpt>
      <trkpt lat="46.85553" lon="4.5977">
        <ele>309.68</ele>
        <time>2010-04-25T08:33:14Z</time>
      </trkpt>
      <trkpt lat="46.85551" lon="4.59777">
        <ele>308.72</ele>
        <time>2010-04-25T08:33:15Z</time>
      </trkpt>
      <trkpt lat="46.85549" lon="4.59782">
        <ele>308.24</ele>
        <time>2010-04-25T08:33:16Z</time>
      </trkpt>
      <trkpt lat="46.85547" lon="4.59787">
        <ele>308.24</ele>
        <time>2010-04-25T08:33:17Z</time>
      </trkpt>
      <trkpt lat="46.85545" lon="4.59791">
        <ele>307.76</ele>
        <time>2010-04-25T08:33:18Z</time>
      </trkpt>
      <trkpt lat="46.8554" lon="4.59807">
        <ele>306.8</ele>
        <time>2010-04-25T08:33:23Z</time>
      </trkpt>
      <trkpt lat="46.85541" lon="4.5981">
        <ele>306.8</ele>
        <time>2010-04-25T08:33:24Z</time>
      </trkpt>
      <trkpt lat="46.85543" lon="4.5983">
        <ele>304.39</ele>
        <time>2010-04-25T08:33:29Z</time>
      </trkpt>
      <trkpt lat="46.85545" lon="4.59846">
        <ele>302.95</ele>
        <time>2010-04-25T08:33:34Z</time>
      </trkpt>
      <trkpt lat="46.85546" lon="4.59853">
        <ele>303.43</ele>
        <time>2010-04-25T08:33:36Z</time>
      </trkpt>
      <trkpt lat="46.85547" lon="4.59858">
        <ele>301.03</ele>
        <time>2010-04-25T08:33:38Z</time>
      </trkpt>
      <trkpt lat="46.85548" lon="4.5987">
        <ele>300.55</ele>
        <time>2010-04-25T08:33:43Z</time>
      </trkpt>
      <trkpt lat="46.85549" lon="4.59876">
        <ele>298.15</ele>
        <time>2010-04-25T08:33:45Z</time>
      </trkpt>
      <trkpt lat="46.85545" lon="4.59889">
        <ele>299.11</ele>
        <time>2010-04-25T08:33:51Z</time>
      </trkpt>
      <trkpt lat="46.85539" lon="4.59902">
        <ele>297.67</ele>
        <time>2010-04-25T08:33:57Z</time>
      </trkpt>
      <trkpt lat="46.85538" lon="4.59906">
        <ele>295.26</ele>
        <time>2010-04-25T08:33:59Z</time>
      </trkpt>
      <trkpt lat="46.85536" lon="4.5991">
        <ele>296.22</ele>
        <time>2010-04-25T08:34:01Z</time>
      </trkpt>
      <trkpt lat="46.85533" lon="4.59915">
        <ele>294.3</ele>
        <time>2010-04-25T08:34:03Z</time>
      </trkpt>
      <trkpt lat="46.85529" lon="4.59928">
        <ele>291.9</ele>
        <time>2010-04-25T08:34:08Z</time>
      </trkpt>
      <trkpt lat="46.85528" lon="4.59943">
        <ele>290.46</ele>
        <time>2010-04-25T08:34:15Z</time>
      </trkpt>
      <trkpt lat="46.85528" lon="4.59954">
        <ele>289.01</ele>
        <time>2010-04-25T08:34:20Z</time>
      </trkpt>
      <trkpt lat="46.85527" lon="4.59967">
        <ele>287.57</ele>
        <time>2010-04-25T08:34:26Z</time>
      </trkpt>
      <trkpt lat="46.85527" lon="4.59977">
        <ele>287.09</ele>
        <time>2010-04-25T08:34:30Z</time>
      </trkpt>
      <trkpt lat="46.8553" lon="4.59982">
        <ele>286.61</ele>
        <time>2010-04-25T08:34:33Z</time>
      </trkpt>
      <trkpt lat="46.85542" lon="4.59983">
        <ele>284.21</ele>
        <time>2010-04-25T08:34:41Z</time>
      </trkpt>
      <trkpt lat="46.85548" lon="4.59981">
        <ele>282.77</ele>
        <time>2010-04-25T08:34:44Z</time>
      </trkpt>
      <trkpt lat="46.85553" lon="4.59979">
        <ele>278.92</ele>
        <time>2010-04-25T08:34:47Z</time>
      </trkpt>
      <trkpt lat="46.85566" lon="4.5997">
        <ele>277</ele>
        <time>2010-04-25T08:34:52Z</time>
      </trkpt>
      <trkpt lat="46.85573" lon="4.59966">
        <ele>276.04</ele>
        <time>2010-04-25T08:34:56Z</time>
      </trkpt>
      <trkpt lat="46.85578" lon="4.59962">
        <ele>275.07</ele>
        <time>2010-04-25T08:35:01Z</time>
      </trkpt>
      <trkpt lat="46.85584" lon="4.59953">
        <ele>275.07</ele>
        <time>2010-04-25T08:35:06Z</time>
      </trkpt>
      <trkpt lat="46.85591" lon="4.59943">
        <ele>275.56</ele>
        <time>2010-04-25T08:35:12Z</time>
      </trkpt>
      <trkpt lat="46.85606" lon="4.59947">
        <ele>274.11</ele>
        <time>2010-04-25T08:35:18Z</time>
      </trkpt>
      <trkpt lat="46.85612" lon="4.59953">
        <ele>273.15</ele>
        <time>2010-04-25T08:35:20Z</time>
      </trkpt>
      <trkpt lat="46.85627" lon="4.5997">
        <ele>270.75</ele>
        <time>2010-04-25T08:35:28Z</time>
      </trkpt>
      <trkpt lat="46.85637" lon="4.59984">
        <ele>270.27</ele>
        <time>2010-04-25T08:35:35Z</time>
      </trkpt>
      <trkpt lat="46.85644" lon="4.59995">
        <ele>268.83</ele>
        <time>2010-04-25T08:35:41Z</time>
      </trkpt>
      <trkpt lat="46.85652" lon="4.60008">
        <ele>268.83</ele>
        <time>2010-04-25T08:35:47Z</time>
      </trkpt>
      <trkpt lat="46.85659" lon="4.60021">
        <ele>267.86</ele>
        <time>2010-04-25T08:35:52Z</time>
      </trkpt>
      <trkpt lat="46.85665" lon="4.6003">
        <ele>266.9</ele>
        <time>2010-04-25T08:35:56Z</time>
      </trkpt>
      <trkpt lat="46.85677" lon="4.60051">
        <ele>265.46</ele>
        <time>2010-04-25T08:36:03Z</time>
      </trkpt>
      <trkpt lat="46.85685" lon="4.60064">
        <ele>264.5</ele>
        <time>2010-04-25T08:36:09Z</time>
      </trkpt>
      <trkpt lat="46.85691" lon="4.60074">
        <ele>264.02</ele>
        <time>2010-04-25T08:36:14Z</time>
      </trkpt>
      <trkpt lat="46.85699" lon="4.60088">
        <ele>263.06</ele>
        <time>2010-04-25T08:36:21Z</time>
      </trkpt>
      <trkpt lat="46.85707" lon="4.60101">
        <ele>262.58</ele>
        <time>2010-04-25T08:36:28Z</time>
      </trkpt>
      <trkpt lat="46.85714" lon="4.60116">
        <ele>261.62</ele>
        <time>2010-04-25T08:36:35Z</time>
      </trkpt>
      <trkpt lat="46.8571" lon="4.60129">
        <ele>261.14</ele>
        <time>2010-04-25T08:36:39Z</time>
      </trkpt>
      <trkpt lat="46.85707" lon="4.60133">
        <ele>261.14</ele>
        <time>2010-04-25T08:36:41Z</time>
      </trkpt>
      <trkpt lat="46.85705" lon="4.60137">
        <ele>260.65</ele>
        <time>2010-04-25T08:36:43Z</time>
      </trkpt>
      <trkpt lat="46.85699" lon="4.60151">
        <ele>260.17</ele>
        <time>2010-04-25T08:36:48Z</time>
      </trkpt>
      <trkpt lat="46.85678" lon="4.6019">
        <ele>260.65</ele>
        <time>2010-04-25T08:36:55Z</time>
      </trkpt>
      <trkpt lat="46.85672" lon="4.60205">
        <ele>259.21</ele>
        <time>2010-04-25T08:36:57Z</time>
      </trkpt>
      <trkpt lat="46.85669" lon="4.60214">
        <ele>258.73</ele>
        <time>2010-04-25T08:36:58Z</time>
      </trkpt>
      <trkpt lat="46.85668" lon="4.60223">
        <ele>258.25</ele>
        <time>2010-04-25T08:36:59Z</time>
      </trkpt>
      <trkpt lat="46.85668" lon="4.60232">
        <ele>257.77</ele>
        <time>2010-04-25T08:37:00Z</time>
      </trkpt>
      <trkpt lat="46.85669" lon="4.60239">
        <ele>257.29</ele>
        <time>2010-04-25T08:37:01Z</time>
      </trkpt>
      <trkpt lat="46.85671" lon="4.60243">
        <ele>257.29</ele>
        <time>2010-04-25T08:37:02Z</time>
      </trkpt>
      <trkpt lat="46.85675" lon="4.60247">
        <ele>257.29</ele>
        <time>2010-04-25T08:37:03Z</time>
      </trkpt>
      <trkpt lat="46.85679" lon="4.60249">
        <ele>256.81</ele>
        <time>2010-04-25T08:37:04Z</time>
      </trkpt>
      <trkpt lat="46.85684" lon="4.60251">
        <ele>257.29</ele>
        <time>2010-04-25T08:37:05Z</time>
      </trkpt>
      <trkpt lat="46.85688" lon="4.60253">
        <ele>257.29</ele>
        <time>2010-04-25T08:37:06Z</time>
      </trkpt>
      <trkpt lat="46.85693" lon="4.60254">
        <ele>257.29</ele>
        <time>2010-04-25T08:37:07Z</time>
      </trkpt>
      <trkpt lat="46.85698" lon="4.60256">
        <ele>257.29</ele>
        <time>2010-04-25T08:37:08Z</time>
      </trkpt>
      <trkpt lat="46.85703" lon="4.60259">
        <ele>257.29</ele>
        <time>2010-04-25T08:37:09Z</time>
      </trkpt>
      <trkpt lat="46.85735" lon="4.60266">
        <ele>258.73</ele>
        <time>2010-04-25T08:37:16Z</time>
      </trkpt>
      <trkpt lat="46.85772" lon="4.60265">
        <ele>259.69</ele>
        <time>2010-04-25T08:37:25Z</time>
      </trkpt>
      <trkpt lat="46.85802" lon="4.60266">
        <ele>261.14</ele>
        <time>2010-04-25T08:37:33Z</time>
      </trkpt>
      <trkpt lat="46.8583" lon="4.60276">
        <ele>263.54</ele>
        <time>2010-04-25T08:37:42Z</time>
      </trkpt>
      <trkpt lat="46.85853" lon="4.60291">
        <ele>265.94</ele>
        <time>2010-04-25T08:37:53Z</time>
      </trkpt>
      <trkpt lat="46.85868" lon="4.603">
        <ele>267.86</ele>
        <time>2010-04-25T08:38:01Z</time>
      </trkpt>
      <trkpt lat="46.8588" lon="4.60308">
        <ele>268.83</ele>
        <time>2010-04-25T08:38:09Z</time>
      </trkpt>
      <trkpt lat="46.85894" lon="4.60318">
        <ele>271.23</ele>
        <time>2010-04-25T08:38:18Z</time>
      </trkpt>
      <trkpt lat="46.85909" lon="4.6033">
        <ele>273.63</ele>
        <time>2010-04-25T08:38:28Z</time>
      </trkpt>
      <trkpt lat="46.85921" lon="4.60342">
        <ele>275.56</ele>
        <time>2010-04-25T08:38:37Z</time>
      </trkpt>
      <trkpt lat="46.85932" lon="4.60354">
        <ele>276.52</ele>
        <time>2010-04-25T08:38:46Z</time>
      </trkpt>
      <trkpt lat="46.85944" lon="4.60369">
        <ele>278.92</ele>
        <time>2010-04-25T08:38:56Z</time>
      </trkpt>
      <trkpt lat="46.8595" lon="4.60373">
        <ele>279.4</ele>
        <time>2010-04-25T08:39:00Z</time>
      </trkpt>
      <trkpt lat="46.85951" lon="4.60375">
        <ele>279.88</ele>
        <time>2010-04-25T08:39:01Z</time>
      </trkpt>
      <trkpt lat="46.8595" lon="4.60378">
        <ele>279.4</ele>
        <time>2010-04-25T08:39:02Z</time>
      </trkpt>
      <trkpt lat="46.85949" lon="4.6038">
        <ele>279.88</ele>
        <time>2010-04-25T08:39:03Z</time>
      </trkpt>
      <trkpt lat="46.85947" lon="4.60382">
        <ele>280.36</ele>
        <time>2010-04-25T08:39:04Z</time>
      </trkpt>
      <trkpt lat="46.85945" lon="4.60383">
        <ele>280.36</ele>
        <time>2010-04-25T08:39:05Z</time>
      </trkpt>
      <trkpt lat="46.85928" lon="4.60395">
        <ele>279.4</ele>
        <time>2010-04-25T08:39:10Z</time>
      </trkpt>
      <trkpt lat="46.85898" lon="4.60419">
        <ele>277.48</ele>
        <time>2010-04-25T08:39:16Z</time>
      </trkpt>
      <trkpt lat="46.85891" lon="4.60427">
        <ele>276.52</ele>
        <time>2010-04-25T08:39:18Z</time>
      </trkpt>
      <trkpt lat="46.8589" lon="4.60429">
        <ele>276.52</ele>
        <time>2010-04-25T08:39:19Z</time>
      </trkpt>
      <trkpt lat="46.8589" lon="4.6043">
        <ele>276.52</ele>
        <time>2010-04-25T08:39:20Z</time>
      </trkpt>
      <trkpt lat="46.85888" lon="4.60431">
        <ele>276.04</ele>
        <time>2010-04-25T08:39:21Z</time>
      </trkpt>
      <trkpt lat="46.85886" lon="4.60432">
        <ele>276.04</ele>
        <time>2010-04-25T08:39:22Z</time>
      </trkpt>
      <trkpt lat="46.85883" lon="4.60434">
        <ele>276.04</ele>
        <time>2010-04-25T08:39:23Z</time>
      </trkpt>
      <trkpt lat="46.85879" lon="4.60438">
        <ele>276.04</ele>
        <time>2010-04-25T08:39:24Z</time>
      </trkpt>
      <trkpt lat="46.85876" lon="4.60442">
        <ele>275.56</ele>
        <time>2010-04-25T08:39:25Z</time>
      </trkpt>
      <trkpt lat="46.85872" lon="4.60447">
        <ele>275.56</ele>
        <time>2010-04-25T08:39:26Z</time>
      </trkpt>
      <trkpt lat="46.85867" lon="4.60453">
        <ele>275.07</ele>
        <time>2010-04-25T08:39:27Z</time>
      </trkpt>
      <trkpt lat="46.85862" lon="4.60459">
        <ele>275.07</ele>
        <time>2010-04-25T08:39:28Z</time>
      </trkpt>
      <trkpt lat="46.85858" lon="4.60465">
        <ele>274.11</ele>
        <time>2010-04-25T08:39:29Z</time>
      </trkpt>
      <trkpt lat="46.85841" lon="4.60486">
        <ele>273.15</ele>
        <time>2010-04-25T08:39:32Z</time>
      </trkpt>
      <trkpt lat="46.85823" lon="4.60509">
        <ele>271.71</ele>
        <time>2010-04-25T08:39:35Z</time>
      </trkpt>
      <trkpt lat="46.85797" lon="4.60543">
        <ele>268.35</ele>
        <time>2010-04-25T08:39:39Z</time>
      </trkpt>
      <trkpt lat="46.8579" lon="4.60551">
        <ele>268.35</ele>
        <time>2010-04-25T08:39:40Z</time>
      </trkpt>
      <trkpt lat="46.85765" lon="4.6059">
        <ele>264.98</ele>
        <time>2010-04-25T08:39:44Z</time>
      </trkpt>
      <trkpt lat="46.85727" lon="4.60649">
        <ele>262.1</ele>
        <time>2010-04-25T08:39:50Z</time>
      </trkpt>
      <trkpt lat="46.85695" lon="4.60683">
        <ele>261.14</ele>
        <time>2010-04-25T08:39:55Z</time>
      </trkpt>
      <trkpt lat="46.85689" lon="4.60688">
        <ele>261.14</ele>
        <time>2010-04-25T08:39:56Z</time>
      </trkpt>
      <trkpt lat="46.85673" lon="4.60703">
        <ele>259.69</ele>
        <time>2010-04-25T08:40:00Z</time>
      </trkpt>
      <trkpt lat="46.8565" lon="4.60718">
        <ele>260.17</ele>
        <time>2010-04-25T08:40:07Z</time>
      </trkpt>
      <trkpt lat="46.85633" lon="4.60729">
        <ele>261.14</ele>
        <time>2010-04-25T08:40:11Z</time>
      </trkpt>
      <trkpt lat="46.85621" lon="4.60741">
        <ele>261.62</ele>
        <time>2010-04-25T08:40:14Z</time>
      </trkpt>
      <trkpt lat="46.85617" lon="4.60745">
        <ele>262.1</ele>
        <time>2010-04-25T08:40:15Z</time>
      </trkpt>
      <trkpt lat="46.85614" lon="4.60751">
        <ele>262.58</ele>
        <time>2010-04-25T08:40:16Z</time>
      </trkpt>
      <trkpt lat="46.85611" lon="4.60754">
        <ele>263.54</ele>
        <time>2010-04-25T08:40:17Z</time>
      </trkpt>
      <trkpt lat="46.85609" lon="4.60758">
        <ele>264.02</ele>
        <time>2010-04-25T08:40:18Z</time>
      </trkpt>
      <trkpt lat="46.85607" lon="4.60763">
        <ele>263.54</ele>
        <time>2010-04-25T08:40:19Z</time>
      </trkpt>
      <trkpt lat="46.85596" lon="4.60791">
        <ele>264.5</ele>
        <time>2010-04-25T08:40:25Z</time>
      </trkpt>
      <trkpt lat="46.85586" lon="4.60816">
        <ele>265.46</ele>
        <time>2010-04-25T08:40:29Z</time>
      </trkpt>
      <trkpt lat="46.85582" lon="4.60822">
        <ele>264.98</ele>
        <time>2010-04-25T08:40:30Z</time>
      </trkpt>
      <trkpt lat="46.85564" lon="4.60848">
        <ele>265.46</ele>
        <time>2010-04-25T08:40:35Z</time>
      </trkpt>
      <trkpt lat="46.85541" lon="4.60884">
        <ele>265.94</ele>
        <time>2010-04-25T08:40:43Z</time>
      </trkpt>
      <trkpt lat="46.85522" lon="4.60919">
        <ele>265.94</ele>
        <time>2010-04-25T08:40:50Z</time>
      </trkpt>
      <trkpt lat="46.85503" lon="4.60957">
        <ele>264.5</ele>
        <time>2010-04-25T08:40:55Z</time>
      </trkpt>
      <trkpt lat="46.85475" lon="4.61016">
        <ele>261.14</ele>
        <time>2010-04-25T08:41:01Z</time>
      </trkpt>
      <trkpt lat="46.8547" lon="4.61026">
        <ele>261.14</ele>
        <time>2010-04-25T08:41:02Z</time>
      </trkpt>
      <trkpt lat="46.85463" lon="4.61047">
        <ele>261.14</ele>
        <time>2010-04-25T08:41:04Z</time>
      </trkpt>
      <trkpt lat="46.85427" lon="4.61121">
        <ele>260.65</ele>
        <time>2010-04-25T08:41:12Z</time>
      </trkpt>
      <trkpt lat="46.85408" lon="4.61168">
        <ele>259.21</ele>
        <time>2010-04-25T08:41:17Z</time>
      </trkpt>
      <trkpt lat="46.85391" lon="4.61203">
        <ele>259.21</ele>
        <time>2010-04-25T08:41:22Z</time>
      </trkpt>
      <trkpt lat="46.85389" lon="4.6121">
        <ele>258.73</ele>
        <time>2010-04-25T08:41:23Z</time>
      </trkpt>
      <trkpt lat="46.85389" lon="4.61217">
        <ele>258.73</ele>
        <time>2010-04-25T08:41:24Z</time>
      </trkpt>
      <trkpt lat="46.8539" lon="4.61224">
        <ele>258.73</ele>
        <time>2010-04-25T08:41:25Z</time>
      </trkpt>
      <trkpt lat="46.85392" lon="4.61228">
        <ele>258.73</ele>
        <time>2010-04-25T08:41:26Z</time>
      </trkpt>
      <trkpt lat="46.85396" lon="4.61231">
        <ele>259.21</ele>
        <time>2010-04-25T08:41:27Z</time>
      </trkpt>
      <trkpt lat="46.85399" lon="4.61234">
        <ele>259.21</ele>
        <time>2010-04-25T08:41:28Z</time>
      </trkpt>
      <trkpt lat="46.85402" lon="4.61238">
        <ele>259.21</ele>
        <time>2010-04-25T08:41:29Z</time>
      </trkpt>
      <trkpt lat="46.85405" lon="4.61241">
        <ele>259.69</ele>
        <time>2010-04-25T08:41:30Z</time>
      </trkpt>
      <trkpt lat="46.85408" lon="4.61244">
        <ele>259.69</ele>
        <time>2010-04-25T08:41:31Z</time>
      </trkpt>
      <trkpt lat="46.85423" lon="4.61266">
        <ele>260.65</ele>
        <time>2010-04-25T08:41:38Z</time>
      </trkpt>
      <trkpt lat="46.85442" lon="4.61291">
        <ele>262.58</ele>
        <time>2010-04-25T08:41:46Z</time>
      </trkpt>
      <trkpt lat="46.85461" lon="4.61318">
        <ele>264.5</ele>
        <time>2010-04-25T08:41:55Z</time>
      </trkpt>
      <trkpt lat="46.85471" lon="4.61341">
        <ele>265.94</ele>
        <time>2010-04-25T08:42:01Z</time>
      </trkpt>
      <trkpt lat="46.8549" lon="4.61379">
        <ele>267.38</ele>
        <time>2010-04-25T08:42:11Z</time>
      </trkpt>
      <trkpt lat="46.85513" lon="4.61399">
        <ele>267.86</ele>
        <time>2010-04-25T08:42:19Z</time>
      </trkpt>
      <trkpt lat="46.8554" lon="4.61419">
        <ele>269.31</ele>
        <time>2010-04-25T08:42:28Z</time>
      </trkpt>
      <trkpt lat="46.85568" lon="4.61442">
        <ele>271.23</ele>
        <time>2010-04-25T08:42:38Z</time>
      </trkpt>
      <trkpt lat="46.85589" lon="4.61457">
        <ele>272.67</ele>
        <time>2010-04-25T08:42:46Z</time>
      </trkpt>
      <trkpt lat="46.85611" lon="4.6147">
        <ele>274.11</ele>
        <time>2010-04-25T08:42:54Z</time>
      </trkpt>
      <trkpt lat="46.85623" lon="4.6146">
        <ele>274.59</ele>
        <time>2010-04-25T08:42:59Z</time>
      </trkpt>
      <trkpt lat="46.85638" lon="4.61435">
        <ele>276.04</ele>
        <time>2010-04-25T08:43:08Z</time>
      </trkpt>
      <trkpt lat="46.85656" lon="4.61411">
        <ele>277.48</ele>
        <time>2010-04-25T08:43:17Z</time>
      </trkpt>
      <trkpt lat="46.85671" lon="4.6139">
        <ele>278.44</ele>
        <time>2010-04-25T08:43:25Z</time>
      </trkpt>
      <trkpt lat="46.85689" lon="4.61364">
        <ele>280.36</ele>
        <time>2010-04-25T08:43:35Z</time>
      </trkpt>
      <trkpt lat="46.85707" lon="4.61339">
        <ele>282.77</ele>
        <time>2010-04-25T08:43:46Z</time>
      </trkpt>
      <trkpt lat="46.85723" lon="4.61327">
        <ele>283.73</ele>
        <time>2010-04-25T08:43:55Z</time>
      </trkpt>
      <trkpt lat="46.8574" lon="4.61324">
        <ele>285.65</ele>
        <time>2010-04-25T08:44:03Z</time>
      </trkpt>
      <trkpt lat="46.85753" lon="4.61329">
        <ele>286.61</ele>
        <time>2010-04-25T08:44:10Z</time>
      </trkpt>
      <trkpt lat="46.85767" lon="4.61339">
        <ele>287.57</ele>
        <time>2010-04-25T08:44:18Z</time>
      </trkpt>
      <trkpt lat="46.85772" lon="4.61342">
        <ele>288.05</ele>
        <time>2010-04-25T08:44:21Z</time>
      </trkpt>
      <trkpt lat="46.85774" lon="4.61343">
        <ele>288.53</ele>
        <time>2010-04-25T08:44:22Z</time>
      </trkpt>
      <trkpt lat="46.85775" lon="4.61345">
        <ele>288.53</ele>
        <time>2010-04-25T08:44:23Z</time>
      </trkpt>
      <trkpt lat="46.85777" lon="4.61347">
        <ele>289.01</ele>
        <time>2010-04-25T08:44:24Z</time>
      </trkpt>
      <trkpt lat="46.85779" lon="4.61348">
        <ele>289.01</ele>
        <time>2010-04-25T08:44:25Z</time>
      </trkpt>
      <trkpt lat="46.8578" lon="4.61349">
        <ele>289.97</ele>
        <time>2010-04-25T08:44:26Z</time>
      </trkpt>
      <trkpt lat="46.85782" lon="4.6135">
        <ele>289.01</ele>
        <time>2010-04-25T08:44:27Z</time>
      </trkpt>
      <trkpt lat="46.85784" lon="4.61351">
        <ele>289.01</ele>
        <time>2010-04-25T08:44:28Z</time>
      </trkpt>
      <trkpt lat="46.85785" lon="4.61352">
        <ele>289.49</ele>
        <time>2010-04-25T08:44:29Z</time>
      </trkpt>
      <trkpt lat="46.85787" lon="4.61353">
        <ele>289.97</ele>
        <time>2010-04-25T08:44:30Z</time>
      </trkpt>
      <trkpt lat="46.85789" lon="4.61354">
        <ele>289.49</ele>
        <time>2010-04-25T08:44:31Z</time>
      </trkpt>
      <trkpt lat="46.8579" lon="4.61355">
        <ele>289.97</ele>
        <time>2010-04-25T08:44:32Z</time>
      </trkpt>
      <trkpt lat="46.85792" lon="4.61356">
        <ele>289.97</ele>
        <time>2010-04-25T08:44:33Z</time>
      </trkpt>
      <trkpt lat="46.85806" lon="4.61365">
        <ele>290.94</ele>
        <time>2010-04-25T08:44:41Z</time>
      </trkpt>
      <trkpt lat="46.85816" lon="4.61371">
        <ele>292.38</ele>
        <time>2010-04-25T08:44:47Z</time>
      </trkpt>
      <trkpt lat="46.85831" lon="4.61382">
        <ele>293.82</ele>
        <time>2010-04-25T08:44:56Z</time>
      </trkpt>
      <trkpt lat="46.85839" lon="4.61388">
        <ele>294.78</ele>
        <time>2010-04-25T08:45:01Z</time>
      </trkpt>
      <trkpt lat="46.85841" lon="4.6139">
        <ele>294.78</ele>
        <time>2010-04-25T08:45:02Z</time>
      </trkpt>
      <trkpt lat="46.85842" lon="4.61391">
        <ele>294.78</ele>
        <time>2010-04-25T08:45:03Z</time>
      </trkpt>
      <trkpt lat="46.85844" lon="4.61392">
        <ele>294.78</ele>
        <time>2010-04-25T08:45:04Z</time>
      </trkpt>
      <trkpt lat="46.85846" lon="4.61393">
        <ele>295.26</ele>
        <time>2010-04-25T08:45:05Z</time>
      </trkpt>
      <trkpt lat="46.85847" lon="4.61394">
        <ele>295.26</ele>
        <time>2010-04-25T08:45:06Z</time>
      </trkpt>
      <trkpt lat="46.85861" lon="4.61403">
        <ele>296.22</ele>
        <time>2010-04-25T08:45:14Z</time>
      </trkpt>
      <trkpt lat="46.85875" lon="4.61412">
        <ele>297.67</ele>
        <time>2010-04-25T08:45:22Z</time>
      </trkpt>
      <trkpt lat="46.85887" lon="4.61414">
        <ele>298.63</ele>
        <time>2010-04-25T08:45:29Z</time>
      </trkpt>
      <trkpt lat="46.85901" lon="4.61407">
        <ele>300.07</ele>
        <time>2010-04-25T08:45:37Z</time>
      </trkpt>
      <trkpt lat="46.85912" lon="4.61392">
        <ele>301.03</ele>
        <time>2010-04-25T08:45:45Z</time>
      </trkpt>
      <trkpt lat="46.8592" lon="4.61373">
        <ele>302.47</ele>
        <time>2010-04-25T08:45:53Z</time>
      </trkpt>
      <trkpt lat="46.85929" lon="4.61352">
        <ele>303.43</ele>
        <time>2010-04-25T08:46:02Z</time>
      </trkpt>
      <trkpt lat="46.85937" lon="4.61331">
        <ele>304.88</ele>
        <time>2010-04-25T08:46:11Z</time>
      </trkpt>
      <trkpt lat="46.85946" lon="4.61308">
        <ele>305.84</ele>
        <time>2010-04-25T08:46:20Z</time>
      </trkpt>
      <trkpt lat="46.85953" lon="4.61288">
        <ele>306.8</ele>
        <time>2010-04-25T08:46:27Z</time>
      </trkpt>
      <trkpt lat="46.85963" lon="4.61263">
        <ele>308.24</ele>
        <time>2010-04-25T08:46:36Z</time>
      </trkpt>
      <trkpt lat="46.85973" lon="4.61237">
        <ele>309.2</ele>
        <time>2010-04-25T08:46:45Z</time>
      </trkpt>
      <trkpt lat="46.85983" lon="4.61211">
        <ele>310.16</ele>
        <time>2010-04-25T08:46:54Z</time>
      </trkpt>
      <trkpt lat="46.85995" lon="4.61178">
        <ele>311.6</ele>
        <time>2010-04-25T08:47:04Z</time>
      </trkpt>
      <trkpt lat="46.86008" lon="4.61145">
        <ele>312.09</ele>
        <time>2010-04-25T08:47:12Z</time>
      </trkpt>
      <trkpt lat="46.86028" lon="4.61099">
        <ele>312.09</ele>
        <time>2010-04-25T08:47:21Z</time>
      </trkpt>
      <trkpt lat="46.86054" lon="4.61038">
        <ele>311.12</ele>
        <time>2010-04-25T08:47:29Z</time>
      </trkpt>
      <trkpt lat="46.86091" lon="4.60945">
        <ele>310.16</ele>
        <time>2010-04-25T08:47:40Z</time>
      </trkpt>
      <trkpt lat="46.86112" lon="4.60891">
        <ele>310.64</ele>
        <time>2010-04-25T08:47:47Z</time>
      </trkpt>
      <trkpt lat="46.86135" lon="4.60835">
        <ele>311.6</ele>
        <time>2010-04-25T08:47:56Z</time>
      </trkpt>
      <trkpt lat="46.86154" lon="4.60775">
        <ele>312.57</ele>
        <time>2010-04-25T08:48:06Z</time>
      </trkpt>
      <trkpt lat="46.86157" lon="4.60756">
        <ele>313.53</ele>
        <time>2010-04-25T08:48:09Z</time>
      </trkpt>
      <trkpt lat="46.86162" lon="4.60693">
        <ele>314.01</ele>
        <time>2010-04-25T08:48:18Z</time>
      </trkpt>
      <trkpt lat="46.86166" lon="4.60641">
        <ele>313.53</ele>
        <time>2010-04-25T08:48:25Z</time>
      </trkpt>
      <trkpt lat="46.86168" lon="4.60626">
        <ele>314.01</ele>
        <time>2010-04-25T08:48:27Z</time>
      </trkpt>
      <trkpt lat="46.86168" lon="4.60618">
        <ele>313.53</ele>
        <time>2010-04-25T08:48:28Z</time>
      </trkpt>
      <trkpt lat="46.86169" lon="4.60602">
        <ele>313.05</ele>
        <time>2010-04-25T08:48:30Z</time>
      </trkpt>
      <trkpt lat="46.86171" lon="4.60548">
        <ele>313.53</ele>
        <time>2010-04-25T08:48:37Z</time>
      </trkpt>
      <trkpt lat="46.86177" lon="4.60485">
        <ele>312.57</ele>
        <time>2010-04-25T08:48:45Z</time>
      </trkpt>
      <trkpt lat="46.8618" lon="4.60468">
        <ele>313.05</ele>
        <time>2010-04-25T08:48:47Z</time>
      </trkpt>
      <trkpt lat="46.86181" lon="4.6044">
        <ele>312.09</ele>
        <time>2010-04-25T08:48:50Z</time>
      </trkpt>
      <trkpt lat="46.86178" lon="4.6041">
        <ele>310.64</ele>
        <time>2010-04-25T08:48:53Z</time>
      </trkpt>
      <trkpt lat="46.86178" lon="4.60399">
        <ele>309.68</ele>
        <time>2010-04-25T08:48:54Z</time>
      </trkpt>
      <trkpt lat="46.86169" lon="4.60314">
        <ele>307.28</ele>
        <time>2010-04-25T08:49:02Z</time>
      </trkpt>
      <trkpt lat="46.8617" lon="4.60294">
        <ele>306.32</ele>
        <time>2010-04-25T08:49:04Z</time>
      </trkpt>
      <trkpt lat="46.86172" lon="4.60286">
        <ele>305.84</ele>
        <time>2010-04-25T08:49:05Z</time>
      </trkpt>
      <trkpt lat="46.86173" lon="4.60277">
        <ele>305.36</ele>
        <time>2010-04-25T08:49:06Z</time>
      </trkpt>
      <trkpt lat="46.86174" lon="4.6027">
        <ele>304.39</ele>
        <time>2010-04-25T08:49:07Z</time>
      </trkpt>
      <trkpt lat="46.86176" lon="4.60266">
        <ele>303.43</ele>
        <time>2010-04-25T08:49:08Z</time>
      </trkpt>
      <trkpt lat="46.86179" lon="4.60264">
        <ele>302.95</ele>
        <time>2010-04-25T08:49:09Z</time>
      </trkpt>
      <trkpt lat="46.86182" lon="4.60264">
        <ele>302.95</ele>
        <time>2010-04-25T08:49:10Z</time>
      </trkpt>
      <trkpt lat="46.86184" lon="4.60266">
        <ele>302.95</ele>
        <time>2010-04-25T08:49:11Z</time>
      </trkpt>
      <trkpt lat="46.86186" lon="4.60269">
        <ele>302.95</ele>
        <time>2010-04-25T08:49:12Z</time>
      </trkpt>
      <trkpt lat="46.86187" lon="4.60273">
        <ele>303.43</ele>
        <time>2010-04-25T08:49:13Z</time>
      </trkpt>
      <trkpt lat="46.86189" lon="4.60276">
        <ele>303.91</ele>
        <time>2010-04-25T08:49:14Z</time>
      </trkpt>
      <trkpt lat="46.86189" lon="4.6028">
        <ele>303.91</ele>
        <time>2010-04-25T08:49:15Z</time>
      </trkpt>
      <trkpt lat="46.86189" lon="4.60284">
        <ele>303.91</ele>
        <time>2010-04-25T08:49:16Z</time>
      </trkpt>
      <trkpt lat="46.8619" lon="4.60288">
        <ele>304.39</ele>
        <time>2010-04-25T08:49:17Z</time>
      </trkpt>
      <trkpt lat="46.8619" lon="4.60292">
        <ele>304.88</ele>
        <time>2010-04-25T08:49:18Z</time>
      </trkpt>
      <trkpt lat="46.86191" lon="4.60296">
        <ele>304.88</ele>
        <time>2010-04-25T08:49:19Z</time>
      </trkpt>
      <trkpt lat="46.8619" lon="4.60301">
        <ele>304.88</ele>
        <time>2010-04-25T08:49:20Z</time>
      </trkpt>
      <trkpt lat="46.8619" lon="4.60304">
        <ele>305.36</ele>
        <time>2010-04-25T08:49:21Z</time>
      </trkpt>
      <trkpt lat="46.86191" lon="4.60308">
        <ele>305.36</ele>
        <time>2010-04-25T08:49:22Z</time>
      </trkpt>
      <trkpt lat="46.86192" lon="4.60312">
        <ele>305.84</ele>
        <time>2010-04-25T08:49:23Z</time>
      </trkpt>
      <trkpt lat="46.86193" lon="4.60315">
        <ele>305.84</ele>
        <time>2010-04-25T08:49:24Z</time>
      </trkpt>
      <trkpt lat="46.86194" lon="4.60318">
        <ele>305.36</ele>
        <time>2010-04-25T08:49:25Z</time>
      </trkpt>
      <trkpt lat="46.86202" lon="4.60331">
        <ele>303.43</ele>
        <time>2010-04-25T08:49:28Z</time>
      </trkpt>
      <trkpt lat="46.86205" lon="4.60339">
        <ele>301.51</ele>
        <time>2010-04-25T08:49:30Z</time>
      </trkpt>
      <trkpt lat="46.86207" lon="4.60343">
        <ele>300.07</ele>
        <time>2010-04-25T08:49:31Z</time>
      </trkpt>
      <trkpt lat="46.86209" lon="4.60347">
        <ele>299.59</ele>
        <time>2010-04-25T08:49:32Z</time>
      </trkpt>
      <trkpt lat="46.86211" lon="4.60351">
        <ele>299.11</ele>
        <time>2010-04-25T08:49:33Z</time>
      </trkpt>
      <trkpt lat="46.86212" lon="4.60357">
        <ele>299.11</ele>
        <time>2010-04-25T08:49:34Z</time>
      </trkpt>
      <trkpt lat="46.86213" lon="4.60365">
        <ele>298.63</ele>
        <time>2010-04-25T08:49:35Z</time>
      </trkpt>
      <trkpt lat="46.86214" lon="4.60371">
        <ele>298.15</ele>
        <time>2010-04-25T08:49:36Z</time>
      </trkpt>
      <trkpt lat="46.86216" lon="4.60377">
        <ele>298.15</ele>
        <time>2010-04-25T08:49:37Z</time>
      </trkpt>
      <trkpt lat="46.86219" lon="4.60393">
        <ele>296.22</ele>
        <time>2010-04-25T08:49:39Z</time>
      </trkpt>
      <trkpt lat="46.86221" lon="4.60402">
        <ele>294.78</ele>
        <time>2010-04-25T08:49:40Z</time>
      </trkpt>
      <trkpt lat="46.86224" lon="4.6041">
        <ele>293.82</ele>
        <time>2010-04-25T08:49:41Z</time>
      </trkpt>
      <trkpt lat="46.86226" lon="4.60415">
        <ele>292.38</ele>
        <time>2010-04-25T08:49:42Z</time>
      </trkpt>
      <trkpt lat="46.86228" lon="4.60421">
        <ele>291.42</ele>
        <time>2010-04-25T08:49:43Z</time>
      </trkpt>
      <trkpt lat="46.8624" lon="4.60451">
        <ele>287.09</ele>
        <time>2010-04-25T08:49:47Z</time>
      </trkpt>
      <trkpt lat="46.86252" lon="4.60479">
        <ele>284.69</ele>
        <time>2010-04-25T08:49:50Z</time>
      </trkpt>
      <trkpt lat="46.86275" lon="4.60528">
        <ele>279.4</ele>
        <time>2010-04-25T08:49:55Z</time>
      </trkpt>
      <trkpt lat="46.86279" lon="4.60537">
        <ele>278.92</ele>
        <time>2010-04-25T08:49:56Z</time>
      </trkpt>
      <trkpt lat="46.86291" lon="4.60567">
        <ele>275.56</ele>
        <time>2010-04-25T08:50:01Z</time>
      </trkpt>
      <trkpt lat="46.86294" lon="4.60574">
        <ele>274.59</ele>
        <time>2010-04-25T08:50:03Z</time>
      </trkpt>
      <trkpt lat="46.863" lon="4.6058">
        <ele>273.63</ele>
        <time>2010-04-25T08:50:05Z</time>
      </trkpt>
      <trkpt lat="46.86314" lon="4.60571">
        <ele>269.79</ele>
        <time>2010-04-25T08:50:09Z</time>
      </trkpt>
      <trkpt lat="46.86323" lon="4.6056">
        <ele>265.94</ele>
        <time>2010-04-25T08:50:12Z</time>
      </trkpt>
      <trkpt lat="46.86335" lon="4.60546">
        <ele>261.62</ele>
        <time>2010-04-25T08:50:16Z</time>
      </trkpt>
      <trkpt lat="46.86346" lon="4.60534">
        <ele>258.25</ele>
        <time>2010-04-25T08:50:19Z</time>
      </trkpt>
      <trkpt lat="46.86349" lon="4.6053">
        <ele>257.29</ele>
        <time>2010-04-25T08:50:20Z</time>
      </trkpt>
      <trkpt lat="46.86354" lon="4.60527">
        <ele>256.33</ele>
        <time>2010-04-25T08:50:21Z</time>
      </trkpt>
      <trkpt lat="46.86357" lon="4.60523">
        <ele>255.37</ele>
        <time>2010-04-25T08:50:22Z</time>
      </trkpt>
      <trkpt lat="46.86359" lon="4.60519">
        <ele>255.37</ele>
        <time>2010-04-25T08:50:23Z</time>
      </trkpt>
      <trkpt lat="46.86361" lon="4.60516">
        <ele>254.41</ele>
        <time>2010-04-25T08:50:24Z</time>
      </trkpt>
      <trkpt lat="46.86362" lon="4.60513">
        <ele>254.41</ele>
        <time>2010-04-25T08:50:25Z</time>
      </trkpt>
      <trkpt lat="46.86363" lon="4.60503">
        <ele>252.96</ele>
        <time>2010-04-25T08:50:27Z</time>
      </trkpt>
      <trkpt lat="46.86364" lon="4.60499">
        <ele>251.52</ele>
        <time>2010-04-25T08:50:28Z</time>
      </trkpt>
      <trkpt lat="46.86367" lon="4.60495">
        <ele>250.08</ele>
        <time>2010-04-25T08:50:30Z</time>
      </trkpt>
      <trkpt lat="46.86369" lon="4.60495">
        <ele>250.08</ele>
        <time>2010-04-25T08:50:31Z</time>
      </trkpt>
      <trkpt lat="46.86372" lon="4.60495">
        <ele>249.6</ele>
        <time>2010-04-25T08:50:32Z</time>
      </trkpt>
      <trkpt lat="46.86376" lon="4.60496">
        <ele>249.6</ele>
        <time>2010-04-25T08:50:33Z</time>
      </trkpt>
      <trkpt lat="46.86379" lon="4.60497">
        <ele>249.6</ele>
        <time>2010-04-25T08:50:34Z</time>
      </trkpt>
      <trkpt lat="46.86383" lon="4.60499">
        <ele>248.64</ele>
        <time>2010-04-25T08:50:35Z</time>
      </trkpt>
      <trkpt lat="46.86386" lon="4.60502">
        <ele>248.64</ele>
        <time>2010-04-25T08:50:36Z</time>
      </trkpt>
      <trkpt lat="46.8639" lon="4.60506">
        <ele>248.16</ele>
        <time>2010-04-25T08:50:37Z</time>
      </trkpt>
      <trkpt lat="46.86394" lon="4.60509">
        <ele>248.16</ele>
        <time>2010-04-25T08:50:38Z</time>
      </trkpt>
      <trkpt lat="46.86399" lon="4.60511">
        <ele>247.68</ele>
        <time>2010-04-25T08:50:39Z</time>
      </trkpt>
      <trkpt lat="46.86425" lon="4.60521">
        <ele>246.72</ele>
        <time>2010-04-25T08:50:43Z</time>
      </trkpt>
      <trkpt lat="46.86432" lon="4.60525">
        <ele>246.23</ele>
        <time>2010-04-25T08:50:44Z</time>
      </trkpt>
      <trkpt lat="46.86438" lon="4.60529">
        <ele>246.23</ele>
        <time>2010-04-25T08:50:45Z</time>
      </trkpt>
      <trkpt lat="46.86445" lon="4.60533">
        <ele>245.75</ele>
        <time>2010-04-25T08:50:46Z</time>
      </trkpt>
      <trkpt lat="46.8645" lon="4.60538">
        <ele>245.75</ele>
        <time>2010-04-25T08:50:47Z</time>
      </trkpt>
      <trkpt lat="46.86456" lon="4.60542">
        <ele>245.27</ele>
        <time>2010-04-25T08:50:48Z</time>
      </trkpt>
      <trkpt lat="46.86461" lon="4.60544">
        <ele>244.79</ele>
        <time>2010-04-25T08:50:49Z</time>
      </trkpt>
      <trkpt lat="46.86466" lon="4.60545">
        <ele>244.31</ele>
        <time>2010-04-25T08:50:50Z</time>
      </trkpt>
      <trkpt lat="46.86471" lon="4.60546">
        <ele>244.31</ele>
        <time>2010-04-25T08:50:51Z</time>
      </trkpt>
      <trkpt lat="46.86484" lon="4.60548">
        <ele>243.83</ele>
        <time>2010-04-25T08:50:54Z</time>
      </trkpt>
      <trkpt lat="46.86489" lon="4.60547">
        <ele>243.35</ele>
        <time>2010-04-25T08:50:55Z</time>
      </trkpt>
      <trkpt lat="46.86522" lon="4.60539">
        <ele>243.35</ele>
        <time>2010-04-25T08:51:01Z</time>
      </trkpt>
      <trkpt lat="46.86537" lon="4.60537">
        <ele>242.39</ele>
        <time>2010-04-25T08:51:05Z</time>
      </trkpt>
      <trkpt lat="46.86549" lon="4.60538">
        <ele>241.91</ele>
        <time>2010-04-25T08:51:09Z</time>
      </trkpt>
      <trkpt lat="46.86551" lon="4.60538">
        <ele>241.91</ele>
        <time>2010-04-25T08:51:10Z</time>
      </trkpt>
      <trkpt lat="46.86554" lon="4.60537">
        <ele>241.91</ele>
        <time>2010-04-25T08:51:11Z</time>
      </trkpt>
      <trkpt lat="46.86556" lon="4.60537">
        <ele>241.91</ele>
        <time>2010-04-25T08:51:12Z</time>
      </trkpt>
      <trkpt lat="46.86559" lon="4.60537">
        <ele>241.91</ele>
        <time>2010-04-25T08:51:13Z</time>
      </trkpt>
      <trkpt lat="46.86562" lon="4.60536">
        <ele>242.39</ele>
        <time>2010-04-25T08:51:14Z</time>
      </trkpt>
      <trkpt lat="46.86565" lon="4.60536">
        <ele>242.39</ele>
        <time>2010-04-25T08:51:15Z</time>
      </trkpt>
      <trkpt lat="46.86568" lon="4.60535">
        <ele>241.91</ele>
        <time>2010-04-25T08:51:16Z</time>
      </trkpt>
      <trkpt lat="46.86573" lon="4.60533">
        <ele>242.39</ele>
        <time>2010-04-25T08:51:17Z</time>
      </trkpt>
      <trkpt lat="46.86578" lon="4.60531">
        <ele>241.91</ele>
        <time>2010-04-25T08:51:18Z</time>
      </trkpt>
      <trkpt lat="46.86584" lon="4.6053">
        <ele>241.91</ele>
        <time>2010-04-25T08:51:19Z</time>
      </trkpt>
      <trkpt lat="46.86589" lon="4.60529">
        <ele>242.39</ele>
        <time>2010-04-25T08:51:20Z</time>
      </trkpt>
      <trkpt lat="46.86606" lon="4.60524">
        <ele>242.39</ele>
        <time>2010-04-25T08:51:23Z</time>
      </trkpt>
      <trkpt lat="46.86611" lon="4.60521">
        <ele>242.39</ele>
        <time>2010-04-25T08:51:24Z</time>
      </trkpt>
      <trkpt lat="46.86618" lon="4.60517">
        <ele>242.87</ele>
        <time>2010-04-25T08:51:25Z</time>
      </trkpt>
      <trkpt lat="46.86622" lon="4.60513">
        <ele>242.87</ele>
        <time>2010-04-25T08:51:26Z</time>
      </trkpt>
      <trkpt lat="46.86627" lon="4.60508">
        <ele>242.87</ele>
        <time>2010-04-25T08:51:27Z</time>
      </trkpt>
      <trkpt lat="46.8663" lon="4.60504">
        <ele>242.87</ele>
        <time>2010-04-25T08:51:28Z</time>
      </trkpt>
      <trkpt lat="46.86658" lon="4.60481">
        <ele>243.35</ele>
        <time>2010-04-25T08:51:35Z</time>
      </trkpt>
      <trkpt lat="46.8667" lon="4.60481">
        <ele>243.83</ele>
        <time>2010-04-25T08:51:38Z</time>
      </trkpt>
      <trkpt lat="46.86708" lon="4.60497">
        <ele>244.31</ele>
        <time>2010-04-25T08:51:46Z</time>
      </trkpt>
      <trkpt lat="46.86749" lon="4.60517">
        <ele>243.83</ele>
        <time>2010-04-25T08:51:54Z</time>
      </trkpt>
      <trkpt lat="46.86775" lon="4.6053">
        <ele>243.83</ele>
        <time>2010-04-25T08:51:59Z</time>
      </trkpt>
      <trkpt lat="46.86781" lon="4.60532">
        <ele>244.31</ele>
        <time>2010-04-25T08:52:00Z</time>
      </trkpt>
      <trkpt lat="46.86786" lon="4.60535">
        <ele>243.83</ele>
        <time>2010-04-25T08:52:01Z</time>
      </trkpt>
      <trkpt lat="46.86791" lon="4.60537">
        <ele>243.35</ele>
        <time>2010-04-25T08:52:02Z</time>
      </trkpt>
      <trkpt lat="46.86796" lon="4.60539">
        <ele>243.83</ele>
        <time>2010-04-25T08:52:03Z</time>
      </trkpt>
      <trkpt lat="46.86825" lon="4.60552">
        <ele>243.35</ele>
        <time>2010-04-25T08:52:09Z</time>
      </trkpt>
      <trkpt lat="46.8683" lon="4.60554">
        <ele>242.87</ele>
        <time>2010-04-25T08:52:10Z</time>
      </trkpt>
      <trkpt lat="46.86854" lon="4.60566">
        <ele>242.87</ele>
        <time>2010-04-25T08:52:15Z</time>
      </trkpt>
      <trkpt lat="46.86859" lon="4.60567">
        <ele>242.87</ele>
        <time>2010-04-25T08:52:16Z</time>
      </trkpt>
      <trkpt lat="46.86864" lon="4.60566">
        <ele>242.87</ele>
        <time>2010-04-25T08:52:17Z</time>
      </trkpt>
      <trkpt lat="46.86868" lon="4.60565">
        <ele>242.87</ele>
        <time>2010-04-25T08:52:18Z</time>
      </trkpt>
      <trkpt lat="46.86872" lon="4.60562">
        <ele>242.87</ele>
        <time>2010-04-25T08:52:19Z</time>
      </trkpt>
      <trkpt lat="46.86875" lon="4.60559">
        <ele>243.35</ele>
        <time>2010-04-25T08:52:20Z</time>
      </trkpt>
      <trkpt lat="46.86878" lon="4.60555">
        <ele>243.35</ele>
        <time>2010-04-25T08:52:21Z</time>
      </trkpt>
      <trkpt lat="46.86881" lon="4.6055">
        <ele>242.87</ele>
        <time>2010-04-25T08:52:22Z</time>
      </trkpt>
      <trkpt lat="46.86883" lon="4.60545">
        <ele>243.35</ele>
        <time>2010-04-25T08:52:23Z</time>
      </trkpt>
      <trkpt lat="46.86885" lon="4.6054">
        <ele>243.35</ele>
        <time>2010-04-25T08:52:24Z</time>
      </trkpt>
      <trkpt lat="46.86888" lon="4.60536">
        <ele>243.35</ele>
        <time>2010-04-25T08:52:25Z</time>
      </trkpt>
      <trkpt lat="46.86892" lon="4.60533">
        <ele>243.83</ele>
        <time>2010-04-25T08:52:26Z</time>
      </trkpt>
      <trkpt lat="46.86896" lon="4.6053">
        <ele>243.83</ele>
        <time>2010-04-25T08:52:27Z</time>
      </trkpt>
      <trkpt lat="46.869" lon="4.60528">
        <ele>243.83</ele>
        <time>2010-04-25T08:52:28Z</time>
      </trkpt>
      <trkpt lat="46.86917" lon="4.60523">
        <ele>243.83</ele>
        <time>2010-04-25T08:52:32Z</time>
      </trkpt>
      <trkpt lat="46.86926" lon="4.60519">
        <ele>244.31</ele>
        <time>2010-04-25T08:52:34Z</time>
      </trkpt>
      <trkpt lat="46.86929" lon="4.60516">
        <ele>244.31</ele>
        <time>2010-04-25T08:52:35Z</time>
      </trkpt>
      <trkpt lat="46.86933" lon="4.60511">
        <ele>244.79</ele>
        <time>2010-04-25T08:52:36Z</time>
      </trkpt>
      <trkpt lat="46.86936" lon="4.60506">
        <ele>244.31</ele>
        <time>2010-04-25T08:52:37Z</time>
      </trkpt>
      <trkpt lat="46.86938" lon="4.605">
        <ele>244.79</ele>
        <time>2010-04-25T08:52:38Z</time>
      </trkpt>
      <trkpt lat="46.8694" lon="4.60494">
        <ele>244.79</ele>
        <time>2010-04-25T08:52:39Z</time>
      </trkpt>
      <trkpt lat="46.86942" lon="4.60489">
        <ele>244.79</ele>
        <time>2010-04-25T08:52:40Z</time>
      </trkpt>
      <trkpt lat="46.86944" lon="4.60486">
        <ele>244.79</ele>
        <time>2010-04-25T08:52:41Z</time>
      </trkpt>
      <trkpt lat="46.86945" lon="4.60483">
        <ele>244.79</ele>
        <time>2010-04-25T08:52:42Z</time>
      </trkpt>
      <trkpt lat="46.86954" lon="4.60471">
        <ele>245.27</ele>
        <time>2010-04-25T08:52:46Z</time>
      </trkpt>
      <trkpt lat="46.86956" lon="4.60467">
        <ele>245.27</ele>
        <time>2010-04-25T08:52:47Z</time>
      </trkpt>
      <trkpt lat="46.8697" lon="4.60451">
        <ele>245.75</ele>
        <time>2010-04-25T08:52:53Z</time>
      </trkpt>
      <trkpt lat="46.86988" lon="4.60452">
        <ele>246.72</ele>
        <time>2010-04-25T08:52:59Z</time>
      </trkpt>
      <trkpt lat="46.87006" lon="4.60451">
        <ele>247.68</ele>
        <time>2010-04-25T08:53:05Z</time>
      </trkpt>
      <trkpt lat="46.8703" lon="4.60451">
        <ele>247.2</ele>
        <time>2010-04-25T08:53:11Z</time>
      </trkpt>
      <trkpt lat="46.87063" lon="4.60453">
        <ele>247.2</ele>
        <time>2010-04-25T08:53:19Z</time>
      </trkpt>
      <trkpt lat="46.87089" lon="4.6045">
        <ele>247.68</ele>
        <time>2010-04-25T08:53:25Z</time>
      </trkpt>
      <trkpt lat="46.87103" lon="4.60446">
        <ele>248.16</ele>
        <time>2010-04-25T08:53:28Z</time>
      </trkpt>
      <trkpt lat="46.87121" lon="4.60438">
        <ele>247.2</ele>
        <time>2010-04-25T08:53:33Z</time>
      </trkpt>
      <trkpt lat="46.87134" lon="4.60432">
        <ele>248.16</ele>
        <time>2010-04-25T08:53:37Z</time>
      </trkpt>
      <trkpt lat="46.87162" lon="4.60416">
        <ele>248.16</ele>
        <time>2010-04-25T08:53:44Z</time>
      </trkpt>
      <trkpt lat="46.87172" lon="4.60411">
        <ele>247.68</ele>
        <time>2010-04-25T08:53:46Z</time>
      </trkpt>
      <trkpt lat="46.87177" lon="4.60408">
        <ele>247.2</ele>
        <time>2010-04-25T08:53:47Z</time>
      </trkpt>
      <trkpt lat="46.87182" lon="4.60405">
        <ele>247.68</ele>
        <time>2010-04-25T08:53:48Z</time>
      </trkpt>
      <trkpt lat="46.87195" lon="4.60394">
        <ele>247.2</ele>
        <time>2010-04-25T08:53:51Z</time>
      </trkpt>
      <trkpt lat="46.87199" lon="4.60392">
        <ele>247.2</ele>
        <time>2010-04-25T08:53:52Z</time>
      </trkpt>
      <trkpt lat="46.87203" lon="4.6039">
        <ele>247.68</ele>
        <time>2010-04-25T08:53:53Z</time>
      </trkpt>
      <trkpt lat="46.87206" lon="4.60389">
        <ele>247.2</ele>
        <time>2010-04-25T08:53:54Z</time>
      </trkpt>
      <trkpt lat="46.87211" lon="4.60387">
        <ele>247.2</ele>
        <time>2010-04-25T08:53:55Z</time>
      </trkpt>
      <trkpt lat="46.87216" lon="4.60384">
        <ele>247.2</ele>
        <time>2010-04-25T08:53:56Z</time>
      </trkpt>
      <trkpt lat="46.87238" lon="4.60369">
        <ele>247.2</ele>
        <time>2010-04-25T08:54:01Z</time>
      </trkpt>
      <trkpt lat="46.87256" lon="4.60356">
        <ele>247.68</ele>
        <time>2010-04-25T08:54:06Z</time>
      </trkpt>
      <trkpt lat="46.87268" lon="4.60343">
        <ele>248.16</ele>
        <time>2010-04-25T08:54:10Z</time>
      </trkpt>
      <trkpt lat="46.87285" lon="4.60312">
        <ele>248.16</ele>
        <time>2010-04-25T08:54:16Z</time>
      </trkpt>
      <trkpt lat="46.87289" lon="4.60306">
        <ele>248.16</ele>
        <time>2010-04-25T08:54:17Z</time>
      </trkpt>
      <trkpt lat="46.87292" lon="4.60299">
        <ele>247.68</ele>
        <time>2010-04-25T08:54:18Z</time>
      </trkpt>
      <trkpt lat="46.87296" lon="4.60292">
        <ele>248.16</ele>
        <time>2010-04-25T08:54:19Z</time>
      </trkpt>
      <trkpt lat="46.87299" lon="4.60286">
        <ele>248.16</ele>
        <time>2010-04-25T08:54:20Z</time>
      </trkpt>
      <trkpt lat="46.87305" lon="4.60275">
        <ele>247.68</ele>
        <time>2010-04-25T08:54:22Z</time>
      </trkpt>
      <trkpt lat="46.87321" lon="4.60248">
        <ele>247.2</ele>
        <time>2010-04-25T08:54:27Z</time>
      </trkpt>
      <trkpt lat="46.87328" lon="4.60238">
        <ele>247.2</ele>
        <time>2010-04-25T08:54:29Z</time>
      </trkpt>
      <trkpt lat="46.87332" lon="4.60231">
        <ele>246.72</ele>
        <time>2010-04-25T08:54:30Z</time>
      </trkpt>
      <trkpt lat="46.8734" lon="4.60212">
        <ele>247.2</ele>
        <time>2010-04-25T08:54:33Z</time>
      </trkpt>
      <trkpt lat="46.87342" lon="4.60205">
        <ele>247.68</ele>
        <time>2010-04-25T08:54:34Z</time>
      </trkpt>
      <trkpt lat="46.87344" lon="4.60199">
        <ele>247.68</ele>
        <time>2010-04-25T08:54:35Z</time>
      </trkpt>
      <trkpt lat="46.87347" lon="4.60193">
        <ele>248.16</ele>
        <time>2010-04-25T08:54:36Z</time>
      </trkpt>
      <trkpt lat="46.87349" lon="4.60187">
        <ele>247.68</ele>
        <time>2010-04-25T08:54:37Z</time>
      </trkpt>
      <trkpt lat="46.87359" lon="4.60149">
        <ele>250.08</ele>
        <time>2010-04-25T08:54:44Z</time>
      </trkpt>
      <trkpt lat="46.87366" lon="4.60125">
        <ele>249.6</ele>
        <time>2010-04-25T08:54:49Z</time>
      </trkpt>
      <trkpt lat="46.87376" lon="4.60099">
        <ele>249.6</ele>
        <time>2010-04-25T08:54:54Z</time>
      </trkpt>
      <trkpt lat="46.87387" lon="4.6008">
        <ele>249.6</ele>
        <time>2010-04-25T08:54:59Z</time>
      </trkpt>
      <trkpt lat="46.87393" lon="4.60069">
        <ele>249.12</ele>
        <time>2010-04-25T08:55:01Z</time>
      </trkpt>
      <trkpt lat="46.87397" lon="4.60062">
        <ele>249.12</ele>
        <time>2010-04-25T08:55:02Z</time>
      </trkpt>
      <trkpt lat="46.87401" lon="4.60055">
        <ele>249.12</ele>
        <time>2010-04-25T08:55:03Z</time>
      </trkpt>
      <trkpt lat="46.87414" lon="4.60028">
        <ele>250.08</ele>
        <time>2010-04-25T08:55:08Z</time>
      </trkpt>
      <trkpt lat="46.87424" lon="4.60003">
        <ele>250.56</ele>
        <time>2010-04-25T08:55:13Z</time>
      </trkpt>
      <trkpt lat="46.87438" lon="4.59982">
        <ele>249.12</ele>
        <time>2010-04-25T08:55:18Z</time>
      </trkpt>
      <trkpt lat="46.87455" lon="4.59965">
        <ele>248.64</ele>
        <time>2010-04-25T08:55:21Z</time>
      </trkpt>
      <trkpt lat="46.87459" lon="4.5996">
        <ele>248.64</ele>
        <time>2010-04-25T08:55:22Z</time>
      </trkpt>
      <trkpt lat="46.87477" lon="4.5994">
        <ele>248.64</ele>
        <time>2010-04-25T08:55:27Z</time>
      </trkpt>
      <trkpt lat="46.87483" lon="4.5993">
        <ele>248.64</ele>
        <time>2010-04-25T08:55:30Z</time>
      </trkpt>
      <trkpt lat="46.87484" lon="4.59928">
        <ele>248.64</ele>
        <time>2010-04-25T08:55:31Z</time>
      </trkpt>
      <trkpt lat="46.87484" lon="4.59926">
        <ele>249.12</ele>
        <time>2010-04-25T08:55:32Z</time>
      </trkpt>
      <trkpt lat="46.87485" lon="4.59918">
        <ele>249.6</ele>
        <time>2010-04-25T08:55:35Z</time>
      </trkpt>
      <trkpt lat="46.87485" lon="4.59916">
        <ele>250.08</ele>
        <time>2010-04-25T08:55:36Z</time>
      </trkpt>
      <trkpt lat="46.87485" lon="4.59913">
        <ele>249.6</ele>
        <time>2010-04-25T08:55:37Z</time>
      </trkpt>
      <trkpt lat="46.87489" lon="4.59902">
        <ele>250.56</ele>
        <time>2010-04-25T08:55:42Z</time>
      </trkpt>
      <trkpt lat="46.8749" lon="4.59896">
        <ele>251.52</ele>
        <time>2010-04-25T08:55:45Z</time>
      </trkpt>
      <trkpt lat="46.87492" lon="4.59893">
        <ele>252</ele>
        <time>2010-04-25T08:55:46Z</time>
      </trkpt>
      <trkpt lat="46.87495" lon="4.59891">
        <ele>252</ele>
        <time>2010-04-25T08:55:47Z</time>
      </trkpt>
      <trkpt lat="46.87503" lon="4.59884">
        <ele>253.44</ele>
        <time>2010-04-25T08:55:52Z</time>
      </trkpt>
      <trkpt lat="46.87513" lon="4.59879">
        <ele>254.41</ele>
        <time>2010-04-25T08:55:58Z</time>
      </trkpt>
      <trkpt lat="46.87525" lon="4.59869">
        <ele>255.85</ele>
        <time>2010-04-25T08:56:05Z</time>
      </trkpt>
      <trkpt lat="46.87534" lon="4.59856">
        <ele>257.29</ele>
        <time>2010-04-25T08:56:13Z</time>
      </trkpt>
      <trkpt lat="46.87538" lon="4.59849">
        <ele>258.73</ele>
        <time>2010-04-25T08:56:18Z</time>
      </trkpt>
      <trkpt lat="46.87547" lon="4.59844">
        <ele>258.73</ele>
        <time>2010-04-25T08:56:25Z</time>
      </trkpt>
      <trkpt lat="46.87551" lon="4.59843">
        <ele>258.25</ele>
        <time>2010-04-25T08:56:32Z</time>
      </trkpt>
      <trkpt lat="46.87559" lon="4.59838">
        <ele>256.81</ele>
        <time>2010-04-25T08:56:38Z</time>
      </trkpt>
      <trkpt lat="46.87561" lon="4.59835">
        <ele>254.89</ele>
        <time>2010-04-25T08:56:41Z</time>
      </trkpt>
      <trkpt lat="46.87563" lon="4.59835">
        <ele>254.41</ele>
        <time>2010-04-25T08:56:42Z</time>
      </trkpt>
      <trkpt lat="46.87575" lon="4.59827">
        <ele>252.96</ele>
        <time>2010-04-25T08:56:48Z</time>
      </trkpt>
      <trkpt lat="46.87581" lon="4.59822">
        <ele>252.96</ele>
        <time>2010-04-25T08:56:52Z</time>
      </trkpt>
      <trkpt lat="46.87585" lon="4.59822">
        <ele>253.44</ele>
        <time>2010-04-25T08:56:58Z</time>
      </trkpt>
      <trkpt lat="46.8759" lon="4.59837">
        <ele>252.96</ele>
        <time>2010-04-25T08:57:04Z</time>
      </trkpt>
      <trkpt lat="46.87602" lon="4.59861">
        <ele>252.96</ele>
        <time>2010-04-25T08:57:10Z</time>
      </trkpt>
      <trkpt lat="46.87617" lon="4.5988">
        <ele>253.93</ele>
        <time>2010-04-25T08:57:16Z</time>
      </trkpt>
      <trkpt lat="46.87626" lon="4.59896">
        <ele>254.41</ele>
        <time>2010-04-25T08:57:21Z</time>
      </trkpt>
      <trkpt lat="46.87641" lon="4.59913">
        <ele>255.37</ele>
        <time>2010-04-25T08:57:27Z</time>
      </trkpt>
      <trkpt lat="46.87658" lon="4.59925">
        <ele>256.33</ele>
        <time>2010-04-25T08:57:33Z</time>
      </trkpt>
      <trkpt lat="46.87674" lon="4.59935">
        <ele>256.81</ele>
        <time>2010-04-25T08:57:38Z</time>
      </trkpt>
      <trkpt lat="46.87692" lon="4.59937">
        <ele>258.25</ele>
        <time>2010-04-25T08:57:46Z</time>
      </trkpt>
      <trkpt lat="46.87705" lon="4.59939">
        <ele>260.17</ele>
        <time>2010-04-25T08:57:53Z</time>
      </trkpt>
      <trkpt lat="46.87715" lon="4.59946">
        <ele>262.1</ele>
        <time>2010-04-25T08:58:00Z</time>
      </trkpt>
      <trkpt lat="46.8772" lon="4.59957">
        <ele>263.54</ele>
        <time>2010-04-25T08:58:07Z</time>
      </trkpt>
      <trkpt lat="46.8772" lon="4.59959">
        <ele>263.54</ele>
        <time>2010-04-25T08:58:08Z</time>
      </trkpt>
      <trkpt lat="46.8772" lon="4.59973">
        <ele>264.5</ele>
        <time>2010-04-25T08:58:15Z</time>
      </trkpt>
      <trkpt lat="46.87722" lon="4.59991">
        <ele>266.9</ele>
        <time>2010-04-25T08:58:24Z</time>
      </trkpt>
      <trkpt lat="46.87725" lon="4.60002">
        <ele>267.38</ele>
        <time>2010-04-25T08:58:30Z</time>
      </trkpt>
      <trkpt lat="46.87726" lon="4.60005">
        <ele>268.35</ele>
        <time>2010-04-25T08:58:32Z</time>
      </trkpt>
      <trkpt lat="46.87731" lon="4.60016">
        <ele>269.79</ele>
        <time>2010-04-25T08:58:39Z</time>
      </trkpt>
      <trkpt lat="46.87737" lon="4.60028">
        <ele>270.75</ele>
        <time>2010-04-25T08:58:46Z</time>
      </trkpt>
      <trkpt lat="46.87739" lon="4.60034">
        <ele>271.23</ele>
        <time>2010-04-25T08:58:49Z</time>
      </trkpt>
      <trkpt lat="46.87749" lon="4.60054">
        <ele>273.15</ele>
        <time>2010-04-25T08:59:00Z</time>
      </trkpt>
      <trkpt lat="46.87751" lon="4.60068">
        <ele>274.11</ele>
        <time>2010-04-25T08:59:08Z</time>
      </trkpt>
      <trkpt lat="46.87758" lon="4.60084">
        <ele>276.52</ele>
        <time>2010-04-25T08:59:17Z</time>
      </trkpt>
      <trkpt lat="46.87766" lon="4.60097">
        <ele>277.96</ele>
        <time>2010-04-25T08:59:26Z</time>
      </trkpt>
      <trkpt lat="46.87778" lon="4.60115">
        <ele>279.4</ele>
        <time>2010-04-25T08:59:36Z</time>
      </trkpt>
      <trkpt lat="46.87792" lon="4.60143">
        <ele>280.36</ele>
        <time>2010-04-25T08:59:46Z</time>
      </trkpt>
      <trkpt lat="46.87804" lon="4.6017">
        <ele>280.36</ele>
        <time>2010-04-25T08:59:54Z</time>
      </trkpt>
      <trkpt lat="46.87815" lon="4.60204">
        <ele>280.84</ele>
        <time>2010-04-25T09:00:02Z</time>
      </trkpt>
      <trkpt lat="46.87831" lon="4.60241">
        <ele>281.32</ele>
        <time>2010-04-25T09:00:11Z</time>
      </trkpt>
      <trkpt lat="46.87847" lon="4.60269">
        <ele>282.77</ele>
        <time>2010-04-25T09:00:19Z</time>
      </trkpt>
      <trkpt lat="46.87869" lon="4.60294">
        <ele>283.73</ele>
        <time>2010-04-25T09:00:28Z</time>
      </trkpt>
      <trkpt lat="46.87887" lon="4.60313">
        <ele>284.69</ele>
        <time>2010-04-25T09:00:36Z</time>
      </trkpt>
      <trkpt lat="46.87905" lon="4.60331">
        <ele>285.65</ele>
        <time>2010-04-25T09:00:44Z</time>
      </trkpt>
      <trkpt lat="46.87926" lon="4.60346">
        <ele>286.13</ele>
        <time>2010-04-25T09:00:53Z</time>
      </trkpt>
      <trkpt lat="46.8795" lon="4.60361">
        <ele>287.09</ele>
        <time>2010-04-25T09:01:03Z</time>
      </trkpt>
      <trkpt lat="46.87966" lon="4.60366">
        <ele>287.57</ele>
        <time>2010-04-25T09:01:10Z</time>
      </trkpt>
      <trkpt lat="46.87983" lon="4.60375">
        <ele>289.01</ele>
        <time>2010-04-25T09:01:17Z</time>
      </trkpt>
      <trkpt lat="46.88008" lon="4.60398">
        <ele>289.97</ele>
        <time>2010-04-25T09:01:27Z</time>
      </trkpt>
      <trkpt lat="46.8803" lon="4.60419">
        <ele>290.94</ele>
        <time>2010-04-25T09:01:36Z</time>
      </trkpt>
      <trkpt lat="46.88042" lon="4.60433">
        <ele>292.38</ele>
        <time>2010-04-25T09:01:43Z</time>
      </trkpt>
      <trkpt lat="46.88054" lon="4.60447">
        <ele>294.78</ele>
        <time>2010-04-25T09:01:52Z</time>
      </trkpt>
      <trkpt lat="46.88066" lon="4.6046">
        <ele>296.7</ele>
        <time>2010-04-25T09:02:01Z</time>
      </trkpt>
      <trkpt lat="46.88076" lon="4.6047">
        <ele>298.15</ele>
        <time>2010-04-25T09:02:09Z</time>
      </trkpt>
      <trkpt lat="46.88083" lon="4.60482">
        <ele>300.07</ele>
        <time>2010-04-25T09:02:17Z</time>
      </trkpt>
      <trkpt lat="46.88084" lon="4.60488">
        <ele>301.51</ele>
        <time>2010-04-25T09:02:21Z</time>
      </trkpt>
      <trkpt lat="46.88087" lon="4.60492">
        <ele>301.99</ele>
        <time>2010-04-25T09:02:24Z</time>
      </trkpt>
      <trkpt lat="46.88086" lon="4.60498">
        <ele>302.47</ele>
        <time>2010-04-25T09:02:28Z</time>
      </trkpt>
      <trkpt lat="46.88089" lon="4.605">
        <ele>302.47</ele>
        <time>2010-04-25T09:02:32Z</time>
      </trkpt>
      <trkpt lat="46.88091" lon="4.60499">
        <ele>302.47</ele>
        <time>2010-04-25T09:02:38Z</time>
      </trkpt>
      <trkpt lat="46.88091" lon="4.60499">
        <ele>302.95</ele>
        <time>2010-04-25T09:02:56Z</time>
      </trkpt>
      <trkpt lat="46.8809" lon="4.60498">
        <ele>302.95</ele>
        <time>2010-04-25T09:03:19Z</time>
      </trkpt>
      <trkpt lat="46.8809" lon="4.60498">
        <ele>302.95</ele>
        <time>2010-04-25T09:03:44Z</time>
      </trkpt>
      <trkpt lat="46.8809" lon="4.60498">
        <ele>302.95</ele>
        <time>2010-04-25T09:04:17Z</time>
      </trkpt>
      <trkpt lat="46.88091" lon="4.60497">
        <ele>303.43</ele>
        <time>2010-04-25T09:05:17Z</time>
      </trkpt>
      <trkpt lat="46.88094" lon="4.60492">
        <ele>302.95</ele>
        <time>2010-04-25T09:05:32Z</time>
      </trkpt>
      <trkpt lat="46.88103" lon="4.60476">
        <ele>303.91</ele>
        <time>2010-04-25T09:05:38Z</time>
      </trkpt>
      <trkpt lat="46.88122" lon="4.60451">
        <ele>303.91</ele>
        <time>2010-04-25T09:05:47Z</time>
      </trkpt>
      <trkpt lat="46.88147" lon="4.60423">
        <ele>304.88</ele>
        <time>2010-04-25T09:05:57Z</time>
      </trkpt>
      <trkpt lat="46.8818" lon="4.60391">
        <ele>305.84</ele>
        <time>2010-04-25T09:06:08Z</time>
      </trkpt>
      <trkpt lat="46.88204" lon="4.60372">
        <ele>306.32</ele>
        <time>2010-04-25T09:06:16Z</time>
      </trkpt>
      <trkpt lat="46.88235" lon="4.60348">
        <ele>306.8</ele>
        <time>2010-04-25T09:06:26Z</time>
      </trkpt>
      <trkpt lat="46.88264" lon="4.60331">
        <ele>307.76</ele>
        <time>2010-04-25T09:06:34Z</time>
      </trkpt>
      <trkpt lat="46.883" lon="4.60312">
        <ele>308.24</ele>
        <time>2010-04-25T09:06:44Z</time>
      </trkpt>
      <trkpt lat="46.88334" lon="4.60296">
        <ele>309.68</ele>
        <time>2010-04-25T09:06:53Z</time>
      </trkpt>
      <trkpt lat="46.8835" lon="4.60292">
        <ele>310.16</ele>
        <time>2010-04-25T09:06:57Z</time>
      </trkpt>
      <trkpt lat="46.88354" lon="4.60291">
        <ele>309.68</ele>
        <time>2010-04-25T09:06:58Z</time>
      </trkpt>
      <trkpt lat="46.88357" lon="4.60291">
        <ele>310.16</ele>
        <time>2010-04-25T09:06:59Z</time>
      </trkpt>
      <trkpt lat="46.88366" lon="4.60286">
        <ele>310.64</ele>
        <time>2010-04-25T09:07:02Z</time>
      </trkpt>
      <trkpt lat="46.88367" lon="4.60283">
        <ele>311.12</ele>
        <time>2010-04-25T09:07:03Z</time>
      </trkpt>
      <trkpt lat="46.88368" lon="4.6028">
        <ele>310.64</ele>
        <time>2010-04-25T09:07:04Z</time>
      </trkpt>
      <trkpt lat="46.88367" lon="4.60277">
        <ele>311.12</ele>
        <time>2010-04-25T09:07:05Z</time>
      </trkpt>
      <trkpt lat="46.88367" lon="4.60274">
        <ele>311.12</ele>
        <time>2010-04-25T09:07:06Z</time>
      </trkpt>
      <trkpt lat="46.88366" lon="4.60274">
        <ele>311.12</ele>
        <time>2010-04-25T09:07:11Z</time>
      </trkpt>
      <trkpt lat="46.88366" lon="4.60274">
        <ele>310.64</ele>
        <time>2010-04-25T09:07:29Z</time>
      </trkpt>
      <trkpt lat="46.88366" lon="4.60273">
        <ele>310.64</ele>
        <time>2010-04-25T09:07:40Z</time>
      </trkpt>
      <trkpt lat="46.88366" lon="4.60273">
        <ele>310.64</ele>
        <time>2010-04-25T09:08:07Z</time>
      </trkpt>
      <trkpt lat="46.88366" lon="4.60271">
        <ele>310.64</ele>
        <time>2010-04-25T09:08:20Z</time>
      </trkpt>
      <trkpt lat="46.88365" lon="4.60269">
        <ele>310.64</ele>
        <time>2010-04-25T09:08:21Z</time>
      </trkpt>
      <trkpt lat="46.88364" lon="4.60266">
        <ele>311.12</ele>
        <time>2010-04-25T09:08:22Z</time>
      </trkpt>
      <trkpt lat="46.88364" lon="4.60261">
        <ele>310.64</ele>
        <time>2010-04-25T09:08:23Z</time>
      </trkpt>
      <trkpt lat="46.88363" lon="4.60257">
        <ele>310.16</ele>
        <time>2010-04-25T09:08:24Z</time>
      </trkpt>
      <trkpt lat="46.88362" lon="4.60252">
        <ele>309.68</ele>
        <time>2010-04-25T09:08:25Z</time>
      </trkpt>
      <trkpt lat="46.8836" lon="4.60247">
        <ele>308.72</ele>
        <time>2010-04-25T09:08:26Z</time>
      </trkpt>
      <trkpt lat="46.8836" lon="4.60241">
        <ele>308.24</ele>
        <time>2010-04-25T09:08:27Z</time>
      </trkpt>
      <trkpt lat="46.88361" lon="4.60235">
        <ele>307.76</ele>
        <time>2010-04-25T09:08:28Z</time>
      </trkpt>
      <trkpt lat="46.88363" lon="4.60229">
        <ele>307.76</ele>
        <time>2010-04-25T09:08:29Z</time>
      </trkpt>
      <trkpt lat="46.88366" lon="4.60223">
        <ele>307.28</ele>
        <time>2010-04-25T09:08:30Z</time>
      </trkpt>
      <trkpt lat="46.88368" lon="4.60216">
        <ele>306.8</ele>
        <time>2010-04-25T09:08:31Z</time>
      </trkpt>
      <trkpt lat="46.88368" lon="4.60207">
        <ele>305.84</ele>
        <time>2010-04-25T09:08:32Z</time>
      </trkpt>
      <trkpt lat="46.88365" lon="4.60198">
        <ele>305.36</ele>
        <time>2010-04-25T09:08:33Z</time>
      </trkpt>
      <trkpt lat="46.88362" lon="4.60189">
        <ele>304.39</ele>
        <time>2010-04-25T09:08:34Z</time>
      </trkpt>
      <trkpt lat="46.88359" lon="4.60183">
        <ele>303.43</ele>
        <time>2010-04-25T09:08:35Z</time>
      </trkpt>
      <trkpt lat="46.88356" lon="4.60177">
        <ele>302.95</ele>
        <time>2010-04-25T09:08:36Z</time>
      </trkpt>
      <trkpt lat="46.88343" lon="4.60157">
        <ele>299.59</ele>
        <time>2010-04-25T09:08:40Z</time>
      </trkpt>
      <trkpt lat="46.88335" lon="4.60144">
        <ele>297.67</ele>
        <time>2010-04-25T09:08:43Z</time>
      </trkpt>
      <trkpt lat="46.88319" lon="4.6011">
        <ele>295.74</ele>
        <time>2010-04-25T09:08:48Z</time>
      </trkpt>
      <trkpt lat="46.88317" lon="4.60101">
        <ele>294.3</ele>
        <time>2010-04-25T09:08:49Z</time>
      </trkpt>
      <trkpt lat="46.88317" lon="4.6009">
        <ele>292.86</ele>
        <time>2010-04-25T09:08:50Z</time>
      </trkpt>
      <trkpt lat="46.88316" lon="4.6008">
        <ele>291.42</ele>
        <time>2010-04-25T09:08:51Z</time>
      </trkpt>
      <trkpt lat="46.88315" lon="4.60072">
        <ele>290.94</ele>
        <time>2010-04-25T09:08:52Z</time>
      </trkpt>
      <trkpt lat="46.88313" lon="4.60065">
        <ele>289.97</ele>
        <time>2010-04-25T09:08:53Z</time>
      </trkpt>
      <trkpt lat="46.88311" lon="4.60048">
        <ele>287.57</ele>
        <time>2010-04-25T09:08:57Z</time>
      </trkpt>
      <trkpt lat="46.88312" lon="4.60042">
        <ele>287.57</ele>
        <time>2010-04-25T09:08:58Z</time>
      </trkpt>
      <trkpt lat="46.88313" lon="4.60016">
        <ele>285.17</ele>
        <time>2010-04-25T09:09:01Z</time>
      </trkpt>
      <trkpt lat="46.88311" lon="4.59993">
        <ele>284.21</ele>
        <time>2010-04-25T09:09:03Z</time>
      </trkpt>
      <trkpt lat="46.88308" lon="4.59983">
        <ele>282.77</ele>
        <time>2010-04-25T09:09:04Z</time>
      </trkpt>
      <trkpt lat="46.88304" lon="4.59973">
        <ele>281.8</ele>
        <time>2010-04-25T09:09:05Z</time>
      </trkpt>
      <trkpt lat="46.88298" lon="4.59963">
        <ele>280.84</ele>
        <time>2010-04-25T09:09:06Z</time>
      </trkpt>
      <trkpt lat="46.88293" lon="4.59952">
        <ele>280.36</ele>
        <time>2010-04-25T09:09:07Z</time>
      </trkpt>
      <trkpt lat="46.88289" lon="4.59942">
        <ele>278.92</ele>
        <time>2010-04-25T09:09:08Z</time>
      </trkpt>
      <trkpt lat="46.88286" lon="4.59932">
        <ele>277</ele>
        <time>2010-04-25T09:09:09Z</time>
      </trkpt>
      <trkpt lat="46.88282" lon="4.59923">
        <ele>275.56</ele>
        <time>2010-04-25T09:09:10Z</time>
      </trkpt>
      <trkpt lat="46.88277" lon="4.59914">
        <ele>275.07</ele>
        <time>2010-04-25T09:09:11Z</time>
      </trkpt>
      <trkpt lat="46.88266" lon="4.59895">
        <ele>272.67</ele>
        <time>2010-04-25T09:09:13Z</time>
      </trkpt>
      <trkpt lat="46.88264" lon="4.59885">
        <ele>273.15</ele>
        <time>2010-04-25T09:09:14Z</time>
      </trkpt>
      <trkpt lat="46.88263" lon="4.59876">
        <ele>273.15</ele>
        <time>2010-04-25T09:09:15Z</time>
      </trkpt>
      <trkpt lat="46.88266" lon="4.5986">
        <ele>273.63</ele>
        <time>2010-04-25T09:09:17Z</time>
      </trkpt>
      <trkpt lat="46.88268" lon="4.59853">
        <ele>273.63</ele>
        <time>2010-04-25T09:09:18Z</time>
      </trkpt>
      <trkpt lat="46.88271" lon="4.59847">
        <ele>274.11</ele>
        <time>2010-04-25T09:09:19Z</time>
      </trkpt>
      <trkpt lat="46.88275" lon="4.59842">
        <ele>274.11</ele>
        <time>2010-04-25T09:09:20Z</time>
      </trkpt>
      <trkpt lat="46.88278" lon="4.59838">
        <ele>274.11</ele>
        <time>2010-04-25T09:09:21Z</time>
      </trkpt>
      <trkpt lat="46.88307" lon="4.59798">
        <ele>275.07</ele>
        <time>2010-04-25T09:09:30Z</time>
      </trkpt>
      <trkpt lat="46.88309" lon="4.59793">
        <ele>275.56</ele>
        <time>2010-04-25T09:09:31Z</time>
      </trkpt>
      <trkpt lat="46.88319" lon="4.5976">
        <ele>277.96</ele>
        <time>2010-04-25T09:09:38Z</time>
      </trkpt>
      <trkpt lat="46.88323" lon="4.5974">
        <ele>280.84</ele>
        <time>2010-04-25T09:09:44Z</time>
      </trkpt>
      <trkpt lat="46.88329" lon="4.59718">
        <ele>282.77</ele>
        <time>2010-04-25T09:09:52Z</time>
      </trkpt>
      <trkpt lat="46.88333" lon="4.59699">
        <ele>283.73</ele>
        <time>2010-04-25T09:09:59Z</time>
      </trkpt>
      <trkpt lat="46.88339" lon="4.59677">
        <ele>285.65</ele>
        <time>2010-04-25T09:10:07Z</time>
      </trkpt>
      <trkpt lat="46.88343" lon="4.5966">
        <ele>287.09</ele>
        <time>2010-04-25T09:10:14Z</time>
      </trkpt>
      <trkpt lat="46.88343" lon="4.59657">
        <ele>287.09</ele>
        <time>2010-04-25T09:10:15Z</time>
      </trkpt>
      <trkpt lat="46.88348" lon="4.59643">
        <ele>289.01</ele>
        <time>2010-04-25T09:10:23Z</time>
      </trkpt>
      <trkpt lat="46.88353" lon="4.59639">
        <ele>290.46</ele>
        <time>2010-04-25T09:10:29Z</time>
      </trkpt>
      <trkpt lat="46.88357" lon="4.59638">
        <ele>291.42</ele>
        <time>2010-04-25T09:10:33Z</time>
      </trkpt>
      <trkpt lat="46.88358" lon="4.59637">
        <ele>291.42</ele>
        <time>2010-04-25T09:10:34Z</time>
      </trkpt>
      <trkpt lat="46.88359" lon="4.59636">
        <ele>291.9</ele>
        <time>2010-04-25T09:10:35Z</time>
      </trkpt>
      <trkpt lat="46.88361" lon="4.59633">
        <ele>292.38</ele>
        <time>2010-04-25T09:10:37Z</time>
      </trkpt>
      <trkpt lat="46.88362" lon="4.59631">
        <ele>292.86</ele>
        <time>2010-04-25T09:10:38Z</time>
      </trkpt>
      <trkpt lat="46.88367" lon="4.59612">
        <ele>293.34</ele>
        <time>2010-04-25T09:10:48Z</time>
      </trkpt>
      <trkpt lat="46.88372" lon="4.59595">
        <ele>295.26</ele>
        <time>2010-04-25T09:10:58Z</time>
      </trkpt>
      <trkpt lat="46.88372" lon="4.59593">
        <ele>295.74</ele>
        <time>2010-04-25T09:10:59Z</time>
      </trkpt>
      <trkpt lat="46.88373" lon="4.59591">
        <ele>295.74</ele>
        <time>2010-04-25T09:11:00Z</time>
      </trkpt>
      <trkpt lat="46.88374" lon="4.59582">
        <ele>297.18</ele>
        <time>2010-04-25T09:11:05Z</time>
      </trkpt>
      <trkpt lat="46.88379" lon="4.59566">
        <ele>298.63</ele>
        <time>2010-04-25T09:11:13Z</time>
      </trkpt>
      <trkpt lat="46.88379" lon="4.59564">
        <ele>298.15</ele>
        <time>2010-04-25T09:11:14Z</time>
      </trkpt>
      <trkpt lat="46.88379" lon="4.59562">
        <ele>298.63</ele>
        <time>2010-04-25T09:11:15Z</time>
      </trkpt>
      <trkpt lat="46.88378" lon="4.5956">
        <ele>298.63</ele>
        <time>2010-04-25T09:11:16Z</time>
      </trkpt>
      <trkpt lat="46.88377" lon="4.59558">
        <ele>298.63</ele>
        <time>2010-04-25T09:11:17Z</time>
      </trkpt>
      <trkpt lat="46.88376" lon="4.59556">
        <ele>299.11</ele>
        <time>2010-04-25T09:11:18Z</time>
      </trkpt>
      <trkpt lat="46.88374" lon="4.59555">
        <ele>299.11</ele>
        <time>2010-04-25T09:11:19Z</time>
      </trkpt>
      <trkpt lat="46.88373" lon="4.59553">
        <ele>299.59</ele>
        <time>2010-04-25T09:11:20Z</time>
      </trkpt>
      <trkpt lat="46.88371" lon="4.59551">
        <ele>299.59</ele>
        <time>2010-04-25T09:11:21Z</time>
      </trkpt>
      <trkpt lat="46.8837" lon="4.59549">
        <ele>300.07</ele>
        <time>2010-04-25T09:11:22Z</time>
      </trkpt>
      <trkpt lat="46.88368" lon="4.59546">
        <ele>300.07</ele>
        <time>2010-04-25T09:11:23Z</time>
      </trkpt>
      <trkpt lat="46.88356" lon="4.59529">
        <ele>300.07</ele>
        <time>2010-04-25T09:11:29Z</time>
      </trkpt>
      <trkpt lat="46.88342" lon="4.595">
        <ele>300.55</ele>
        <time>2010-04-25T09:11:37Z</time>
      </trkpt>
      <trkpt lat="46.88341" lon="4.59465">
        <ele>301.99</ele>
        <time>2010-04-25T09:11:46Z</time>
      </trkpt>
      <trkpt lat="46.8835" lon="4.59426">
        <ele>302.95</ele>
        <time>2010-04-25T09:11:56Z</time>
      </trkpt>
      <trkpt lat="46.88357" lon="4.59395">
        <ele>302.95</ele>
        <time>2010-04-25T09:12:02Z</time>
      </trkpt>
      <trkpt lat="46.88367" lon="4.59338">
        <ele>301.51</ele>
        <time>2010-04-25T09:12:10Z</time>
      </trkpt>
      <trkpt lat="46.88378" lon="4.59302">
        <ele>300.55</ele>
        <time>2010-04-25T09:12:14Z</time>
      </trkpt>
      <trkpt lat="46.88382" lon="4.59293">
        <ele>300.55</ele>
        <time>2010-04-25T09:12:15Z</time>
      </trkpt>
      <trkpt lat="46.88417" lon="4.59215">
        <ele>300.07</ele>
        <time>2010-04-25T09:12:24Z</time>
      </trkpt>
      <trkpt lat="46.8843" lon="4.59151">
        <ele>300.55</ele>
        <time>2010-04-25T09:12:31Z</time>
      </trkpt>
      <trkpt lat="46.88438" lon="4.59074">
        <ele>299.59</ele>
        <time>2010-04-25T09:12:39Z</time>
      </trkpt>
      <trkpt lat="46.88443" lon="4.58976">
        <ele>297.18</ele>
        <time>2010-04-25T09:12:48Z</time>
      </trkpt>
      <trkpt lat="46.88442" lon="4.58954">
        <ele>297.18</ele>
        <time>2010-04-25T09:12:50Z</time>
      </trkpt>
      <trkpt lat="46.8844" lon="4.58945">
        <ele>296.7</ele>
        <time>2010-04-25T09:12:51Z</time>
      </trkpt>
      <trkpt lat="46.88437" lon="4.58937">
        <ele>297.18</ele>
        <time>2010-04-25T09:12:52Z</time>
      </trkpt>
      <trkpt lat="46.88429" lon="4.58922">
        <ele>295.74</ele>
        <time>2010-04-25T09:12:54Z</time>
      </trkpt>
      <trkpt lat="46.88428" lon="4.58914">
        <ele>295.74</ele>
        <time>2010-04-25T09:12:55Z</time>
      </trkpt>
      <trkpt lat="46.88429" lon="4.58905">
        <ele>295.26</ele>
        <time>2010-04-25T09:12:56Z</time>
      </trkpt>
      <trkpt lat="46.8843" lon="4.58897">
        <ele>295.26</ele>
        <time>2010-04-25T09:12:57Z</time>
      </trkpt>
      <trkpt lat="46.88431" lon="4.58889">
        <ele>295.26</ele>
        <time>2010-04-25T09:12:58Z</time>
      </trkpt>
      <trkpt lat="46.88439" lon="4.58842">
        <ele>292.86</ele>
        <time>2010-04-25T09:13:04Z</time>
      </trkpt>
      <trkpt lat="46.88438" lon="4.58836">
        <ele>292.86</ele>
        <time>2010-04-25T09:13:05Z</time>
      </trkpt>
      <trkpt lat="46.88436" lon="4.5883">
        <ele>292.38</ele>
        <time>2010-04-25T09:13:06Z</time>
      </trkpt>
      <trkpt lat="46.88431" lon="4.58825">
        <ele>291.42</ele>
        <time>2010-04-25T09:13:07Z</time>
      </trkpt>
      <trkpt lat="46.88426" lon="4.5882">
        <ele>290.46</ele>
        <time>2010-04-25T09:13:08Z</time>
      </trkpt>
      <trkpt lat="46.8842" lon="4.58815">
        <ele>289.97</ele>
        <time>2010-04-25T09:13:09Z</time>
      </trkpt>
      <trkpt lat="46.88389" lon="4.58782">
        <ele>287.57</ele>
        <time>2010-04-25T09:13:15Z</time>
      </trkpt>
      <trkpt lat="46.88382" lon="4.58769">
        <ele>286.61</ele>
        <time>2010-04-25T09:13:19Z</time>
      </trkpt>
      <trkpt lat="46.88383" lon="4.58766">
        <ele>286.61</ele>
        <time>2010-04-25T09:13:20Z</time>
      </trkpt>
      <trkpt lat="46.88383" lon="4.58763">
        <ele>286.61</ele>
        <time>2010-04-25T09:13:21Z</time>
      </trkpt>
      <trkpt lat="46.88385" lon="4.58759">
        <ele>286.61</ele>
        <time>2010-04-25T09:13:22Z</time>
      </trkpt>
      <trkpt lat="46.88386" lon="4.58756">
        <ele>286.61</ele>
        <time>2010-04-25T09:13:23Z</time>
      </trkpt>
      <trkpt lat="46.88388" lon="4.58752">
        <ele>287.09</ele>
        <time>2010-04-25T09:13:24Z</time>
      </trkpt>
      <trkpt lat="46.88389" lon="4.58748">
        <ele>286.61</ele>
        <time>2010-04-25T09:13:25Z</time>
      </trkpt>
      <trkpt lat="46.88405" lon="4.58711">
        <ele>288.05</ele>
        <time>2010-04-25T09:13:33Z</time>
      </trkpt>
      <trkpt lat="46.88431" lon="4.58669">
        <ele>289.01</ele>
        <time>2010-04-25T09:13:43Z</time>
      </trkpt>
      <trkpt lat="46.88458" lon="4.58634">
        <ele>290.94</ele>
        <time>2010-04-25T09:13:53Z</time>
      </trkpt>
      <trkpt lat="46.88484" lon="4.58602">
        <ele>292.38</ele>
        <time>2010-04-25T09:14:02Z</time>
      </trkpt>
      <trkpt lat="46.88506" lon="4.58577">
        <ele>293.34</ele>
        <time>2010-04-25T09:14:09Z</time>
      </trkpt>
      <trkpt lat="46.88533" lon="4.58539">
        <ele>294.3</ele>
        <time>2010-04-25T09:14:18Z</time>
      </trkpt>
      <trkpt lat="46.88555" lon="4.58488">
        <ele>294.78</ele>
        <time>2010-04-25T09:14:28Z</time>
      </trkpt>
      <trkpt lat="46.88558" lon="4.58482">
        <ele>294.78</ele>
        <time>2010-04-25T09:14:29Z</time>
      </trkpt>
      <trkpt lat="46.88584" lon="4.58438">
        <ele>295.26</ele>
        <time>2010-04-25T09:14:38Z</time>
      </trkpt>
      <trkpt lat="46.88613" lon="4.584">
        <ele>296.7</ele>
        <time>2010-04-25T09:14:47Z</time>
      </trkpt>
      <trkpt lat="46.88638" lon="4.58378">
        <ele>298.15</ele>
        <time>2010-04-25T09:14:55Z</time>
      </trkpt>
      <trkpt lat="46.88665" lon="4.58356">
        <ele>300.07</ele>
        <time>2010-04-25T09:15:05Z</time>
      </trkpt>
      <trkpt lat="46.88687" lon="4.58336">
        <ele>301.99</ele>
        <time>2010-04-25T09:15:15Z</time>
      </trkpt>
      <trkpt lat="46.88703" lon="4.58313">
        <ele>303.43</ele>
        <time>2010-04-25T09:15:24Z</time>
      </trkpt>
      <trkpt lat="46.88717" lon="4.58298">
        <ele>304.39</ele>
        <time>2010-04-25T09:15:31Z</time>
      </trkpt>
      <trkpt lat="46.88727" lon="4.58287">
        <ele>305.84</ele>
        <time>2010-04-25T09:15:38Z</time>
      </trkpt>
      <trkpt lat="46.88734" lon="4.58276">
        <ele>307.28</ele>
        <time>2010-04-25T09:15:46Z</time>
      </trkpt>
      <trkpt lat="46.88738" lon="4.58263">
        <ele>308.24</ele>
        <time>2010-04-25T09:15:53Z</time>
      </trkpt>
      <trkpt lat="46.88741" lon="4.58246">
        <ele>309.68</ele>
        <time>2010-04-25T09:16:01Z</time>
      </trkpt>
      <trkpt lat="46.88743" lon="4.58231">
        <ele>311.12</ele>
        <time>2010-04-25T09:16:09Z</time>
      </trkpt>
      <trkpt lat="46.88747" lon="4.58217">
        <ele>312.57</ele>
        <time>2010-04-25T09:16:17Z</time>
      </trkpt>
      <trkpt lat="46.88747" lon="4.582">
        <ele>314.49</ele>
        <time>2010-04-25T09:16:25Z</time>
      </trkpt>
      <trkpt lat="46.88748" lon="4.58197">
        <ele>314.49</ele>
        <time>2010-04-25T09:16:27Z</time>
      </trkpt>
      <trkpt lat="46.88749" lon="4.58195">
        <ele>314.97</ele>
        <time>2010-04-25T09:16:28Z</time>
      </trkpt>
      <trkpt lat="46.8875" lon="4.58179">
        <ele>316.89</ele>
        <time>2010-04-25T09:16:37Z</time>
      </trkpt>
      <trkpt lat="46.8875" lon="4.58177">
        <ele>317.37</ele>
        <time>2010-04-25T09:16:38Z</time>
      </trkpt>
      <trkpt lat="46.88751" lon="4.58175">
        <ele>316.89</ele>
        <time>2010-04-25T09:16:39Z</time>
      </trkpt>
      <trkpt lat="46.8875" lon="4.58155">
        <ele>318.33</ele>
        <time>2010-04-25T09:16:48Z</time>
      </trkpt>
      <trkpt lat="46.88749" lon="4.58135">
        <ele>319.78</ele>
        <time>2010-04-25T09:16:58Z</time>
      </trkpt>
      <trkpt lat="46.88751" lon="4.5812">
        <ele>322.18</ele>
        <time>2010-04-25T09:17:06Z</time>
      </trkpt>
      <trkpt lat="46.88759" lon="4.58106">
        <ele>324.1</ele>
        <time>2010-04-25T09:17:16Z</time>
      </trkpt>
      <trkpt lat="46.8877" lon="4.58097">
        <ele>325.06</ele>
        <time>2010-04-25T09:17:25Z</time>
      </trkpt>
      <trkpt lat="46.88782" lon="4.58094">
        <ele>326.5</ele>
        <time>2010-04-25T09:17:33Z</time>
      </trkpt>
      <trkpt lat="46.88784" lon="4.58094">
        <ele>326.5</ele>
        <time>2010-04-25T09:17:35Z</time>
      </trkpt>
      <trkpt lat="46.88786" lon="4.58095">
        <ele>326.99</ele>
        <time>2010-04-25T09:17:36Z</time>
      </trkpt>
      <trkpt lat="46.88787" lon="4.58095">
        <ele>327.47</ele>
        <time>2010-04-25T09:17:37Z</time>
      </trkpt>
      <trkpt lat="46.88788" lon="4.58095">
        <ele>327.47</ele>
        <time>2010-04-25T09:17:38Z</time>
      </trkpt>
      <trkpt lat="46.8879" lon="4.58095">
        <ele>327.95</ele>
        <time>2010-04-25T09:17:39Z</time>
      </trkpt>
      <trkpt lat="46.88791" lon="4.58096">
        <ele>327.95</ele>
        <time>2010-04-25T09:17:40Z</time>
      </trkpt>
      <trkpt lat="46.88793" lon="4.58096">
        <ele>327.95</ele>
        <time>2010-04-25T09:17:41Z</time>
      </trkpt>
      <trkpt lat="46.88799" lon="4.58098">
        <ele>329.39</ele>
        <time>2010-04-25T09:17:47Z</time>
      </trkpt>
      <trkpt lat="46.888" lon="4.58098">
        <ele>329.39</ele>
        <time>2010-04-25T09:17:48Z</time>
      </trkpt>
      <trkpt lat="46.88803" lon="4.58098">
        <ele>329.87</ele>
        <time>2010-04-25T09:17:51Z</time>
      </trkpt>
      <trkpt lat="46.88805" lon="4.58098">
        <ele>330.35</ele>
        <time>2010-04-25T09:17:52Z</time>
      </trkpt>
      <trkpt lat="46.88818" lon="4.581">
        <ele>331.31</ele>
        <time>2010-04-25T09:18:02Z</time>
      </trkpt>
      <trkpt lat="46.88826" lon="4.58097">
        <ele>332.75</ele>
        <time>2010-04-25T09:18:09Z</time>
      </trkpt>
      <trkpt lat="46.88836" lon="4.58095">
        <ele>333.71</ele>
        <time>2010-04-25T09:18:16Z</time>
      </trkpt>
      <trkpt lat="46.88847" lon="4.58094">
        <ele>335.16</ele>
        <time>2010-04-25T09:18:24Z</time>
      </trkpt>
      <trkpt lat="46.88857" lon="4.5809">
        <ele>336.6</ele>
        <time>2010-04-25T09:18:32Z</time>
      </trkpt>
      <trkpt lat="46.88868" lon="4.5808">
        <ele>337.56</ele>
        <time>2010-04-25T09:18:40Z</time>
      </trkpt>
      <trkpt lat="46.88874" lon="4.58071">
        <ele>339</ele>
        <time>2010-04-25T09:18:46Z</time>
      </trkpt>
      <trkpt lat="46.88875" lon="4.5807">
        <ele>339.48</ele>
        <time>2010-04-25T09:18:47Z</time>
      </trkpt>
      <trkpt lat="46.88876" lon="4.58068">
        <ele>339.48</ele>
        <time>2010-04-25T09:18:48Z</time>
      </trkpt>
      <trkpt lat="46.88881" lon="4.58059">
        <ele>340.44</ele>
        <time>2010-04-25T09:18:54Z</time>
      </trkpt>
      <trkpt lat="46.88882" lon="4.58057">
        <ele>340.92</ele>
        <time>2010-04-25T09:18:55Z</time>
      </trkpt>
      <trkpt lat="46.88883" lon="4.58053">
        <ele>341.89</ele>
        <time>2010-04-25T09:18:57Z</time>
      </trkpt>
      <trkpt lat="46.88889" lon="4.58031">
        <ele>342.85</ele>
        <time>2010-04-25T09:19:08Z</time>
      </trkpt>
      <trkpt lat="46.88897" lon="4.58011">
        <ele>344.29</ele>
        <time>2010-04-25T09:19:17Z</time>
      </trkpt>
      <trkpt lat="46.88905" lon="4.57989">
        <ele>344.77</ele>
        <time>2010-04-25T09:19:26Z</time>
      </trkpt>
      <trkpt lat="46.88916" lon="4.57961">
        <ele>344.29</ele>
        <time>2010-04-25T09:19:34Z</time>
      </trkpt>
      <trkpt lat="46.8893" lon="4.57927">
        <ele>343.81</ele>
        <time>2010-04-25T09:19:42Z</time>
      </trkpt>
      <trkpt lat="46.88933" lon="4.57917">
        <ele>343.33</ele>
        <time>2010-04-25T09:19:44Z</time>
      </trkpt>
      <trkpt lat="46.88939" lon="4.57897">
        <ele>343.33</ele>
        <time>2010-04-25T09:19:47Z</time>
      </trkpt>
      <trkpt lat="46.88942" lon="4.57883">
        <ele>342.85</ele>
        <time>2010-04-25T09:19:49Z</time>
      </trkpt>
      <trkpt lat="46.88943" lon="4.57874">
        <ele>341.89</ele>
        <time>2010-04-25T09:19:50Z</time>
      </trkpt>
      <trkpt lat="46.88943" lon="4.57858">
        <ele>341.89</ele>
        <time>2010-04-25T09:19:52Z</time>
      </trkpt>
      <trkpt lat="46.88942" lon="4.5785">
        <ele>341.89</ele>
        <time>2010-04-25T09:19:53Z</time>
      </trkpt>
      <trkpt lat="46.88941" lon="4.57842">
        <ele>341.89</ele>
        <time>2010-04-25T09:19:54Z</time>
      </trkpt>
      <trkpt lat="46.88933" lon="4.5781">
        <ele>340.92</ele>
        <time>2010-04-25T09:19:58Z</time>
      </trkpt>
      <trkpt lat="46.8893" lon="4.57804">
        <ele>340.44</ele>
        <time>2010-04-25T09:19:59Z</time>
      </trkpt>
      <trkpt lat="46.88922" lon="4.57785">
        <ele>339</ele>
        <time>2010-04-25T09:20:03Z</time>
      </trkpt>
      <trkpt lat="46.88919" lon="4.57783">
        <ele>339</ele>
        <time>2010-04-25T09:20:04Z</time>
      </trkpt>
      <trkpt lat="46.88917" lon="4.57782">
        <ele>338.52</ele>
        <time>2010-04-25T09:20:05Z</time>
      </trkpt>
      <trkpt lat="46.88915" lon="4.57782">
        <ele>338.52</ele>
        <time>2010-04-25T09:20:06Z</time>
      </trkpt>
      <trkpt lat="46.88913" lon="4.57782">
        <ele>338.52</ele>
        <time>2010-04-25T09:20:07Z</time>
      </trkpt>
      <trkpt lat="46.8891" lon="4.57781">
        <ele>338.04</ele>
        <time>2010-04-25T09:20:11Z</time>
      </trkpt>
      <trkpt lat="46.88908" lon="4.57782">
        <ele>338.52</ele>
        <time>2010-04-25T09:20:13Z</time>
      </trkpt>
      <trkpt lat="46.88907" lon="4.57784">
        <ele>338.04</ele>
        <time>2010-04-25T09:20:14Z</time>
      </trkpt>
      <trkpt lat="46.88907" lon="4.57783">
        <ele>338.52</ele>
        <time>2010-04-25T09:20:19Z</time>
      </trkpt>
      <trkpt lat="46.88906" lon="4.57781">
        <ele>338.04</ele>
        <time>2010-04-25T09:20:21Z</time>
      </trkpt>
      <trkpt lat="46.88904" lon="4.57779">
        <ele>338.04</ele>
        <time>2010-04-25T09:20:24Z</time>
      </trkpt>
      <trkpt lat="46.88904" lon="4.57778">
        <ele>337.56</ele>
        <time>2010-04-25T09:20:28Z</time>
      </trkpt>
      <trkpt lat="46.88904" lon="4.57778">
        <ele>337.56</ele>
        <time>2010-04-25T09:21:33Z</time>
      </trkpt>
      <trkpt lat="46.88904" lon="4.57778">
        <ele>337.56</ele>
        <time>2010-04-25T09:21:49Z</time>
      </trkpt>
      <trkpt lat="46.88904" lon="4.57778">
        <ele>337.08</ele>
        <time>2010-04-25T09:22:05Z</time>
      </trkpt>
      <trkpt lat="46.88904" lon="4.57778">
        <ele>337.08</ele>
        <time>2010-04-25T09:22:29Z</time>
      </trkpt>
      <trkpt lat="46.88904" lon="4.57778">
        <ele>337.56</ele>
        <time>2010-04-25T09:22:48Z</time>
      </trkpt>
      <trkpt lat="46.88904" lon="4.57778">
        <ele>337.08</ele>
        <time>2010-04-25T09:23:20Z</time>
      </trkpt>
      <trkpt lat="46.88904" lon="4.57776">
        <ele>337.56</ele>
        <time>2010-04-25T09:24:48Z</time>
      </trkpt>
      <trkpt lat="46.88904" lon="4.57776">
        <ele>338.04</ele>
        <time>2010-04-25T09:25:54Z</time>
      </trkpt>
      <trkpt lat="46.88905" lon="4.57774">
        <ele>339</ele>
        <time>2010-04-25T09:27:29Z</time>
      </trkpt>
      <trkpt lat="46.88908" lon="4.57778">
        <ele>339</ele>
        <time>2010-04-25T09:27:37Z</time>
      </trkpt>
      <trkpt lat="46.8891" lon="4.57779">
        <ele>339</ele>
        <time>2010-04-25T09:27:45Z</time>
      </trkpt>
      <trkpt lat="46.8891" lon="4.57779">
        <ele>339</ele>
        <time>2010-04-25T09:28:05Z</time>
      </trkpt>
      <trkpt lat="46.88909" lon="4.5778">
        <ele>339</ele>
        <time>2010-04-25T09:28:15Z</time>
      </trkpt>
      <trkpt lat="46.88908" lon="4.57778">
        <ele>339</ele>
        <time>2010-04-25T09:28:21Z</time>
      </trkpt>
      <trkpt lat="46.88908" lon="4.57778">
        <ele>339</ele>
        <time>2010-04-25T09:28:30Z</time>
      </trkpt>
      <trkpt lat="46.88907" lon="4.57778">
        <ele>338.52</ele>
        <time>2010-04-25T09:28:31Z</time>
      </trkpt>
      <trkpt lat="46.88906" lon="4.57776">
        <ele>339</ele>
        <time>2010-04-25T09:28:32Z</time>
      </trkpt>
      <trkpt lat="46.88903" lon="4.57772">
        <ele>339</ele>
        <time>2010-04-25T09:28:35Z</time>
      </trkpt>
      <trkpt lat="46.88902" lon="4.5777">
        <ele>338.52</ele>
        <time>2010-04-25T09:28:36Z</time>
      </trkpt>
      <trkpt lat="46.88901" lon="4.57768">
        <ele>338.52</ele>
        <time>2010-04-25T09:28:37Z</time>
      </trkpt>
      <trkpt lat="46.88889" lon="4.57754">
        <ele>338.52</ele>
        <time>2010-04-25T09:28:45Z</time>
      </trkpt>
      <trkpt lat="46.88874" lon="4.57737">
        <ele>338.52</ele>
        <time>2010-04-25T09:28:53Z</time>
      </trkpt>
      <trkpt lat="46.88867" lon="4.57718">
        <ele>339.48</ele>
        <time>2010-04-25T09:28:59Z</time>
      </trkpt>
      <trkpt lat="46.88866" lon="4.57714">
        <ele>339.96</ele>
        <time>2010-04-25T09:29:00Z</time>
      </trkpt>
      <trkpt lat="46.8886" lon="4.57687">
        <ele>340.44</ele>
        <time>2010-04-25T09:29:08Z</time>
      </trkpt>
      <trkpt lat="46.88854" lon="4.57653">
        <ele>340.92</ele>
        <time>2010-04-25T09:29:17Z</time>
      </trkpt>
      <trkpt lat="46.88843" lon="4.57605">
        <ele>341.41</ele>
        <time>2010-04-25T09:29:28Z</time>
      </trkpt>
      <trkpt lat="46.88842" lon="4.57585">
        <ele>341.89</ele>
        <time>2010-04-25T09:29:33Z</time>
      </trkpt>
      <trkpt lat="46.88854" lon="4.57565">
        <ele>341.41</ele>
        <time>2010-04-25T09:29:39Z</time>
      </trkpt>
      <trkpt lat="46.88863" lon="4.57565">
        <ele>342.37</ele>
        <time>2010-04-25T09:29:42Z</time>
      </trkpt>
      <trkpt lat="46.88879" lon="4.5758">
        <ele>342.37</ele>
        <time>2010-04-25T09:29:48Z</time>
      </trkpt>
      <trkpt lat="46.88897" lon="4.57596">
        <ele>343.81</ele>
        <time>2010-04-25T09:29:55Z</time>
      </trkpt>
      <trkpt lat="46.88923" lon="4.57606">
        <ele>344.29</ele>
        <time>2010-04-25T09:30:03Z</time>
      </trkpt>
      <trkpt lat="46.88945" lon="4.57608">
        <ele>345.73</ele>
        <time>2010-04-25T09:30:11Z</time>
      </trkpt>
      <trkpt lat="46.88946" lon="4.57604">
        <ele>346.21</ele>
        <time>2010-04-25T09:30:12Z</time>
      </trkpt>
      <trkpt lat="46.88947" lon="4.576">
        <ele>346.21</ele>
        <time>2010-04-25T09:30:13Z</time>
      </trkpt>
      <trkpt lat="46.88953" lon="4.57563">
        <ele>346.69</ele>
        <time>2010-04-25T09:30:21Z</time>
      </trkpt>
      <trkpt lat="46.88953" lon="4.5754">
        <ele>346.69</ele>
        <time>2010-04-25T09:30:26Z</time>
      </trkpt>
      <trkpt lat="46.88956" lon="4.57511">
        <ele>347.65</ele>
        <time>2010-04-25T09:30:32Z</time>
      </trkpt>
      <trkpt lat="46.8896" lon="4.57483">
        <ele>348.13</ele>
        <time>2010-04-25T09:30:38Z</time>
      </trkpt>
      <trkpt lat="46.88966" lon="4.57451">
        <ele>348.62</ele>
        <time>2010-04-25T09:30:45Z</time>
      </trkpt>
      <trkpt lat="46.88967" lon="4.57424">
        <ele>349.1</ele>
        <time>2010-04-25T09:30:50Z</time>
      </trkpt>
      <trkpt lat="46.88968" lon="4.57384">
        <ele>348.62</ele>
        <time>2010-04-25T09:30:56Z</time>
      </trkpt>
      <trkpt lat="46.8897" lon="4.5734">
        <ele>349.1</ele>
        <time>2010-04-25T09:31:03Z</time>
      </trkpt>
      <trkpt lat="46.8897" lon="4.57334">
        <ele>349.58</ele>
        <time>2010-04-25T09:31:04Z</time>
      </trkpt>
      <trkpt lat="46.8897" lon="4.57328">
        <ele>349.58</ele>
        <time>2010-04-25T09:31:05Z</time>
      </trkpt>
      <trkpt lat="46.88972" lon="4.57324">
        <ele>349.1</ele>
        <time>2010-04-25T09:31:06Z</time>
      </trkpt>
      <trkpt lat="46.88973" lon="4.5732">
        <ele>349.58</ele>
        <time>2010-04-25T09:31:07Z</time>
      </trkpt>
      <trkpt lat="46.88974" lon="4.57315">
        <ele>349.58</ele>
        <time>2010-04-25T09:31:08Z</time>
      </trkpt>
      <trkpt lat="46.88976" lon="4.57311">
        <ele>350.06</ele>
        <time>2010-04-25T09:31:09Z</time>
      </trkpt>
      <trkpt lat="46.88977" lon="4.57307">
        <ele>349.58</ele>
        <time>2010-04-25T09:31:10Z</time>
      </trkpt>
      <trkpt lat="46.88978" lon="4.57301">
        <ele>349.58</ele>
        <time>2010-04-25T09:31:11Z</time>
      </trkpt>
      <trkpt lat="46.88978" lon="4.57296">
        <ele>350.06</ele>
        <time>2010-04-25T09:31:12Z</time>
      </trkpt>
      <trkpt lat="46.88978" lon="4.57292">
        <ele>350.06</ele>
        <time>2010-04-25T09:31:13Z</time>
      </trkpt>
      <trkpt lat="46.88978" lon="4.57287">
        <ele>350.54</ele>
        <time>2010-04-25T09:31:14Z</time>
      </trkpt>
      <trkpt lat="46.88977" lon="4.57282">
        <ele>350.06</ele>
        <time>2010-04-25T09:31:15Z</time>
      </trkpt>
      <trkpt lat="46.88974" lon="4.57279">
        <ele>350.06</ele>
        <time>2010-04-25T09:31:16Z</time>
      </trkpt>
      <trkpt lat="46.88971" lon="4.57275">
        <ele>350.06</ele>
        <time>2010-04-25T09:31:17Z</time>
      </trkpt>
      <trkpt lat="46.88967" lon="4.57273">
        <ele>349.58</ele>
        <time>2010-04-25T09:31:18Z</time>
      </trkpt>
      <trkpt lat="46.88962" lon="4.57272">
        <ele>349.1</ele>
        <time>2010-04-25T09:31:19Z</time>
      </trkpt>
      <trkpt lat="46.88958" lon="4.57273">
        <ele>348.62</ele>
        <time>2010-04-25T09:31:20Z</time>
      </trkpt>
      <trkpt lat="46.88953" lon="4.57273">
        <ele>348.62</ele>
        <time>2010-04-25T09:31:21Z</time>
      </trkpt>
      <trkpt lat="46.88905" lon="4.57278">
        <ele>346.21</ele>
        <time>2010-04-25T09:31:29Z</time>
      </trkpt>
      <trkpt lat="46.88864" lon="4.57283">
        <ele>343.81</ele>
        <time>2010-04-25T09:31:35Z</time>
      </trkpt>
      <trkpt lat="46.88857" lon="4.57284">
        <ele>343.33</ele>
        <time>2010-04-25T09:31:36Z</time>
      </trkpt>
      <trkpt lat="46.8885" lon="4.57285">
        <ele>343.33</ele>
        <time>2010-04-25T09:31:37Z</time>
      </trkpt>
      <trkpt lat="46.88808" lon="4.57289">
        <ele>340.92</ele>
        <time>2010-04-25T09:31:43Z</time>
      </trkpt>
      <trkpt lat="46.88762" lon="4.57295">
        <ele>338.04</ele>
        <time>2010-04-25T09:31:49Z</time>
      </trkpt>
      <trkpt lat="46.88718" lon="4.573">
        <ele>336.6</ele>
        <time>2010-04-25T09:31:55Z</time>
      </trkpt>
      <trkpt lat="46.88711" lon="4.57299">
        <ele>336.6</ele>
        <time>2010-04-25T09:31:56Z</time>
      </trkpt>
      <trkpt lat="46.88705" lon="4.57297">
        <ele>336.6</ele>
        <time>2010-04-25T09:31:57Z</time>
      </trkpt>
      <trkpt lat="46.88699" lon="4.57294">
        <ele>337.08</ele>
        <time>2010-04-25T09:31:58Z</time>
      </trkpt>
      <trkpt lat="46.88695" lon="4.57291">
        <ele>337.08</ele>
        <time>2010-04-25T09:31:59Z</time>
      </trkpt>
      <trkpt lat="46.88691" lon="4.57288">
        <ele>337.08</ele>
        <time>2010-04-25T09:32:00Z</time>
      </trkpt>
      <trkpt lat="46.88669" lon="4.57263">
        <ele>338.52</ele>
        <time>2010-04-25T09:32:07Z</time>
      </trkpt>
      <trkpt lat="46.8866" lon="4.57228">
        <ele>339.48</ele>
        <time>2010-04-25T09:32:14Z</time>
      </trkpt>
      <trkpt lat="46.88662" lon="4.57168">
        <ele>340.44</ele>
        <time>2010-04-25T09:32:25Z</time>
      </trkpt>
      <trkpt lat="46.88671" lon="4.57129">
        <ele>342.37</ele>
        <time>2010-04-25T09:32:33Z</time>
      </trkpt>
      <trkpt lat="46.88686" lon="4.57104">
        <ele>342.37</ele>
        <time>2010-04-25T09:32:40Z</time>
      </trkpt>
      <trkpt lat="46.88703" lon="4.5707">
        <ele>344.29</ele>
        <time>2010-04-25T09:32:49Z</time>
      </trkpt>
      <trkpt lat="46.88711" lon="4.57032">
        <ele>345.73</ele>
        <time>2010-04-25T09:32:58Z</time>
      </trkpt>
      <trkpt lat="46.88705" lon="4.57012">
        <ele>346.21</ele>
        <time>2010-04-25T09:33:04Z</time>
      </trkpt>
      <trkpt lat="46.88688" lon="4.56999">
        <ele>348.13</ele>
        <time>2010-04-25T09:33:12Z</time>
      </trkpt>
      <trkpt lat="46.88675" lon="4.5698">
        <ele>349.58</ele>
        <time>2010-04-25T09:33:21Z</time>
      </trkpt>
      <trkpt lat="46.88665" lon="4.56955">
        <ele>350.06</ele>
        <time>2010-04-25T09:33:29Z</time>
      </trkpt>
      <trkpt lat="46.88654" lon="4.56929">
        <ele>350.54</ele>
        <time>2010-04-25T09:33:37Z</time>
      </trkpt>
      <trkpt lat="46.88642" lon="4.56902">
        <ele>351.5</ele>
        <time>2010-04-25T09:33:45Z</time>
      </trkpt>
      <trkpt lat="46.88631" lon="4.56868">
        <ele>352.46</ele>
        <time>2010-04-25T09:33:55Z</time>
      </trkpt>
      <trkpt lat="46.88623" lon="4.56831">
        <ele>353.9</ele>
        <time>2010-04-25T09:34:05Z</time>
      </trkpt>
      <trkpt lat="46.88618" lon="4.56806">
        <ele>354.38</ele>
        <time>2010-04-25T09:34:12Z</time>
      </trkpt>
      <trkpt lat="46.88613" lon="4.56779">
        <ele>355.34</ele>
        <time>2010-04-25T09:34:19Z</time>
      </trkpt>
      <trkpt lat="46.88609" lon="4.56746">
        <ele>356.31</ele>
        <time>2010-04-25T09:34:28Z</time>
      </trkpt>
      <trkpt lat="46.88602" lon="4.56714">
        <ele>357.75</ele>
        <time>2010-04-25T09:34:37Z</time>
      </trkpt>
      <trkpt lat="46.88593" lon="4.56689">
        <ele>359.67</ele>
        <time>2010-04-25T09:34:46Z</time>
      </trkpt>
      <trkpt lat="46.88586" lon="4.56669">
        <ele>361.11</ele>
        <time>2010-04-25T09:34:54Z</time>
      </trkpt>
      <trkpt lat="46.88579" lon="4.56648">
        <ele>363.04</ele>
        <time>2010-04-25T09:35:02Z</time>
      </trkpt>
      <trkpt lat="46.88574" lon="4.56627">
        <ele>364.48</ele>
        <time>2010-04-25T09:35:11Z</time>
      </trkpt>
      <trkpt lat="46.88569" lon="4.56604">
        <ele>366.4</ele>
        <time>2010-04-25T09:35:21Z</time>
      </trkpt>
      <trkpt lat="46.88564" lon="4.56581">
        <ele>367.36</ele>
        <time>2010-04-25T09:35:31Z</time>
      </trkpt>
      <trkpt lat="46.88558" lon="4.56561">
        <ele>368.32</ele>
        <time>2010-04-25T09:35:39Z</time>
      </trkpt>
      <trkpt lat="46.88553" lon="4.56542">
        <ele>369.28</ele>
        <time>2010-04-25T09:35:47Z</time>
      </trkpt>
      <trkpt lat="46.88547" lon="4.56519">
        <ele>370.73</ele>
        <time>2010-04-25T09:35:56Z</time>
      </trkpt>
      <trkpt lat="46.88542" lon="4.56503">
        <ele>371.21</ele>
        <time>2010-04-25T09:36:03Z</time>
      </trkpt>
      <trkpt lat="46.88535" lon="4.56483">
        <ele>372.65</ele>
        <time>2010-04-25T09:36:12Z</time>
      </trkpt>
      <trkpt lat="46.88529" lon="4.56463">
        <ele>374.09</ele>
        <time>2010-04-25T09:36:21Z</time>
      </trkpt>
      <trkpt lat="46.88528" lon="4.56461">
        <ele>374.57</ele>
        <time>2010-04-25T09:36:22Z</time>
      </trkpt>
      <trkpt lat="46.88527" lon="4.56459">
        <ele>374.57</ele>
        <time>2010-04-25T09:36:23Z</time>
      </trkpt>
      <trkpt lat="46.88526" lon="4.56457">
        <ele>374.09</ele>
        <time>2010-04-25T09:36:24Z</time>
      </trkpt>
      <trkpt lat="46.88525" lon="4.56455">
        <ele>374.57</ele>
        <time>2010-04-25T09:36:25Z</time>
      </trkpt>
      <trkpt lat="46.8852" lon="4.5644">
        <ele>376.01</ele>
        <time>2010-04-25T09:36:33Z</time>
      </trkpt>
      <trkpt lat="46.88519" lon="4.56438">
        <ele>376.01</ele>
        <time>2010-04-25T09:36:34Z</time>
      </trkpt>
      <trkpt lat="46.88518" lon="4.56437">
        <ele>376.49</ele>
        <time>2010-04-25T09:36:35Z</time>
      </trkpt>
      <trkpt lat="46.88517" lon="4.56434">
        <ele>376.49</ele>
        <time>2010-04-25T09:36:36Z</time>
      </trkpt>
      <trkpt lat="46.88516" lon="4.56432">
        <ele>376.49</ele>
        <time>2010-04-25T09:36:37Z</time>
      </trkpt>
      <trkpt lat="46.88516" lon="4.5643">
        <ele>376.49</ele>
        <time>2010-04-25T09:36:38Z</time>
      </trkpt>
      <trkpt lat="46.88515" lon="4.56427">
        <ele>376.97</ele>
        <time>2010-04-25T09:36:39Z</time>
      </trkpt>
      <trkpt lat="46.88515" lon="4.56425">
        <ele>376.49</ele>
        <time>2010-04-25T09:36:40Z</time>
      </trkpt>
      <trkpt lat="46.88514" lon="4.56419">
        <ele>377.94</ele>
        <time>2010-04-25T09:36:43Z</time>
      </trkpt>
      <trkpt lat="46.88513" lon="4.56417">
        <ele>377.45</ele>
        <time>2010-04-25T09:36:44Z</time>
      </trkpt>
      <trkpt lat="46.88512" lon="4.56415">
        <ele>377.94</ele>
        <time>2010-04-25T09:36:45Z</time>
      </trkpt>
      <trkpt lat="46.88511" lon="4.56413">
        <ele>377.45</ele>
        <time>2010-04-25T09:36:46Z</time>
      </trkpt>
      <trkpt lat="46.88511" lon="4.56411">
        <ele>377.94</ele>
        <time>2010-04-25T09:36:47Z</time>
      </trkpt>
      <trkpt lat="46.8851" lon="4.56409">
        <ele>378.42</ele>
        <time>2010-04-25T09:36:48Z</time>
      </trkpt>
      <trkpt lat="46.88509" lon="4.56407">
        <ele>378.42</ele>
        <time>2010-04-25T09:36:49Z</time>
      </trkpt>
      <trkpt lat="46.88505" lon="4.56392">
        <ele>379.38</ele>
        <time>2010-04-25T09:36:57Z</time>
      </trkpt>
      <trkpt lat="46.88505" lon="4.5639">
        <ele>379.38</ele>
        <time>2010-04-25T09:36:58Z</time>
      </trkpt>
      <trkpt lat="46.88505" lon="4.56388">
        <ele>379.86</ele>
        <time>2010-04-25T09:36:59Z</time>
      </trkpt>
      <trkpt lat="46.88505" lon="4.56385">
        <ele>380.34</ele>
        <time>2010-04-25T09:37:00Z</time>
      </trkpt>
      <trkpt lat="46.88505" lon="4.56383">
        <ele>380.34</ele>
        <time>2010-04-25T09:37:01Z</time>
      </trkpt>
      <trkpt lat="46.88505" lon="4.5638">
        <ele>380.34</ele>
        <time>2010-04-25T09:37:02Z</time>
      </trkpt>
      <trkpt lat="46.88505" lon="4.56378">
        <ele>380.34</ele>
        <time>2010-04-25T09:37:03Z</time>
      </trkpt>
      <trkpt lat="46.88505" lon="4.56376">
        <ele>380.82</ele>
        <time>2010-04-25T09:37:04Z</time>
      </trkpt>
      <trkpt lat="46.88503" lon="4.5636">
        <ele>381.78</ele>
        <time>2010-04-25T09:37:11Z</time>
      </trkpt>
      <trkpt lat="46.88502" lon="4.56356">
        <ele>382.26</ele>
        <time>2010-04-25T09:37:13Z</time>
      </trkpt>
      <trkpt lat="46.88502" lon="4.56354">
        <ele>381.78</ele>
        <time>2010-04-25T09:37:14Z</time>
      </trkpt>
      <trkpt lat="46.88502" lon="4.56352">
        <ele>382.26</ele>
        <time>2010-04-25T09:37:15Z</time>
      </trkpt>
      <trkpt lat="46.88502" lon="4.5635">
        <ele>382.26</ele>
        <time>2010-04-25T09:37:16Z</time>
      </trkpt>
      <trkpt lat="46.88502" lon="4.56348">
        <ele>382.74</ele>
        <time>2010-04-25T09:37:17Z</time>
      </trkpt>
      <trkpt lat="46.88501" lon="4.56346">
        <ele>382.74</ele>
        <time>2010-04-25T09:37:18Z</time>
      </trkpt>
      <trkpt lat="46.88499" lon="4.56339">
        <ele>383.22</ele>
        <time>2010-04-25T09:37:22Z</time>
      </trkpt>
      <trkpt lat="46.88499" lon="4.56338">
        <ele>383.7</ele>
        <time>2010-04-25T09:37:23Z</time>
      </trkpt>
      <trkpt lat="46.88498" lon="4.56336">
        <ele>383.7</ele>
        <time>2010-04-25T09:37:24Z</time>
      </trkpt>
      <trkpt lat="46.88498" lon="4.56334">
        <ele>383.7</ele>
        <time>2010-04-25T09:37:25Z</time>
      </trkpt>
      <trkpt lat="46.88497" lon="4.56332">
        <ele>384.18</ele>
        <time>2010-04-25T09:37:26Z</time>
      </trkpt>
      <trkpt lat="46.88497" lon="4.5633">
        <ele>384.18</ele>
        <time>2010-04-25T09:37:27Z</time>
      </trkpt>
      <trkpt lat="46.88496" lon="4.56328">
        <ele>384.66</ele>
        <time>2010-04-25T09:37:28Z</time>
      </trkpt>
      <trkpt lat="46.88496" lon="4.56326">
        <ele>384.66</ele>
        <time>2010-04-25T09:37:29Z</time>
      </trkpt>
      <trkpt lat="46.88495" lon="4.56324">
        <ele>384.66</ele>
        <time>2010-04-25T09:37:30Z</time>
      </trkpt>
      <trkpt lat="46.88495" lon="4.56322">
        <ele>385.63</ele>
        <time>2010-04-25T09:37:31Z</time>
      </trkpt>
      <trkpt lat="46.88495" lon="4.56319">
        <ele>385.63</ele>
        <time>2010-04-25T09:37:33Z</time>
      </trkpt>
      <trkpt lat="46.88496" lon="4.56305">
        <ele>386.59</ele>
        <time>2010-04-25T09:37:40Z</time>
      </trkpt>
      <trkpt lat="46.88494" lon="4.5629">
        <ele>388.03</ele>
        <time>2010-04-25T09:37:47Z</time>
      </trkpt>
      <trkpt lat="46.88494" lon="4.56283">
        <ele>388.51</ele>
        <time>2010-04-25T09:37:50Z</time>
      </trkpt>
      <trkpt lat="46.88493" lon="4.56267">
        <ele>390.43</ele>
        <time>2010-04-25T09:37:59Z</time>
      </trkpt>
      <trkpt lat="46.88489" lon="4.56251">
        <ele>392.36</ele>
        <time>2010-04-25T09:38:08Z</time>
      </trkpt>
      <trkpt lat="46.88488" lon="4.56249">
        <ele>392.36</ele>
        <time>2010-04-25T09:38:09Z</time>
      </trkpt>
      <trkpt lat="46.88486" lon="4.56246">
        <ele>392.36</ele>
        <time>2010-04-25T09:38:11Z</time>
      </trkpt>
      <trkpt lat="46.8848" lon="4.56238">
        <ele>393.32</ele>
        <time>2010-04-25T09:38:16Z</time>
      </trkpt>
      <trkpt lat="46.88479" lon="4.56236">
        <ele>393.8</ele>
        <time>2010-04-25T09:38:17Z</time>
      </trkpt>
      <trkpt lat="46.88477" lon="4.56235">
        <ele>393.32</ele>
        <time>2010-04-25T09:38:18Z</time>
      </trkpt>
      <trkpt lat="46.88477" lon="4.56233">
        <ele>394.28</ele>
        <time>2010-04-25T09:38:19Z</time>
      </trkpt>
      <trkpt lat="46.88473" lon="4.56228">
        <ele>394.28</ele>
        <time>2010-04-25T09:38:23Z</time>
      </trkpt>
      <trkpt lat="46.88472" lon="4.56227">
        <ele>395.24</ele>
        <time>2010-04-25T09:38:24Z</time>
      </trkpt>
      <trkpt lat="46.88461" lon="4.56222">
        <ele>396.68</ele>
        <time>2010-04-25T09:38:33Z</time>
      </trkpt>
      <trkpt lat="46.88456" lon="4.5622">
        <ele>398.12</ele>
        <time>2010-04-25T09:38:39Z</time>
      </trkpt>
      <trkpt lat="46.88447" lon="4.56221">
        <ele>399.08</ele>
        <time>2010-04-25T09:38:46Z</time>
      </trkpt>
      <trkpt lat="46.88446" lon="4.56221">
        <ele>399.57</ele>
        <time>2010-04-25T09:38:47Z</time>
      </trkpt>
      <trkpt lat="46.88444" lon="4.56222">
        <ele>399.57</ele>
        <time>2010-04-25T09:38:48Z</time>
      </trkpt>
      <trkpt lat="46.88434" lon="4.56226">
        <ele>401.01</ele>
        <time>2010-04-25T09:38:55Z</time>
      </trkpt>
      <trkpt lat="46.8842" lon="4.56228">
        <ele>402.45</ele>
        <time>2010-04-25T09:39:05Z</time>
      </trkpt>
      <trkpt lat="46.88409" lon="4.56227">
        <ele>403.89</ele>
        <time>2010-04-25T09:39:13Z</time>
      </trkpt>
      <trkpt lat="46.884" lon="4.56224">
        <ele>405.33</ele>
        <time>2010-04-25T09:39:20Z</time>
      </trkpt>
      <trkpt lat="46.8839" lon="4.56219">
        <ele>406.29</ele>
        <time>2010-04-25T09:39:27Z</time>
      </trkpt>
      <trkpt lat="46.88389" lon="4.56219">
        <ele>406.77</ele>
        <time>2010-04-25T09:39:28Z</time>
      </trkpt>
      <trkpt lat="46.88388" lon="4.56218">
        <ele>406.77</ele>
        <time>2010-04-25T09:39:29Z</time>
      </trkpt>
      <trkpt lat="46.88377" lon="4.5621">
        <ele>407.74</ele>
        <time>2010-04-25T09:39:38Z</time>
      </trkpt>
      <trkpt lat="46.88368" lon="4.56203">
        <ele>409.18</ele>
        <time>2010-04-25T09:39:46Z</time>
      </trkpt>
      <trkpt lat="46.88362" lon="4.56198">
        <ele>410.14</ele>
        <time>2010-04-25T09:39:51Z</time>
      </trkpt>
      <trkpt lat="46.88361" lon="4.56196">
        <ele>410.62</ele>
        <time>2010-04-25T09:39:52Z</time>
      </trkpt>
      <trkpt lat="46.88355" lon="4.56188">
        <ele>411.58</ele>
        <time>2010-04-25T09:39:58Z</time>
      </trkpt>
      <trkpt lat="46.88355" lon="4.56186">
        <ele>411.58</ele>
        <time>2010-04-25T09:39:59Z</time>
      </trkpt>
      <trkpt lat="46.8835" lon="4.5618">
        <ele>412.54</ele>
        <time>2010-04-25T09:40:04Z</time>
      </trkpt>
      <trkpt lat="46.8835" lon="4.56178">
        <ele>412.54</ele>
        <time>2010-04-25T09:40:05Z</time>
      </trkpt>
      <trkpt lat="46.88349" lon="4.56176">
        <ele>413.02</ele>
        <time>2010-04-25T09:40:06Z</time>
      </trkpt>
      <trkpt lat="46.88348" lon="4.56175">
        <ele>413.5</ele>
        <time>2010-04-25T09:40:07Z</time>
      </trkpt>
      <trkpt lat="46.88347" lon="4.56173">
        <ele>413.02</ele>
        <time>2010-04-25T09:40:08Z</time>
      </trkpt>
      <trkpt lat="46.88346" lon="4.56172">
        <ele>413.5</ele>
        <time>2010-04-25T09:40:09Z</time>
      </trkpt>
      <trkpt lat="46.88345" lon="4.5617">
        <ele>413.98</ele>
        <time>2010-04-25T09:40:10Z</time>
      </trkpt>
      <trkpt lat="46.88344" lon="4.56169">
        <ele>413.98</ele>
        <time>2010-04-25T09:40:11Z</time>
      </trkpt>
      <trkpt lat="46.88344" lon="4.56168">
        <ele>413.98</ele>
        <time>2010-04-25T09:40:12Z</time>
      </trkpt>
      <trkpt lat="46.88343" lon="4.56166">
        <ele>413.98</ele>
        <time>2010-04-25T09:40:13Z</time>
      </trkpt>
      <trkpt lat="46.88342" lon="4.56165">
        <ele>414.95</ele>
        <time>2010-04-25T09:40:14Z</time>
      </trkpt>
      <trkpt lat="46.88341" lon="4.56164">
        <ele>415.43</ele>
        <time>2010-04-25T09:40:15Z</time>
      </trkpt>
      <trkpt lat="46.8834" lon="4.56162">
        <ele>414.47</ele>
        <time>2010-04-25T09:40:16Z</time>
      </trkpt>
      <trkpt lat="46.88339" lon="4.56161">
        <ele>414.47</ele>
        <time>2010-04-25T09:40:17Z</time>
      </trkpt>
      <trkpt lat="46.88338" lon="4.5616">
        <ele>414.95</ele>
        <time>2010-04-25T09:40:18Z</time>
      </trkpt>
      <trkpt lat="46.88338" lon="4.56158">
        <ele>414.95</ele>
        <time>2010-04-25T09:40:19Z</time>
      </trkpt>
      <trkpt lat="46.88337" lon="4.56155">
        <ele>414.95</ele>
        <time>2010-04-25T09:40:20Z</time>
      </trkpt>
      <trkpt lat="46.88336" lon="4.56154">
        <ele>415.43</ele>
        <time>2010-04-25T09:40:21Z</time>
      </trkpt>
      <trkpt lat="46.88335" lon="4.56153">
        <ele>415.43</ele>
        <time>2010-04-25T09:40:22Z</time>
      </trkpt>
      <trkpt lat="46.88334" lon="4.56151">
        <ele>415.91</ele>
        <time>2010-04-25T09:40:23Z</time>
      </trkpt>
      <trkpt lat="46.88333" lon="4.5615">
        <ele>415.91</ele>
        <time>2010-04-25T09:40:24Z</time>
      </trkpt>
      <trkpt lat="46.88333" lon="4.56148">
        <ele>415.91</ele>
        <time>2010-04-25T09:40:25Z</time>
      </trkpt>
      <trkpt lat="46.88332" lon="4.56146">
        <ele>416.39</ele>
        <time>2010-04-25T09:40:26Z</time>
      </trkpt>
      <trkpt lat="46.88331" lon="4.56144">
        <ele>416.87</ele>
        <time>2010-04-25T09:40:27Z</time>
      </trkpt>
      <trkpt lat="46.88321" lon="4.56129">
        <ele>418.79</ele>
        <time>2010-04-25T09:40:36Z</time>
      </trkpt>
      <trkpt lat="46.88319" lon="4.56123">
        <ele>418.31</ele>
        <time>2010-04-25T09:40:39Z</time>
      </trkpt>
      <trkpt lat="46.88318" lon="4.56122">
        <ele>417.83</ele>
        <time>2010-04-25T09:40:40Z</time>
      </trkpt>
      <trkpt lat="46.88317" lon="4.5612">
        <ele>418.79</ele>
        <time>2010-04-25T09:40:41Z</time>
      </trkpt>
      <trkpt lat="46.88316" lon="4.56118">
        <ele>418.31</ele>
        <time>2010-04-25T09:40:42Z</time>
      </trkpt>
      <trkpt lat="46.88315" lon="4.56117">
        <ele>418.79</ele>
        <time>2010-04-25T09:40:43Z</time>
      </trkpt>
      <trkpt lat="46.88314" lon="4.56115">
        <ele>419.27</ele>
        <time>2010-04-25T09:40:44Z</time>
      </trkpt>
      <trkpt lat="46.88305" lon="4.56099">
        <ele>420.71</ele>
        <time>2010-04-25T09:40:52Z</time>
      </trkpt>
      <trkpt lat="46.88296" lon="4.56086">
        <ele>420.71</ele>
        <time>2010-04-25T09:40:58Z</time>
      </trkpt>
      <trkpt lat="46.88288" lon="4.56073">
        <ele>422.64</ele>
        <time>2010-04-25T09:41:03Z</time>
      </trkpt>
      <trkpt lat="46.88272" lon="4.56048">
        <ele>420.23</ele>
        <time>2010-04-25T09:41:11Z</time>
      </trkpt>
      <trkpt lat="46.88256" lon="4.56021">
        <ele>420.23</ele>
        <time>2010-04-25T09:41:18Z</time>
      </trkpt>
      <trkpt lat="46.88239" lon="4.55993">
        <ele>419.75</ele>
        <time>2010-04-25T09:41:26Z</time>
      </trkpt>
      <trkpt lat="46.88226" lon="4.55967">
        <ele>419.27</ele>
        <time>2010-04-25T09:41:32Z</time>
      </trkpt>
      <trkpt lat="46.88225" lon="4.55942">
        <ele>419.27</ele>
        <time>2010-04-25T09:41:37Z</time>
      </trkpt>
      <trkpt lat="46.88229" lon="4.559">
        <ele>420.71</ele>
        <time>2010-04-25T09:41:45Z</time>
      </trkpt>
      <trkpt lat="46.88236" lon="4.55859">
        <ele>420.71</ele>
        <time>2010-04-25T09:41:53Z</time>
      </trkpt>
      <trkpt lat="46.88246" lon="4.55817">
        <ele>422.64</ele>
        <time>2010-04-25T09:42:02Z</time>
      </trkpt>
      <trkpt lat="46.88251" lon="4.55783">
        <ele>422.16</ele>
        <time>2010-04-25T09:42:10Z</time>
      </trkpt>
      <trkpt lat="46.88258" lon="4.55751">
        <ele>422.16</ele>
        <time>2010-04-25T09:42:18Z</time>
      </trkpt>
      <trkpt lat="46.88264" lon="4.55729">
        <ele>422.64</ele>
        <time>2010-04-25T09:42:24Z</time>
      </trkpt>
      <trkpt lat="46.88269" lon="4.55714">
        <ele>425.04</ele>
        <time>2010-04-25T09:42:29Z</time>
      </trkpt>
      <trkpt lat="46.88268" lon="4.55712">
        <ele>425.04</ele>
        <time>2010-04-25T09:42:30Z</time>
      </trkpt>
      <trkpt lat="46.88267" lon="4.55712">
        <ele>423.6</ele>
        <time>2010-04-25T09:42:35Z</time>
      </trkpt>
      <trkpt lat="46.88267" lon="4.55712">
        <ele>423.12</ele>
        <time>2010-04-25T09:42:55Z</time>
      </trkpt>
      <trkpt lat="46.88267" lon="4.55712">
        <ele>423.6</ele>
        <time>2010-04-25T09:43:02Z</time>
      </trkpt>
      <trkpt lat="46.88267" lon="4.55711">
        <ele>424.08</ele>
        <time>2010-04-25T09:43:30Z</time>
      </trkpt>
      <trkpt lat="46.88266" lon="4.5571">
        <ele>424.56</ele>
        <time>2010-04-25T09:43:46Z</time>
      </trkpt>
      <trkpt lat="46.88265" lon="4.55709">
        <ele>425.04</ele>
        <time>2010-04-25T09:43:47Z</time>
      </trkpt>
      <trkpt lat="46.88262" lon="4.55706">
        <ele>424.08</ele>
        <time>2010-04-25T09:43:49Z</time>
      </trkpt>
      <trkpt lat="46.8826" lon="4.55706">
        <ele>423.6</ele>
        <time>2010-04-25T09:43:50Z</time>
      </trkpt>
      <trkpt lat="46.88257" lon="4.55705">
        <ele>422.64</ele>
        <time>2010-04-25T09:43:51Z</time>
      </trkpt>
      <trkpt lat="46.88243" lon="4.55701">
        <ele>421.68</ele>
        <time>2010-04-25T09:43:55Z</time>
      </trkpt>
      <trkpt lat="46.88222" lon="4.55698">
        <ele>419.75</ele>
        <time>2010-04-25T09:43:59Z</time>
      </trkpt>
      <trkpt lat="46.882" lon="4.55696">
        <ele>419.27</ele>
        <time>2010-04-25T09:44:02Z</time>
      </trkpt>
      <trkpt lat="46.88174" lon="4.55688">
        <ele>414.95</ele>
        <time>2010-04-25T09:44:05Z</time>
      </trkpt>
      <trkpt lat="46.88154" lon="4.55675">
        <ele>412.06</ele>
        <time>2010-04-25T09:44:08Z</time>
      </trkpt>
      <trkpt lat="46.88148" lon="4.55669">
        <ele>411.58</ele>
        <time>2010-04-25T09:44:09Z</time>
      </trkpt>
      <trkpt lat="46.88143" lon="4.55663">
        <ele>412.06</ele>
        <time>2010-04-25T09:44:10Z</time>
      </trkpt>
      <trkpt lat="46.88138" lon="4.55656">
        <ele>412.54</ele>
        <time>2010-04-25T09:44:11Z</time>
      </trkpt>
      <trkpt lat="46.88134" lon="4.55648">
        <ele>411.58</ele>
        <time>2010-04-25T09:44:12Z</time>
      </trkpt>
      <trkpt lat="46.8813" lon="4.5564">
        <ele>411.58</ele>
        <time>2010-04-25T09:44:13Z</time>
      </trkpt>
      <trkpt lat="46.88127" lon="4.55635">
        <ele>410.62</ele>
        <time>2010-04-25T09:44:14Z</time>
      </trkpt>
      <trkpt lat="46.88124" lon="4.55635">
        <ele>409.66</ele>
        <time>2010-04-25T09:44:15Z</time>
      </trkpt>
      <trkpt lat="46.88122" lon="4.55638">
        <ele>408.22</ele>
        <time>2010-04-25T09:44:16Z</time>
      </trkpt>
      <trkpt lat="46.88122" lon="4.55643">
        <ele>408.22</ele>
        <time>2010-04-25T09:44:17Z</time>
      </trkpt>
      <trkpt lat="46.88122" lon="4.55648">
        <ele>409.18</ele>
        <time>2010-04-25T09:44:18Z</time>
      </trkpt>
      <trkpt lat="46.88121" lon="4.55656">
        <ele>406.77</ele>
        <time>2010-04-25T09:44:19Z</time>
      </trkpt>
      <trkpt lat="46.8812" lon="4.55663">
        <ele>406.77</ele>
        <time>2010-04-25T09:44:20Z</time>
      </trkpt>
      <trkpt lat="46.88117" lon="4.55671">
        <ele>406.77</ele>
        <time>2010-04-25T09:44:21Z</time>
      </trkpt>
      <trkpt lat="46.88114" lon="4.55679">
        <ele>406.29</ele>
        <time>2010-04-25T09:44:22Z</time>
      </trkpt>
      <trkpt lat="46.88113" lon="4.55689">
        <ele>406.29</ele>
        <time>2010-04-25T09:44:23Z</time>
      </trkpt>
      <trkpt lat="46.88111" lon="4.55698">
        <ele>404.37</ele>
        <time>2010-04-25T09:44:24Z</time>
      </trkpt>
      <trkpt lat="46.88109" lon="4.55708">
        <ele>403.41</ele>
        <time>2010-04-25T09:44:25Z</time>
      </trkpt>
      <trkpt lat="46.88107" lon="4.55717">
        <ele>402.93</ele>
        <time>2010-04-25T09:44:26Z</time>
      </trkpt>
      <trkpt lat="46.88104" lon="4.55727">
        <ele>402.93</ele>
        <time>2010-04-25T09:44:27Z</time>
      </trkpt>
      <trkpt lat="46.88097" lon="4.55746">
        <ele>401.49</ele>
        <time>2010-04-25T09:44:29Z</time>
      </trkpt>
      <trkpt lat="46.88092" lon="4.55754">
        <ele>399.08</ele>
        <time>2010-04-25T09:44:30Z</time>
      </trkpt>
      <trkpt lat="46.88085" lon="4.55762">
        <ele>399.08</ele>
        <time>2010-04-25T09:44:31Z</time>
      </trkpt>
      <trkpt lat="46.88078" lon="4.55771">
        <ele>397.64</ele>
        <time>2010-04-25T09:44:32Z</time>
      </trkpt>
      <trkpt lat="46.88072" lon="4.55781">
        <ele>396.68</ele>
        <time>2010-04-25T09:44:33Z</time>
      </trkpt>
      <trkpt lat="46.8806" lon="4.55803">
        <ele>395.24</ele>
        <time>2010-04-25T09:44:35Z</time>
      </trkpt>
      <trkpt lat="46.8805" lon="4.55827">
        <ele>394.76</ele>
        <time>2010-04-25T09:44:37Z</time>
      </trkpt>
      <trkpt lat="46.88047" lon="4.5584">
        <ele>392.84</ele>
        <time>2010-04-25T09:44:38Z</time>
      </trkpt>
      <trkpt lat="46.88043" lon="4.55854">
        <ele>390.91</ele>
        <time>2010-04-25T09:44:39Z</time>
      </trkpt>
      <trkpt lat="46.88038" lon="4.55868">
        <ele>389.95</ele>
        <time>2010-04-25T09:44:40Z</time>
      </trkpt>
      <trkpt lat="46.88034" lon="4.55883">
        <ele>388.51</ele>
        <time>2010-04-25T09:44:41Z</time>
      </trkpt>
      <trkpt lat="46.88016" lon="4.55936">
        <ele>385.63</ele>
        <time>2010-04-25T09:44:45Z</time>
      </trkpt>
      <trkpt lat="46.88008" lon="4.55961">
        <ele>384.18</ele>
        <time>2010-04-25T09:44:47Z</time>
      </trkpt>
      <trkpt lat="46.88004" lon="4.55973">
        <ele>384.18</ele>
        <time>2010-04-25T09:44:48Z</time>
      </trkpt>
      <trkpt lat="46.87999" lon="4.55985">
        <ele>383.7</ele>
        <time>2010-04-25T09:44:49Z</time>
      </trkpt>
      <trkpt lat="46.87994" lon="4.55995">
        <ele>382.26</ele>
        <time>2010-04-25T09:44:50Z</time>
      </trkpt>
      <trkpt lat="46.87988" lon="4.56005">
        <ele>381.78</ele>
        <time>2010-04-25T09:44:51Z</time>
      </trkpt>
      <trkpt lat="46.87952" lon="4.56071">
        <ele>379.38</ele>
        <time>2010-04-25T09:44:58Z</time>
      </trkpt>
      <trkpt lat="46.87927" lon="4.56144">
        <ele>376.49</ele>
        <time>2010-04-25T09:45:05Z</time>
      </trkpt>
      <trkpt lat="46.8792" lon="4.56164">
        <ele>376.01</ele>
        <time>2010-04-25T09:45:07Z</time>
      </trkpt>
      <trkpt lat="46.87891" lon="4.56232">
        <ele>373.61</ele>
        <time>2010-04-25T09:45:14Z</time>
      </trkpt>
      <trkpt lat="46.87877" lon="4.56261">
        <ele>372.17</ele>
        <time>2010-04-25T09:45:17Z</time>
      </trkpt>
      <trkpt lat="46.87871" lon="4.56267">
        <ele>372.17</ele>
        <time>2010-04-25T09:45:18Z</time>
      </trkpt>
      <trkpt lat="46.87864" lon="4.56272">
        <ele>371.21</ele>
        <time>2010-04-25T09:45:19Z</time>
      </trkpt>
      <trkpt lat="46.87856" lon="4.56275">
        <ele>370.73</ele>
        <time>2010-04-25T09:45:20Z</time>
      </trkpt>
      <trkpt lat="46.87848" lon="4.56276">
        <ele>370.73</ele>
        <time>2010-04-25T09:45:21Z</time>
      </trkpt>
      <trkpt lat="46.87841" lon="4.56279">
        <ele>370.24</ele>
        <time>2010-04-25T09:45:22Z</time>
      </trkpt>
      <trkpt lat="46.87825" lon="4.56288">
        <ele>368.32</ele>
        <time>2010-04-25T09:45:24Z</time>
      </trkpt>
      <trkpt lat="46.87816" lon="4.56291">
        <ele>367.36</ele>
        <time>2010-04-25T09:45:25Z</time>
      </trkpt>
      <trkpt lat="46.8778" lon="4.563">
        <ele>364.96</ele>
        <time>2010-04-25T09:45:29Z</time>
      </trkpt>
      <trkpt lat="46.87773" lon="4.56304">
        <ele>363.52</ele>
        <time>2010-04-25T09:45:30Z</time>
      </trkpt>
      <trkpt lat="46.87767" lon="4.56309">
        <ele>363.52</ele>
        <time>2010-04-25T09:45:31Z</time>
      </trkpt>
      <trkpt lat="46.87755" lon="4.5632">
        <ele>361.59</ele>
        <time>2010-04-25T09:45:33Z</time>
      </trkpt>
      <trkpt lat="46.87748" lon="4.56324">
        <ele>360.15</ele>
        <time>2010-04-25T09:45:34Z</time>
      </trkpt>
      <trkpt lat="46.87741" lon="4.56326">
        <ele>358.71</ele>
        <time>2010-04-25T09:45:35Z</time>
      </trkpt>
      <trkpt lat="46.87733" lon="4.56325">
        <ele>357.75</ele>
        <time>2010-04-25T09:45:36Z</time>
      </trkpt>
      <trkpt lat="46.87724" lon="4.56322">
        <ele>356.79</ele>
        <time>2010-04-25T09:45:37Z</time>
      </trkpt>
      <trkpt lat="46.87696" lon="4.56316">
        <ele>354.38</ele>
        <time>2010-04-25T09:45:40Z</time>
      </trkpt>
      <trkpt lat="46.87652" lon="4.56303">
        <ele>352.46</ele>
        <time>2010-04-25T09:45:45Z</time>
      </trkpt>
      <trkpt lat="46.87645" lon="4.56301">
        <ele>351.98</ele>
        <time>2010-04-25T09:45:46Z</time>
      </trkpt>
      <trkpt lat="46.87638" lon="4.56301">
        <ele>351.5</ele>
        <time>2010-04-25T09:45:47Z</time>
      </trkpt>
      <trkpt lat="46.87632" lon="4.56305">
        <ele>351.5</ele>
        <time>2010-04-25T09:45:48Z</time>
      </trkpt>
      <trkpt lat="46.87626" lon="4.56309">
        <ele>351.02</ele>
        <time>2010-04-25T09:45:49Z</time>
      </trkpt>
      <trkpt lat="46.87621" lon="4.56314">
        <ele>351.5</ele>
        <time>2010-04-25T09:45:50Z</time>
      </trkpt>
      <trkpt lat="46.87597" lon="4.56338">
        <ele>351.98</ele>
        <time>2010-04-25T09:45:55Z</time>
      </trkpt>
      <trkpt lat="46.87579" lon="4.56358">
        <ele>352.94</ele>
        <time>2010-04-25T09:46:01Z</time>
      </trkpt>
      <trkpt lat="46.87577" lon="4.56359">
        <ele>352.94</ele>
        <time>2010-04-25T09:46:02Z</time>
      </trkpt>
      <trkpt lat="46.87567" lon="4.56358">
        <ele>353.42</ele>
        <time>2010-04-25T09:46:06Z</time>
      </trkpt>
      <trkpt lat="46.8756" lon="4.56344">
        <ele>354.38</ele>
        <time>2010-04-25T09:46:11Z</time>
      </trkpt>
      <trkpt lat="46.87549" lon="4.56319">
        <ele>354.86</ele>
        <time>2010-04-25T09:46:19Z</time>
      </trkpt>
      <trkpt lat="46.87531" lon="4.56304">
        <ele>356.31</ele>
        <time>2010-04-25T09:46:27Z</time>
      </trkpt>
      <trkpt lat="46.8752" lon="4.5629">
        <ele>357.75</ele>
        <time>2010-04-25T09:46:34Z</time>
      </trkpt>
      <trkpt lat="46.87511" lon="4.56272">
        <ele>359.19</ele>
        <time>2010-04-25T09:46:42Z</time>
      </trkpt>
      <trkpt lat="46.87505" lon="4.56256">
        <ele>361.11</ele>
        <time>2010-04-25T09:46:50Z</time>
      </trkpt>
      <trkpt lat="46.87502" lon="4.56247">
        <ele>362.07</ele>
        <time>2010-04-25T09:46:55Z</time>
      </trkpt>
      <trkpt lat="46.87495" lon="4.56233">
        <ele>363.52</ele>
        <time>2010-04-25T09:47:04Z</time>
      </trkpt>
      <trkpt lat="46.87489" lon="4.56226">
        <ele>364.96</ele>
        <time>2010-04-25T09:47:11Z</time>
      </trkpt>
      <trkpt lat="46.87487" lon="4.56223">
        <ele>365.92</ele>
        <time>2010-04-25T09:47:13Z</time>
      </trkpt>
      <trkpt lat="46.87483" lon="4.56213">
        <ele>366.88</ele>
        <time>2010-04-25T09:47:20Z</time>
      </trkpt>
      <trkpt lat="46.87482" lon="4.56212">
        <ele>366.88</ele>
        <time>2010-04-25T09:47:21Z</time>
      </trkpt>
      <trkpt lat="46.87481" lon="4.56209">
        <ele>367.36</ele>
        <time>2010-04-25T09:47:23Z</time>
      </trkpt>
      <trkpt lat="46.87472" lon="4.56194">
        <ele>369.28</ele>
        <time>2010-04-25T09:47:32Z</time>
      </trkpt>
      <trkpt lat="46.87465" lon="4.56185">
        <ele>369.76</ele>
        <time>2010-04-25T09:47:38Z</time>
      </trkpt>
      <trkpt lat="46.87458" lon="4.56172">
        <ele>371.21</ele>
        <time>2010-04-25T09:47:44Z</time>
      </trkpt>
      <trkpt lat="46.87448" lon="4.56155">
        <ele>372.17</ele>
        <time>2010-04-25T09:47:53Z</time>
      </trkpt>
      <trkpt lat="46.87442" lon="4.5614">
        <ele>372.65</ele>
        <time>2010-04-25T09:48:01Z</time>
      </trkpt>
      <trkpt lat="46.87442" lon="4.56138">
        <ele>373.13</ele>
        <time>2010-04-25T09:48:02Z</time>
      </trkpt>
      <trkpt lat="46.87435" lon="4.56116">
        <ele>374.57</ele>
        <time>2010-04-25T09:48:12Z</time>
      </trkpt>
      <trkpt lat="46.8743" lon="4.56101">
        <ele>376.01</ele>
        <time>2010-04-25T09:48:20Z</time>
      </trkpt>
      <trkpt lat="46.87429" lon="4.56099">
        <ele>376.01</ele>
        <time>2010-04-25T09:48:21Z</time>
      </trkpt>
      <trkpt lat="46.87425" lon="4.5609">
        <ele>376.97</ele>
        <time>2010-04-25T09:48:26Z</time>
      </trkpt>
      <trkpt lat="46.8742" lon="4.56069">
        <ele>377.45</ele>
        <time>2010-04-25T09:48:35Z</time>
      </trkpt>
      <trkpt lat="46.87419" lon="4.56067">
        <ele>377.94</ele>
        <time>2010-04-25T09:48:36Z</time>
      </trkpt>
      <trkpt lat="46.87408" lon="4.56052">
        <ele>379.38</ele>
        <time>2010-04-25T09:48:46Z</time>
      </trkpt>
      <trkpt lat="46.87398" lon="4.56042">
        <ele>380.34</ele>
        <time>2010-04-25T09:48:54Z</time>
      </trkpt>
      <trkpt lat="46.87389" lon="4.56033">
        <ele>382.26</ele>
        <time>2010-04-25T09:49:02Z</time>
      </trkpt>
      <trkpt lat="46.8738" lon="4.56025">
        <ele>383.7</ele>
        <time>2010-04-25T09:49:09Z</time>
      </trkpt>
      <trkpt lat="46.87371" lon="4.56015">
        <ele>384.66</ele>
        <time>2010-04-25T09:49:17Z</time>
      </trkpt>
      <trkpt lat="46.8736" lon="4.56004">
        <ele>386.59</ele>
        <time>2010-04-25T09:49:26Z</time>
      </trkpt>
      <trkpt lat="46.8735" lon="4.55993">
        <ele>388.51</ele>
        <time>2010-04-25T09:49:35Z</time>
      </trkpt>
      <trkpt lat="46.87342" lon="4.55981">
        <ele>389.47</ele>
        <time>2010-04-25T09:49:44Z</time>
      </trkpt>
      <trkpt lat="46.87332" lon="4.55971">
        <ele>391.39</ele>
        <time>2010-04-25T09:49:54Z</time>
      </trkpt>
      <trkpt lat="46.87323" lon="4.55962">
        <ele>393.32</ele>
        <time>2010-04-25T09:50:02Z</time>
      </trkpt>
      <trkpt lat="46.87315" lon="4.5595">
        <ele>394.76</ele>
        <time>2010-04-25T09:50:11Z</time>
      </trkpt>
      <trkpt lat="46.87314" lon="4.55947">
        <ele>395.24</ele>
        <time>2010-04-25T09:50:13Z</time>
      </trkpt>
      <trkpt lat="46.87305" lon="4.55938">
        <ele>396.2</ele>
        <time>2010-04-25T09:50:22Z</time>
      </trkpt>
      <trkpt lat="46.87301" lon="4.55931">
        <ele>397.16</ele>
        <time>2010-04-25T09:50:27Z</time>
      </trkpt>
      <trkpt lat="46.87291" lon="4.5592">
        <ele>398.6</ele>
        <time>2010-04-25T09:50:36Z</time>
      </trkpt>
      <trkpt lat="46.87284" lon="4.5591">
        <ele>400.05</ele>
        <time>2010-04-25T09:50:43Z</time>
      </trkpt>
      <trkpt lat="46.87276" lon="4.55896">
        <ele>401.01</ele>
        <time>2010-04-25T09:50:52Z</time>
      </trkpt>
      <trkpt lat="46.87268" lon="4.55881">
        <ele>401.97</ele>
        <time>2010-04-25T09:51:01Z</time>
      </trkpt>
      <trkpt lat="46.8726" lon="4.55866">
        <ele>403.41</ele>
        <time>2010-04-25T09:51:10Z</time>
      </trkpt>
      <trkpt lat="46.87254" lon="4.55853">
        <ele>404.37</ele>
        <time>2010-04-25T09:51:17Z</time>
      </trkpt>
      <trkpt lat="46.87245" lon="4.55835">
        <ele>405.81</ele>
        <time>2010-04-25T09:51:27Z</time>
      </trkpt>
      <trkpt lat="46.87238" lon="4.55823">
        <ele>406.77</ele>
        <time>2010-04-25T09:51:34Z</time>
      </trkpt>
      <trkpt lat="46.8723" lon="4.55807">
        <ele>407.74</ele>
        <time>2010-04-25T09:51:42Z</time>
      </trkpt>
      <trkpt lat="46.87222" lon="4.55794">
        <ele>408.7</ele>
        <time>2010-04-25T09:51:50Z</time>
      </trkpt>
      <trkpt lat="46.87213" lon="4.55779">
        <ele>410.14</ele>
        <time>2010-04-25T09:51:58Z</time>
      </trkpt>
      <trkpt lat="46.87209" lon="4.55773">
        <ele>410.14</ele>
        <time>2010-04-25T09:52:01Z</time>
      </trkpt>
      <trkpt lat="46.87204" lon="4.55763">
        <ele>411.1</ele>
        <time>2010-04-25T09:52:06Z</time>
      </trkpt>
      <trkpt lat="46.87197" lon="4.55746">
        <ele>412.06</ele>
        <time>2010-04-25T09:52:14Z</time>
      </trkpt>
      <trkpt lat="46.8719" lon="4.5573">
        <ele>413.02</ele>
        <time>2010-04-25T09:52:21Z</time>
      </trkpt>
      <trkpt lat="46.87184" lon="4.55713">
        <ele>413.5</ele>
        <time>2010-04-25T09:52:28Z</time>
      </trkpt>
      <trkpt lat="46.87178" lon="4.55691">
        <ele>414.95</ele>
        <time>2010-04-25T09:52:37Z</time>
      </trkpt>
      <trkpt lat="46.87174" lon="4.55676">
        <ele>415.91</ele>
        <time>2010-04-25T09:52:44Z</time>
      </trkpt>
      <trkpt lat="46.87167" lon="4.55657">
        <ele>417.35</ele>
        <time>2010-04-25T09:52:52Z</time>
      </trkpt>
      <trkpt lat="46.87161" lon="4.55639">
        <ele>417.35</ele>
        <time>2010-04-25T09:52:59Z</time>
      </trkpt>
      <trkpt lat="46.87154" lon="4.55622">
        <ele>417.83</ele>
        <time>2010-04-25T09:53:06Z</time>
      </trkpt>
      <trkpt lat="46.8715" lon="4.55607">
        <ele>419.27</ele>
        <time>2010-04-25T09:53:11Z</time>
      </trkpt>
      <trkpt lat="46.87144" lon="4.55588">
        <ele>419.75</ele>
        <time>2010-04-25T09:53:18Z</time>
      </trkpt>
      <trkpt lat="46.87139" lon="4.55571">
        <ele>420.71</ele>
        <time>2010-04-25T09:53:24Z</time>
      </trkpt>
      <trkpt lat="46.87138" lon="4.55569">
        <ele>420.71</ele>
        <time>2010-04-25T09:53:25Z</time>
      </trkpt>
      <trkpt lat="46.87133" lon="4.5555">
        <ele>421.68</ele>
        <time>2010-04-25T09:53:32Z</time>
      </trkpt>
      <trkpt lat="46.8713" lon="4.55543">
        <ele>421.68</ele>
        <time>2010-04-25T09:53:35Z</time>
      </trkpt>
      <trkpt lat="46.87123" lon="4.55522">
        <ele>422.64</ele>
        <time>2010-04-25T09:53:43Z</time>
      </trkpt>
      <trkpt lat="46.87117" lon="4.55504">
        <ele>423.6</ele>
        <time>2010-04-25T09:53:50Z</time>
      </trkpt>
      <trkpt lat="46.87109" lon="4.5548">
        <ele>424.08</ele>
        <time>2010-04-25T09:53:58Z</time>
      </trkpt>
      <trkpt lat="46.87103" lon="4.55459">
        <ele>424.56</ele>
        <time>2010-04-25T09:54:05Z</time>
      </trkpt>
      <trkpt lat="46.87095" lon="4.55434">
        <ele>426.48</ele>
        <time>2010-04-25T09:54:13Z</time>
      </trkpt>
      <trkpt lat="46.8709" lon="4.55416">
        <ele>426.48</ele>
        <time>2010-04-25T09:54:19Z</time>
      </trkpt>
      <trkpt lat="46.87082" lon="4.55394">
        <ele>426.96</ele>
        <time>2010-04-25T09:54:27Z</time>
      </trkpt>
      <trkpt lat="46.87075" lon="4.55375">
        <ele>428.89</ele>
        <time>2010-04-25T09:54:35Z</time>
      </trkpt>
      <trkpt lat="46.87073" lon="4.55366">
        <ele>427.44</ele>
        <time>2010-04-25T09:54:39Z</time>
      </trkpt>
      <trkpt lat="46.87071" lon="4.55349">
        <ele>428.89</ele>
        <time>2010-04-25T09:54:46Z</time>
      </trkpt>
      <trkpt lat="46.87069" lon="4.55333">
        <ele>428.4</ele>
        <time>2010-04-25T09:54:51Z</time>
      </trkpt>
      <trkpt lat="46.87064" lon="4.55302">
        <ele>429.37</ele>
        <time>2010-04-25T09:55:00Z</time>
      </trkpt>
      <trkpt lat="46.8706" lon="4.55277">
        <ele>430.81</ele>
        <time>2010-04-25T09:55:07Z</time>
      </trkpt>
      <trkpt lat="46.87059" lon="4.55266">
        <ele>430.33</ele>
        <time>2010-04-25T09:55:14Z</time>
      </trkpt>
      <trkpt lat="46.87059" lon="4.55266">
        <ele>430.33</ele>
        <time>2010-04-25T09:55:43Z</time>
      </trkpt>
      <trkpt lat="46.87058" lon="4.55261">
        <ele>429.85</ele>
        <time>2010-04-25T09:56:13Z</time>
      </trkpt>
      <trkpt lat="46.87055" lon="4.55241">
        <ele>429.85</ele>
        <time>2010-04-25T09:56:21Z</time>
      </trkpt>
      <trkpt lat="46.87051" lon="4.5522">
        <ele>431.29</ele>
        <time>2010-04-25T09:56:28Z</time>
      </trkpt>
      <trkpt lat="46.87048" lon="4.55199">
        <ele>431.29</ele>
        <time>2010-04-25T09:56:35Z</time>
      </trkpt>
      <trkpt lat="46.87047" lon="4.55192">
        <ele>430.33</ele>
        <time>2010-04-25T09:56:37Z</time>
      </trkpt>
      <trkpt lat="46.87041" lon="4.55148">
        <ele>432.25</ele>
        <time>2010-04-25T09:56:48Z</time>
      </trkpt>
      <trkpt lat="46.87036" lon="4.55115">
        <ele>432.25</ele>
        <time>2010-04-25T09:56:56Z</time>
      </trkpt>
      <trkpt lat="46.8703" lon="4.55064">
        <ele>433.21</ele>
        <time>2010-04-25T09:57:07Z</time>
      </trkpt>
      <trkpt lat="46.87024" lon="4.55016">
        <ele>434.17</ele>
        <time>2010-04-25T09:57:17Z</time>
      </trkpt>
      <trkpt lat="46.8702" lon="4.54977">
        <ele>434.65</ele>
        <time>2010-04-25T09:57:25Z</time>
      </trkpt>
      <trkpt lat="46.87016" lon="4.54932">
        <ele>435.13</ele>
        <time>2010-04-25T09:57:34Z</time>
      </trkpt>
      <trkpt lat="46.87011" lon="4.54887">
        <ele>437.06</ele>
        <time>2010-04-25T09:57:43Z</time>
      </trkpt>
      <trkpt lat="46.87007" lon="4.54842">
        <ele>438.02</ele>
        <time>2010-04-25T09:57:52Z</time>
      </trkpt>
      <trkpt lat="46.87002" lon="4.54791">
        <ele>438.98</ele>
        <time>2010-04-25T09:58:03Z</time>
      </trkpt>
      <trkpt lat="46.87002" lon="4.54754">
        <ele>441.38</ele>
        <time>2010-04-25T09:58:11Z</time>
      </trkpt>
      <trkpt lat="46.87003" lon="4.54726">
        <ele>441.38</ele>
        <time>2010-04-25T09:58:17Z</time>
      </trkpt>
      <trkpt lat="46.87007" lon="4.54684">
        <ele>442.34</ele>
        <time>2010-04-25T09:58:26Z</time>
      </trkpt>
      <trkpt lat="46.87015" lon="4.54642">
        <ele>442.82</ele>
        <time>2010-04-25T09:58:34Z</time>
      </trkpt>
      <trkpt lat="46.87026" lon="4.54597">
        <ele>442.82</ele>
        <time>2010-04-25T09:58:42Z</time>
      </trkpt>
      <trkpt lat="46.87038" lon="4.54545">
        <ele>444.27</ele>
        <time>2010-04-25T09:58:51Z</time>
      </trkpt>
      <trkpt lat="46.87045" lon="4.54517">
        <ele>444.27</ele>
        <time>2010-04-25T09:58:56Z</time>
      </trkpt>
      <trkpt lat="46.87046" lon="4.54511">
        <ele>443.79</ele>
        <time>2010-04-25T09:58:57Z</time>
      </trkpt>
      <trkpt lat="46.87048" lon="4.54505">
        <ele>443.79</ele>
        <time>2010-04-25T09:58:58Z</time>
      </trkpt>
      <trkpt lat="46.87049" lon="4.54499">
        <ele>443.79</ele>
        <time>2010-04-25T09:58:59Z</time>
      </trkpt>
      <trkpt lat="46.8705" lon="4.54493">
        <ele>444.27</ele>
        <time>2010-04-25T09:59:00Z</time>
      </trkpt>
      <trkpt lat="46.87051" lon="4.54487">
        <ele>443.79</ele>
        <time>2010-04-25T09:59:01Z</time>
      </trkpt>
      <trkpt lat="46.87053" lon="4.54481">
        <ele>444.27</ele>
        <time>2010-04-25T09:59:02Z</time>
      </trkpt>
      <trkpt lat="46.87064" lon="4.54426">
        <ele>444.75</ele>
        <time>2010-04-25T09:59:11Z</time>
      </trkpt>
      <trkpt lat="46.87072" lon="4.54376">
        <ele>445.23</ele>
        <time>2010-04-25T09:59:19Z</time>
      </trkpt>
      <trkpt lat="46.87073" lon="4.54369">
        <ele>445.23</ele>
        <time>2010-04-25T09:59:20Z</time>
      </trkpt>
      <trkpt lat="46.87082" lon="4.54306">
        <ele>445.23</ele>
        <time>2010-04-25T09:59:30Z</time>
      </trkpt>
      <trkpt lat="46.87088" lon="4.54251">
        <ele>446.67</ele>
        <time>2010-04-25T09:59:39Z</time>
      </trkpt>
      <trkpt lat="46.87096" lon="4.54187">
        <ele>447.15</ele>
        <time>2010-04-25T09:59:49Z</time>
      </trkpt>
      <trkpt lat="46.87101" lon="4.54163">
        <ele>447.15</ele>
        <time>2010-04-25T09:59:53Z</time>
      </trkpt>
      <trkpt lat="46.87115" lon="4.54116">
        <ele>447.63</ele>
        <time>2010-04-25T10:00:02Z</time>
      </trkpt>
      <trkpt lat="46.87114" lon="4.54112">
        <ele>447.15</ele>
        <time>2010-04-25T10:00:03Z</time>
      </trkpt>
      <trkpt lat="46.87111" lon="4.5411">
        <ele>447.63</ele>
        <time>2010-04-25T10:00:04Z</time>
      </trkpt>
      <trkpt lat="46.87107" lon="4.54111">
        <ele>447.15</ele>
        <time>2010-04-25T10:00:05Z</time>
      </trkpt>
      <trkpt lat="46.87104" lon="4.54113">
        <ele>447.15</ele>
        <time>2010-04-25T10:00:06Z</time>
      </trkpt>
      <trkpt lat="46.871" lon="4.54116">
        <ele>447.15</ele>
        <time>2010-04-25T10:00:07Z</time>
      </trkpt>
      <trkpt lat="46.87096" lon="4.54119">
        <ele>447.15</ele>
        <time>2010-04-25T10:00:08Z</time>
      </trkpt>
      <trkpt lat="46.8706" lon="4.54143">
        <ele>446.67</ele>
        <time>2010-04-25T10:00:16Z</time>
      </trkpt>
      <trkpt lat="46.87055" lon="4.54146">
        <ele>446.67</ele>
        <time>2010-04-25T10:00:17Z</time>
      </trkpt>
      <trkpt lat="46.87008" lon="4.54176">
        <ele>445.23</ele>
        <time>2010-04-25T10:00:25Z</time>
      </trkpt>
      <trkpt lat="46.86963" lon="4.54213">
        <ele>444.75</ele>
        <time>2010-04-25T10:00:32Z</time>
      </trkpt>
      <trkpt lat="46.86952" lon="4.54228">
        <ele>443.79</ele>
        <time>2010-04-25T10:00:34Z</time>
      </trkpt>
      <trkpt lat="46.8692" lon="4.54276">
        <ele>442.82</ele>
        <time>2010-04-25T10:00:40Z</time>
      </trkpt>
      <trkpt lat="46.86913" lon="4.54281">
        <ele>442.82</ele>
        <time>2010-04-25T10:00:41Z</time>
      </trkpt>
      <trkpt lat="46.86905" lon="4.54285">
        <ele>441.86</ele>
        <time>2010-04-25T10:00:42Z</time>
      </trkpt>
      <trkpt lat="46.86898" lon="4.54289">
        <ele>441.38</ele>
        <time>2010-04-25T10:00:43Z</time>
      </trkpt>
      <trkpt lat="46.8689" lon="4.54291">
        <ele>441.38</ele>
        <time>2010-04-25T10:00:44Z</time>
      </trkpt>
      <trkpt lat="46.86829" lon="4.54305">
        <ele>439.94</ele>
        <time>2010-04-25T10:00:52Z</time>
      </trkpt>
      <trkpt lat="46.86783" lon="4.54316">
        <ele>439.46</ele>
        <time>2010-04-25T10:00:58Z</time>
      </trkpt>
      <trkpt lat="46.86705" lon="4.54315">
        <ele>437.54</ele>
        <time>2010-04-25T10:01:08Z</time>
      </trkpt>
      <trkpt lat="46.86652" lon="4.5432">
        <ele>436.1</ele>
        <time>2010-04-25T10:01:15Z</time>
      </trkpt>
      <trkpt lat="46.86598" lon="4.54349">
        <ele>435.13</ele>
        <time>2010-04-25T10:01:22Z</time>
      </trkpt>
      <trkpt lat="46.86533" lon="4.54401">
        <ele>434.65</ele>
        <time>2010-04-25T10:01:32Z</time>
      </trkpt>
      <trkpt lat="46.86475" lon="4.54453">
        <ele>434.17</ele>
        <time>2010-04-25T10:01:42Z</time>
      </trkpt>
      <trkpt lat="46.8643" lon="4.54504">
        <ele>434.17</ele>
        <time>2010-04-25T10:01:51Z</time>
      </trkpt>
      <trkpt lat="46.86391" lon="4.54534">
        <ele>433.69</ele>
        <time>2010-04-25T10:01:58Z</time>
      </trkpt>
      <trkpt lat="46.86371" lon="4.54553">
        <ele>433.21</ele>
        <time>2010-04-25T10:02:02Z</time>
      </trkpt>
      <trkpt lat="46.86367" lon="4.54559">
        <ele>433.21</ele>
        <time>2010-04-25T10:02:03Z</time>
      </trkpt>
      <trkpt lat="46.86363" lon="4.54566">
        <ele>432.73</ele>
        <time>2010-04-25T10:02:04Z</time>
      </trkpt>
      <trkpt lat="46.8636" lon="4.54573">
        <ele>432.25</ele>
        <time>2010-04-25T10:02:05Z</time>
      </trkpt>
      <trkpt lat="46.86358" lon="4.54582">
        <ele>432.25</ele>
        <time>2010-04-25T10:02:06Z</time>
      </trkpt>
      <trkpt lat="46.86356" lon="4.5459">
        <ele>432.73</ele>
        <time>2010-04-25T10:02:07Z</time>
      </trkpt>
      <trkpt lat="46.86356" lon="4.54597">
        <ele>433.21</ele>
        <time>2010-04-25T10:02:08Z</time>
      </trkpt>
      <trkpt lat="46.86356" lon="4.54604">
        <ele>433.21</ele>
        <time>2010-04-25T10:02:09Z</time>
      </trkpt>
      <trkpt lat="46.86353" lon="4.54637">
        <ele>433.21</ele>
        <time>2010-04-25T10:02:16Z</time>
      </trkpt>
      <trkpt lat="46.86349" lon="4.54644">
        <ele>433.21</ele>
        <time>2010-04-25T10:02:19Z</time>
      </trkpt>
      <trkpt lat="46.86348" lon="4.54645">
        <ele>433.69</ele>
        <time>2010-04-25T10:02:20Z</time>
      </trkpt>
      <trkpt lat="46.86347" lon="4.54645">
        <ele>433.21</ele>
        <time>2010-04-25T10:02:26Z</time>
      </trkpt>
      <trkpt lat="46.86347" lon="4.54645">
        <ele>432.73</ele>
        <time>2010-04-25T10:02:50Z</time>
      </trkpt>
      <trkpt lat="46.86348" lon="4.54645">
        <ele>432.25</ele>
        <time>2010-04-25T10:03:04Z</time>
      </trkpt>
      <trkpt lat="46.86348" lon="4.54645">
        <ele>434.65</ele>
        <time>2010-04-25T10:03:15Z</time>
      </trkpt>
      <trkpt lat="46.86348" lon="4.54645">
        <ele>432.25</ele>
        <time>2010-04-25T10:03:24Z</time>
      </trkpt>
      <trkpt lat="46.86348" lon="4.54645">
        <ele>433.21</ele>
        <time>2010-04-25T10:03:35Z</time>
      </trkpt>
      <trkpt lat="46.86348" lon="4.54645">
        <ele>432.73</ele>
        <time>2010-04-25T10:03:44Z</time>
      </trkpt>
      <trkpt lat="46.86342" lon="4.54642">
        <ele>433.69</ele>
        <time>2010-04-25T10:04:05Z</time>
      </trkpt>
      <trkpt lat="46.86322" lon="4.54641">
        <ele>433.69</ele>
        <time>2010-04-25T10:04:11Z</time>
      </trkpt>
      <trkpt lat="46.86308" lon="4.54645">
        <ele>433.21</ele>
        <time>2010-04-25T10:04:14Z</time>
      </trkpt>
      <trkpt lat="46.86274" lon="4.54665">
        <ele>432.25</ele>
        <time>2010-04-25T10:04:20Z</time>
      </trkpt>
      <trkpt lat="46.86248" lon="4.54683">
        <ele>430.81</ele>
        <time>2010-04-25T10:04:24Z</time>
      </trkpt>
      <trkpt lat="46.86244" lon="4.54688">
        <ele>429.85</ele>
        <time>2010-04-25T10:04:25Z</time>
      </trkpt>
      <trkpt lat="46.8624" lon="4.54696">
        <ele>428.89</ele>
        <time>2010-04-25T10:04:26Z</time>
      </trkpt>
      <trkpt lat="46.86237" lon="4.54704">
        <ele>429.85</ele>
        <time>2010-04-25T10:04:27Z</time>
      </trkpt>
      <trkpt lat="46.86236" lon="4.54712">
        <ele>428.89</ele>
        <time>2010-04-25T10:04:28Z</time>
      </trkpt>
      <trkpt lat="46.86237" lon="4.54719">
        <ele>429.37</ele>
        <time>2010-04-25T10:04:29Z</time>
      </trkpt>
      <trkpt lat="46.86238" lon="4.54726">
        <ele>430.33</ele>
        <time>2010-04-25T10:04:30Z</time>
      </trkpt>
      <trkpt lat="46.86239" lon="4.54734">
        <ele>430.33</ele>
        <time>2010-04-25T10:04:31Z</time>
      </trkpt>
      <trkpt lat="46.86242" lon="4.54798">
        <ele>430.33</ele>
        <time>2010-04-25T10:04:40Z</time>
      </trkpt>
      <trkpt lat="46.86241" lon="4.54804">
        <ele>430.81</ele>
        <time>2010-04-25T10:04:41Z</time>
      </trkpt>
      <trkpt lat="46.86239" lon="4.54811">
        <ele>430.33</ele>
        <time>2010-04-25T10:04:42Z</time>
      </trkpt>
      <trkpt lat="46.86229" lon="4.54866">
        <ele>428.89</ele>
        <time>2010-04-25T10:04:50Z</time>
      </trkpt>
      <trkpt lat="46.86229" lon="4.54881">
        <ele>428.89</ele>
        <time>2010-04-25T10:04:52Z</time>
      </trkpt>
      <trkpt lat="46.8623" lon="4.54896">
        <ele>429.85</ele>
        <time>2010-04-25T10:04:54Z</time>
      </trkpt>
      <trkpt lat="46.86233" lon="4.54909">
        <ele>429.37</ele>
        <time>2010-04-25T10:04:56Z</time>
      </trkpt>
      <trkpt lat="46.86237" lon="4.54926">
        <ele>428.89</ele>
        <time>2010-04-25T10:04:59Z</time>
      </trkpt>
      <trkpt lat="46.86253" lon="4.54973">
        <ele>428.89</ele>
        <time>2010-04-25T10:05:08Z</time>
      </trkpt>
      <trkpt lat="46.86267" lon="4.55013">
        <ele>429.37</ele>
        <time>2010-04-25T10:05:16Z</time>
      </trkpt>
      <trkpt lat="46.86276" lon="4.55051">
        <ele>429.85</ele>
        <time>2010-04-25T10:05:24Z</time>
      </trkpt>
      <trkpt lat="46.86283" lon="4.55088">
        <ele>429.85</ele>
        <time>2010-04-25T10:05:32Z</time>
      </trkpt>
      <trkpt lat="46.8629" lon="4.55116">
        <ele>429.85</ele>
        <time>2010-04-25T10:05:39Z</time>
      </trkpt>
      <trkpt lat="46.86291" lon="4.55122">
        <ele>429.85</ele>
        <time>2010-04-25T10:05:41Z</time>
      </trkpt>
      <trkpt lat="46.86291" lon="4.55124">
        <ele>430.33</ele>
        <time>2010-04-25T10:05:42Z</time>
      </trkpt>
      <trkpt lat="46.86289" lon="4.55125">
        <ele>429.37</ele>
        <time>2010-04-25T10:05:43Z</time>
      </trkpt>
      <trkpt lat="46.86286" lon="4.55124">
        <ele>428.89</ele>
        <time>2010-04-25T10:05:44Z</time>
      </trkpt>
      <trkpt lat="46.86284" lon="4.55124">
        <ele>428.89</ele>
        <time>2010-04-25T10:05:45Z</time>
      </trkpt>
      <trkpt lat="46.86281" lon="4.55124">
        <ele>428.4</ele>
        <time>2010-04-25T10:05:46Z</time>
      </trkpt>
      <trkpt lat="46.86263" lon="4.55124">
        <ele>426.96</ele>
        <time>2010-04-25T10:05:52Z</time>
      </trkpt>
      <trkpt lat="46.86246" lon="4.55127">
        <ele>424.56</ele>
        <time>2010-04-25T10:05:57Z</time>
      </trkpt>
      <trkpt lat="46.86219" lon="4.55132">
        <ele>423.12</ele>
        <time>2010-04-25T10:06:04Z</time>
      </trkpt>
      <trkpt lat="46.86214" lon="4.55133">
        <ele>423.12</ele>
        <time>2010-04-25T10:06:05Z</time>
      </trkpt>
      <trkpt lat="46.86208" lon="4.55136">
        <ele>422.64</ele>
        <time>2010-04-25T10:06:06Z</time>
      </trkpt>
      <trkpt lat="46.86202" lon="4.55139">
        <ele>422.64</ele>
        <time>2010-04-25T10:06:07Z</time>
      </trkpt>
      <trkpt lat="46.86196" lon="4.55143">
        <ele>422.16</ele>
        <time>2010-04-25T10:06:08Z</time>
      </trkpt>
      <trkpt lat="46.86191" lon="4.55147">
        <ele>422.16</ele>
        <time>2010-04-25T10:06:09Z</time>
      </trkpt>
      <trkpt lat="46.86187" lon="4.55152">
        <ele>422.16</ele>
        <time>2010-04-25T10:06:10Z</time>
      </trkpt>
      <trkpt lat="46.86183" lon="4.55158">
        <ele>422.64</ele>
        <time>2010-04-25T10:06:11Z</time>
      </trkpt>
      <trkpt lat="46.8615" lon="4.55186">
        <ele>421.19</ele>
        <time>2010-04-25T10:06:18Z</time>
      </trkpt>
      <trkpt lat="46.86112" lon="4.5521">
        <ele>421.19</ele>
        <time>2010-04-25T10:06:26Z</time>
      </trkpt>
      <trkpt lat="46.86101" lon="4.55213">
        <ele>421.19</ele>
        <time>2010-04-25T10:06:28Z</time>
      </trkpt>
      <trkpt lat="46.86096" lon="4.55214">
        <ele>420.71</ele>
        <time>2010-04-25T10:06:29Z</time>
      </trkpt>
      <trkpt lat="46.86091" lon="4.55213">
        <ele>420.71</ele>
        <time>2010-04-25T10:06:30Z</time>
      </trkpt>
      <trkpt lat="46.86086" lon="4.55212">
        <ele>420.71</ele>
        <time>2010-04-25T10:06:31Z</time>
      </trkpt>
      <trkpt lat="46.86081" lon="4.5521">
        <ele>420.71</ele>
        <time>2010-04-25T10:06:32Z</time>
      </trkpt>
      <trkpt lat="46.8607" lon="4.55207">
        <ele>420.23</ele>
        <time>2010-04-25T10:06:34Z</time>
      </trkpt>
      <trkpt lat="46.86064" lon="4.55203">
        <ele>419.75</ele>
        <time>2010-04-25T10:06:35Z</time>
      </trkpt>
      <trkpt lat="46.86052" lon="4.55195">
        <ele>418.79</ele>
        <time>2010-04-25T10:06:37Z</time>
      </trkpt>
      <trkpt lat="46.86019" lon="4.55165">
        <ele>414.95</ele>
        <time>2010-04-25T10:06:42Z</time>
      </trkpt>
      <trkpt lat="46.85989" lon="4.55145">
        <ele>411.1</ele>
        <time>2010-04-25T10:06:46Z</time>
      </trkpt>
      <trkpt lat="46.85975" lon="4.55137">
        <ele>407.74</ele>
        <time>2010-04-25T10:06:48Z</time>
      </trkpt>
      <trkpt lat="46.85963" lon="4.5513">
        <ele>405.33</ele>
        <time>2010-04-25T10:06:50Z</time>
      </trkpt>
      <trkpt lat="46.8596" lon="4.55126">
        <ele>403.41</ele>
        <time>2010-04-25T10:06:51Z</time>
      </trkpt>
      <trkpt lat="46.85956" lon="4.55121">
        <ele>403.89</ele>
        <time>2010-04-25T10:06:52Z</time>
      </trkpt>
      <trkpt lat="46.85952" lon="4.55117">
        <ele>402.93</ele>
        <time>2010-04-25T10:06:53Z</time>
      </trkpt>
      <trkpt lat="46.85948" lon="4.55113">
        <ele>401.01</ele>
        <time>2010-04-25T10:06:54Z</time>
      </trkpt>
      <trkpt lat="46.85943" lon="4.55108">
        <ele>400.05</ele>
        <time>2010-04-25T10:06:55Z</time>
      </trkpt>
      <trkpt lat="46.85939" lon="4.55103">
        <ele>400.53</ele>
        <time>2010-04-25T10:06:56Z</time>
      </trkpt>
      <trkpt lat="46.85929" lon="4.55092">
        <ele>397.64</ele>
        <time>2010-04-25T10:06:58Z</time>
      </trkpt>
      <trkpt lat="46.85923" lon="4.55086">
        <ele>396.68</ele>
        <time>2010-04-25T10:06:59Z</time>
      </trkpt>
      <trkpt lat="46.85917" lon="4.55079">
        <ele>396.2</ele>
        <time>2010-04-25T10:07:00Z</time>
      </trkpt>
      <trkpt lat="46.85897" lon="4.55059">
        <ele>392.84</ele>
        <time>2010-04-25T10:07:03Z</time>
      </trkpt>
      <trkpt lat="46.85885" lon="4.55048">
        <ele>390.91</ele>
        <time>2010-04-25T10:07:05Z</time>
      </trkpt>
      <trkpt lat="46.8588" lon="4.55043">
        <ele>391.39</ele>
        <time>2010-04-25T10:07:06Z</time>
      </trkpt>
      <trkpt lat="46.85876" lon="4.55041">
        <ele>390.91</ele>
        <time>2010-04-25T10:07:07Z</time>
      </trkpt>
      <trkpt lat="46.85872" lon="4.55041">
        <ele>389.95</ele>
        <time>2010-04-25T10:07:08Z</time>
      </trkpt>
      <trkpt lat="46.85868" lon="4.55044">
        <ele>389.95</ele>
        <time>2010-04-25T10:07:09Z</time>
      </trkpt>
      <trkpt lat="46.85864" lon="4.55048">
        <ele>388.99</ele>
        <time>2010-04-25T10:07:10Z</time>
      </trkpt>
      <trkpt lat="46.8586" lon="4.55053">
        <ele>388.03</ele>
        <time>2010-04-25T10:07:11Z</time>
      </trkpt>
      <trkpt lat="46.85857" lon="4.5506">
        <ele>388.99</ele>
        <time>2010-04-25T10:07:12Z</time>
      </trkpt>
      <trkpt lat="46.85854" lon="4.55066">
        <ele>388.51</ele>
        <time>2010-04-25T10:07:13Z</time>
      </trkpt>
      <trkpt lat="46.85851" lon="4.55073">
        <ele>388.03</ele>
        <time>2010-04-25T10:07:14Z</time>
      </trkpt>
      <trkpt lat="46.85849" lon="4.55081">
        <ele>387.55</ele>
        <time>2010-04-25T10:07:15Z</time>
      </trkpt>
      <trkpt lat="46.85847" lon="4.55088">
        <ele>387.55</ele>
        <time>2010-04-25T10:07:16Z</time>
      </trkpt>
      <trkpt lat="46.85847" lon="4.55095">
        <ele>388.03</ele>
        <time>2010-04-25T10:07:17Z</time>
      </trkpt>
      <trkpt lat="46.85847" lon="4.55102">
        <ele>387.55</ele>
        <time>2010-04-25T10:07:18Z</time>
      </trkpt>
      <trkpt lat="46.85848" lon="4.55108">
        <ele>388.51</ele>
        <time>2010-04-25T10:07:19Z</time>
      </trkpt>
      <trkpt lat="46.8585" lon="4.55135">
        <ele>388.51</ele>
        <time>2010-04-25T10:07:23Z</time>
      </trkpt>
      <trkpt lat="46.8585" lon="4.55142">
        <ele>387.55</ele>
        <time>2010-04-25T10:07:24Z</time>
      </trkpt>
      <trkpt lat="46.85849" lon="4.5515">
        <ele>387.55</ele>
        <time>2010-04-25T10:07:25Z</time>
      </trkpt>
      <trkpt lat="46.85848" lon="4.55157">
        <ele>388.03</ele>
        <time>2010-04-25T10:07:26Z</time>
      </trkpt>
      <trkpt lat="46.85846" lon="4.55165">
        <ele>388.51</ele>
        <time>2010-04-25T10:07:27Z</time>
      </trkpt>
      <trkpt lat="46.85844" lon="4.55173">
        <ele>388.51</ele>
        <time>2010-04-25T10:07:28Z</time>
      </trkpt>
      <trkpt lat="46.85841" lon="4.5518">
        <ele>388.03</ele>
        <time>2010-04-25T10:07:29Z</time>
      </trkpt>
      <trkpt lat="46.85825" lon="4.55223">
        <ele>385.15</ele>
        <time>2010-04-25T10:07:34Z</time>
      </trkpt>
      <trkpt lat="46.85822" lon="4.55229">
        <ele>385.15</ele>
        <time>2010-04-25T10:07:35Z</time>
      </trkpt>
      <trkpt lat="46.85818" lon="4.55234">
        <ele>383.22</ele>
        <time>2010-04-25T10:07:36Z</time>
      </trkpt>
      <trkpt lat="46.85812" lon="4.55237">
        <ele>382.26</ele>
        <time>2010-04-25T10:07:37Z</time>
      </trkpt>
      <trkpt lat="46.85774" lon="4.55245">
        <ele>379.38</ele>
        <time>2010-04-25T10:07:42Z</time>
      </trkpt>
      <trkpt lat="46.8575" lon="4.55252">
        <ele>376.01</ele>
        <time>2010-04-25T10:07:45Z</time>
      </trkpt>
      <trkpt lat="46.85735" lon="4.55257">
        <ele>373.13</ele>
        <time>2010-04-25T10:07:47Z</time>
      </trkpt>
      <trkpt lat="46.85721" lon="4.55262">
        <ele>371.21</ele>
        <time>2010-04-25T10:07:49Z</time>
      </trkpt>
      <trkpt lat="46.85699" lon="4.55273">
        <ele>367.84</ele>
        <time>2010-04-25T10:07:52Z</time>
      </trkpt>
      <trkpt lat="46.85658" lon="4.55296">
        <ele>364</ele>
        <time>2010-04-25T10:07:57Z</time>
      </trkpt>
      <trkpt lat="46.85651" lon="4.55301">
        <ele>364</ele>
        <time>2010-04-25T10:07:58Z</time>
      </trkpt>
      <trkpt lat="46.85628" lon="4.55316">
        <ele>363.52</ele>
        <time>2010-04-25T10:08:01Z</time>
      </trkpt>
      <trkpt lat="46.85621" lon="4.55323">
        <ele>362.07</ele>
        <time>2010-04-25T10:08:02Z</time>
      </trkpt>
      <trkpt lat="46.85615" lon="4.55332">
        <ele>362.07</ele>
        <time>2010-04-25T10:08:03Z</time>
      </trkpt>
      <trkpt lat="46.85611" lon="4.55341">
        <ele>361.59</ele>
        <time>2010-04-25T10:08:04Z</time>
      </trkpt>
      <trkpt lat="46.85609" lon="4.55351">
        <ele>361.11</ele>
        <time>2010-04-25T10:08:05Z</time>
      </trkpt>
      <trkpt lat="46.85609" lon="4.55361">
        <ele>361.11</ele>
        <time>2010-04-25T10:08:06Z</time>
      </trkpt>
      <trkpt lat="46.85611" lon="4.5537">
        <ele>360.63</ele>
        <time>2010-04-25T10:08:07Z</time>
      </trkpt>
      <trkpt lat="46.85614" lon="4.55377">
        <ele>360.63</ele>
        <time>2010-04-25T10:08:08Z</time>
      </trkpt>
      <trkpt lat="46.85617" lon="4.55384">
        <ele>361.11</ele>
        <time>2010-04-25T10:08:09Z</time>
      </trkpt>
      <trkpt lat="46.8562" lon="4.5539">
        <ele>362.07</ele>
        <time>2010-04-25T10:08:10Z</time>
      </trkpt>
      <trkpt lat="46.85637" lon="4.55428">
        <ele>362.55</ele>
        <time>2010-04-25T10:08:17Z</time>
      </trkpt>
      <trkpt lat="46.85645" lon="4.55446">
        <ele>364</ele>
        <time>2010-04-25T10:08:21Z</time>
      </trkpt>
      <trkpt lat="46.85652" lon="4.55462">
        <ele>363.52</ele>
        <time>2010-04-25T10:08:25Z</time>
      </trkpt>
      <trkpt lat="46.85652" lon="4.55466">
        <ele>363.52</ele>
        <time>2010-04-25T10:08:26Z</time>
      </trkpt>
      <trkpt lat="46.8565" lon="4.5547">
        <ele>364</ele>
        <time>2010-04-25T10:08:27Z</time>
      </trkpt>
      <trkpt lat="46.85647" lon="4.55473">
        <ele>364.48</ele>
        <time>2010-04-25T10:08:28Z</time>
      </trkpt>
      <trkpt lat="46.85644" lon="4.55476">
        <ele>363.52</ele>
        <time>2010-04-25T10:08:29Z</time>
      </trkpt>
      <trkpt lat="46.8563" lon="4.55491">
        <ele>364</ele>
        <time>2010-04-25T10:08:33Z</time>
      </trkpt>
      <trkpt lat="46.85627" lon="4.55495">
        <ele>364</ele>
        <time>2010-04-25T10:08:34Z</time>
      </trkpt>
      <trkpt lat="46.85624" lon="4.55499">
        <ele>363.04</ele>
        <time>2010-04-25T10:08:35Z</time>
      </trkpt>
      <trkpt lat="46.856" lon="4.55541">
        <ele>363.04</ele>
        <time>2010-04-25T10:08:44Z</time>
      </trkpt>
      <trkpt lat="46.85598" lon="4.55546">
        <ele>364.96</ele>
        <time>2010-04-25T10:08:45Z</time>
      </trkpt>
      <trkpt lat="46.85595" lon="4.55551">
        <ele>364</ele>
        <time>2010-04-25T10:08:46Z</time>
      </trkpt>
      <trkpt lat="46.85592" lon="4.55556">
        <ele>363.04</ele>
        <time>2010-04-25T10:08:47Z</time>
      </trkpt>
      <trkpt lat="46.85587" lon="4.55566">
        <ele>364</ele>
        <time>2010-04-25T10:08:49Z</time>
      </trkpt>
      <trkpt lat="46.85561" lon="4.55612">
        <ele>364.96</ele>
        <time>2010-04-25T10:08:58Z</time>
      </trkpt>
      <trkpt lat="46.85546" lon="4.55638">
        <ele>365.92</ele>
        <time>2010-04-25T10:09:05Z</time>
      </trkpt>
      <trkpt lat="46.85537" lon="4.55648">
        <ele>366.88</ele>
        <time>2010-04-25T10:09:09Z</time>
      </trkpt>
      <trkpt lat="46.8552" lon="4.55644">
        <ele>368.32</ele>
        <time>2010-04-25T10:09:15Z</time>
      </trkpt>
      <trkpt lat="46.85516" lon="4.5564">
        <ele>368.32</ele>
        <time>2010-04-25T10:09:16Z</time>
      </trkpt>
      <trkpt lat="46.85513" lon="4.55634">
        <ele>367.36</ele>
        <time>2010-04-25T10:09:17Z</time>
      </trkpt>
      <trkpt lat="46.85489" lon="4.55587">
        <ele>366.4</ele>
        <time>2010-04-25T10:09:23Z</time>
      </trkpt>
      <trkpt lat="46.85472" lon="4.55551">
        <ele>364</ele>
        <time>2010-04-25T10:09:27Z</time>
      </trkpt>
      <trkpt lat="46.85468" lon="4.55547">
        <ele>363.52</ele>
        <time>2010-04-25T10:09:28Z</time>
      </trkpt>
      <trkpt lat="46.85463" lon="4.55545">
        <ele>362.07</ele>
        <time>2010-04-25T10:09:29Z</time>
      </trkpt>
      <trkpt lat="46.8546" lon="4.55546">
        <ele>361.59</ele>
        <time>2010-04-25T10:09:30Z</time>
      </trkpt>
      <trkpt lat="46.85457" lon="4.5555">
        <ele>361.11</ele>
        <time>2010-04-25T10:09:31Z</time>
      </trkpt>
      <trkpt lat="46.85455" lon="4.55554">
        <ele>360.15</ele>
        <time>2010-04-25T10:09:32Z</time>
      </trkpt>
      <trkpt lat="46.85454" lon="4.55559">
        <ele>361.11</ele>
        <time>2010-04-25T10:09:33Z</time>
      </trkpt>
      <trkpt lat="46.85454" lon="4.55565">
        <ele>362.07</ele>
        <time>2010-04-25T10:09:34Z</time>
      </trkpt>
      <trkpt lat="46.85454" lon="4.5557">
        <ele>361.59</ele>
        <time>2010-04-25T10:09:35Z</time>
      </trkpt>
      <trkpt lat="46.85454" lon="4.55576">
        <ele>361.59</ele>
        <time>2010-04-25T10:09:36Z</time>
      </trkpt>
      <trkpt lat="46.85452" lon="4.55603">
        <ele>363.52</ele>
        <time>2010-04-25T10:09:42Z</time>
      </trkpt>
      <trkpt lat="46.85452" lon="4.55635">
        <ele>365.92</ele>
        <time>2010-04-25T10:09:51Z</time>
      </trkpt>
      <trkpt lat="46.85451" lon="4.55642">
        <ele>366.88</ele>
        <time>2010-04-25T10:09:53Z</time>
      </trkpt>
      <trkpt lat="46.85448" lon="4.55668">
        <ele>368.32</ele>
        <time>2010-04-25T10:10:02Z</time>
      </trkpt>
      <trkpt lat="46.85445" lon="4.55689">
        <ele>367.84</ele>
        <time>2010-04-25T10:10:10Z</time>
      </trkpt>
      <trkpt lat="46.85443" lon="4.55711">
        <ele>369.28</ele>
        <time>2010-04-25T10:10:19Z</time>
      </trkpt>
      <trkpt lat="46.85442" lon="4.55738">
        <ele>371.21</ele>
        <time>2010-04-25T10:10:30Z</time>
      </trkpt>
      <trkpt lat="46.85442" lon="4.55759">
        <ele>370.73</ele>
        <time>2010-04-25T10:10:38Z</time>
      </trkpt>
      <trkpt lat="46.85443" lon="4.55779">
        <ele>372.65</ele>
        <time>2010-04-25T10:10:46Z</time>
      </trkpt>
      <trkpt lat="46.85444" lon="4.55804">
        <ele>374.57</ele>
        <time>2010-04-25T10:10:56Z</time>
      </trkpt>
      <trkpt lat="46.85445" lon="4.55822">
        <ele>374.57</ele>
        <time>2010-04-25T10:11:03Z</time>
      </trkpt>
      <trkpt lat="46.85445" lon="4.55833">
        <ele>375.53</ele>
        <time>2010-04-25T10:11:08Z</time>
      </trkpt>
      <trkpt lat="46.85446" lon="4.55834">
        <ele>376.01</ele>
        <time>2010-04-25T10:11:09Z</time>
      </trkpt>
      <trkpt lat="46.85446" lon="4.55837">
        <ele>376.97</ele>
        <time>2010-04-25T10:11:10Z</time>
      </trkpt>
      <trkpt lat="46.85447" lon="4.55839">
        <ele>376.97</ele>
        <time>2010-04-25T10:11:11Z</time>
      </trkpt>
      <trkpt lat="46.85447" lon="4.55842">
        <ele>376.01</ele>
        <time>2010-04-25T10:11:12Z</time>
      </trkpt>
      <trkpt lat="46.85447" lon="4.55844">
        <ele>376.49</ele>
        <time>2010-04-25T10:11:13Z</time>
      </trkpt>
      <trkpt lat="46.85448" lon="4.55864">
        <ele>378.42</ele>
        <time>2010-04-25T10:11:21Z</time>
      </trkpt>
      <trkpt lat="46.85451" lon="4.55885">
        <ele>379.86</ele>
        <time>2010-04-25T10:11:30Z</time>
      </trkpt>
      <trkpt lat="46.85455" lon="4.55906">
        <ele>380.82</ele>
        <time>2010-04-25T10:11:39Z</time>
      </trkpt>
      <trkpt lat="46.85458" lon="4.55927">
        <ele>383.22</ele>
        <time>2010-04-25T10:11:49Z</time>
      </trkpt>
      <trkpt lat="46.85459" lon="4.55932">
        <ele>384.18</ele>
        <time>2010-04-25T10:11:51Z</time>
      </trkpt>
      <trkpt lat="46.85459" lon="4.55934">
        <ele>384.18</ele>
        <time>2010-04-25T10:11:52Z</time>
      </trkpt>
      <trkpt lat="46.85461" lon="4.55942">
        <ele>383.22</ele>
        <time>2010-04-25T10:11:56Z</time>
      </trkpt>
      <trkpt lat="46.85461" lon="4.55949">
        <ele>384.66</ele>
        <time>2010-04-25T10:11:59Z</time>
      </trkpt>
      <trkpt lat="46.85462" lon="4.55958">
        <ele>385.63</ele>
        <time>2010-04-25T10:12:03Z</time>
      </trkpt>
      <trkpt lat="46.85463" lon="4.55972">
        <ele>387.07</ele>
        <time>2010-04-25T10:12:10Z</time>
      </trkpt>
      <trkpt lat="46.85465" lon="4.55989">
        <ele>389.47</ele>
        <time>2010-04-25T10:12:19Z</time>
      </trkpt>
      <trkpt lat="46.85466" lon="4.55992">
        <ele>387.07</ele>
        <time>2010-04-25T10:12:21Z</time>
      </trkpt>
      <trkpt lat="46.85468" lon="4.56007">
        <ele>390.43</ele>
        <time>2010-04-25T10:12:29Z</time>
      </trkpt>
      <trkpt lat="46.85472" lon="4.56028">
        <ele>392.36</ele>
        <time>2010-04-25T10:12:40Z</time>
      </trkpt>
      <trkpt lat="46.85475" lon="4.56044">
        <ele>393.32</ele>
        <time>2010-04-25T10:12:49Z</time>
      </trkpt>
      <trkpt lat="46.85479" lon="4.56063">
        <ele>393.32</ele>
        <time>2010-04-25T10:12:58Z</time>
      </trkpt>
      <trkpt lat="46.85481" lon="4.56074">
        <ele>396.2</ele>
        <time>2010-04-25T10:13:04Z</time>
      </trkpt>
      <trkpt lat="46.85488" lon="4.56095">
        <ele>396.2</ele>
        <time>2010-04-25T10:13:15Z</time>
      </trkpt>
      <trkpt lat="46.85496" lon="4.56113">
        <ele>399.08</ele>
        <time>2010-04-25T10:13:25Z</time>
      </trkpt>
      <trkpt lat="46.85497" lon="4.56117">
        <ele>396.68</ele>
        <time>2010-04-25T10:13:27Z</time>
      </trkpt>
      <trkpt lat="46.85499" lon="4.56121">
        <ele>399.08</ele>
        <time>2010-04-25T10:13:29Z</time>
      </trkpt>
      <trkpt lat="46.85507" lon="4.56138">
        <ele>399.57</ele>
        <time>2010-04-25T10:13:38Z</time>
      </trkpt>
      <trkpt lat="46.85512" lon="4.56157">
        <ele>400.05</ele>
        <time>2010-04-25T10:13:47Z</time>
      </trkpt>
      <trkpt lat="46.85515" lon="4.56183">
        <ele>401.49</ele>
        <time>2010-04-25T10:13:58Z</time>
      </trkpt>
      <trkpt lat="46.85515" lon="4.56199">
        <ele>402.45</ele>
        <time>2010-04-25T10:14:04Z</time>
      </trkpt>
      <trkpt lat="46.85514" lon="4.56202">
        <ele>402.93</ele>
        <time>2010-04-25T10:14:05Z</time>
      </trkpt>
      <trkpt lat="46.85514" lon="4.56204">
        <ele>401.97</ele>
        <time>2010-04-25T10:14:06Z</time>
      </trkpt>
      <trkpt lat="46.85511" lon="4.56222">
        <ele>403.41</ele>
        <time>2010-04-25T10:14:13Z</time>
      </trkpt>
      <trkpt lat="46.85508" lon="4.56247">
        <ele>403.89</ele>
        <time>2010-04-25T10:14:22Z</time>
      </trkpt>
      <trkpt lat="46.85506" lon="4.56273">
        <ele>404.85</ele>
        <time>2010-04-25T10:14:30Z</time>
      </trkpt>
      <trkpt lat="46.85507" lon="4.5631">
        <ele>405.33</ele>
        <time>2010-04-25T10:14:40Z</time>
      </trkpt>
      <trkpt lat="46.85514" lon="4.56341">
        <ele>406.77</ele>
        <time>2010-04-25T10:14:48Z</time>
      </trkpt>
      <trkpt lat="46.85522" lon="4.56374">
        <ele>406.77</ele>
        <time>2010-04-25T10:14:56Z</time>
      </trkpt>
      <trkpt lat="46.85532" lon="4.56406">
        <ele>407.26</ele>
        <time>2010-04-25T10:15:04Z</time>
      </trkpt>
      <trkpt lat="46.85546" lon="4.56443">
        <ele>408.22</ele>
        <time>2010-04-25T10:15:13Z</time>
      </trkpt>
      <trkpt lat="46.85556" lon="4.56476">
        <ele>408.7</ele>
        <time>2010-04-25T10:15:21Z</time>
      </trkpt>
      <trkpt lat="46.85569" lon="4.56518">
        <ele>409.18</ele>
        <time>2010-04-25T10:15:30Z</time>
      </trkpt>
      <trkpt lat="46.85579" lon="4.5656">
        <ele>407.26</ele>
        <time>2010-04-25T10:15:36Z</time>
      </trkpt>
      <trkpt lat="46.85588" lon="4.56592">
        <ele>407.26</ele>
        <time>2010-04-25T10:15:40Z</time>
      </trkpt>
      <trkpt lat="46.8559" lon="4.56598">
        <ele>407.26</ele>
        <time>2010-04-25T10:15:41Z</time>
      </trkpt>
      <trkpt lat="46.85593" lon="4.56612">
        <ele>407.26</ele>
        <time>2010-04-25T10:15:43Z</time>
      </trkpt>
      <trkpt lat="46.85597" lon="4.56636">
        <ele>406.77</ele>
        <time>2010-04-25T10:15:46Z</time>
      </trkpt>
      <trkpt lat="46.856" lon="4.56711">
        <ele>404.85</ele>
        <time>2010-04-25T10:15:54Z</time>
      </trkpt>
      <trkpt lat="46.85599" lon="4.56719">
        <ele>404.85</ele>
        <time>2010-04-25T10:15:55Z</time>
      </trkpt>
      <trkpt lat="46.85598" lon="4.56725">
        <ele>404.37</ele>
        <time>2010-04-25T10:15:56Z</time>
      </trkpt>
      <trkpt lat="46.85598" lon="4.56729">
        <ele>404.37</ele>
        <time>2010-04-25T10:15:57Z</time>
      </trkpt>
      <trkpt lat="46.85597" lon="4.56733">
        <ele>404.37</ele>
        <time>2010-04-25T10:15:58Z</time>
      </trkpt>
      <trkpt lat="46.85597" lon="4.56737">
        <ele>403.89</ele>
        <time>2010-04-25T10:15:59Z</time>
      </trkpt>
      <trkpt lat="46.85594" lon="4.56769">
        <ele>404.85</ele>
        <time>2010-04-25T10:16:06Z</time>
      </trkpt>
      <trkpt lat="46.85592" lon="4.56818">
        <ele>406.29</ele>
        <time>2010-04-25T10:16:16Z</time>
      </trkpt>
      <trkpt lat="46.85591" lon="4.56858">
        <ele>407.74</ele>
        <time>2010-04-25T10:16:25Z</time>
      </trkpt>
      <trkpt lat="46.85596" lon="4.56895">
        <ele>408.22</ele>
        <time>2010-04-25T10:16:34Z</time>
      </trkpt>
      <trkpt lat="46.8561" lon="4.56928">
        <ele>409.66</ele>
        <time>2010-04-25T10:16:43Z</time>
      </trkpt>
      <trkpt lat="46.85627" lon="4.56952">
        <ele>410.62</ele>
        <time>2010-04-25T10:16:51Z</time>
      </trkpt>
      <trkpt lat="46.8565" lon="4.56981">
        <ele>411.1</ele>
        <time>2010-04-25T10:17:01Z</time>
      </trkpt>
      <trkpt lat="46.85677" lon="4.57011">
        <ele>412.54</ele>
        <time>2010-04-25T10:17:12Z</time>
      </trkpt>
      <trkpt lat="46.85704" lon="4.57031">
        <ele>413.98</ele>
        <time>2010-04-25T10:17:22Z</time>
      </trkpt>
      <trkpt lat="46.8573" lon="4.57049">
        <ele>414.47</ele>
        <time>2010-04-25T10:17:31Z</time>
      </trkpt>
      <trkpt lat="46.8576" lon="4.57069">
        <ele>414.95</ele>
        <time>2010-04-25T10:17:41Z</time>
      </trkpt>
      <trkpt lat="46.85785" lon="4.57086">
        <ele>415.43</ele>
        <time>2010-04-25T10:17:50Z</time>
      </trkpt>
      <trkpt lat="46.85811" lon="4.57103">
        <ele>415.91</ele>
        <time>2010-04-25T10:17:59Z</time>
      </trkpt>
      <trkpt lat="46.85834" lon="4.57119">
        <ele>417.35</ele>
        <time>2010-04-25T10:18:07Z</time>
      </trkpt>
      <trkpt lat="46.85849" lon="4.57135">
        <ele>416.87</ele>
        <time>2010-04-25T10:18:13Z</time>
      </trkpt>
      <trkpt lat="46.8587" lon="4.57155">
        <ele>418.31</ele>
        <time>2010-04-25T10:18:21Z</time>
      </trkpt>
      <trkpt lat="46.85889" lon="4.57183">
        <ele>418.79</ele>
        <time>2010-04-25T10:18:29Z</time>
      </trkpt>
      <trkpt lat="46.85895" lon="4.5719">
        <ele>418.31</ele>
        <time>2010-04-25T10:18:31Z</time>
      </trkpt>
      <trkpt lat="46.85924" lon="4.57231">
        <ele>416.39</ele>
        <time>2010-04-25T10:18:38Z</time>
      </trkpt>
      <trkpt lat="46.85928" lon="4.57238">
        <ele>415.91</ele>
        <time>2010-04-25T10:18:39Z</time>
      </trkpt>
      <trkpt lat="46.85931" lon="4.57245">
        <ele>415.91</ele>
        <time>2010-04-25T10:18:40Z</time>
      </trkpt>
      <trkpt lat="46.85935" lon="4.57259">
        <ele>415.43</ele>
        <time>2010-04-25T10:18:42Z</time>
      </trkpt>
      <trkpt lat="46.85944" lon="4.57303">
        <ele>414.95</ele>
        <time>2010-04-25T10:18:50Z</time>
      </trkpt>
      <trkpt lat="46.85951" lon="4.57344">
        <ele>414.47</ele>
        <time>2010-04-25T10:18:57Z</time>
      </trkpt>
      <trkpt lat="46.8596" lon="4.57403">
        <ele>413.5</ele>
        <time>2010-04-25T10:19:05Z</time>
      </trkpt>
      <trkpt lat="46.85969" lon="4.57457">
        <ele>413.02</ele>
        <time>2010-04-25T10:19:12Z</time>
      </trkpt>
      <trkpt lat="46.85975" lon="4.57497">
        <ele>412.06</ele>
        <time>2010-04-25T10:19:17Z</time>
      </trkpt>
      <trkpt lat="46.85976" lon="4.57504">
        <ele>411.58</ele>
        <time>2010-04-25T10:19:18Z</time>
      </trkpt>
      <trkpt lat="46.85978" lon="4.5751">
        <ele>411.1</ele>
        <time>2010-04-25T10:19:19Z</time>
      </trkpt>
      <trkpt lat="46.85981" lon="4.57523">
        <ele>409.66</ele>
        <time>2010-04-25T10:19:21Z</time>
      </trkpt>
      <trkpt lat="46.85992" lon="4.5757">
        <ele>406.29</ele>
        <time>2010-04-25T10:19:26Z</time>
      </trkpt>
      <trkpt lat="46.86008" lon="4.57639">
        <ele>402.45</ele>
        <time>2010-04-25T10:19:32Z</time>
      </trkpt>
      <trkpt lat="46.86016" lon="4.57678">
        <ele>400.53</ele>
        <time>2010-04-25T10:19:35Z</time>
      </trkpt>
      <trkpt lat="46.86035" lon="4.57726">
        <ele>397.16</ele>
        <time>2010-04-25T10:19:39Z</time>
      </trkpt>
      <trkpt lat="46.86045" lon="4.57747">
        <ele>394.76</ele>
        <time>2010-04-25T10:19:41Z</time>
      </trkpt>
      <trkpt lat="46.86058" lon="4.57766">
        <ele>392.36</ele>
        <time>2010-04-25T10:19:43Z</time>
      </trkpt>
      <trkpt lat="46.86075" lon="4.57803">
        <ele>388.99</ele>
        <time>2010-04-25T10:19:46Z</time>
      </trkpt>
      <trkpt lat="46.86094" lon="4.57836">
        <ele>385.63</ele>
        <time>2010-04-25T10:19:49Z</time>
      </trkpt>
      <trkpt lat="46.86112" lon="4.57864">
        <ele>381.78</ele>
        <time>2010-04-25T10:19:52Z</time>
      </trkpt>
      <trkpt lat="46.86122" lon="4.57879">
        <ele>379.38</ele>
        <time>2010-04-25T10:19:54Z</time>
      </trkpt>
      <trkpt lat="46.86127" lon="4.57885">
        <ele>378.42</ele>
        <time>2010-04-25T10:19:55Z</time>
      </trkpt>
      <trkpt lat="46.8614" lon="4.57898">
        <ele>374.57</ele>
        <time>2010-04-25T10:19:58Z</time>
      </trkpt>
      <trkpt lat="46.86147" lon="4.57904">
        <ele>372.65</ele>
        <time>2010-04-25T10:20:01Z</time>
      </trkpt>
      <trkpt lat="46.86163" lon="4.57908">
        <ele>370.73</ele>
        <time>2010-04-25T10:20:05Z</time>
      </trkpt>
      <trkpt lat="46.86182" lon="4.57914">
        <ele>367.36</ele>
        <time>2010-04-25T10:20:08Z</time>
      </trkpt>
      <trkpt lat="46.86188" lon="4.57917">
        <ele>365.44</ele>
        <time>2010-04-25T10:20:09Z</time>
      </trkpt>
      <trkpt lat="46.86191" lon="4.57921">
        <ele>364.48</ele>
        <time>2010-04-25T10:20:10Z</time>
      </trkpt>
      <trkpt lat="46.86193" lon="4.57924">
        <ele>363.04</ele>
        <time>2010-04-25T10:20:11Z</time>
      </trkpt>
      <trkpt lat="46.86195" lon="4.57926">
        <ele>363.52</ele>
        <time>2010-04-25T10:20:12Z</time>
      </trkpt>
      <trkpt lat="46.86196" lon="4.57927">
        <ele>363.04</ele>
        <time>2010-04-25T10:20:13Z</time>
      </trkpt>
      <trkpt lat="46.86198" lon="4.57927">
        <ele>363.04</ele>
        <time>2010-04-25T10:20:15Z</time>
      </trkpt>
      <trkpt lat="46.86199" lon="4.57936">
        <ele>362.07</ele>
        <time>2010-04-25T10:20:18Z</time>
      </trkpt>
      <trkpt lat="46.86205" lon="4.57959">
        <ele>359.67</ele>
        <time>2010-04-25T10:20:21Z</time>
      </trkpt>
      <trkpt lat="46.86215" lon="4.58015">
        <ele>356.31</ele>
        <time>2010-04-25T10:20:26Z</time>
      </trkpt>
      <trkpt lat="46.86222" lon="4.58054">
        <ele>352.94</ele>
        <time>2010-04-25T10:20:30Z</time>
      </trkpt>
      <trkpt lat="46.86224" lon="4.58064">
        <ele>351.98</ele>
        <time>2010-04-25T10:20:32Z</time>
      </trkpt>
      <trkpt lat="46.86224" lon="4.5807">
        <ele>351.98</ele>
        <time>2010-04-25T10:20:33Z</time>
      </trkpt>
      <trkpt lat="46.86225" lon="4.58075">
        <ele>351.98</ele>
        <time>2010-04-25T10:20:34Z</time>
      </trkpt>
      <trkpt lat="46.86227" lon="4.5808">
        <ele>351.98</ele>
        <time>2010-04-25T10:20:38Z</time>
      </trkpt>
      <trkpt lat="46.86227" lon="4.5808">
        <ele>351.98</ele>
        <time>2010-04-25T10:20:50Z</time>
      </trkpt>
      <trkpt lat="46.86227" lon="4.5808">
        <ele>351.98</ele>
        <time>2010-04-25T10:21:26Z</time>
      </trkpt>
      <trkpt lat="46.86227" lon="4.5808">
        <ele>351.5</ele>
        <time>2010-04-25T10:22:18Z</time>
      </trkpt>
      <trkpt lat="46.86227" lon="4.58078">
        <ele>352.46</ele>
        <time>2010-04-25T10:22:40Z</time>
      </trkpt>
      <trkpt lat="46.86226" lon="4.58077">
        <ele>352.46</ele>
        <time>2010-04-25T10:22:43Z</time>
      </trkpt>
      <trkpt lat="46.86225" lon="4.58074">
        <ele>352.46</ele>
        <time>2010-04-25T10:22:45Z</time>
      </trkpt>
      <trkpt lat="46.86224" lon="4.58071">
        <ele>351.98</ele>
        <time>2010-04-25T10:22:46Z</time>
      </trkpt>
      <trkpt lat="46.86224" lon="4.58068">
        <ele>351.5</ele>
        <time>2010-04-25T10:22:47Z</time>
      </trkpt>
      <trkpt lat="46.86226" lon="4.58065">
        <ele>351.5</ele>
        <time>2010-04-25T10:22:48Z</time>
      </trkpt>
      <trkpt lat="46.86229" lon="4.58065">
        <ele>351.5</ele>
        <time>2010-04-25T10:22:49Z</time>
      </trkpt>
      <trkpt lat="46.86232" lon="4.58064">
        <ele>351.5</ele>
        <time>2010-04-25T10:22:50Z</time>
      </trkpt>
      <trkpt lat="46.86236" lon="4.58063">
        <ele>351.02</ele>
        <time>2010-04-25T10:22:51Z</time>
      </trkpt>
      <trkpt lat="46.86253" lon="4.5806">
        <ele>349.58</ele>
        <time>2010-04-25T10:22:54Z</time>
      </trkpt>
      <trkpt lat="46.8626" lon="4.58061">
        <ele>348.62</ele>
        <time>2010-04-25T10:22:55Z</time>
      </trkpt>
      <trkpt lat="46.86268" lon="4.58063">
        <ele>347.17</ele>
        <time>2010-04-25T10:22:56Z</time>
      </trkpt>
      <trkpt lat="46.86277" lon="4.58065">
        <ele>346.69</ele>
        <time>2010-04-25T10:22:57Z</time>
      </trkpt>
      <trkpt lat="46.86286" lon="4.58067">
        <ele>345.73</ele>
        <time>2010-04-25T10:22:58Z</time>
      </trkpt>
      <trkpt lat="46.86313" lon="4.58071">
        <ele>342.37</ele>
        <time>2010-04-25T10:23:01Z</time>
      </trkpt>
      <trkpt lat="46.86321" lon="4.58071">
        <ele>340.92</ele>
        <time>2010-04-25T10:23:02Z</time>
      </trkpt>
      <trkpt lat="46.86329" lon="4.5807">
        <ele>339.96</ele>
        <time>2010-04-25T10:23:03Z</time>
      </trkpt>
      <trkpt lat="46.86336" lon="4.58066">
        <ele>338.52</ele>
        <time>2010-04-25T10:23:04Z</time>
      </trkpt>
      <trkpt lat="46.86344" lon="4.5806">
        <ele>337.08</ele>
        <time>2010-04-25T10:23:05Z</time>
      </trkpt>
      <trkpt lat="46.86352" lon="4.58051">
        <ele>335.16</ele>
        <time>2010-04-25T10:23:06Z</time>
      </trkpt>
      <trkpt lat="46.86358" lon="4.5804">
        <ele>333.71</ele>
        <time>2010-04-25T10:23:07Z</time>
      </trkpt>
      <trkpt lat="46.86363" lon="4.58027">
        <ele>332.75</ele>
        <time>2010-04-25T10:23:08Z</time>
      </trkpt>
      <trkpt lat="46.86368" lon="4.58013">
        <ele>332.27</ele>
        <time>2010-04-25T10:23:09Z</time>
      </trkpt>
      <trkpt lat="46.86372" lon="4.58001">
        <ele>331.31</ele>
        <time>2010-04-25T10:23:10Z</time>
      </trkpt>
      <trkpt lat="46.86378" lon="4.57991">
        <ele>330.35</ele>
        <time>2010-04-25T10:23:11Z</time>
      </trkpt>
      <trkpt lat="46.86384" lon="4.57983">
        <ele>329.39</ele>
        <time>2010-04-25T10:23:12Z</time>
      </trkpt>
      <trkpt lat="46.86392" lon="4.57978">
        <ele>328.91</ele>
        <time>2010-04-25T10:23:13Z</time>
      </trkpt>
      <trkpt lat="46.864" lon="4.57976">
        <ele>328.43</ele>
        <time>2010-04-25T10:23:14Z</time>
      </trkpt>
      <trkpt lat="46.86408" lon="4.57974">
        <ele>326.99</ele>
        <time>2010-04-25T10:23:15Z</time>
      </trkpt>
      <trkpt lat="46.86417" lon="4.57973">
        <ele>326.5</ele>
        <time>2010-04-25T10:23:16Z</time>
      </trkpt>
      <trkpt lat="46.86426" lon="4.57972">
        <ele>326.02</ele>
        <time>2010-04-25T10:23:17Z</time>
      </trkpt>
      <trkpt lat="46.86452" lon="4.57968">
        <ele>324.1</ele>
        <time>2010-04-25T10:23:21Z</time>
      </trkpt>
      <trkpt lat="46.86456" lon="4.57969">
        <ele>323.62</ele>
        <time>2010-04-25T10:23:22Z</time>
      </trkpt>
      <trkpt lat="46.8646" lon="4.57972">
        <ele>323.62</ele>
        <time>2010-04-25T10:23:23Z</time>
      </trkpt>
      <trkpt lat="46.86463" lon="4.57977">
        <ele>323.14</ele>
        <time>2010-04-25T10:23:24Z</time>
      </trkpt>
      <trkpt lat="46.86465" lon="4.57983">
        <ele>323.62</ele>
        <time>2010-04-25T10:23:25Z</time>
      </trkpt>
      <trkpt lat="46.86467" lon="4.57989">
        <ele>323.62</ele>
        <time>2010-04-25T10:23:26Z</time>
      </trkpt>
      <trkpt lat="46.86469" lon="4.57996">
        <ele>323.14</ele>
        <time>2010-04-25T10:23:27Z</time>
      </trkpt>
      <trkpt lat="46.86481" lon="4.5803">
        <ele>322.18</ele>
        <time>2010-04-25T10:23:32Z</time>
      </trkpt>
      <trkpt lat="46.86483" lon="4.58037">
        <ele>322.66</ele>
        <time>2010-04-25T10:23:33Z</time>
      </trkpt>
      <trkpt lat="46.86486" lon="4.58043">
        <ele>322.66</ele>
        <time>2010-04-25T10:23:34Z</time>
      </trkpt>
      <trkpt lat="46.86492" lon="4.58053">
        <ele>321.22</ele>
        <time>2010-04-25T10:23:36Z</time>
      </trkpt>
      <trkpt lat="46.86494" lon="4.58058">
        <ele>321.7</ele>
        <time>2010-04-25T10:23:37Z</time>
      </trkpt>
      <trkpt lat="46.86495" lon="4.58062">
        <ele>321.7</ele>
        <time>2010-04-25T10:23:38Z</time>
      </trkpt>
      <trkpt lat="46.86495" lon="4.58065">
        <ele>321.7</ele>
        <time>2010-04-25T10:23:39Z</time>
      </trkpt>
      <trkpt lat="46.86494" lon="4.58068">
        <ele>321.7</ele>
        <time>2010-04-25T10:23:40Z</time>
      </trkpt>
      <trkpt lat="46.86492" lon="4.5807">
        <ele>321.7</ele>
        <time>2010-04-25T10:23:41Z</time>
      </trkpt>
      <trkpt lat="46.8649" lon="4.58072">
        <ele>321.7</ele>
        <time>2010-04-25T10:23:42Z</time>
      </trkpt>
      <trkpt lat="46.86488" lon="4.58074">
        <ele>322.18</ele>
        <time>2010-04-25T10:23:43Z</time>
      </trkpt>
      <trkpt lat="46.86486" lon="4.58076">
        <ele>322.18</ele>
        <time>2010-04-25T10:23:44Z</time>
      </trkpt>
      <trkpt lat="46.86484" lon="4.58078">
        <ele>321.7</ele>
        <time>2010-04-25T10:23:45Z</time>
      </trkpt>
      <trkpt lat="46.86483" lon="4.58081">
        <ele>322.18</ele>
        <time>2010-04-25T10:23:46Z</time>
      </trkpt>
      <trkpt lat="46.86482" lon="4.58084">
        <ele>322.18</ele>
        <time>2010-04-25T10:23:47Z</time>
      </trkpt>
      <trkpt lat="46.86479" lon="4.58095">
        <ele>322.18</ele>
        <time>2010-04-25T10:23:51Z</time>
      </trkpt>
      <trkpt lat="46.8648" lon="4.58097">
        <ele>322.18</ele>
        <time>2010-04-25T10:23:52Z</time>
      </trkpt>
      <trkpt lat="46.86481" lon="4.58099">
        <ele>322.18</ele>
        <time>2010-04-25T10:23:53Z</time>
      </trkpt>
      <trkpt lat="46.86483" lon="4.58101">
        <ele>322.18</ele>
        <time>2010-04-25T10:23:54Z</time>
      </trkpt>
      <trkpt lat="46.86484" lon="4.58102">
        <ele>322.18</ele>
        <time>2010-04-25T10:23:55Z</time>
      </trkpt>
      <trkpt lat="46.86487" lon="4.58115">
        <ele>321.7</ele>
        <time>2010-04-25T10:24:00Z</time>
      </trkpt>
      <trkpt lat="46.86483" lon="4.58122">
        <ele>322.18</ele>
        <time>2010-04-25T10:24:05Z</time>
      </trkpt>
      <trkpt lat="46.86483" lon="4.58124">
        <ele>322.18</ele>
        <time>2010-04-25T10:24:06Z</time>
      </trkpt>
      <trkpt lat="46.86482" lon="4.58125">
        <ele>321.7</ele>
        <time>2010-04-25T10:24:07Z</time>
      </trkpt>
      <trkpt lat="46.86481" lon="4.58126">
        <ele>322.18</ele>
        <time>2010-04-25T10:24:08Z</time>
      </trkpt>
      <trkpt lat="46.8648" lon="4.58128">
        <ele>321.7</ele>
        <time>2010-04-25T10:24:09Z</time>
      </trkpt>
      <trkpt lat="46.86479" lon="4.5813">
        <ele>320.74</ele>
        <time>2010-04-25T10:24:15Z</time>
      </trkpt>
      <trkpt lat="46.86479" lon="4.58132">
        <ele>322.66</ele>
        <time>2010-04-25T10:24:41Z</time>
      </trkpt>
      <trkpt lat="46.86479" lon="4.58134">
        <ele>322.18</ele>
        <time>2010-04-25T10:24:47Z</time>
      </trkpt>
      <trkpt lat="46.86479" lon="4.5813">
        <ele>322.18</ele>
        <time>2010-04-25T10:24:56Z</time>
      </trkpt>
      <trkpt lat="46.8648" lon="4.58129">
        <ele>321.22</ele>
        <time>2010-04-25T10:25:04Z</time>
      </trkpt>
      <trkpt lat="46.8648" lon="4.58129">
        <ele>318.81</ele>
        <time>2010-04-25T10:25:10Z</time>
      </trkpt>
      <trkpt lat="46.8648" lon="4.58129">
        <ele>322.18</ele>
        <time>2010-04-25T10:25:28Z</time>
      </trkpt>
    </trkseg>
  </trk>
</gpx>